<?xml version="1.0" encoding="UTF-8" standalone="no" ?>
<gpx xmlns="http://www.topografix.com/GPX/1/1" xmlns:xsi="http://www.w3.org/2001/XMLSchema-instance" xsi:schemaLocation="http://www.topografix.com/GPX/1/1 http://www.topografix.com/GPX/1/1/gpx.xsd" version="1.1" creator="VisuGPX - https://www.visugpx.com">
  <metadata>
    <name>De Foncine-le-Haut à Métabief 8 mai 2013</name>
    <desc><![CDATA[Départ Foncine-le-Haut chez Valentin suivre la GTJ light par Chaux-Neuve et Mouthe, Puis Métabief, montée par la route jusqu'au Morond 1410m, Mont d'or 1410m , et retour par la forêt vers les sources du Doubs, et route jusqu'à Foncine-le-Haut]]></desc>
  </metadata>
  <trk>
    <name><![CDATA[Auto 08-MAI-13 12:23:22]]></name>
    <trkseg>
      <trkpt lat="46.64843" lon="6.07443">
        <ele>958.57</ele>
        <time>2013-05-08T10:23:22Z</time>
      </trkpt>
      <trkpt lat="46.64842" lon="6.07444">
        <ele>958.57</ele>
        <time>2013-05-08T10:23:23Z</time>
      </trkpt>
      <trkpt lat="46.64845" lon="6.07436">
        <ele>958.57</ele>
        <time>2013-05-08T10:23:49Z</time>
      </trkpt>
      <trkpt lat="46.64852" lon="6.07431">
        <ele>958.57</ele>
        <time>2013-05-08T10:24:19Z</time>
      </trkpt>
      <trkpt lat="46.6485" lon="6.07446">
        <ele>961.94</ele>
        <time>2013-05-08T10:24:36Z</time>
      </trkpt>
      <trkpt lat="46.64855" lon="6.0745">
        <ele>963.38</ele>
        <time>2013-05-08T10:25:03Z</time>
      </trkpt>
      <trkpt lat="46.64855" lon="6.07449">
        <ele>961.46</ele>
        <time>2013-05-08T10:25:27Z</time>
      </trkpt>
      <trkpt lat="46.64834" lon="6.07417">
        <ele>962.9</ele>
        <time>2013-05-08T10:29:29Z</time>
      </trkpt>
      <trkpt lat="46.6484" lon="6.0742">
        <ele>963.38</ele>
        <time>2013-05-08T10:29:30Z</time>
      </trkpt>
      <trkpt lat="46.64841" lon="6.07433">
        <ele>962.42</ele>
        <time>2013-05-08T10:29:58Z</time>
      </trkpt>
      <trkpt lat="46.64844" lon="6.07439">
        <ele>965.78</ele>
        <time>2013-05-08T10:30:23Z</time>
      </trkpt>
      <trkpt lat="46.64844" lon="6.07439">
        <ele>969.15</ele>
        <time>2013-05-08T10:30:27Z</time>
      </trkpt>
      <trkpt lat="46.64844" lon="6.07439">
        <ele>972.03</ele>
        <time>2013-05-08T10:30:31Z</time>
      </trkpt>
      <trkpt lat="46.64844" lon="6.07439">
        <ele>973.95</ele>
        <time>2013-05-08T10:30:33Z</time>
      </trkpt>
      <trkpt lat="46.64844" lon="6.0744">
        <ele>976.36</ele>
        <time>2013-05-08T10:30:36Z</time>
      </trkpt>
      <trkpt lat="46.64844" lon="6.0744">
        <ele>979.72</ele>
        <time>2013-05-08T10:30:43Z</time>
      </trkpt>
      <trkpt lat="46.64844" lon="6.0744">
        <ele>983.09</ele>
        <time>2013-05-08T10:30:49Z</time>
      </trkpt>
      <trkpt lat="46.64844" lon="6.07439">
        <ele>986.45</ele>
        <time>2013-05-08T10:30:57Z</time>
      </trkpt>
      <trkpt lat="46.64843" lon="6.07441">
        <ele>989.81</ele>
        <time>2013-05-08T10:31:08Z</time>
      </trkpt>
      <trkpt lat="46.64844" lon="6.07442">
        <ele>992.22</ele>
        <time>2013-05-08T10:31:33Z</time>
      </trkpt>
      <trkpt lat="46.64844" lon="6.07441">
        <ele>992.22</ele>
        <time>2013-05-08T10:32:06Z</time>
      </trkpt>
      <trkpt lat="46.64844" lon="6.07441">
        <ele>992.7</ele>
        <time>2013-05-08T10:32:28Z</time>
      </trkpt>
      <trkpt lat="46.64844" lon="6.07441">
        <ele>991.26</ele>
        <time>2013-05-08T10:32:44Z</time>
      </trkpt>
      <trkpt lat="46.64851" lon="6.07446">
        <ele>991.74</ele>
        <time>2013-05-08T11:05:14Z</time>
      </trkpt>
      <trkpt lat="46.64852" lon="6.07445">
        <ele>991.26</ele>
        <time>2013-05-08T11:05:15Z</time>
      </trkpt>
      <trkpt lat="46.64853" lon="6.07443">
        <ele>988.85</ele>
        <time>2013-05-08T11:05:46Z</time>
      </trkpt>
      <trkpt lat="46.64852" lon="6.07441">
        <ele>988.85</ele>
        <time>2013-05-08T11:06:19Z</time>
      </trkpt>
      <trkpt lat="46.64853" lon="6.07443">
        <ele>988.85</ele>
        <time>2013-05-08T11:06:58Z</time>
      </trkpt>
      <trkpt lat="46.64853" lon="6.07443">
        <ele>989.33</ele>
        <time>2013-05-08T11:07:36Z</time>
      </trkpt>
      <trkpt lat="46.64853" lon="6.07443">
        <ele>989.33</ele>
        <time>2013-05-08T11:08:06Z</time>
      </trkpt>
      <trkpt lat="46.64853" lon="6.07443">
        <ele>989.81</ele>
        <time>2013-05-08T11:08:44Z</time>
      </trkpt>
      <trkpt lat="46.64853" lon="6.07442">
        <ele>989.81</ele>
        <time>2013-05-08T11:09:20Z</time>
      </trkpt>
      <trkpt lat="46.64853" lon="6.07443">
        <ele>989.33</ele>
        <time>2013-05-08T11:09:58Z</time>
      </trkpt>
      <trkpt lat="46.64853" lon="6.07442">
        <ele>989.81</ele>
        <time>2013-05-08T11:10:22Z</time>
      </trkpt>
      <trkpt lat="46.64853" lon="6.07442">
        <ele>989.81</ele>
        <time>2013-05-08T11:10:55Z</time>
      </trkpt>
      <trkpt lat="46.64854" lon="6.07443">
        <ele>989.81</ele>
        <time>2013-05-08T11:11:10Z</time>
      </trkpt>
      <trkpt lat="46.64857" lon="6.07444">
        <ele>989.81</ele>
        <time>2013-05-08T11:11:22Z</time>
      </trkpt>
      <trkpt lat="46.64861" lon="6.07453">
        <ele>989.81</ele>
        <time>2013-05-08T11:11:26Z</time>
      </trkpt>
      <trkpt lat="46.64871" lon="6.07498">
        <ele>989.33</ele>
        <time>2013-05-08T11:11:37Z</time>
      </trkpt>
      <trkpt lat="46.64852" lon="6.07525">
        <ele>991.26</ele>
        <time>2013-05-08T11:11:45Z</time>
      </trkpt>
      <trkpt lat="46.64832" lon="6.07491">
        <ele>992.22</ele>
        <time>2013-05-08T11:11:55Z</time>
      </trkpt>
      <trkpt lat="46.64807" lon="6.07444">
        <ele>994.62</ele>
        <time>2013-05-08T11:12:10Z</time>
      </trkpt>
      <trkpt lat="46.64781" lon="6.07462">
        <ele>996.06</ele>
        <time>2013-05-08T11:12:22Z</time>
      </trkpt>
      <trkpt lat="46.64762" lon="6.07484">
        <ele>997.02</ele>
        <time>2013-05-08T11:12:32Z</time>
      </trkpt>
      <trkpt lat="46.64757" lon="6.07489">
        <ele>997.51</ele>
        <time>2013-05-08T11:12:35Z</time>
      </trkpt>
      <trkpt lat="46.64749" lon="6.07499">
        <ele>997.99</ele>
        <time>2013-05-08T11:12:40Z</time>
      </trkpt>
      <trkpt lat="46.64727" lon="6.07524">
        <ele>1000.39</ele>
        <time>2013-05-08T11:12:55Z</time>
      </trkpt>
      <trkpt lat="46.64711" lon="6.07544">
        <ele>1001.83</ele>
        <time>2013-05-08T11:13:05Z</time>
      </trkpt>
      <trkpt lat="46.64695" lon="6.07563">
        <ele>1003.27</ele>
        <time>2013-05-08T11:13:15Z</time>
      </trkpt>
      <trkpt lat="46.64667" lon="6.07605">
        <ele>1006.16</ele>
        <time>2013-05-08T11:13:31Z</time>
      </trkpt>
      <trkpt lat="46.64662" lon="6.07657">
        <ele>1008.08</ele>
        <time>2013-05-08T11:13:46Z</time>
      </trkpt>
      <trkpt lat="46.6468" lon="6.07714">
        <ele>1010.48</ele>
        <time>2013-05-08T11:14:02Z</time>
      </trkpt>
      <trkpt lat="46.64703" lon="6.07779">
        <ele>1012.89</ele>
        <time>2013-05-08T11:14:20Z</time>
      </trkpt>
      <trkpt lat="46.64721" lon="6.07846">
        <ele>1012.41</ele>
        <time>2013-05-08T11:14:36Z</time>
      </trkpt>
      <trkpt lat="46.64701" lon="6.07884">
        <ele>1011.93</ele>
        <time>2013-05-08T11:14:45Z</time>
      </trkpt>
      <trkpt lat="46.64698" lon="6.07888">
        <ele>1011.93</ele>
        <time>2013-05-08T11:14:46Z</time>
      </trkpt>
      <trkpt lat="46.64694" lon="6.07892">
        <ele>1011.44</ele>
        <time>2013-05-08T11:14:47Z</time>
      </trkpt>
      <trkpt lat="46.64671" lon="6.07924">
        <ele>1010.96</ele>
        <time>2013-05-08T11:14:54Z</time>
      </trkpt>
      <trkpt lat="46.64667" lon="6.07928">
        <ele>1010.96</ele>
        <time>2013-05-08T11:14:55Z</time>
      </trkpt>
      <trkpt lat="46.64661" lon="6.07936">
        <ele>1010.96</ele>
        <time>2013-05-08T11:14:57Z</time>
      </trkpt>
      <trkpt lat="46.64659" lon="6.07941">
        <ele>1010.96</ele>
        <time>2013-05-08T11:14:58Z</time>
      </trkpt>
      <trkpt lat="46.64651" lon="6.07956">
        <ele>1010.96</ele>
        <time>2013-05-08T11:15:01Z</time>
      </trkpt>
      <trkpt lat="46.64648" lon="6.0796">
        <ele>1011.44</ele>
        <time>2013-05-08T11:15:02Z</time>
      </trkpt>
      <trkpt lat="46.64645" lon="6.07964">
        <ele>1011.44</ele>
        <time>2013-05-08T11:15:03Z</time>
      </trkpt>
      <trkpt lat="46.64614" lon="6.08032">
        <ele>1012.89</ele>
        <time>2013-05-08T11:15:19Z</time>
      </trkpt>
      <trkpt lat="46.64592" lon="6.08082">
        <ele>1014.81</ele>
        <time>2013-05-08T11:15:33Z</time>
      </trkpt>
      <trkpt lat="46.64571" lon="6.08133">
        <ele>1016.25</ele>
        <time>2013-05-08T11:15:48Z</time>
      </trkpt>
      <trkpt lat="46.64548" lon="6.0817">
        <ele>1017.69</ele>
        <time>2013-05-08T11:16:02Z</time>
      </trkpt>
      <trkpt lat="46.64538" lon="6.08186">
        <ele>1019.62</ele>
        <time>2013-05-08T11:16:14Z</time>
      </trkpt>
      <trkpt lat="46.64539" lon="6.08189">
        <ele>1020.1</ele>
        <time>2013-05-08T11:16:20Z</time>
      </trkpt>
      <trkpt lat="46.64542" lon="6.08199">
        <ele>1021.06</ele>
        <time>2013-05-08T11:16:30Z</time>
      </trkpt>
      <trkpt lat="46.64545" lon="6.08202">
        <ele>1020.58</ele>
        <time>2013-05-08T11:16:32Z</time>
      </trkpt>
      <trkpt lat="46.64545" lon="6.08204">
        <ele>1021.06</ele>
        <time>2013-05-08T11:16:33Z</time>
      </trkpt>
      <trkpt lat="46.64546" lon="6.08205">
        <ele>1021.54</ele>
        <time>2013-05-08T11:16:34Z</time>
      </trkpt>
      <trkpt lat="46.64546" lon="6.08206">
        <ele>1021.54</ele>
        <time>2013-05-08T11:16:35Z</time>
      </trkpt>
      <trkpt lat="46.64547" lon="6.08208">
        <ele>1021.54</ele>
        <time>2013-05-08T11:16:36Z</time>
      </trkpt>
      <trkpt lat="46.64548" lon="6.0821">
        <ele>1022.02</ele>
        <time>2013-05-08T11:16:37Z</time>
      </trkpt>
      <trkpt lat="46.64549" lon="6.08211">
        <ele>1022.02</ele>
        <time>2013-05-08T11:16:38Z</time>
      </trkpt>
      <trkpt lat="46.6455" lon="6.08212">
        <ele>1022.5</ele>
        <time>2013-05-08T11:16:39Z</time>
      </trkpt>
      <trkpt lat="46.64551" lon="6.08214">
        <ele>1022.5</ele>
        <time>2013-05-08T11:16:40Z</time>
      </trkpt>
      <trkpt lat="46.64553" lon="6.08216">
        <ele>1022.98</ele>
        <time>2013-05-08T11:16:41Z</time>
      </trkpt>
      <trkpt lat="46.64572" lon="6.08247">
        <ele>1023.94</ele>
        <time>2013-05-08T11:16:55Z</time>
      </trkpt>
      <trkpt lat="46.64588" lon="6.08274">
        <ele>1026.34</ele>
        <time>2013-05-08T11:17:09Z</time>
      </trkpt>
      <trkpt lat="46.64591" lon="6.08277">
        <ele>1026.83</ele>
        <time>2013-05-08T11:17:12Z</time>
      </trkpt>
      <trkpt lat="46.64593" lon="6.08277">
        <ele>1027.31</ele>
        <time>2013-05-08T11:17:13Z</time>
      </trkpt>
      <trkpt lat="46.64594" lon="6.08277">
        <ele>1027.31</ele>
        <time>2013-05-08T11:17:14Z</time>
      </trkpt>
      <trkpt lat="46.64596" lon="6.08278">
        <ele>1026.83</ele>
        <time>2013-05-08T11:17:15Z</time>
      </trkpt>
      <trkpt lat="46.64598" lon="6.08281">
        <ele>1026.83</ele>
        <time>2013-05-08T11:17:16Z</time>
      </trkpt>
      <trkpt lat="46.646" lon="6.08283">
        <ele>1026.34</ele>
        <time>2013-05-08T11:17:17Z</time>
      </trkpt>
      <trkpt lat="46.64603" lon="6.08286">
        <ele>1025.86</ele>
        <time>2013-05-08T11:17:18Z</time>
      </trkpt>
      <trkpt lat="46.64637" lon="6.08318">
        <ele>1026.34</ele>
        <time>2013-05-08T11:17:31Z</time>
      </trkpt>
      <trkpt lat="46.64666" lon="6.08351">
        <ele>1025.86</ele>
        <time>2013-05-08T11:17:43Z</time>
      </trkpt>
      <trkpt lat="46.64685" lon="6.08382">
        <ele>1024.9</ele>
        <time>2013-05-08T11:17:50Z</time>
      </trkpt>
      <trkpt lat="46.64717" lon="6.08421">
        <ele>1024.42</ele>
        <time>2013-05-08T11:18:01Z</time>
      </trkpt>
      <trkpt lat="46.64746" lon="6.08442">
        <ele>1021.54</ele>
        <time>2013-05-08T11:18:08Z</time>
      </trkpt>
      <trkpt lat="46.64775" lon="6.08474">
        <ele>1018.65</ele>
        <time>2013-05-08T11:18:15Z</time>
      </trkpt>
      <trkpt lat="46.64779" lon="6.08479">
        <ele>1018.65</ele>
        <time>2013-05-08T11:18:16Z</time>
      </trkpt>
      <trkpt lat="46.64783" lon="6.08484">
        <ele>1018.17</ele>
        <time>2013-05-08T11:18:17Z</time>
      </trkpt>
      <trkpt lat="46.64787" lon="6.0849">
        <ele>1017.69</ele>
        <time>2013-05-08T11:18:18Z</time>
      </trkpt>
      <trkpt lat="46.64791" lon="6.08494">
        <ele>1017.69</ele>
        <time>2013-05-08T11:18:19Z</time>
      </trkpt>
      <trkpt lat="46.64794" lon="6.08499">
        <ele>1017.69</ele>
        <time>2013-05-08T11:18:20Z</time>
      </trkpt>
      <trkpt lat="46.64798" lon="6.08504">
        <ele>1017.21</ele>
        <time>2013-05-08T11:18:21Z</time>
      </trkpt>
      <trkpt lat="46.64807" lon="6.08519">
        <ele>1016.73</ele>
        <time>2013-05-08T11:18:24Z</time>
      </trkpt>
      <trkpt lat="46.64811" lon="6.08523">
        <ele>1016.25</ele>
        <time>2013-05-08T11:18:25Z</time>
      </trkpt>
      <trkpt lat="46.64815" lon="6.08528">
        <ele>1016.25</ele>
        <time>2013-05-08T11:18:26Z</time>
      </trkpt>
      <trkpt lat="46.64821" lon="6.08532">
        <ele>1016.25</ele>
        <time>2013-05-08T11:18:27Z</time>
      </trkpt>
      <trkpt lat="46.64826" lon="6.08535">
        <ele>1015.29</ele>
        <time>2013-05-08T11:18:28Z</time>
      </trkpt>
      <trkpt lat="46.6483" lon="6.08537">
        <ele>1014.81</ele>
        <time>2013-05-08T11:18:29Z</time>
      </trkpt>
      <trkpt lat="46.64835" lon="6.08539">
        <ele>1014.81</ele>
        <time>2013-05-08T11:18:30Z</time>
      </trkpt>
      <trkpt lat="46.64842" lon="6.08544">
        <ele>1014.33</ele>
        <time>2013-05-08T11:18:32Z</time>
      </trkpt>
      <trkpt lat="46.64846" lon="6.08547">
        <ele>1014.33</ele>
        <time>2013-05-08T11:18:33Z</time>
      </trkpt>
      <trkpt lat="46.6485" lon="6.08549">
        <ele>1014.33</ele>
        <time>2013-05-08T11:18:34Z</time>
      </trkpt>
      <trkpt lat="46.64854" lon="6.08551">
        <ele>1013.85</ele>
        <time>2013-05-08T11:18:35Z</time>
      </trkpt>
      <trkpt lat="46.64859" lon="6.08553">
        <ele>1013.37</ele>
        <time>2013-05-08T11:18:36Z</time>
      </trkpt>
      <trkpt lat="46.64863" lon="6.08556">
        <ele>1012.41</ele>
        <time>2013-05-08T11:18:37Z</time>
      </trkpt>
      <trkpt lat="46.64871" lon="6.08561">
        <ele>1011.44</ele>
        <time>2013-05-08T11:18:39Z</time>
      </trkpt>
      <trkpt lat="46.64891" lon="6.08568">
        <ele>1010.96</ele>
        <time>2013-05-08T11:18:46Z</time>
      </trkpt>
      <trkpt lat="46.64893" lon="6.08567">
        <ele>1010.96</ele>
        <time>2013-05-08T11:18:47Z</time>
      </trkpt>
      <trkpt lat="46.64895" lon="6.08564">
        <ele>1010.96</ele>
        <time>2013-05-08T11:19:00Z</time>
      </trkpt>
      <trkpt lat="46.64882" lon="6.08552">
        <ele>1010</ele>
        <time>2013-05-08T11:19:10Z</time>
      </trkpt>
      <trkpt lat="46.64879" lon="6.08549">
        <ele>1010</ele>
        <time>2013-05-08T11:19:12Z</time>
      </trkpt>
      <trkpt lat="46.64873" lon="6.08539">
        <ele>1009.04</ele>
        <time>2013-05-08T11:19:16Z</time>
      </trkpt>
      <trkpt lat="46.64865" lon="6.08534">
        <ele>1009.52</ele>
        <time>2013-05-08T11:19:27Z</time>
      </trkpt>
      <trkpt lat="46.64865" lon="6.08534">
        <ele>1009.52</ele>
        <time>2013-05-08T11:19:33Z</time>
      </trkpt>
      <trkpt lat="46.64875" lon="6.08533">
        <ele>1009.04</ele>
        <time>2013-05-08T11:19:39Z</time>
      </trkpt>
      <trkpt lat="46.64904" lon="6.08561">
        <ele>1010.96</ele>
        <time>2013-05-08T11:19:53Z</time>
      </trkpt>
      <trkpt lat="46.64918" lon="6.08566">
        <ele>1010.48</ele>
        <time>2013-05-08T11:19:59Z</time>
      </trkpt>
      <trkpt lat="46.64922" lon="6.0856">
        <ele>1010.48</ele>
        <time>2013-05-08T11:20:03Z</time>
      </trkpt>
      <trkpt lat="46.64915" lon="6.08533">
        <ele>1009.52</ele>
        <time>2013-05-08T11:20:11Z</time>
      </trkpt>
      <trkpt lat="46.64917" lon="6.08527">
        <ele>1009.52</ele>
        <time>2013-05-08T11:20:13Z</time>
      </trkpt>
      <trkpt lat="46.64938" lon="6.08511">
        <ele>1010.48</ele>
        <time>2013-05-08T11:20:24Z</time>
      </trkpt>
      <trkpt lat="46.64947" lon="6.08505">
        <ele>1012.41</ele>
        <time>2013-05-08T11:20:29Z</time>
      </trkpt>
      <trkpt lat="46.64963" lon="6.08505">
        <ele>1014.81</ele>
        <time>2013-05-08T11:20:40Z</time>
      </trkpt>
      <trkpt lat="46.64965" lon="6.08505">
        <ele>1014.81</ele>
        <time>2013-05-08T11:20:41Z</time>
      </trkpt>
      <trkpt lat="46.64978" lon="6.08538">
        <ele>1016.73</ele>
        <time>2013-05-08T11:20:54Z</time>
      </trkpt>
      <trkpt lat="46.64978" lon="6.08541">
        <ele>1016.73</ele>
        <time>2013-05-08T11:20:55Z</time>
      </trkpt>
      <trkpt lat="46.64981" lon="6.08561">
        <ele>1016.25</ele>
        <time>2013-05-08T11:21:01Z</time>
      </trkpt>
      <trkpt lat="46.64993" lon="6.08597">
        <ele>1017.69</ele>
        <time>2013-05-08T11:21:13Z</time>
      </trkpt>
      <trkpt lat="46.65009" lon="6.08642">
        <ele>1018.17</ele>
        <time>2013-05-08T11:21:26Z</time>
      </trkpt>
      <trkpt lat="46.65026" lon="6.08679">
        <ele>1017.69</ele>
        <time>2013-05-08T11:21:36Z</time>
      </trkpt>
      <trkpt lat="46.65031" lon="6.08713">
        <ele>1017.21</ele>
        <time>2013-05-08T11:21:47Z</time>
      </trkpt>
      <trkpt lat="46.65034" lon="6.08718">
        <ele>1016.73</ele>
        <time>2013-05-08T11:21:58Z</time>
      </trkpt>
      <trkpt lat="46.65034" lon="6.08718">
        <ele>1016.73</ele>
        <time>2013-05-08T11:22:32Z</time>
      </trkpt>
      <trkpt lat="46.65035" lon="6.0872">
        <ele>1016.25</ele>
        <time>2013-05-08T11:23:03Z</time>
      </trkpt>
      <trkpt lat="46.6504" lon="6.08726">
        <ele>1015.29</ele>
        <time>2013-05-08T11:23:06Z</time>
      </trkpt>
      <trkpt lat="46.65044" lon="6.08726">
        <ele>1014.81</ele>
        <time>2013-05-08T11:23:07Z</time>
      </trkpt>
      <trkpt lat="46.65047" lon="6.08725">
        <ele>1014.81</ele>
        <time>2013-05-08T11:23:08Z</time>
      </trkpt>
      <trkpt lat="46.65051" lon="6.08723">
        <ele>1014.33</ele>
        <time>2013-05-08T11:23:09Z</time>
      </trkpt>
      <trkpt lat="46.65054" lon="6.0872">
        <ele>1013.37</ele>
        <time>2013-05-08T11:23:10Z</time>
      </trkpt>
      <trkpt lat="46.65058" lon="6.08715">
        <ele>1012.89</ele>
        <time>2013-05-08T11:23:11Z</time>
      </trkpt>
      <trkpt lat="46.65061" lon="6.08709">
        <ele>1012.41</ele>
        <time>2013-05-08T11:23:12Z</time>
      </trkpt>
      <trkpt lat="46.65063" lon="6.08703">
        <ele>1011.44</ele>
        <time>2013-05-08T11:23:13Z</time>
      </trkpt>
      <trkpt lat="46.65064" lon="6.08695">
        <ele>1010.96</ele>
        <time>2013-05-08T11:23:14Z</time>
      </trkpt>
      <trkpt lat="46.65065" lon="6.08689">
        <ele>1010.96</ele>
        <time>2013-05-08T11:23:15Z</time>
      </trkpt>
      <trkpt lat="46.65064" lon="6.08682">
        <ele>1010.96</ele>
        <time>2013-05-08T11:23:16Z</time>
      </trkpt>
      <trkpt lat="46.65063" lon="6.08675">
        <ele>1010.96</ele>
        <time>2013-05-08T11:23:17Z</time>
      </trkpt>
      <trkpt lat="46.65061" lon="6.08669">
        <ele>1010.96</ele>
        <time>2013-05-08T11:23:18Z</time>
      </trkpt>
      <trkpt lat="46.65058" lon="6.08641">
        <ele>1010.48</ele>
        <time>2013-05-08T11:23:23Z</time>
      </trkpt>
      <trkpt lat="46.6506" lon="6.08634">
        <ele>1010</ele>
        <time>2013-05-08T11:23:24Z</time>
      </trkpt>
      <trkpt lat="46.65063" lon="6.08628">
        <ele>1009.04</ele>
        <time>2013-05-08T11:23:25Z</time>
      </trkpt>
      <trkpt lat="46.65068" lon="6.08622">
        <ele>1008.56</ele>
        <time>2013-05-08T11:23:26Z</time>
      </trkpt>
      <trkpt lat="46.65073" lon="6.08617">
        <ele>1008.56</ele>
        <time>2013-05-08T11:23:27Z</time>
      </trkpt>
      <trkpt lat="46.65077" lon="6.08613">
        <ele>1008.56</ele>
        <time>2013-05-08T11:23:28Z</time>
      </trkpt>
      <trkpt lat="46.65086" lon="6.08605">
        <ele>1008.08</ele>
        <time>2013-05-08T11:23:30Z</time>
      </trkpt>
      <trkpt lat="46.65091" lon="6.08602">
        <ele>1008.56</ele>
        <time>2013-05-08T11:23:31Z</time>
      </trkpt>
      <trkpt lat="46.65104" lon="6.08589">
        <ele>1005.2</ele>
        <time>2013-05-08T11:23:35Z</time>
      </trkpt>
      <trkpt lat="46.65107" lon="6.08587">
        <ele>1008.56</ele>
        <time>2013-05-08T11:23:36Z</time>
      </trkpt>
      <trkpt lat="46.65113" lon="6.08582">
        <ele>1009.52</ele>
        <time>2013-05-08T11:23:38Z</time>
      </trkpt>
      <trkpt lat="46.65133" lon="6.08558">
        <ele>1011.93</ele>
        <time>2013-05-08T11:23:48Z</time>
      </trkpt>
      <trkpt lat="46.65152" lon="6.08532">
        <ele>1015.29</ele>
        <time>2013-05-08T11:23:58Z</time>
      </trkpt>
      <trkpt lat="46.65175" lon="6.08499">
        <ele>1016.25</ele>
        <time>2013-05-08T11:24:13Z</time>
      </trkpt>
      <trkpt lat="46.65201" lon="6.08457">
        <ele>1012.41</ele>
        <time>2013-05-08T11:24:24Z</time>
      </trkpt>
      <trkpt lat="46.65205" lon="6.08452">
        <ele>1012.41</ele>
        <time>2013-05-08T11:24:25Z</time>
      </trkpt>
      <trkpt lat="46.65209" lon="6.08449">
        <ele>1011.44</ele>
        <time>2013-05-08T11:24:26Z</time>
      </trkpt>
      <trkpt lat="46.65214" lon="6.08448">
        <ele>1010.96</ele>
        <time>2013-05-08T11:24:27Z</time>
      </trkpt>
      <trkpt lat="46.6522" lon="6.0845">
        <ele>1010.96</ele>
        <time>2013-05-08T11:24:29Z</time>
      </trkpt>
      <trkpt lat="46.6523" lon="6.08464">
        <ele>1010.48</ele>
        <time>2013-05-08T11:24:30Z</time>
      </trkpt>
      <trkpt lat="46.65234" lon="6.08473">
        <ele>1009.04</ele>
        <time>2013-05-08T11:24:31Z</time>
      </trkpt>
      <trkpt lat="46.65236" lon="6.08484">
        <ele>1008.08</ele>
        <time>2013-05-08T11:24:32Z</time>
      </trkpt>
      <trkpt lat="46.65239" lon="6.08495">
        <ele>1007.6</ele>
        <time>2013-05-08T11:24:33Z</time>
      </trkpt>
      <trkpt lat="46.65245" lon="6.08526">
        <ele>1005.68</ele>
        <time>2013-05-08T11:24:36Z</time>
      </trkpt>
      <trkpt lat="46.65261" lon="6.08583">
        <ele>1004.23</ele>
        <time>2013-05-08T11:24:42Z</time>
      </trkpt>
      <trkpt lat="46.65265" lon="6.08591">
        <ele>1004.23</ele>
        <time>2013-05-08T11:24:43Z</time>
      </trkpt>
      <trkpt lat="46.6527" lon="6.08598">
        <ele>1004.23</ele>
        <time>2013-05-08T11:24:44Z</time>
      </trkpt>
      <trkpt lat="46.65275" lon="6.08604">
        <ele>1003.75</ele>
        <time>2013-05-08T11:24:45Z</time>
      </trkpt>
      <trkpt lat="46.65281" lon="6.08608">
        <ele>1003.75</ele>
        <time>2013-05-08T11:24:46Z</time>
      </trkpt>
      <trkpt lat="46.65287" lon="6.08612">
        <ele>1003.75</ele>
        <time>2013-05-08T11:24:47Z</time>
      </trkpt>
      <trkpt lat="46.65304" lon="6.08621">
        <ele>1004.72</ele>
        <time>2013-05-08T11:24:50Z</time>
      </trkpt>
      <trkpt lat="46.6531" lon="6.08622">
        <ele>1005.2</ele>
        <time>2013-05-08T11:24:51Z</time>
      </trkpt>
      <trkpt lat="46.65314" lon="6.08622">
        <ele>1005.68</ele>
        <time>2013-05-08T11:24:52Z</time>
      </trkpt>
      <trkpt lat="46.65318" lon="6.08621">
        <ele>1006.16</ele>
        <time>2013-05-08T11:24:53Z</time>
      </trkpt>
      <trkpt lat="46.65322" lon="6.08621">
        <ele>1006.64</ele>
        <time>2013-05-08T11:24:54Z</time>
      </trkpt>
      <trkpt lat="46.65325" lon="6.0862">
        <ele>1007.6</ele>
        <time>2013-05-08T11:24:55Z</time>
      </trkpt>
      <trkpt lat="46.65328" lon="6.08619">
        <ele>1007.6</ele>
        <time>2013-05-08T11:24:56Z</time>
      </trkpt>
      <trkpt lat="46.6533" lon="6.08619">
        <ele>1008.08</ele>
        <time>2013-05-08T11:24:57Z</time>
      </trkpt>
      <trkpt lat="46.65332" lon="6.08619">
        <ele>1008.08</ele>
        <time>2013-05-08T11:24:58Z</time>
      </trkpt>
      <trkpt lat="46.65335" lon="6.08619">
        <ele>1008.56</ele>
        <time>2013-05-08T11:24:59Z</time>
      </trkpt>
      <trkpt lat="46.65337" lon="6.0862">
        <ele>1008.56</ele>
        <time>2013-05-08T11:25:00Z</time>
      </trkpt>
      <trkpt lat="46.65339" lon="6.08621">
        <ele>1008.56</ele>
        <time>2013-05-08T11:25:01Z</time>
      </trkpt>
      <trkpt lat="46.65342" lon="6.08622">
        <ele>1009.04</ele>
        <time>2013-05-08T11:25:02Z</time>
      </trkpt>
      <trkpt lat="46.65344" lon="6.08623">
        <ele>1009.04</ele>
        <time>2013-05-08T11:25:03Z</time>
      </trkpt>
      <trkpt lat="46.65346" lon="6.08624">
        <ele>1009.52</ele>
        <time>2013-05-08T11:25:04Z</time>
      </trkpt>
      <trkpt lat="46.65349" lon="6.08625">
        <ele>1009.52</ele>
        <time>2013-05-08T11:25:05Z</time>
      </trkpt>
      <trkpt lat="46.65351" lon="6.08627">
        <ele>1010</ele>
        <time>2013-05-08T11:25:06Z</time>
      </trkpt>
      <trkpt lat="46.65352" lon="6.0863">
        <ele>1010</ele>
        <time>2013-05-08T11:25:07Z</time>
      </trkpt>
      <trkpt lat="46.65354" lon="6.08632">
        <ele>1010</ele>
        <time>2013-05-08T11:25:08Z</time>
      </trkpt>
      <trkpt lat="46.65372" lon="6.08663">
        <ele>1013.37</ele>
        <time>2013-05-08T11:25:21Z</time>
      </trkpt>
      <trkpt lat="46.65376" lon="6.08675">
        <ele>1013.85</ele>
        <time>2013-05-08T11:25:26Z</time>
      </trkpt>
      <trkpt lat="46.65378" lon="6.08678">
        <ele>1014.33</ele>
        <time>2013-05-08T11:25:27Z</time>
      </trkpt>
      <trkpt lat="46.65379" lon="6.0868">
        <ele>1014.33</ele>
        <time>2013-05-08T11:25:28Z</time>
      </trkpt>
      <trkpt lat="46.65379" lon="6.08683">
        <ele>1014.81</ele>
        <time>2013-05-08T11:25:29Z</time>
      </trkpt>
      <trkpt lat="46.6538" lon="6.08687">
        <ele>1014.81</ele>
        <time>2013-05-08T11:25:30Z</time>
      </trkpt>
      <trkpt lat="46.65393" lon="6.08733">
        <ele>1018.17</ele>
        <time>2013-05-08T11:25:44Z</time>
      </trkpt>
      <trkpt lat="46.65413" lon="6.08772">
        <ele>1019.62</ele>
        <time>2013-05-08T11:25:57Z</time>
      </trkpt>
      <trkpt lat="46.65433" lon="6.08822">
        <ele>1022.02</ele>
        <time>2013-05-08T11:26:11Z</time>
      </trkpt>
      <trkpt lat="46.65437" lon="6.08828">
        <ele>1022.5</ele>
        <time>2013-05-08T11:26:14Z</time>
      </trkpt>
      <trkpt lat="46.65437" lon="6.08828">
        <ele>1022.5</ele>
        <time>2013-05-08T11:26:24Z</time>
      </trkpt>
      <trkpt lat="46.6545" lon="6.08843">
        <ele>1023.46</ele>
        <time>2013-05-08T11:26:41Z</time>
      </trkpt>
      <trkpt lat="46.65461" lon="6.08862">
        <ele>1024.42</ele>
        <time>2013-05-08T11:26:48Z</time>
      </trkpt>
      <trkpt lat="46.65462" lon="6.08865">
        <ele>1024.42</ele>
        <time>2013-05-08T11:26:49Z</time>
      </trkpt>
      <trkpt lat="46.65463" lon="6.08867">
        <ele>1024.42</ele>
        <time>2013-05-08T11:26:50Z</time>
      </trkpt>
      <trkpt lat="46.65464" lon="6.0887">
        <ele>1024.9</ele>
        <time>2013-05-08T11:26:51Z</time>
      </trkpt>
      <trkpt lat="46.65466" lon="6.08873">
        <ele>1024.9</ele>
        <time>2013-05-08T11:26:52Z</time>
      </trkpt>
      <trkpt lat="46.65467" lon="6.08875">
        <ele>1025.38</ele>
        <time>2013-05-08T11:26:53Z</time>
      </trkpt>
      <trkpt lat="46.65469" lon="6.08878">
        <ele>1025.38</ele>
        <time>2013-05-08T11:26:54Z</time>
      </trkpt>
      <trkpt lat="46.65471" lon="6.08882">
        <ele>1025.38</ele>
        <time>2013-05-08T11:26:55Z</time>
      </trkpt>
      <trkpt lat="46.65473" lon="6.08885">
        <ele>1025.38</ele>
        <time>2013-05-08T11:26:56Z</time>
      </trkpt>
      <trkpt lat="46.65485" lon="6.08909">
        <ele>1026.34</ele>
        <time>2013-05-08T11:27:03Z</time>
      </trkpt>
      <trkpt lat="46.65486" lon="6.08913">
        <ele>1026.34</ele>
        <time>2013-05-08T11:27:04Z</time>
      </trkpt>
      <trkpt lat="46.65509" lon="6.08953">
        <ele>1026.83</ele>
        <time>2013-05-08T11:27:14Z</time>
      </trkpt>
      <trkpt lat="46.65526" lon="6.08987">
        <ele>1028.27</ele>
        <time>2013-05-08T11:27:24Z</time>
      </trkpt>
      <trkpt lat="46.65532" lon="6.09003">
        <ele>1028.75</ele>
        <time>2013-05-08T11:27:29Z</time>
      </trkpt>
      <trkpt lat="46.65533" lon="6.09006">
        <ele>1028.75</ele>
        <time>2013-05-08T11:27:30Z</time>
      </trkpt>
      <trkpt lat="46.65535" lon="6.09008">
        <ele>1029.23</ele>
        <time>2013-05-08T11:27:31Z</time>
      </trkpt>
      <trkpt lat="46.65536" lon="6.0901">
        <ele>1029.23</ele>
        <time>2013-05-08T11:27:32Z</time>
      </trkpt>
      <trkpt lat="46.65538" lon="6.09013">
        <ele>1029.23</ele>
        <time>2013-05-08T11:27:33Z</time>
      </trkpt>
      <trkpt lat="46.65556" lon="6.09042">
        <ele>1029.71</ele>
        <time>2013-05-08T11:27:45Z</time>
      </trkpt>
      <trkpt lat="46.65557" lon="6.09045">
        <ele>1029.23</ele>
        <time>2013-05-08T11:27:46Z</time>
      </trkpt>
      <trkpt lat="46.65558" lon="6.09048">
        <ele>1029.23</ele>
        <time>2013-05-08T11:27:47Z</time>
      </trkpt>
      <trkpt lat="46.65584" lon="6.09096">
        <ele>1028.27</ele>
        <time>2013-05-08T11:28:00Z</time>
      </trkpt>
      <trkpt lat="46.65606" lon="6.09135">
        <ele>1028.27</ele>
        <time>2013-05-08T11:28:09Z</time>
      </trkpt>
      <trkpt lat="46.65608" lon="6.0914">
        <ele>1028.27</ele>
        <time>2013-05-08T11:28:10Z</time>
      </trkpt>
      <trkpt lat="46.65622" lon="6.09177">
        <ele>1027.79</ele>
        <time>2013-05-08T11:28:17Z</time>
      </trkpt>
      <trkpt lat="46.65624" lon="6.09182">
        <ele>1027.31</ele>
        <time>2013-05-08T11:28:18Z</time>
      </trkpt>
      <trkpt lat="46.65627" lon="6.09188">
        <ele>1027.31</ele>
        <time>2013-05-08T11:28:19Z</time>
      </trkpt>
      <trkpt lat="46.65629" lon="6.09193">
        <ele>1027.31</ele>
        <time>2013-05-08T11:28:20Z</time>
      </trkpt>
      <trkpt lat="46.65632" lon="6.09199">
        <ele>1027.31</ele>
        <time>2013-05-08T11:28:21Z</time>
      </trkpt>
      <trkpt lat="46.65635" lon="6.09204">
        <ele>1027.79</ele>
        <time>2013-05-08T11:28:22Z</time>
      </trkpt>
      <trkpt lat="46.65637" lon="6.09208">
        <ele>1027.31</ele>
        <time>2013-05-08T11:28:23Z</time>
      </trkpt>
      <trkpt lat="46.6564" lon="6.09212">
        <ele>1027.79</ele>
        <time>2013-05-08T11:28:24Z</time>
      </trkpt>
      <trkpt lat="46.65676" lon="6.09251">
        <ele>1029.71</ele>
        <time>2013-05-08T11:28:37Z</time>
      </trkpt>
      <trkpt lat="46.65701" lon="6.09292">
        <ele>1030.19</ele>
        <time>2013-05-08T11:28:49Z</time>
      </trkpt>
      <trkpt lat="46.65729" lon="6.09336">
        <ele>1029.71</ele>
        <time>2013-05-08T11:29:01Z</time>
      </trkpt>
      <trkpt lat="46.65745" lon="6.09367">
        <ele>1029.23</ele>
        <time>2013-05-08T11:29:08Z</time>
      </trkpt>
      <trkpt lat="46.65746" lon="6.09372">
        <ele>1029.23</ele>
        <time>2013-05-08T11:29:09Z</time>
      </trkpt>
      <trkpt lat="46.65773" lon="6.09424">
        <ele>1029.23</ele>
        <time>2013-05-08T11:29:21Z</time>
      </trkpt>
      <trkpt lat="46.65788" lon="6.09454">
        <ele>1030.67</ele>
        <time>2013-05-08T11:29:31Z</time>
      </trkpt>
      <trkpt lat="46.65799" lon="6.09472">
        <ele>1031.63</ele>
        <time>2013-05-08T11:29:37Z</time>
      </trkpt>
      <trkpt lat="46.65801" lon="6.09476">
        <ele>1032.11</ele>
        <time>2013-05-08T11:29:38Z</time>
      </trkpt>
      <trkpt lat="46.6582" lon="6.09505">
        <ele>1034.04</ele>
        <time>2013-05-08T11:29:48Z</time>
      </trkpt>
      <trkpt lat="46.6583" lon="6.09518">
        <ele>1034.52</ele>
        <time>2013-05-08T11:29:52Z</time>
      </trkpt>
      <trkpt lat="46.65831" lon="6.09522">
        <ele>1034.52</ele>
        <time>2013-05-08T11:29:53Z</time>
      </trkpt>
      <trkpt lat="46.65852" lon="6.09564">
        <ele>1035.96</ele>
        <time>2013-05-08T11:30:04Z</time>
      </trkpt>
      <trkpt lat="46.65868" lon="6.09595">
        <ele>1038.36</ele>
        <time>2013-05-08T11:30:14Z</time>
      </trkpt>
      <trkpt lat="46.65889" lon="6.09622">
        <ele>1038.36</ele>
        <time>2013-05-08T11:30:26Z</time>
      </trkpt>
      <trkpt lat="46.65907" lon="6.09654">
        <ele>1039.32</ele>
        <time>2013-05-08T11:30:38Z</time>
      </trkpt>
      <trkpt lat="46.65934" lon="6.09707">
        <ele>1037.4</ele>
        <time>2013-05-08T11:30:52Z</time>
      </trkpt>
      <trkpt lat="46.65946" lon="6.09738">
        <ele>1035.96</ele>
        <time>2013-05-08T11:30:58Z</time>
      </trkpt>
      <trkpt lat="46.65949" lon="6.09741">
        <ele>1035.96</ele>
        <time>2013-05-08T11:30:59Z</time>
      </trkpt>
      <trkpt lat="46.65952" lon="6.09744">
        <ele>1035.96</ele>
        <time>2013-05-08T11:31:00Z</time>
      </trkpt>
      <trkpt lat="46.65955" lon="6.09747">
        <ele>1035.96</ele>
        <time>2013-05-08T11:31:01Z</time>
      </trkpt>
      <trkpt lat="46.65959" lon="6.0975">
        <ele>1035.96</ele>
        <time>2013-05-08T11:31:02Z</time>
      </trkpt>
      <trkpt lat="46.65962" lon="6.09754">
        <ele>1035.96</ele>
        <time>2013-05-08T11:31:03Z</time>
      </trkpt>
      <trkpt lat="46.65964" lon="6.09759">
        <ele>1035.48</ele>
        <time>2013-05-08T11:31:04Z</time>
      </trkpt>
      <trkpt lat="46.65967" lon="6.09763">
        <ele>1035.48</ele>
        <time>2013-05-08T11:31:05Z</time>
      </trkpt>
      <trkpt lat="46.65968" lon="6.09768">
        <ele>1035.48</ele>
        <time>2013-05-08T11:31:06Z</time>
      </trkpt>
      <trkpt lat="46.65969" lon="6.09773">
        <ele>1035.48</ele>
        <time>2013-05-08T11:31:07Z</time>
      </trkpt>
      <trkpt lat="46.65971" lon="6.09778">
        <ele>1035.48</ele>
        <time>2013-05-08T11:31:08Z</time>
      </trkpt>
      <trkpt lat="46.65973" lon="6.09784">
        <ele>1035</ele>
        <time>2013-05-08T11:31:09Z</time>
      </trkpt>
      <trkpt lat="46.65975" lon="6.0979">
        <ele>1035</ele>
        <time>2013-05-08T11:31:10Z</time>
      </trkpt>
      <trkpt lat="46.65982" lon="6.09809">
        <ele>1034.52</ele>
        <time>2013-05-08T11:31:13Z</time>
      </trkpt>
      <trkpt lat="46.66001" lon="6.09853">
        <ele>1033.55</ele>
        <time>2013-05-08T11:31:21Z</time>
      </trkpt>
      <trkpt lat="46.66002" lon="6.09859">
        <ele>1033.55</ele>
        <time>2013-05-08T11:31:22Z</time>
      </trkpt>
      <trkpt lat="46.66004" lon="6.09864">
        <ele>1033.55</ele>
        <time>2013-05-08T11:31:23Z</time>
      </trkpt>
      <trkpt lat="46.66007" lon="6.0987">
        <ele>1033.55</ele>
        <time>2013-05-08T11:31:24Z</time>
      </trkpt>
      <trkpt lat="46.66008" lon="6.09875">
        <ele>1033.07</ele>
        <time>2013-05-08T11:31:25Z</time>
      </trkpt>
      <trkpt lat="46.6601" lon="6.09881">
        <ele>1033.55</ele>
        <time>2013-05-08T11:31:26Z</time>
      </trkpt>
      <trkpt lat="46.66014" lon="6.09893">
        <ele>1033.07</ele>
        <time>2013-05-08T11:31:28Z</time>
      </trkpt>
      <trkpt lat="46.66016" lon="6.09899">
        <ele>1033.55</ele>
        <time>2013-05-08T11:31:29Z</time>
      </trkpt>
      <trkpt lat="46.6602" lon="6.09911">
        <ele>1033.07</ele>
        <time>2013-05-08T11:31:31Z</time>
      </trkpt>
      <trkpt lat="46.66036" lon="6.09952">
        <ele>1032.59</ele>
        <time>2013-05-08T11:31:40Z</time>
      </trkpt>
      <trkpt lat="46.66051" lon="6.10006">
        <ele>1031.15</ele>
        <time>2013-05-08T11:31:51Z</time>
      </trkpt>
      <trkpt lat="46.66053" lon="6.10012">
        <ele>1031.15</ele>
        <time>2013-05-08T11:31:52Z</time>
      </trkpt>
      <trkpt lat="46.66055" lon="6.10017">
        <ele>1030.67</ele>
        <time>2013-05-08T11:31:53Z</time>
      </trkpt>
      <trkpt lat="46.66056" lon="6.10022">
        <ele>1030.19</ele>
        <time>2013-05-08T11:31:54Z</time>
      </trkpt>
      <trkpt lat="46.66059" lon="6.10027">
        <ele>1030.19</ele>
        <time>2013-05-08T11:31:55Z</time>
      </trkpt>
      <trkpt lat="46.66061" lon="6.10031">
        <ele>1029.71</ele>
        <time>2013-05-08T11:31:56Z</time>
      </trkpt>
      <trkpt lat="46.66061" lon="6.10035">
        <ele>1029.23</ele>
        <time>2013-05-08T11:31:57Z</time>
      </trkpt>
      <trkpt lat="46.66062" lon="6.10042">
        <ele>1028.75</ele>
        <time>2013-05-08T11:31:58Z</time>
      </trkpt>
      <trkpt lat="46.66064" lon="6.10048">
        <ele>1027.79</ele>
        <time>2013-05-08T11:31:59Z</time>
      </trkpt>
      <trkpt lat="46.66065" lon="6.10055">
        <ele>1027.79</ele>
        <time>2013-05-08T11:32:00Z</time>
      </trkpt>
      <trkpt lat="46.66071" lon="6.10086">
        <ele>1025.38</ele>
        <time>2013-05-08T11:32:05Z</time>
      </trkpt>
      <trkpt lat="46.66072" lon="6.10093">
        <ele>1025.38</ele>
        <time>2013-05-08T11:32:06Z</time>
      </trkpt>
      <trkpt lat="46.66075" lon="6.10098">
        <ele>1024.9</ele>
        <time>2013-05-08T11:32:07Z</time>
      </trkpt>
      <trkpt lat="46.66087" lon="6.10114">
        <ele>1025.38</ele>
        <time>2013-05-08T11:32:16Z</time>
      </trkpt>
      <trkpt lat="46.66087" lon="6.10114">
        <ele>1025.86</ele>
        <time>2013-05-08T11:32:41Z</time>
      </trkpt>
      <trkpt lat="46.66088" lon="6.10115">
        <ele>1025.86</ele>
        <time>2013-05-08T11:32:58Z</time>
      </trkpt>
      <trkpt lat="46.66089" lon="6.10116">
        <ele>1025.86</ele>
        <time>2013-05-08T11:33:18Z</time>
      </trkpt>
      <trkpt lat="46.66089" lon="6.10116">
        <ele>1025.38</ele>
        <time>2013-05-08T11:33:41Z</time>
      </trkpt>
      <trkpt lat="46.66089" lon="6.10116">
        <ele>1025.38</ele>
        <time>2013-05-08T11:33:58Z</time>
      </trkpt>
      <trkpt lat="46.66089" lon="6.10116">
        <ele>1025.38</ele>
        <time>2013-05-08T11:34:24Z</time>
      </trkpt>
      <trkpt lat="46.66089" lon="6.10116">
        <ele>1024.9</ele>
        <time>2013-05-08T11:34:42Z</time>
      </trkpt>
      <trkpt lat="46.66089" lon="6.10116">
        <ele>1024.9</ele>
        <time>2013-05-08T11:35:04Z</time>
      </trkpt>
      <trkpt lat="46.66091" lon="6.10116">
        <ele>1024.42</ele>
        <time>2013-05-08T11:35:28Z</time>
      </trkpt>
      <trkpt lat="46.66095" lon="6.1012">
        <ele>1024.42</ele>
        <time>2013-05-08T11:35:43Z</time>
      </trkpt>
      <trkpt lat="46.66093" lon="6.10124">
        <ele>1024.9</ele>
        <time>2013-05-08T11:35:45Z</time>
      </trkpt>
      <trkpt lat="46.66059" lon="6.1015">
        <ele>1025.38</ele>
        <time>2013-05-08T11:35:59Z</time>
      </trkpt>
      <trkpt lat="46.66003" lon="6.10179">
        <ele>1024.9</ele>
        <time>2013-05-08T11:36:13Z</time>
      </trkpt>
      <trkpt lat="46.65975" lon="6.102">
        <ele>1027.31</ele>
        <time>2013-05-08T11:36:24Z</time>
      </trkpt>
      <trkpt lat="46.6595" lon="6.10216">
        <ele>1027.31</ele>
        <time>2013-05-08T11:36:31Z</time>
      </trkpt>
      <trkpt lat="46.65913" lon="6.10219">
        <ele>1027.31</ele>
        <time>2013-05-08T11:36:42Z</time>
      </trkpt>
      <trkpt lat="46.65911" lon="6.10219">
        <ele>1027.31</ele>
        <time>2013-05-08T11:36:43Z</time>
      </trkpt>
      <trkpt lat="46.6591" lon="6.1022">
        <ele>1027.31</ele>
        <time>2013-05-08T11:36:44Z</time>
      </trkpt>
      <trkpt lat="46.65908" lon="6.10222">
        <ele>1027.79</ele>
        <time>2013-05-08T11:36:45Z</time>
      </trkpt>
      <trkpt lat="46.65906" lon="6.10224">
        <ele>1028.27</ele>
        <time>2013-05-08T11:36:46Z</time>
      </trkpt>
      <trkpt lat="46.65904" lon="6.10227">
        <ele>1028.27</ele>
        <time>2013-05-08T11:36:47Z</time>
      </trkpt>
      <trkpt lat="46.65903" lon="6.10231">
        <ele>1028.75</ele>
        <time>2013-05-08T11:36:48Z</time>
      </trkpt>
      <trkpt lat="46.65901" lon="6.10234">
        <ele>1028.75</ele>
        <time>2013-05-08T11:36:49Z</time>
      </trkpt>
      <trkpt lat="46.65897" lon="6.10241">
        <ele>1029.71</ele>
        <time>2013-05-08T11:36:51Z</time>
      </trkpt>
      <trkpt lat="46.65898" lon="6.1025">
        <ele>1030.67</ele>
        <time>2013-05-08T11:36:54Z</time>
      </trkpt>
      <trkpt lat="46.65899" lon="6.10253">
        <ele>1030.67</ele>
        <time>2013-05-08T11:36:55Z</time>
      </trkpt>
      <trkpt lat="46.65899" lon="6.10263">
        <ele>1031.63</ele>
        <time>2013-05-08T11:36:58Z</time>
      </trkpt>
      <trkpt lat="46.65899" lon="6.10267">
        <ele>1032.11</ele>
        <time>2013-05-08T11:36:59Z</time>
      </trkpt>
      <trkpt lat="46.65898" lon="6.10271">
        <ele>1032.59</ele>
        <time>2013-05-08T11:37:00Z</time>
      </trkpt>
      <trkpt lat="46.65897" lon="6.10274">
        <ele>1033.07</ele>
        <time>2013-05-08T11:37:01Z</time>
      </trkpt>
      <trkpt lat="46.65895" lon="6.10278">
        <ele>1033.55</ele>
        <time>2013-05-08T11:37:02Z</time>
      </trkpt>
      <trkpt lat="46.65898" lon="6.1031">
        <ele>1036.92</ele>
        <time>2013-05-08T11:37:11Z</time>
      </trkpt>
      <trkpt lat="46.65898" lon="6.10323">
        <ele>1038.36</ele>
        <time>2013-05-08T11:37:15Z</time>
      </trkpt>
      <trkpt lat="46.65897" lon="6.10326">
        <ele>1038.36</ele>
        <time>2013-05-08T11:37:16Z</time>
      </trkpt>
      <trkpt lat="46.65898" lon="6.10329">
        <ele>1038.84</ele>
        <time>2013-05-08T11:37:17Z</time>
      </trkpt>
      <trkpt lat="46.65903" lon="6.10356">
        <ele>1042.21</ele>
        <time>2013-05-08T11:37:25Z</time>
      </trkpt>
      <trkpt lat="46.65912" lon="6.10406">
        <ele>1044.61</ele>
        <time>2013-05-08T11:37:37Z</time>
      </trkpt>
      <trkpt lat="46.65913" lon="6.1041">
        <ele>1045.09</ele>
        <time>2013-05-08T11:37:38Z</time>
      </trkpt>
      <trkpt lat="46.65912" lon="6.10414">
        <ele>1045.09</ele>
        <time>2013-05-08T11:37:39Z</time>
      </trkpt>
      <trkpt lat="46.65911" lon="6.10417">
        <ele>1045.57</ele>
        <time>2013-05-08T11:37:40Z</time>
      </trkpt>
      <trkpt lat="46.65911" lon="6.10421">
        <ele>1046.05</ele>
        <time>2013-05-08T11:37:41Z</time>
      </trkpt>
      <trkpt lat="46.65911" lon="6.10425">
        <ele>1046.05</ele>
        <time>2013-05-08T11:37:42Z</time>
      </trkpt>
      <trkpt lat="46.65911" lon="6.10429">
        <ele>1046.53</ele>
        <time>2013-05-08T11:37:43Z</time>
      </trkpt>
      <trkpt lat="46.65912" lon="6.10434">
        <ele>1046.53</ele>
        <time>2013-05-08T11:37:44Z</time>
      </trkpt>
      <trkpt lat="46.65917" lon="6.10468">
        <ele>1048.94</ele>
        <time>2013-05-08T11:37:51Z</time>
      </trkpt>
      <trkpt lat="46.65933" lon="6.10508">
        <ele>1052.3</ele>
        <time>2013-05-08T11:38:01Z</time>
      </trkpt>
      <trkpt lat="46.65935" lon="6.10535">
        <ele>1054.22</ele>
        <time>2013-05-08T11:38:09Z</time>
      </trkpt>
      <trkpt lat="46.65934" lon="6.10537">
        <ele>1054.22</ele>
        <time>2013-05-08T11:38:10Z</time>
      </trkpt>
      <trkpt lat="46.65932" lon="6.1054">
        <ele>1054.7</ele>
        <time>2013-05-08T11:38:11Z</time>
      </trkpt>
      <trkpt lat="46.6593" lon="6.10542">
        <ele>1054.7</ele>
        <time>2013-05-08T11:38:12Z</time>
      </trkpt>
      <trkpt lat="46.65928" lon="6.10544">
        <ele>1055.18</ele>
        <time>2013-05-08T11:38:13Z</time>
      </trkpt>
      <trkpt lat="46.65893" lon="6.10541">
        <ele>1056.15</ele>
        <time>2013-05-08T11:38:28Z</time>
      </trkpt>
      <trkpt lat="46.65863" lon="6.10556">
        <ele>1059.03</ele>
        <time>2013-05-08T11:38:42Z</time>
      </trkpt>
      <trkpt lat="46.65833" lon="6.10572">
        <ele>1059.99</ele>
        <time>2013-05-08T11:38:56Z</time>
      </trkpt>
      <trkpt lat="46.65828" lon="6.10574">
        <ele>1060.47</ele>
        <time>2013-05-08T11:38:59Z</time>
      </trkpt>
      <trkpt lat="46.65827" lon="6.10576">
        <ele>1060.47</ele>
        <time>2013-05-08T11:39:00Z</time>
      </trkpt>
      <trkpt lat="46.65826" lon="6.10578">
        <ele>1060.47</ele>
        <time>2013-05-08T11:39:01Z</time>
      </trkpt>
      <trkpt lat="46.65827" lon="6.1058">
        <ele>1060.47</ele>
        <time>2013-05-08T11:39:02Z</time>
      </trkpt>
      <trkpt lat="46.65827" lon="6.10582">
        <ele>1060.47</ele>
        <time>2013-05-08T11:39:03Z</time>
      </trkpt>
      <trkpt lat="46.65828" lon="6.10584">
        <ele>1060.47</ele>
        <time>2013-05-08T11:39:04Z</time>
      </trkpt>
      <trkpt lat="46.65829" lon="6.10586">
        <ele>1059.99</ele>
        <time>2013-05-08T11:39:05Z</time>
      </trkpt>
      <trkpt lat="46.65829" lon="6.10588">
        <ele>1059.99</ele>
        <time>2013-05-08T11:39:06Z</time>
      </trkpt>
      <trkpt lat="46.6583" lon="6.10591">
        <ele>1059.99</ele>
        <time>2013-05-08T11:39:07Z</time>
      </trkpt>
      <trkpt lat="46.65835" lon="6.10605">
        <ele>1059.99</ele>
        <time>2013-05-08T11:39:14Z</time>
      </trkpt>
      <trkpt lat="46.65836" lon="6.10607">
        <ele>1059.99</ele>
        <time>2013-05-08T11:39:15Z</time>
      </trkpt>
      <trkpt lat="46.65837" lon="6.10609">
        <ele>1059.99</ele>
        <time>2013-05-08T11:39:16Z</time>
      </trkpt>
      <trkpt lat="46.65838" lon="6.10611">
        <ele>1059.99</ele>
        <time>2013-05-08T11:39:17Z</time>
      </trkpt>
      <trkpt lat="46.65839" lon="6.10613">
        <ele>1059.99</ele>
        <time>2013-05-08T11:39:18Z</time>
      </trkpt>
      <trkpt lat="46.65839" lon="6.10615">
        <ele>1060.47</ele>
        <time>2013-05-08T11:39:19Z</time>
      </trkpt>
      <trkpt lat="46.6584" lon="6.10617">
        <ele>1059.99</ele>
        <time>2013-05-08T11:39:20Z</time>
      </trkpt>
      <trkpt lat="46.65842" lon="6.10619">
        <ele>1059.99</ele>
        <time>2013-05-08T11:39:21Z</time>
      </trkpt>
      <trkpt lat="46.65843" lon="6.10622">
        <ele>1059.99</ele>
        <time>2013-05-08T11:39:22Z</time>
      </trkpt>
      <trkpt lat="46.65845" lon="6.10624">
        <ele>1059.99</ele>
        <time>2013-05-08T11:39:23Z</time>
      </trkpt>
      <trkpt lat="46.65846" lon="6.10627">
        <ele>1059.99</ele>
        <time>2013-05-08T11:39:24Z</time>
      </trkpt>
      <trkpt lat="46.65847" lon="6.1063">
        <ele>1059.99</ele>
        <time>2013-05-08T11:39:25Z</time>
      </trkpt>
      <trkpt lat="46.65848" lon="6.10632">
        <ele>1059.99</ele>
        <time>2013-05-08T11:39:26Z</time>
      </trkpt>
      <trkpt lat="46.65849" lon="6.10635">
        <ele>1060.47</ele>
        <time>2013-05-08T11:39:27Z</time>
      </trkpt>
      <trkpt lat="46.6585" lon="6.10637">
        <ele>1060.47</ele>
        <time>2013-05-08T11:39:28Z</time>
      </trkpt>
      <trkpt lat="46.65851" lon="6.1064">
        <ele>1060.47</ele>
        <time>2013-05-08T11:39:29Z</time>
      </trkpt>
      <trkpt lat="46.65853" lon="6.10643">
        <ele>1060.47</ele>
        <time>2013-05-08T11:39:30Z</time>
      </trkpt>
      <trkpt lat="46.65854" lon="6.10646">
        <ele>1060.47</ele>
        <time>2013-05-08T11:39:31Z</time>
      </trkpt>
      <trkpt lat="46.65875" lon="6.10678">
        <ele>1059.99</ele>
        <time>2013-05-08T11:39:42Z</time>
      </trkpt>
      <trkpt lat="46.65888" lon="6.107">
        <ele>1060.95</ele>
        <time>2013-05-08T11:39:51Z</time>
      </trkpt>
      <trkpt lat="46.65889" lon="6.10705">
        <ele>1061.43</ele>
        <time>2013-05-08T11:39:53Z</time>
      </trkpt>
      <trkpt lat="46.65891" lon="6.10707">
        <ele>1061.43</ele>
        <time>2013-05-08T11:39:54Z</time>
      </trkpt>
      <trkpt lat="46.65892" lon="6.1071">
        <ele>1061.43</ele>
        <time>2013-05-08T11:39:55Z</time>
      </trkpt>
      <trkpt lat="46.65894" lon="6.10713">
        <ele>1060.95</ele>
        <time>2013-05-08T11:39:56Z</time>
      </trkpt>
      <trkpt lat="46.65895" lon="6.10717">
        <ele>1060.95</ele>
        <time>2013-05-08T11:39:57Z</time>
      </trkpt>
      <trkpt lat="46.65896" lon="6.10721">
        <ele>1060.47</ele>
        <time>2013-05-08T11:39:58Z</time>
      </trkpt>
      <trkpt lat="46.65896" lon="6.10725">
        <ele>1059.99</ele>
        <time>2013-05-08T11:39:59Z</time>
      </trkpt>
      <trkpt lat="46.65898" lon="6.1073">
        <ele>1059.99</ele>
        <time>2013-05-08T11:40:00Z</time>
      </trkpt>
      <trkpt lat="46.659" lon="6.10734">
        <ele>1059.51</ele>
        <time>2013-05-08T11:40:01Z</time>
      </trkpt>
      <trkpt lat="46.65902" lon="6.10739">
        <ele>1059.51</ele>
        <time>2013-05-08T11:40:02Z</time>
      </trkpt>
      <trkpt lat="46.65905" lon="6.10743">
        <ele>1059.03</ele>
        <time>2013-05-08T11:40:03Z</time>
      </trkpt>
      <trkpt lat="46.65905" lon="6.10747">
        <ele>1059.51</ele>
        <time>2013-05-08T11:40:04Z</time>
      </trkpt>
      <trkpt lat="46.65906" lon="6.1075">
        <ele>1059.51</ele>
        <time>2013-05-08T11:40:05Z</time>
      </trkpt>
      <trkpt lat="46.65906" lon="6.10754">
        <ele>1059.03</ele>
        <time>2013-05-08T11:40:06Z</time>
      </trkpt>
      <trkpt lat="46.65907" lon="6.10757">
        <ele>1059.03</ele>
        <time>2013-05-08T11:40:07Z</time>
      </trkpt>
      <trkpt lat="46.65907" lon="6.1076">
        <ele>1059.03</ele>
        <time>2013-05-08T11:40:08Z</time>
      </trkpt>
      <trkpt lat="46.65907" lon="6.10763">
        <ele>1059.03</ele>
        <time>2013-05-08T11:40:09Z</time>
      </trkpt>
      <trkpt lat="46.65906" lon="6.10765">
        <ele>1059.03</ele>
        <time>2013-05-08T11:40:10Z</time>
      </trkpt>
      <trkpt lat="46.65904" lon="6.10767">
        <ele>1059.51</ele>
        <time>2013-05-08T11:40:11Z</time>
      </trkpt>
      <trkpt lat="46.65901" lon="6.10769">
        <ele>1059.51</ele>
        <time>2013-05-08T11:40:13Z</time>
      </trkpt>
      <trkpt lat="46.65897" lon="6.10783">
        <ele>1058.55</ele>
        <time>2013-05-08T11:40:18Z</time>
      </trkpt>
      <trkpt lat="46.65898" lon="6.10791">
        <ele>1058.07</ele>
        <time>2013-05-08T11:40:20Z</time>
      </trkpt>
      <trkpt lat="46.65914" lon="6.10813">
        <ele>1057.59</ele>
        <time>2013-05-08T11:40:25Z</time>
      </trkpt>
      <trkpt lat="46.65919" lon="6.10833">
        <ele>1057.59</ele>
        <time>2013-05-08T11:40:31Z</time>
      </trkpt>
      <trkpt lat="46.65939" lon="6.10852">
        <ele>1060.95</ele>
        <time>2013-05-08T11:40:37Z</time>
      </trkpt>
      <trkpt lat="46.65942" lon="6.10854">
        <ele>1060.47</ele>
        <time>2013-05-08T11:40:38Z</time>
      </trkpt>
      <trkpt lat="46.65954" lon="6.10867">
        <ele>1061.43</ele>
        <time>2013-05-08T11:40:43Z</time>
      </trkpt>
      <trkpt lat="46.65975" lon="6.10907">
        <ele>1059.51</ele>
        <time>2013-05-08T11:40:54Z</time>
      </trkpt>
      <trkpt lat="46.65978" lon="6.10911">
        <ele>1059.51</ele>
        <time>2013-05-08T11:40:55Z</time>
      </trkpt>
      <trkpt lat="46.65992" lon="6.1093">
        <ele>1059.99</ele>
        <time>2013-05-08T11:41:00Z</time>
      </trkpt>
      <trkpt lat="46.65995" lon="6.10933">
        <ele>1059.99</ele>
        <time>2013-05-08T11:41:01Z</time>
      </trkpt>
      <trkpt lat="46.65997" lon="6.10936">
        <ele>1059.99</ele>
        <time>2013-05-08T11:41:02Z</time>
      </trkpt>
      <trkpt lat="46.66035" lon="6.10963">
        <ele>1058.07</ele>
        <time>2013-05-08T11:41:12Z</time>
      </trkpt>
      <trkpt lat="46.66049" lon="6.10975">
        <ele>1058.55</ele>
        <time>2013-05-08T11:41:18Z</time>
      </trkpt>
      <trkpt lat="46.66051" lon="6.10977">
        <ele>1059.03</ele>
        <time>2013-05-08T11:41:19Z</time>
      </trkpt>
      <trkpt lat="46.66053" lon="6.1098">
        <ele>1059.03</ele>
        <time>2013-05-08T11:41:20Z</time>
      </trkpt>
      <trkpt lat="46.66054" lon="6.10984">
        <ele>1059.51</ele>
        <time>2013-05-08T11:41:21Z</time>
      </trkpt>
      <trkpt lat="46.66055" lon="6.10987">
        <ele>1059.51</ele>
        <time>2013-05-08T11:41:22Z</time>
      </trkpt>
      <trkpt lat="46.66064" lon="6.11014">
        <ele>1058.07</ele>
        <time>2013-05-08T11:41:28Z</time>
      </trkpt>
      <trkpt lat="46.66066" lon="6.1102">
        <ele>1057.59</ele>
        <time>2013-05-08T11:41:29Z</time>
      </trkpt>
      <trkpt lat="46.66073" lon="6.11041">
        <ele>1056.15</ele>
        <time>2013-05-08T11:41:32Z</time>
      </trkpt>
      <trkpt lat="46.66075" lon="6.11048">
        <ele>1055.18</ele>
        <time>2013-05-08T11:41:33Z</time>
      </trkpt>
      <trkpt lat="46.66077" lon="6.11055">
        <ele>1055.18</ele>
        <time>2013-05-08T11:41:34Z</time>
      </trkpt>
      <trkpt lat="46.66079" lon="6.11061">
        <ele>1055.18</ele>
        <time>2013-05-08T11:41:35Z</time>
      </trkpt>
      <trkpt lat="46.66081" lon="6.11067">
        <ele>1055.18</ele>
        <time>2013-05-08T11:41:36Z</time>
      </trkpt>
      <trkpt lat="46.66083" lon="6.11073">
        <ele>1055.18</ele>
        <time>2013-05-08T11:41:37Z</time>
      </trkpt>
      <trkpt lat="46.66103" lon="6.11133">
        <ele>1053.74</ele>
        <time>2013-05-08T11:41:47Z</time>
      </trkpt>
      <trkpt lat="46.66116" lon="6.11166">
        <ele>1051.34</ele>
        <time>2013-05-08T11:41:52Z</time>
      </trkpt>
      <trkpt lat="46.66122" lon="6.11179">
        <ele>1050.38</ele>
        <time>2013-05-08T11:41:54Z</time>
      </trkpt>
      <trkpt lat="46.66124" lon="6.11187">
        <ele>1049.9</ele>
        <time>2013-05-08T11:41:55Z</time>
      </trkpt>
      <trkpt lat="46.66126" lon="6.11194">
        <ele>1049.42</ele>
        <time>2013-05-08T11:41:56Z</time>
      </trkpt>
      <trkpt lat="46.66129" lon="6.11201">
        <ele>1048.45</ele>
        <time>2013-05-08T11:41:57Z</time>
      </trkpt>
      <trkpt lat="46.66131" lon="6.11207">
        <ele>1048.45</ele>
        <time>2013-05-08T11:41:58Z</time>
      </trkpt>
      <trkpt lat="46.66133" lon="6.11213">
        <ele>1047.97</ele>
        <time>2013-05-08T11:41:59Z</time>
      </trkpt>
      <trkpt lat="46.66136" lon="6.11221">
        <ele>1047.49</ele>
        <time>2013-05-08T11:42:00Z</time>
      </trkpt>
      <trkpt lat="46.66138" lon="6.11228">
        <ele>1046.53</ele>
        <time>2013-05-08T11:42:01Z</time>
      </trkpt>
      <trkpt lat="46.66139" lon="6.11236">
        <ele>1046.53</ele>
        <time>2013-05-08T11:42:02Z</time>
      </trkpt>
      <trkpt lat="46.66142" lon="6.1125">
        <ele>1045.57</ele>
        <time>2013-05-08T11:42:04Z</time>
      </trkpt>
      <trkpt lat="46.66143" lon="6.11258">
        <ele>1045.09</ele>
        <time>2013-05-08T11:42:05Z</time>
      </trkpt>
      <trkpt lat="46.66145" lon="6.11265">
        <ele>1044.61</ele>
        <time>2013-05-08T11:42:06Z</time>
      </trkpt>
      <trkpt lat="46.66147" lon="6.11273">
        <ele>1043.65</ele>
        <time>2013-05-08T11:42:07Z</time>
      </trkpt>
      <trkpt lat="46.66149" lon="6.1128">
        <ele>1043.17</ele>
        <time>2013-05-08T11:42:08Z</time>
      </trkpt>
      <trkpt lat="46.66152" lon="6.11293">
        <ele>1042.69</ele>
        <time>2013-05-08T11:42:10Z</time>
      </trkpt>
      <trkpt lat="46.66154" lon="6.11299">
        <ele>1042.21</ele>
        <time>2013-05-08T11:42:11Z</time>
      </trkpt>
      <trkpt lat="46.66156" lon="6.11305">
        <ele>1041.73</ele>
        <time>2013-05-08T11:42:12Z</time>
      </trkpt>
      <trkpt lat="46.6616" lon="6.1132">
        <ele>1039.8</ele>
        <time>2013-05-08T11:42:14Z</time>
      </trkpt>
      <trkpt lat="46.66162" lon="6.11329">
        <ele>1038.84</ele>
        <time>2013-05-08T11:42:15Z</time>
      </trkpt>
      <trkpt lat="46.66165" lon="6.11337">
        <ele>1037.88</ele>
        <time>2013-05-08T11:42:16Z</time>
      </trkpt>
      <trkpt lat="46.66166" lon="6.11345">
        <ele>1037.4</ele>
        <time>2013-05-08T11:42:17Z</time>
      </trkpt>
      <trkpt lat="46.66169" lon="6.11355">
        <ele>1036.92</ele>
        <time>2013-05-08T11:42:18Z</time>
      </trkpt>
      <trkpt lat="46.66171" lon="6.11364">
        <ele>1036.92</ele>
        <time>2013-05-08T11:42:19Z</time>
      </trkpt>
      <trkpt lat="46.66173" lon="6.11372">
        <ele>1036.92</ele>
        <time>2013-05-08T11:42:20Z</time>
      </trkpt>
      <trkpt lat="46.66175" lon="6.1138">
        <ele>1036.92</ele>
        <time>2013-05-08T11:42:21Z</time>
      </trkpt>
      <trkpt lat="46.6618" lon="6.11403">
        <ele>1038.36</ele>
        <time>2013-05-08T11:42:25Z</time>
      </trkpt>
      <trkpt lat="46.66181" lon="6.11407">
        <ele>1037.4</ele>
        <time>2013-05-08T11:42:26Z</time>
      </trkpt>
      <trkpt lat="46.66182" lon="6.1141">
        <ele>1039.8</ele>
        <time>2013-05-08T11:42:27Z</time>
      </trkpt>
      <trkpt lat="46.66183" lon="6.11413">
        <ele>1038.36</ele>
        <time>2013-05-08T11:42:28Z</time>
      </trkpt>
      <trkpt lat="46.66184" lon="6.11416">
        <ele>1038.36</ele>
        <time>2013-05-08T11:42:29Z</time>
      </trkpt>
      <trkpt lat="46.66186" lon="6.11419">
        <ele>1038.36</ele>
        <time>2013-05-08T11:42:30Z</time>
      </trkpt>
      <trkpt lat="46.66187" lon="6.11422">
        <ele>1038.36</ele>
        <time>2013-05-08T11:42:31Z</time>
      </trkpt>
      <trkpt lat="46.66188" lon="6.11425">
        <ele>1037.88</ele>
        <time>2013-05-08T11:42:32Z</time>
      </trkpt>
      <trkpt lat="46.66189" lon="6.11428">
        <ele>1038.36</ele>
        <time>2013-05-08T11:42:33Z</time>
      </trkpt>
      <trkpt lat="46.66191" lon="6.11432">
        <ele>1037.88</ele>
        <time>2013-05-08T11:42:34Z</time>
      </trkpt>
      <trkpt lat="46.66193" lon="6.11435">
        <ele>1037.88</ele>
        <time>2013-05-08T11:42:35Z</time>
      </trkpt>
      <trkpt lat="46.66195" lon="6.11439">
        <ele>1037.88</ele>
        <time>2013-05-08T11:42:36Z</time>
      </trkpt>
      <trkpt lat="46.66197" lon="6.11442">
        <ele>1037.4</ele>
        <time>2013-05-08T11:42:37Z</time>
      </trkpt>
      <trkpt lat="46.66201" lon="6.11446">
        <ele>1038.36</ele>
        <time>2013-05-08T11:42:38Z</time>
      </trkpt>
      <trkpt lat="46.66203" lon="6.11449">
        <ele>1037.88</ele>
        <time>2013-05-08T11:42:39Z</time>
      </trkpt>
      <trkpt lat="46.66206" lon="6.11451">
        <ele>1037.4</ele>
        <time>2013-05-08T11:42:40Z</time>
      </trkpt>
      <trkpt lat="46.66208" lon="6.11453">
        <ele>1037.88</ele>
        <time>2013-05-08T11:42:41Z</time>
      </trkpt>
      <trkpt lat="46.6621" lon="6.11455">
        <ele>1037.88</ele>
        <time>2013-05-08T11:42:42Z</time>
      </trkpt>
      <trkpt lat="46.66211" lon="6.11458">
        <ele>1037.88</ele>
        <time>2013-05-08T11:42:43Z</time>
      </trkpt>
      <trkpt lat="46.66212" lon="6.1146">
        <ele>1037.88</ele>
        <time>2013-05-08T11:42:44Z</time>
      </trkpt>
      <trkpt lat="46.66214" lon="6.11461">
        <ele>1037.88</ele>
        <time>2013-05-08T11:42:45Z</time>
      </trkpt>
      <trkpt lat="46.66215" lon="6.11463">
        <ele>1037.88</ele>
        <time>2013-05-08T11:42:58Z</time>
      </trkpt>
      <trkpt lat="46.66215" lon="6.11463">
        <ele>1038.36</ele>
        <time>2013-05-08T11:43:23Z</time>
      </trkpt>
      <trkpt lat="46.66217" lon="6.11466">
        <ele>1038.36</ele>
        <time>2013-05-08T11:43:41Z</time>
      </trkpt>
      <trkpt lat="46.66218" lon="6.11478">
        <ele>1039.8</ele>
        <time>2013-05-08T11:43:48Z</time>
      </trkpt>
      <trkpt lat="46.66219" lon="6.11484">
        <ele>1040.28</ele>
        <time>2013-05-08T11:43:52Z</time>
      </trkpt>
      <trkpt lat="46.6622" lon="6.11487">
        <ele>1040.76</ele>
        <time>2013-05-08T11:43:53Z</time>
      </trkpt>
      <trkpt lat="46.6622" lon="6.1149">
        <ele>1040.76</ele>
        <time>2013-05-08T11:43:54Z</time>
      </trkpt>
      <trkpt lat="46.6622" lon="6.11493">
        <ele>1041.25</ele>
        <time>2013-05-08T11:43:55Z</time>
      </trkpt>
      <trkpt lat="46.66219" lon="6.11524">
        <ele>1044.13</ele>
        <time>2013-05-08T11:44:06Z</time>
      </trkpt>
      <trkpt lat="46.66218" lon="6.11528">
        <ele>1044.13</ele>
        <time>2013-05-08T11:44:08Z</time>
      </trkpt>
      <trkpt lat="46.66217" lon="6.1153">
        <ele>1044.61</ele>
        <time>2013-05-08T11:44:09Z</time>
      </trkpt>
      <trkpt lat="46.66216" lon="6.11536">
        <ele>1045.57</ele>
        <time>2013-05-08T11:44:12Z</time>
      </trkpt>
      <trkpt lat="46.66215" lon="6.11539">
        <ele>1045.57</ele>
        <time>2013-05-08T11:44:13Z</time>
      </trkpt>
      <trkpt lat="46.66215" lon="6.11541">
        <ele>1046.05</ele>
        <time>2013-05-08T11:44:14Z</time>
      </trkpt>
      <trkpt lat="46.66215" lon="6.11543">
        <ele>1046.05</ele>
        <time>2013-05-08T11:44:15Z</time>
      </trkpt>
      <trkpt lat="46.66214" lon="6.11547">
        <ele>1046.05</ele>
        <time>2013-05-08T11:44:16Z</time>
      </trkpt>
      <trkpt lat="46.66214" lon="6.11549">
        <ele>1046.53</ele>
        <time>2013-05-08T11:44:17Z</time>
      </trkpt>
      <trkpt lat="46.66213" lon="6.11551">
        <ele>1046.53</ele>
        <time>2013-05-08T11:44:18Z</time>
      </trkpt>
      <trkpt lat="46.66212" lon="6.11553">
        <ele>1047.01</ele>
        <time>2013-05-08T11:44:19Z</time>
      </trkpt>
      <trkpt lat="46.6621" lon="6.11554">
        <ele>1047.01</ele>
        <time>2013-05-08T11:44:20Z</time>
      </trkpt>
      <trkpt lat="46.66209" lon="6.11558">
        <ele>1047.49</ele>
        <time>2013-05-08T11:44:22Z</time>
      </trkpt>
      <trkpt lat="46.66209" lon="6.1156">
        <ele>1047.49</ele>
        <time>2013-05-08T11:44:23Z</time>
      </trkpt>
      <trkpt lat="46.66204" lon="6.1158">
        <ele>1049.9</ele>
        <time>2013-05-08T11:44:33Z</time>
      </trkpt>
      <trkpt lat="46.66203" lon="6.11583">
        <ele>1049.9</ele>
        <time>2013-05-08T11:44:34Z</time>
      </trkpt>
      <trkpt lat="46.66202" lon="6.11585">
        <ele>1050.38</ele>
        <time>2013-05-08T11:44:35Z</time>
      </trkpt>
      <trkpt lat="46.66201" lon="6.11591">
        <ele>1050.38</ele>
        <time>2013-05-08T11:44:37Z</time>
      </trkpt>
      <trkpt lat="46.66201" lon="6.11604">
        <ele>1051.82</ele>
        <time>2013-05-08T11:44:42Z</time>
      </trkpt>
      <trkpt lat="46.662" lon="6.11608">
        <ele>1051.82</ele>
        <time>2013-05-08T11:44:43Z</time>
      </trkpt>
      <trkpt lat="46.66199" lon="6.11612">
        <ele>1051.82</ele>
        <time>2013-05-08T11:44:44Z</time>
      </trkpt>
      <trkpt lat="46.66198" lon="6.11614">
        <ele>1052.3</ele>
        <time>2013-05-08T11:44:45Z</time>
      </trkpt>
      <trkpt lat="46.66197" lon="6.11618">
        <ele>1052.3</ele>
        <time>2013-05-08T11:44:46Z</time>
      </trkpt>
      <trkpt lat="46.66193" lon="6.11629">
        <ele>1053.26</ele>
        <time>2013-05-08T11:44:50Z</time>
      </trkpt>
      <trkpt lat="46.66192" lon="6.11631">
        <ele>1053.26</ele>
        <time>2013-05-08T11:44:51Z</time>
      </trkpt>
      <trkpt lat="46.66185" lon="6.11644">
        <ele>1054.7</ele>
        <time>2013-05-08T11:44:57Z</time>
      </trkpt>
      <trkpt lat="46.66186" lon="6.11648">
        <ele>1054.7</ele>
        <time>2013-05-08T11:44:58Z</time>
      </trkpt>
      <trkpt lat="46.66186" lon="6.11651">
        <ele>1054.7</ele>
        <time>2013-05-08T11:44:59Z</time>
      </trkpt>
      <trkpt lat="46.66186" lon="6.11653">
        <ele>1055.18</ele>
        <time>2013-05-08T11:45:00Z</time>
      </trkpt>
      <trkpt lat="46.66186" lon="6.11656">
        <ele>1055.18</ele>
        <time>2013-05-08T11:45:01Z</time>
      </trkpt>
      <trkpt lat="46.66186" lon="6.11658">
        <ele>1055.67</ele>
        <time>2013-05-08T11:45:02Z</time>
      </trkpt>
      <trkpt lat="46.66185" lon="6.11661">
        <ele>1055.67</ele>
        <time>2013-05-08T11:45:03Z</time>
      </trkpt>
      <trkpt lat="46.66184" lon="6.1167">
        <ele>1056.15</ele>
        <time>2013-05-08T11:45:07Z</time>
      </trkpt>
      <trkpt lat="46.66183" lon="6.11672">
        <ele>1056.15</ele>
        <time>2013-05-08T11:45:08Z</time>
      </trkpt>
      <trkpt lat="46.66183" lon="6.11676">
        <ele>1056.63</ele>
        <time>2013-05-08T11:45:09Z</time>
      </trkpt>
      <trkpt lat="46.66183" lon="6.11679">
        <ele>1056.63</ele>
        <time>2013-05-08T11:45:10Z</time>
      </trkpt>
      <trkpt lat="46.66184" lon="6.11682">
        <ele>1056.63</ele>
        <time>2013-05-08T11:45:11Z</time>
      </trkpt>
      <trkpt lat="46.66185" lon="6.11686">
        <ele>1057.11</ele>
        <time>2013-05-08T11:45:12Z</time>
      </trkpt>
      <trkpt lat="46.66185" lon="6.11689">
        <ele>1057.11</ele>
        <time>2013-05-08T11:45:13Z</time>
      </trkpt>
      <trkpt lat="46.66185" lon="6.11692">
        <ele>1057.59</ele>
        <time>2013-05-08T11:45:14Z</time>
      </trkpt>
      <trkpt lat="46.66186" lon="6.11695">
        <ele>1057.59</ele>
        <time>2013-05-08T11:45:15Z</time>
      </trkpt>
      <trkpt lat="46.66188" lon="6.11697">
        <ele>1058.07</ele>
        <time>2013-05-08T11:45:16Z</time>
      </trkpt>
      <trkpt lat="46.66188" lon="6.117">
        <ele>1057.59</ele>
        <time>2013-05-08T11:45:17Z</time>
      </trkpt>
      <trkpt lat="46.66189" lon="6.11703">
        <ele>1057.59</ele>
        <time>2013-05-08T11:45:18Z</time>
      </trkpt>
      <trkpt lat="46.66192" lon="6.1171">
        <ele>1057.59</ele>
        <time>2013-05-08T11:45:21Z</time>
      </trkpt>
      <trkpt lat="46.6622" lon="6.11732">
        <ele>1057.59</ele>
        <time>2013-05-08T11:45:32Z</time>
      </trkpt>
      <trkpt lat="46.66243" lon="6.11745">
        <ele>1057.11</ele>
        <time>2013-05-08T11:45:42Z</time>
      </trkpt>
      <trkpt lat="46.6629" lon="6.11756">
        <ele>1054.22</ele>
        <time>2013-05-08T11:45:55Z</time>
      </trkpt>
      <trkpt lat="46.66317" lon="6.11758">
        <ele>1051.34</ele>
        <time>2013-05-08T11:46:03Z</time>
      </trkpt>
      <trkpt lat="46.66323" lon="6.11757">
        <ele>1050.38</ele>
        <time>2013-05-08T11:46:11Z</time>
      </trkpt>
      <trkpt lat="46.66323" lon="6.11757">
        <ele>1050.38</ele>
        <time>2013-05-08T11:46:38Z</time>
      </trkpt>
      <trkpt lat="46.66322" lon="6.11758">
        <ele>1050.38</ele>
        <time>2013-05-08T11:47:05Z</time>
      </trkpt>
      <trkpt lat="46.66331" lon="6.11752">
        <ele>1049.9</ele>
        <time>2013-05-08T11:47:22Z</time>
      </trkpt>
      <trkpt lat="46.66359" lon="6.11726">
        <ele>1047.01</ele>
        <time>2013-05-08T11:47:28Z</time>
      </trkpt>
      <trkpt lat="46.66373" lon="6.11711">
        <ele>1045.57</ele>
        <time>2013-05-08T11:47:31Z</time>
      </trkpt>
      <trkpt lat="46.66392" lon="6.11693">
        <ele>1042.21</ele>
        <time>2013-05-08T11:47:35Z</time>
      </trkpt>
      <trkpt lat="46.66396" lon="6.11692">
        <ele>1041.73</ele>
        <time>2013-05-08T11:47:36Z</time>
      </trkpt>
      <trkpt lat="46.664" lon="6.11692">
        <ele>1041.73</ele>
        <time>2013-05-08T11:47:37Z</time>
      </trkpt>
      <trkpt lat="46.66404" lon="6.11695">
        <ele>1041.73</ele>
        <time>2013-05-08T11:47:38Z</time>
      </trkpt>
      <trkpt lat="46.66406" lon="6.11698">
        <ele>1041.73</ele>
        <time>2013-05-08T11:47:39Z</time>
      </trkpt>
      <trkpt lat="46.66408" lon="6.11701">
        <ele>1041.73</ele>
        <time>2013-05-08T11:47:40Z</time>
      </trkpt>
      <trkpt lat="46.6641" lon="6.11704">
        <ele>1041.73</ele>
        <time>2013-05-08T11:47:41Z</time>
      </trkpt>
      <trkpt lat="46.66412" lon="6.11706">
        <ele>1041.73</ele>
        <time>2013-05-08T11:47:42Z</time>
      </trkpt>
      <trkpt lat="46.66414" lon="6.11708">
        <ele>1041.73</ele>
        <time>2013-05-08T11:47:43Z</time>
      </trkpt>
      <trkpt lat="46.66444" lon="6.11744">
        <ele>1039.32</ele>
        <time>2013-05-08T11:47:54Z</time>
      </trkpt>
      <trkpt lat="46.66465" lon="6.11772">
        <ele>1038.36</ele>
        <time>2013-05-08T11:48:04Z</time>
      </trkpt>
      <trkpt lat="46.66468" lon="6.11779">
        <ele>1038.36</ele>
        <time>2013-05-08T11:48:06Z</time>
      </trkpt>
      <trkpt lat="46.66469" lon="6.11782">
        <ele>1038.36</ele>
        <time>2013-05-08T11:48:07Z</time>
      </trkpt>
      <trkpt lat="46.66471" lon="6.11786">
        <ele>1038.84</ele>
        <time>2013-05-08T11:48:08Z</time>
      </trkpt>
      <trkpt lat="46.6649" lon="6.11823">
        <ele>1039.32</ele>
        <time>2013-05-08T11:48:18Z</time>
      </trkpt>
      <trkpt lat="46.6651" lon="6.1188">
        <ele>1040.76</ele>
        <time>2013-05-08T11:48:31Z</time>
      </trkpt>
      <trkpt lat="46.66517" lon="6.11935">
        <ele>1041.73</ele>
        <time>2013-05-08T11:48:43Z</time>
      </trkpt>
      <trkpt lat="46.6652" lon="6.11987">
        <ele>1041.73</ele>
        <time>2013-05-08T11:48:54Z</time>
      </trkpt>
      <trkpt lat="46.66521" lon="6.11993">
        <ele>1041.25</ele>
        <time>2013-05-08T11:48:55Z</time>
      </trkpt>
      <trkpt lat="46.66522" lon="6.12">
        <ele>1040.76</ele>
        <time>2013-05-08T11:48:56Z</time>
      </trkpt>
      <trkpt lat="46.66523" lon="6.12013">
        <ele>1040.76</ele>
        <time>2013-05-08T11:48:58Z</time>
      </trkpt>
      <trkpt lat="46.66528" lon="6.12068">
        <ele>1039.8</ele>
        <time>2013-05-08T11:49:09Z</time>
      </trkpt>
      <trkpt lat="46.66534" lon="6.12079">
        <ele>1039.8</ele>
        <time>2013-05-08T11:49:13Z</time>
      </trkpt>
      <trkpt lat="46.66534" lon="6.12082">
        <ele>1039.8</ele>
        <time>2013-05-08T11:49:14Z</time>
      </trkpt>
      <trkpt lat="46.66534" lon="6.12086">
        <ele>1040.28</ele>
        <time>2013-05-08T11:49:15Z</time>
      </trkpt>
      <trkpt lat="46.66539" lon="6.12108">
        <ele>1040.28</ele>
        <time>2013-05-08T11:49:21Z</time>
      </trkpt>
      <trkpt lat="46.66543" lon="6.1215">
        <ele>1040.76</ele>
        <time>2013-05-08T11:49:31Z</time>
      </trkpt>
      <trkpt lat="46.6655" lon="6.12172">
        <ele>1041.25</ele>
        <time>2013-05-08T11:49:38Z</time>
      </trkpt>
      <trkpt lat="46.66551" lon="6.12175">
        <ele>1041.73</ele>
        <time>2013-05-08T11:49:39Z</time>
      </trkpt>
      <trkpt lat="46.66552" lon="6.12178">
        <ele>1041.73</ele>
        <time>2013-05-08T11:49:40Z</time>
      </trkpt>
      <trkpt lat="46.66553" lon="6.12181">
        <ele>1041.73</ele>
        <time>2013-05-08T11:49:41Z</time>
      </trkpt>
      <trkpt lat="46.66554" lon="6.12185">
        <ele>1041.73</ele>
        <time>2013-05-08T11:49:42Z</time>
      </trkpt>
      <trkpt lat="46.66555" lon="6.12188">
        <ele>1041.73</ele>
        <time>2013-05-08T11:49:43Z</time>
      </trkpt>
      <trkpt lat="46.66556" lon="6.1219">
        <ele>1042.21</ele>
        <time>2013-05-08T11:49:44Z</time>
      </trkpt>
      <trkpt lat="46.66569" lon="6.12232">
        <ele>1043.17</ele>
        <time>2013-05-08T11:49:57Z</time>
      </trkpt>
      <trkpt lat="46.66585" lon="6.12264">
        <ele>1044.13</ele>
        <time>2013-05-08T11:50:08Z</time>
      </trkpt>
      <trkpt lat="46.66585" lon="6.12267">
        <ele>1044.13</ele>
        <time>2013-05-08T11:50:09Z</time>
      </trkpt>
      <trkpt lat="46.66586" lon="6.1227">
        <ele>1044.13</ele>
        <time>2013-05-08T11:50:10Z</time>
      </trkpt>
      <trkpt lat="46.66587" lon="6.12273">
        <ele>1044.61</ele>
        <time>2013-05-08T11:50:11Z</time>
      </trkpt>
      <trkpt lat="46.66588" lon="6.12276">
        <ele>1044.61</ele>
        <time>2013-05-08T11:50:12Z</time>
      </trkpt>
      <trkpt lat="46.66589" lon="6.12279">
        <ele>1044.61</ele>
        <time>2013-05-08T11:50:13Z</time>
      </trkpt>
      <trkpt lat="46.6659" lon="6.12283">
        <ele>1044.61</ele>
        <time>2013-05-08T11:50:14Z</time>
      </trkpt>
      <trkpt lat="46.66591" lon="6.12286">
        <ele>1045.09</ele>
        <time>2013-05-08T11:50:15Z</time>
      </trkpt>
      <trkpt lat="46.66592" lon="6.12289">
        <ele>1045.09</ele>
        <time>2013-05-08T11:50:16Z</time>
      </trkpt>
      <trkpt lat="46.66593" lon="6.12292">
        <ele>1045.09</ele>
        <time>2013-05-08T11:50:17Z</time>
      </trkpt>
      <trkpt lat="46.66594" lon="6.12295">
        <ele>1045.09</ele>
        <time>2013-05-08T11:50:18Z</time>
      </trkpt>
      <trkpt lat="46.66596" lon="6.12298">
        <ele>1045.57</ele>
        <time>2013-05-08T11:50:19Z</time>
      </trkpt>
      <trkpt lat="46.66597" lon="6.12301">
        <ele>1045.09</ele>
        <time>2013-05-08T11:50:20Z</time>
      </trkpt>
      <trkpt lat="46.66612" lon="6.1234">
        <ele>1046.05</ele>
        <time>2013-05-08T11:50:32Z</time>
      </trkpt>
      <trkpt lat="46.66633" lon="6.12381">
        <ele>1047.97</ele>
        <time>2013-05-08T11:50:44Z</time>
      </trkpt>
      <trkpt lat="46.66648" lon="6.12428">
        <ele>1049.42</ele>
        <time>2013-05-08T11:50:56Z</time>
      </trkpt>
      <trkpt lat="46.66667" lon="6.12488">
        <ele>1050.38</ele>
        <time>2013-05-08T11:51:10Z</time>
      </trkpt>
      <trkpt lat="46.66692" lon="6.12537">
        <ele>1052.3</ele>
        <time>2013-05-08T11:51:22Z</time>
      </trkpt>
      <trkpt lat="46.66721" lon="6.12589">
        <ele>1053.26</ele>
        <time>2013-05-08T11:51:36Z</time>
      </trkpt>
      <trkpt lat="46.66751" lon="6.12634">
        <ele>1052.78</ele>
        <time>2013-05-08T11:51:50Z</time>
      </trkpt>
      <trkpt lat="46.66778" lon="6.1267">
        <ele>1053.26</ele>
        <time>2013-05-08T11:52:02Z</time>
      </trkpt>
      <trkpt lat="46.66804" lon="6.12709">
        <ele>1055.67</ele>
        <time>2013-05-08T11:52:17Z</time>
      </trkpt>
      <trkpt lat="46.66825" lon="6.12747">
        <ele>1055.67</ele>
        <time>2013-05-08T11:52:30Z</time>
      </trkpt>
      <trkpt lat="46.66853" lon="6.12804">
        <ele>1052.78</ele>
        <time>2013-05-08T11:52:44Z</time>
      </trkpt>
      <trkpt lat="46.66871" lon="6.12839">
        <ele>1049.42</ele>
        <time>2013-05-08T11:52:51Z</time>
      </trkpt>
      <trkpt lat="46.66874" lon="6.12845">
        <ele>1048.45</ele>
        <time>2013-05-08T11:52:52Z</time>
      </trkpt>
      <trkpt lat="46.66883" lon="6.12861">
        <ele>1046.53</ele>
        <time>2013-05-08T11:52:55Z</time>
      </trkpt>
      <trkpt lat="46.66888" lon="6.12869">
        <ele>1045.09</ele>
        <time>2013-05-08T11:52:57Z</time>
      </trkpt>
      <trkpt lat="46.66891" lon="6.12873">
        <ele>1044.61</ele>
        <time>2013-05-08T11:52:58Z</time>
      </trkpt>
      <trkpt lat="46.66894" lon="6.12877">
        <ele>1043.65</ele>
        <time>2013-05-08T11:52:59Z</time>
      </trkpt>
      <trkpt lat="46.66898" lon="6.12881">
        <ele>1043.17</ele>
        <time>2013-05-08T11:53:00Z</time>
      </trkpt>
      <trkpt lat="46.66901" lon="6.12884">
        <ele>1042.21</ele>
        <time>2013-05-08T11:53:01Z</time>
      </trkpt>
      <trkpt lat="46.66905" lon="6.12889">
        <ele>1041.73</ele>
        <time>2013-05-08T11:53:02Z</time>
      </trkpt>
      <trkpt lat="46.66916" lon="6.12903">
        <ele>1038.36</ele>
        <time>2013-05-08T11:53:06Z</time>
      </trkpt>
      <trkpt lat="46.66925" lon="6.12916">
        <ele>1035.96</ele>
        <time>2013-05-08T11:53:16Z</time>
      </trkpt>
      <trkpt lat="46.66925" lon="6.12916">
        <ele>1036.44</ele>
        <time>2013-05-08T11:53:37Z</time>
      </trkpt>
      <trkpt lat="46.66925" lon="6.12916">
        <ele>1035.48</ele>
        <time>2013-05-08T11:53:57Z</time>
      </trkpt>
      <trkpt lat="46.66926" lon="6.12917">
        <ele>1035.48</ele>
        <time>2013-05-08T11:53:58Z</time>
      </trkpt>
      <trkpt lat="46.66927" lon="6.12921">
        <ele>1035</ele>
        <time>2013-05-08T11:53:59Z</time>
      </trkpt>
      <trkpt lat="46.66929" lon="6.12925">
        <ele>1034.52</ele>
        <time>2013-05-08T11:54:00Z</time>
      </trkpt>
      <trkpt lat="46.66932" lon="6.1293">
        <ele>1034.04</ele>
        <time>2013-05-08T11:54:01Z</time>
      </trkpt>
      <trkpt lat="46.66947" lon="6.1296">
        <ele>1030.67</ele>
        <time>2013-05-08T11:54:06Z</time>
      </trkpt>
      <trkpt lat="46.66957" lon="6.12978">
        <ele>1028.27</ele>
        <time>2013-05-08T11:54:09Z</time>
      </trkpt>
      <trkpt lat="46.66961" lon="6.12983">
        <ele>1027.31</ele>
        <time>2013-05-08T11:54:10Z</time>
      </trkpt>
      <trkpt lat="46.66966" lon="6.12987">
        <ele>1026.83</ele>
        <time>2013-05-08T11:54:11Z</time>
      </trkpt>
      <trkpt lat="46.66999" lon="6.13005">
        <ele>1022.98</ele>
        <time>2013-05-08T11:54:16Z</time>
      </trkpt>
      <trkpt lat="46.67033" lon="6.13029">
        <ele>1019.62</ele>
        <time>2013-05-08T11:54:20Z</time>
      </trkpt>
      <trkpt lat="46.6705" lon="6.13045">
        <ele>1018.17</ele>
        <time>2013-05-08T11:54:22Z</time>
      </trkpt>
      <trkpt lat="46.67057" lon="6.13054">
        <ele>1017.21</ele>
        <time>2013-05-08T11:54:23Z</time>
      </trkpt>
      <trkpt lat="46.67075" lon="6.13079">
        <ele>1017.69</ele>
        <time>2013-05-08T11:54:26Z</time>
      </trkpt>
      <trkpt lat="46.67081" lon="6.13084">
        <ele>1018.17</ele>
        <time>2013-05-08T11:54:27Z</time>
      </trkpt>
      <trkpt lat="46.67086" lon="6.13088">
        <ele>1018.17</ele>
        <time>2013-05-08T11:54:28Z</time>
      </trkpt>
      <trkpt lat="46.67091" lon="6.13093">
        <ele>1018.17</ele>
        <time>2013-05-08T11:54:29Z</time>
      </trkpt>
      <trkpt lat="46.67095" lon="6.13098">
        <ele>1018.65</ele>
        <time>2013-05-08T11:54:30Z</time>
      </trkpt>
      <trkpt lat="46.67139" lon="6.13148">
        <ele>1017.21</ele>
        <time>2013-05-08T11:54:42Z</time>
      </trkpt>
      <trkpt lat="46.67151" lon="6.13161">
        <ele>1015.77</ele>
        <time>2013-05-08T11:54:45Z</time>
      </trkpt>
      <trkpt lat="46.67156" lon="6.13165">
        <ele>1015.77</ele>
        <time>2013-05-08T11:54:46Z</time>
      </trkpt>
      <trkpt lat="46.6716" lon="6.13169">
        <ele>1015.29</ele>
        <time>2013-05-08T11:54:47Z</time>
      </trkpt>
      <trkpt lat="46.67169" lon="6.13176">
        <ele>1014.81</ele>
        <time>2013-05-08T11:54:49Z</time>
      </trkpt>
      <trkpt lat="46.67178" lon="6.13183">
        <ele>1014.81</ele>
        <time>2013-05-08T11:54:51Z</time>
      </trkpt>
      <trkpt lat="46.67205" lon="6.13195">
        <ele>1015.77</ele>
        <time>2013-05-08T11:54:57Z</time>
      </trkpt>
      <trkpt lat="46.67218" lon="6.132">
        <ele>1014.33</ele>
        <time>2013-05-08T11:55:00Z</time>
      </trkpt>
      <trkpt lat="46.67254" lon="6.13227">
        <ele>1012.89</ele>
        <time>2013-05-08T11:55:11Z</time>
      </trkpt>
      <trkpt lat="46.67274" lon="6.13282">
        <ele>1011.93</ele>
        <time>2013-05-08T11:55:23Z</time>
      </trkpt>
      <trkpt lat="46.67286" lon="6.13321">
        <ele>1010.48</ele>
        <time>2013-05-08T11:55:31Z</time>
      </trkpt>
      <trkpt lat="46.67308" lon="6.13379">
        <ele>1010</ele>
        <time>2013-05-08T11:55:43Z</time>
      </trkpt>
      <trkpt lat="46.67331" lon="6.13429">
        <ele>1008.56</ele>
        <time>2013-05-08T11:55:52Z</time>
      </trkpt>
      <trkpt lat="46.67333" lon="6.13436">
        <ele>1008.56</ele>
        <time>2013-05-08T11:55:53Z</time>
      </trkpt>
      <trkpt lat="46.67363" lon="6.13498">
        <ele>1007.6</ele>
        <time>2013-05-08T11:56:03Z</time>
      </trkpt>
      <trkpt lat="46.67385" lon="6.1358">
        <ele>1006.64</ele>
        <time>2013-05-08T11:56:15Z</time>
      </trkpt>
      <trkpt lat="46.67392" lon="6.13612">
        <ele>1006.64</ele>
        <time>2013-05-08T11:56:20Z</time>
      </trkpt>
      <trkpt lat="46.67393" lon="6.13618">
        <ele>1006.16</ele>
        <time>2013-05-08T11:56:21Z</time>
      </trkpt>
      <trkpt lat="46.67394" lon="6.13624">
        <ele>1006.16</ele>
        <time>2013-05-08T11:56:22Z</time>
      </trkpt>
      <trkpt lat="46.67402" lon="6.13657">
        <ele>1005.68</ele>
        <time>2013-05-08T11:56:27Z</time>
      </trkpt>
      <trkpt lat="46.67418" lon="6.13725">
        <ele>1004.23</ele>
        <time>2013-05-08T11:56:37Z</time>
      </trkpt>
      <trkpt lat="46.67421" lon="6.13731">
        <ele>1004.23</ele>
        <time>2013-05-08T11:56:38Z</time>
      </trkpt>
      <trkpt lat="46.67438" lon="6.13759">
        <ele>1003.75</ele>
        <time>2013-05-08T11:56:46Z</time>
      </trkpt>
      <trkpt lat="46.67441" lon="6.1376">
        <ele>1003.75</ele>
        <time>2013-05-08T11:56:47Z</time>
      </trkpt>
      <trkpt lat="46.67443" lon="6.13759">
        <ele>1003.75</ele>
        <time>2013-05-08T11:56:48Z</time>
      </trkpt>
      <trkpt lat="46.67447" lon="6.13758">
        <ele>1003.75</ele>
        <time>2013-05-08T11:56:49Z</time>
      </trkpt>
      <trkpt lat="46.6745" lon="6.13757">
        <ele>1003.75</ele>
        <time>2013-05-08T11:56:50Z</time>
      </trkpt>
      <trkpt lat="46.67493" lon="6.13748">
        <ele>1001.35</ele>
        <time>2013-05-08T11:57:02Z</time>
      </trkpt>
      <trkpt lat="46.67501" lon="6.13749">
        <ele>1001.35</ele>
        <time>2013-05-08T11:57:04Z</time>
      </trkpt>
      <trkpt lat="46.67505" lon="6.1375">
        <ele>1000.87</ele>
        <time>2013-05-08T11:57:05Z</time>
      </trkpt>
      <trkpt lat="46.67518" lon="6.13755">
        <ele>1000.39</ele>
        <time>2013-05-08T11:57:08Z</time>
      </trkpt>
      <trkpt lat="46.67526" lon="6.1376">
        <ele>1000.39</ele>
        <time>2013-05-08T11:57:10Z</time>
      </trkpt>
      <trkpt lat="46.6753" lon="6.13763">
        <ele>1000.39</ele>
        <time>2013-05-08T11:57:11Z</time>
      </trkpt>
      <trkpt lat="46.6759" lon="6.13814">
        <ele>998.47</ele>
        <time>2013-05-08T11:57:24Z</time>
      </trkpt>
      <trkpt lat="46.67628" lon="6.13834">
        <ele>997.51</ele>
        <time>2013-05-08T11:57:31Z</time>
      </trkpt>
      <trkpt lat="46.67634" lon="6.13835">
        <ele>997.51</ele>
        <time>2013-05-08T11:57:32Z</time>
      </trkpt>
      <trkpt lat="46.67652" lon="6.13835">
        <ele>997.51</ele>
        <time>2013-05-08T11:57:35Z</time>
      </trkpt>
      <trkpt lat="46.67658" lon="6.13834">
        <ele>997.02</ele>
        <time>2013-05-08T11:57:36Z</time>
      </trkpt>
      <trkpt lat="46.67681" lon="6.13823">
        <ele>996.54</ele>
        <time>2013-05-08T11:57:40Z</time>
      </trkpt>
      <trkpt lat="46.67691" lon="6.13813">
        <ele>996.54</ele>
        <time>2013-05-08T11:57:42Z</time>
      </trkpt>
      <trkpt lat="46.67713" lon="6.13779">
        <ele>995.58</ele>
        <time>2013-05-08T11:57:47Z</time>
      </trkpt>
      <trkpt lat="46.67771" lon="6.13681">
        <ele>993.18</ele>
        <time>2013-05-08T11:58:01Z</time>
      </trkpt>
      <trkpt lat="46.67816" lon="6.13568">
        <ele>992.22</ele>
        <time>2013-05-08T11:58:16Z</time>
      </trkpt>
      <trkpt lat="46.67819" lon="6.13561">
        <ele>992.7</ele>
        <time>2013-05-08T11:58:17Z</time>
      </trkpt>
      <trkpt lat="46.67823" lon="6.13554">
        <ele>992.7</ele>
        <time>2013-05-08T11:58:18Z</time>
      </trkpt>
      <trkpt lat="46.67848" lon="6.135">
        <ele>991.74</ele>
        <time>2013-05-08T11:58:26Z</time>
      </trkpt>
      <trkpt lat="46.67892" lon="6.13403">
        <ele>989.81</ele>
        <time>2013-05-08T11:58:40Z</time>
      </trkpt>
      <trkpt lat="46.67919" lon="6.13351">
        <ele>989.33</ele>
        <time>2013-05-08T11:58:48Z</time>
      </trkpt>
      <trkpt lat="46.67929" lon="6.13335">
        <ele>989.33</ele>
        <time>2013-05-08T11:58:51Z</time>
      </trkpt>
      <trkpt lat="46.67933" lon="6.13331">
        <ele>989.33</ele>
        <time>2013-05-08T11:58:52Z</time>
      </trkpt>
      <trkpt lat="46.67955" lon="6.13316">
        <ele>989.81</ele>
        <time>2013-05-08T11:58:57Z</time>
      </trkpt>
      <trkpt lat="46.67959" lon="6.13315">
        <ele>989.81</ele>
        <time>2013-05-08T11:58:58Z</time>
      </trkpt>
      <trkpt lat="46.67962" lon="6.13316">
        <ele>990.3</ele>
        <time>2013-05-08T11:58:59Z</time>
      </trkpt>
      <trkpt lat="46.67965" lon="6.13319">
        <ele>990.3</ele>
        <time>2013-05-08T11:59:00Z</time>
      </trkpt>
      <trkpt lat="46.67967" lon="6.13323">
        <ele>990.78</ele>
        <time>2013-05-08T11:59:01Z</time>
      </trkpt>
      <trkpt lat="46.67997" lon="6.13363">
        <ele>992.22</ele>
        <time>2013-05-08T11:59:12Z</time>
      </trkpt>
      <trkpt lat="46.6803" lon="6.13398">
        <ele>994.14</ele>
        <time>2013-05-08T11:59:23Z</time>
      </trkpt>
      <trkpt lat="46.68076" lon="6.13431">
        <ele>992.7</ele>
        <time>2013-05-08T11:59:35Z</time>
      </trkpt>
      <trkpt lat="46.68084" lon="6.13437">
        <ele>992.22</ele>
        <time>2013-05-08T11:59:37Z</time>
      </trkpt>
      <trkpt lat="46.68088" lon="6.1344">
        <ele>992.22</ele>
        <time>2013-05-08T11:59:38Z</time>
      </trkpt>
      <trkpt lat="46.68091" lon="6.13444">
        <ele>992.22</ele>
        <time>2013-05-08T11:59:39Z</time>
      </trkpt>
      <trkpt lat="46.68093" lon="6.13449">
        <ele>992.22</ele>
        <time>2013-05-08T11:59:40Z</time>
      </trkpt>
      <trkpt lat="46.68094" lon="6.13455">
        <ele>992.22</ele>
        <time>2013-05-08T11:59:41Z</time>
      </trkpt>
      <trkpt lat="46.68094" lon="6.13459">
        <ele>992.22</ele>
        <time>2013-05-08T11:59:42Z</time>
      </trkpt>
      <trkpt lat="46.68092" lon="6.13463">
        <ele>992.22</ele>
        <time>2013-05-08T11:59:43Z</time>
      </trkpt>
      <trkpt lat="46.6809" lon="6.13467">
        <ele>992.7</ele>
        <time>2013-05-08T11:59:44Z</time>
      </trkpt>
      <trkpt lat="46.68089" lon="6.1347">
        <ele>992.7</ele>
        <time>2013-05-08T11:59:45Z</time>
      </trkpt>
      <trkpt lat="46.68087" lon="6.13473">
        <ele>992.7</ele>
        <time>2013-05-08T11:59:46Z</time>
      </trkpt>
      <trkpt lat="46.68085" lon="6.13476">
        <ele>992.7</ele>
        <time>2013-05-08T11:59:47Z</time>
      </trkpt>
      <trkpt lat="46.68084" lon="6.13479">
        <ele>992.7</ele>
        <time>2013-05-08T11:59:48Z</time>
      </trkpt>
      <trkpt lat="46.68083" lon="6.13482">
        <ele>992.7</ele>
        <time>2013-05-08T11:59:49Z</time>
      </trkpt>
      <trkpt lat="46.68083" lon="6.13486">
        <ele>993.18</ele>
        <time>2013-05-08T11:59:50Z</time>
      </trkpt>
      <trkpt lat="46.68083" lon="6.1349">
        <ele>992.7</ele>
        <time>2013-05-08T11:59:51Z</time>
      </trkpt>
      <trkpt lat="46.68084" lon="6.13493">
        <ele>992.7</ele>
        <time>2013-05-08T11:59:52Z</time>
      </trkpt>
      <trkpt lat="46.68085" lon="6.13496">
        <ele>992.7</ele>
        <time>2013-05-08T11:59:53Z</time>
      </trkpt>
      <trkpt lat="46.68086" lon="6.13499">
        <ele>992.7</ele>
        <time>2013-05-08T11:59:54Z</time>
      </trkpt>
      <trkpt lat="46.68087" lon="6.13502">
        <ele>993.18</ele>
        <time>2013-05-08T11:59:55Z</time>
      </trkpt>
      <trkpt lat="46.68088" lon="6.13505">
        <ele>993.18</ele>
        <time>2013-05-08T11:59:56Z</time>
      </trkpt>
      <trkpt lat="46.6809" lon="6.13508">
        <ele>992.7</ele>
        <time>2013-05-08T11:59:57Z</time>
      </trkpt>
      <trkpt lat="46.68091" lon="6.13511">
        <ele>993.18</ele>
        <time>2013-05-08T11:59:58Z</time>
      </trkpt>
      <trkpt lat="46.68092" lon="6.13514">
        <ele>993.18</ele>
        <time>2013-05-08T11:59:59Z</time>
      </trkpt>
      <trkpt lat="46.68111" lon="6.1357">
        <ele>994.14</ele>
        <time>2013-05-08T12:00:13Z</time>
      </trkpt>
      <trkpt lat="46.6813" lon="6.13622">
        <ele>996.06</ele>
        <time>2013-05-08T12:00:27Z</time>
      </trkpt>
      <trkpt lat="46.68152" lon="6.13664">
        <ele>998.95</ele>
        <time>2013-05-08T12:00:41Z</time>
      </trkpt>
      <trkpt lat="46.68162" lon="6.13681">
        <ele>1001.35</ele>
        <time>2013-05-08T12:00:47Z</time>
      </trkpt>
      <trkpt lat="46.68187" lon="6.13725">
        <ele>1003.75</ele>
        <time>2013-05-08T12:01:02Z</time>
      </trkpt>
      <trkpt lat="46.68221" lon="6.13766">
        <ele>1006.16</ele>
        <time>2013-05-08T12:01:18Z</time>
      </trkpt>
      <trkpt lat="46.68239" lon="6.13816">
        <ele>1007.12</ele>
        <time>2013-05-08T12:01:32Z</time>
      </trkpt>
      <trkpt lat="46.68255" lon="6.13881">
        <ele>1008.08</ele>
        <time>2013-05-08T12:01:48Z</time>
      </trkpt>
      <trkpt lat="46.68258" lon="6.13896">
        <ele>1007.6</ele>
        <time>2013-05-08T12:01:51Z</time>
      </trkpt>
      <trkpt lat="46.68263" lon="6.13909">
        <ele>1006.16</ele>
        <time>2013-05-08T12:01:53Z</time>
      </trkpt>
      <trkpt lat="46.68276" lon="6.13938">
        <ele>1004.72</ele>
        <time>2013-05-08T12:01:57Z</time>
      </trkpt>
      <trkpt lat="46.68296" lon="6.1399">
        <ele>1005.68</ele>
        <time>2013-05-08T12:02:04Z</time>
      </trkpt>
      <trkpt lat="46.683" lon="6.14003">
        <ele>1005.68</ele>
        <time>2013-05-08T12:02:06Z</time>
      </trkpt>
      <trkpt lat="46.68301" lon="6.1401">
        <ele>1005.68</ele>
        <time>2013-05-08T12:02:07Z</time>
      </trkpt>
      <trkpt lat="46.68303" lon="6.14016">
        <ele>1005.68</ele>
        <time>2013-05-08T12:02:08Z</time>
      </trkpt>
      <trkpt lat="46.68304" lon="6.14023">
        <ele>1005.68</ele>
        <time>2013-05-08T12:02:09Z</time>
      </trkpt>
      <trkpt lat="46.68305" lon="6.14029">
        <ele>1005.68</ele>
        <time>2013-05-08T12:02:10Z</time>
      </trkpt>
      <trkpt lat="46.6831" lon="6.14085">
        <ele>1005.68</ele>
        <time>2013-05-08T12:02:22Z</time>
      </trkpt>
      <trkpt lat="46.68322" lon="6.14144">
        <ele>1004.72</ele>
        <time>2013-05-08T12:02:36Z</time>
      </trkpt>
      <trkpt lat="46.68317" lon="6.14176">
        <ele>1003.27</ele>
        <time>2013-05-08T12:02:44Z</time>
      </trkpt>
      <trkpt lat="46.68326" lon="6.14225">
        <ele>1001.83</ele>
        <time>2013-05-08T12:02:58Z</time>
      </trkpt>
      <trkpt lat="46.68335" lon="6.14265">
        <ele>998.95</ele>
        <time>2013-05-08T12:03:09Z</time>
      </trkpt>
      <trkpt lat="46.6834" lon="6.14291">
        <ele>996.06</ele>
        <time>2013-05-08T12:03:21Z</time>
      </trkpt>
      <trkpt lat="46.68342" lon="6.14315">
        <ele>993.66</ele>
        <time>2013-05-08T12:03:33Z</time>
      </trkpt>
      <trkpt lat="46.68345" lon="6.14343">
        <ele>991.26</ele>
        <time>2013-05-08T12:03:38Z</time>
      </trkpt>
      <trkpt lat="46.68346" lon="6.1435">
        <ele>990.78</ele>
        <time>2013-05-08T12:03:39Z</time>
      </trkpt>
      <trkpt lat="46.68347" lon="6.14357">
        <ele>990.3</ele>
        <time>2013-05-08T12:03:40Z</time>
      </trkpt>
      <trkpt lat="46.6835" lon="6.14375">
        <ele>989.33</ele>
        <time>2013-05-08T12:03:42Z</time>
      </trkpt>
      <trkpt lat="46.68367" lon="6.14434">
        <ele>986.93</ele>
        <time>2013-05-08T12:03:49Z</time>
      </trkpt>
      <trkpt lat="46.68384" lon="6.14504">
        <ele>986.45</ele>
        <time>2013-05-08T12:04:01Z</time>
      </trkpt>
      <trkpt lat="46.68403" lon="6.14567">
        <ele>985.97</ele>
        <time>2013-05-08T12:04:14Z</time>
      </trkpt>
      <trkpt lat="46.68423" lon="6.14628">
        <ele>985.49</ele>
        <time>2013-05-08T12:04:28Z</time>
      </trkpt>
      <trkpt lat="46.68441" lon="6.14685">
        <ele>984.53</ele>
        <time>2013-05-08T12:04:40Z</time>
      </trkpt>
      <trkpt lat="46.68461" lon="6.14749">
        <ele>983.57</ele>
        <time>2013-05-08T12:04:54Z</time>
      </trkpt>
      <trkpt lat="46.68477" lon="6.14798">
        <ele>984.05</ele>
        <time>2013-05-08T12:05:06Z</time>
      </trkpt>
      <trkpt lat="46.68501" lon="6.14853">
        <ele>983.57</ele>
        <time>2013-05-08T12:05:19Z</time>
      </trkpt>
      <trkpt lat="46.6851" lon="6.14884">
        <ele>984.05</ele>
        <time>2013-05-08T12:05:25Z</time>
      </trkpt>
      <trkpt lat="46.68539" lon="6.14962">
        <ele>981.16</ele>
        <time>2013-05-08T12:05:38Z</time>
      </trkpt>
      <trkpt lat="46.68545" lon="6.14972">
        <ele>981.16</ele>
        <time>2013-05-08T12:05:40Z</time>
      </trkpt>
      <trkpt lat="46.68568" lon="6.15013">
        <ele>981.16</ele>
        <time>2013-05-08T12:05:51Z</time>
      </trkpt>
      <trkpt lat="46.68571" lon="6.15034">
        <ele>980.68</ele>
        <time>2013-05-08T12:05:59Z</time>
      </trkpt>
      <trkpt lat="46.68572" lon="6.15037">
        <ele>980.68</ele>
        <time>2013-05-08T12:06:00Z</time>
      </trkpt>
      <trkpt lat="46.68576" lon="6.15061">
        <ele>981.16</ele>
        <time>2013-05-08T12:06:14Z</time>
      </trkpt>
      <trkpt lat="46.68576" lon="6.15061">
        <ele>981.16</ele>
        <time>2013-05-08T12:06:41Z</time>
      </trkpt>
      <trkpt lat="46.68579" lon="6.1507">
        <ele>980.68</ele>
        <time>2013-05-08T12:07:07Z</time>
      </trkpt>
      <trkpt lat="46.68594" lon="6.15131">
        <ele>980.68</ele>
        <time>2013-05-08T12:07:22Z</time>
      </trkpt>
      <trkpt lat="46.68605" lon="6.15194">
        <ele>980.2</ele>
        <time>2013-05-08T12:07:35Z</time>
      </trkpt>
      <trkpt lat="46.68609" lon="6.15212">
        <ele>979.72</ele>
        <time>2013-05-08T12:07:38Z</time>
      </trkpt>
      <trkpt lat="46.68627" lon="6.15266">
        <ele>979.24</ele>
        <time>2013-05-08T12:07:48Z</time>
      </trkpt>
      <trkpt lat="46.68628" lon="6.15271">
        <ele>979.24</ele>
        <time>2013-05-08T12:07:49Z</time>
      </trkpt>
      <trkpt lat="46.68651" lon="6.15343">
        <ele>979.24</ele>
        <time>2013-05-08T12:08:03Z</time>
      </trkpt>
      <trkpt lat="46.68672" lon="6.15423">
        <ele>977.32</ele>
        <time>2013-05-08T12:08:17Z</time>
      </trkpt>
      <trkpt lat="46.68683" lon="6.15494">
        <ele>977.32</ele>
        <time>2013-05-08T12:08:30Z</time>
      </trkpt>
      <trkpt lat="46.68689" lon="6.15547">
        <ele>976.84</ele>
        <time>2013-05-08T12:08:43Z</time>
      </trkpt>
      <trkpt lat="46.68693" lon="6.15573">
        <ele>976.36</ele>
        <time>2013-05-08T12:08:53Z</time>
      </trkpt>
      <trkpt lat="46.68702" lon="6.15607">
        <ele>976.36</ele>
        <time>2013-05-08T12:09:04Z</time>
      </trkpt>
      <trkpt lat="46.68707" lon="6.15625">
        <ele>975.88</ele>
        <time>2013-05-08T12:09:10Z</time>
      </trkpt>
      <trkpt lat="46.68709" lon="6.15627">
        <ele>975.88</ele>
        <time>2013-05-08T12:09:11Z</time>
      </trkpt>
      <trkpt lat="46.6871" lon="6.15629">
        <ele>976.36</ele>
        <time>2013-05-08T12:09:12Z</time>
      </trkpt>
      <trkpt lat="46.68721" lon="6.15651">
        <ele>976.84</ele>
        <time>2013-05-08T12:09:23Z</time>
      </trkpt>
      <trkpt lat="46.68721" lon="6.15652">
        <ele>976.84</ele>
        <time>2013-05-08T12:09:24Z</time>
      </trkpt>
      <trkpt lat="46.68722" lon="6.15654">
        <ele>976.84</ele>
        <time>2013-05-08T12:09:25Z</time>
      </trkpt>
      <trkpt lat="46.68723" lon="6.15654">
        <ele>976.84</ele>
        <time>2013-05-08T12:09:40Z</time>
      </trkpt>
      <trkpt lat="46.68731" lon="6.1567">
        <ele>977.32</ele>
        <time>2013-05-08T12:09:53Z</time>
      </trkpt>
      <trkpt lat="46.68734" lon="6.15678">
        <ele>977.32</ele>
        <time>2013-05-08T12:09:56Z</time>
      </trkpt>
      <trkpt lat="46.68735" lon="6.1568">
        <ele>976.84</ele>
        <time>2013-05-08T12:09:57Z</time>
      </trkpt>
      <trkpt lat="46.68737" lon="6.15682">
        <ele>977.32</ele>
        <time>2013-05-08T12:09:58Z</time>
      </trkpt>
      <trkpt lat="46.68737" lon="6.15684">
        <ele>977.32</ele>
        <time>2013-05-08T12:09:59Z</time>
      </trkpt>
      <trkpt lat="46.68738" lon="6.15686">
        <ele>977.32</ele>
        <time>2013-05-08T12:10:00Z</time>
      </trkpt>
      <trkpt lat="46.68739" lon="6.15688">
        <ele>976.84</ele>
        <time>2013-05-08T12:10:01Z</time>
      </trkpt>
      <trkpt lat="46.68739" lon="6.15693">
        <ele>976.84</ele>
        <time>2013-05-08T12:10:03Z</time>
      </trkpt>
      <trkpt lat="46.68738" lon="6.15695">
        <ele>976.84</ele>
        <time>2013-05-08T12:10:04Z</time>
      </trkpt>
      <trkpt lat="46.68737" lon="6.15697">
        <ele>976.84</ele>
        <time>2013-05-08T12:10:05Z</time>
      </trkpt>
      <trkpt lat="46.68736" lon="6.15699">
        <ele>976.84</ele>
        <time>2013-05-08T12:10:06Z</time>
      </trkpt>
      <trkpt lat="46.68734" lon="6.15702">
        <ele>976.36</ele>
        <time>2013-05-08T12:10:07Z</time>
      </trkpt>
      <trkpt lat="46.68731" lon="6.15714">
        <ele>975.88</ele>
        <time>2013-05-08T12:10:10Z</time>
      </trkpt>
      <trkpt lat="46.68733" lon="6.15717">
        <ele>975.88</ele>
        <time>2013-05-08T12:10:11Z</time>
      </trkpt>
      <trkpt lat="46.68755" lon="6.15757">
        <ele>975.88</ele>
        <time>2013-05-08T12:10:24Z</time>
      </trkpt>
      <trkpt lat="46.68747" lon="6.15795">
        <ele>975.39</ele>
        <time>2013-05-08T12:10:36Z</time>
      </trkpt>
      <trkpt lat="46.68731" lon="6.15823">
        <ele>976.36</ele>
        <time>2013-05-08T12:10:49Z</time>
      </trkpt>
      <trkpt lat="46.68731" lon="6.15823">
        <ele>976.36</ele>
        <time>2013-05-08T12:11:09Z</time>
      </trkpt>
      <trkpt lat="46.68731" lon="6.15823">
        <ele>975.88</ele>
        <time>2013-05-08T12:11:27Z</time>
      </trkpt>
      <trkpt lat="46.6873" lon="6.15824">
        <ele>975.88</ele>
        <time>2013-05-08T12:11:39Z</time>
      </trkpt>
      <trkpt lat="46.68729" lon="6.15825">
        <ele>975.88</ele>
        <time>2013-05-08T12:11:40Z</time>
      </trkpt>
      <trkpt lat="46.68728" lon="6.15826">
        <ele>975.88</ele>
        <time>2013-05-08T12:11:41Z</time>
      </trkpt>
      <trkpt lat="46.68726" lon="6.15828">
        <ele>975.88</ele>
        <time>2013-05-08T12:11:42Z</time>
      </trkpt>
      <trkpt lat="46.68724" lon="6.15831">
        <ele>975.88</ele>
        <time>2013-05-08T12:11:43Z</time>
      </trkpt>
      <trkpt lat="46.68723" lon="6.15834">
        <ele>975.39</ele>
        <time>2013-05-08T12:11:44Z</time>
      </trkpt>
      <trkpt lat="46.68721" lon="6.15838">
        <ele>975.39</ele>
        <time>2013-05-08T12:11:45Z</time>
      </trkpt>
      <trkpt lat="46.68719" lon="6.15841">
        <ele>974.91</ele>
        <time>2013-05-08T12:11:46Z</time>
      </trkpt>
      <trkpt lat="46.68718" lon="6.15845">
        <ele>974.91</ele>
        <time>2013-05-08T12:11:47Z</time>
      </trkpt>
      <trkpt lat="46.68718" lon="6.15849">
        <ele>974.91</ele>
        <time>2013-05-08T12:11:48Z</time>
      </trkpt>
      <trkpt lat="46.68717" lon="6.15852">
        <ele>974.91</ele>
        <time>2013-05-08T12:11:49Z</time>
      </trkpt>
      <trkpt lat="46.68716" lon="6.15856">
        <ele>974.91</ele>
        <time>2013-05-08T12:11:50Z</time>
      </trkpt>
      <trkpt lat="46.68716" lon="6.1586">
        <ele>974.43</ele>
        <time>2013-05-08T12:11:51Z</time>
      </trkpt>
      <trkpt lat="46.68716" lon="6.15865">
        <ele>974.43</ele>
        <time>2013-05-08T12:11:52Z</time>
      </trkpt>
      <trkpt lat="46.68716" lon="6.15869">
        <ele>974.43</ele>
        <time>2013-05-08T12:11:53Z</time>
      </trkpt>
      <trkpt lat="46.68717" lon="6.15872">
        <ele>974.43</ele>
        <time>2013-05-08T12:11:54Z</time>
      </trkpt>
      <trkpt lat="46.68718" lon="6.15884">
        <ele>974.43</ele>
        <time>2013-05-08T12:12:02Z</time>
      </trkpt>
      <trkpt lat="46.68719" lon="6.15887">
        <ele>974.91</ele>
        <time>2013-05-08T12:12:03Z</time>
      </trkpt>
      <trkpt lat="46.6872" lon="6.1589">
        <ele>974.43</ele>
        <time>2013-05-08T12:12:04Z</time>
      </trkpt>
      <trkpt lat="46.68722" lon="6.15892">
        <ele>974.91</ele>
        <time>2013-05-08T12:12:05Z</time>
      </trkpt>
      <trkpt lat="46.68723" lon="6.15895">
        <ele>974.91</ele>
        <time>2013-05-08T12:12:06Z</time>
      </trkpt>
      <trkpt lat="46.68724" lon="6.15897">
        <ele>974.91</ele>
        <time>2013-05-08T12:12:07Z</time>
      </trkpt>
      <trkpt lat="46.68724" lon="6.159">
        <ele>974.91</ele>
        <time>2013-05-08T12:12:08Z</time>
      </trkpt>
      <trkpt lat="46.68725" lon="6.15903">
        <ele>974.43</ele>
        <time>2013-05-08T12:12:09Z</time>
      </trkpt>
      <trkpt lat="46.68726" lon="6.15906">
        <ele>974.91</ele>
        <time>2013-05-08T12:12:10Z</time>
      </trkpt>
      <trkpt lat="46.68727" lon="6.15909">
        <ele>974.91</ele>
        <time>2013-05-08T12:12:11Z</time>
      </trkpt>
      <trkpt lat="46.68728" lon="6.15912">
        <ele>974.91</ele>
        <time>2013-05-08T12:12:12Z</time>
      </trkpt>
      <trkpt lat="46.68729" lon="6.15916">
        <ele>974.91</ele>
        <time>2013-05-08T12:12:13Z</time>
      </trkpt>
      <trkpt lat="46.6873" lon="6.15919">
        <ele>975.39</ele>
        <time>2013-05-08T12:12:14Z</time>
      </trkpt>
      <trkpt lat="46.68743" lon="6.15961">
        <ele>976.36</ele>
        <time>2013-05-08T12:12:27Z</time>
      </trkpt>
      <trkpt lat="46.68751" lon="6.15999">
        <ele>975.88</ele>
        <time>2013-05-08T12:12:37Z</time>
      </trkpt>
      <trkpt lat="46.68753" lon="6.16033">
        <ele>976.84</ele>
        <time>2013-05-08T12:12:47Z</time>
      </trkpt>
      <trkpt lat="46.68753" lon="6.16049">
        <ele>978.28</ele>
        <time>2013-05-08T12:12:52Z</time>
      </trkpt>
      <trkpt lat="46.68755" lon="6.16073">
        <ele>979.24</ele>
        <time>2013-05-08T12:12:59Z</time>
      </trkpt>
      <trkpt lat="46.68754" lon="6.1608">
        <ele>979.72</ele>
        <time>2013-05-08T12:13:01Z</time>
      </trkpt>
      <trkpt lat="46.68753" lon="6.16086">
        <ele>980.68</ele>
        <time>2013-05-08T12:13:04Z</time>
      </trkpt>
      <trkpt lat="46.68749" lon="6.1612">
        <ele>983.57</ele>
        <time>2013-05-08T12:13:12Z</time>
      </trkpt>
      <trkpt lat="46.68747" lon="6.16146">
        <ele>986.93</ele>
        <time>2013-05-08T12:13:19Z</time>
      </trkpt>
      <trkpt lat="46.68757" lon="6.16179">
        <ele>989.33</ele>
        <time>2013-05-08T12:13:28Z</time>
      </trkpt>
      <trkpt lat="46.6876" lon="6.16185">
        <ele>989.81</ele>
        <time>2013-05-08T12:13:34Z</time>
      </trkpt>
      <trkpt lat="46.68762" lon="6.16187">
        <ele>989.81</ele>
        <time>2013-05-08T12:13:35Z</time>
      </trkpt>
      <trkpt lat="46.68779" lon="6.16223">
        <ele>991.74</ele>
        <time>2013-05-08T12:13:48Z</time>
      </trkpt>
      <trkpt lat="46.68788" lon="6.16241">
        <ele>992.7</ele>
        <time>2013-05-08T12:13:54Z</time>
      </trkpt>
      <trkpt lat="46.68797" lon="6.16265">
        <ele>992.7</ele>
        <time>2013-05-08T12:14:03Z</time>
      </trkpt>
      <trkpt lat="46.68797" lon="6.16268">
        <ele>993.18</ele>
        <time>2013-05-08T12:14:04Z</time>
      </trkpt>
      <trkpt lat="46.68798" lon="6.1627">
        <ele>993.18</ele>
        <time>2013-05-08T12:14:05Z</time>
      </trkpt>
      <trkpt lat="46.68798" lon="6.16273">
        <ele>993.18</ele>
        <time>2013-05-08T12:14:06Z</time>
      </trkpt>
      <trkpt lat="46.68798" lon="6.16275">
        <ele>993.66</ele>
        <time>2013-05-08T12:14:07Z</time>
      </trkpt>
      <trkpt lat="46.68799" lon="6.16276">
        <ele>993.66</ele>
        <time>2013-05-08T12:14:08Z</time>
      </trkpt>
      <trkpt lat="46.68799" lon="6.16281">
        <ele>994.14</ele>
        <time>2013-05-08T12:14:11Z</time>
      </trkpt>
      <trkpt lat="46.68799" lon="6.16288">
        <ele>994.62</ele>
        <time>2013-05-08T12:14:14Z</time>
      </trkpt>
      <trkpt lat="46.68802" lon="6.16302">
        <ele>995.58</ele>
        <time>2013-05-08T12:14:21Z</time>
      </trkpt>
      <trkpt lat="46.68802" lon="6.16304">
        <ele>995.58</ele>
        <time>2013-05-08T12:14:22Z</time>
      </trkpt>
      <trkpt lat="46.68802" lon="6.16317">
        <ele>997.99</ele>
        <time>2013-05-08T12:14:28Z</time>
      </trkpt>
      <trkpt lat="46.68805" lon="6.16331">
        <ele>998.47</ele>
        <time>2013-05-08T12:14:32Z</time>
      </trkpt>
      <trkpt lat="46.68806" lon="6.16334">
        <ele>998.47</ele>
        <time>2013-05-08T12:14:33Z</time>
      </trkpt>
      <trkpt lat="46.6881" lon="6.16346">
        <ele>999.43</ele>
        <time>2013-05-08T12:14:37Z</time>
      </trkpt>
      <trkpt lat="46.68812" lon="6.16349">
        <ele>999.43</ele>
        <time>2013-05-08T12:14:38Z</time>
      </trkpt>
      <trkpt lat="46.68828" lon="6.16379">
        <ele>1000.87</ele>
        <time>2013-05-08T12:14:49Z</time>
      </trkpt>
      <trkpt lat="46.6883" lon="6.16382">
        <ele>1000.87</ele>
        <time>2013-05-08T12:14:51Z</time>
      </trkpt>
      <trkpt lat="46.68838" lon="6.16406">
        <ele>1002.31</ele>
        <time>2013-05-08T12:15:02Z</time>
      </trkpt>
      <trkpt lat="46.6884" lon="6.16409">
        <ele>1002.79</ele>
        <time>2013-05-08T12:15:03Z</time>
      </trkpt>
      <trkpt lat="46.68841" lon="6.16412">
        <ele>1002.79</ele>
        <time>2013-05-08T12:15:04Z</time>
      </trkpt>
      <trkpt lat="46.68853" lon="6.1644">
        <ele>1004.23</ele>
        <time>2013-05-08T12:15:15Z</time>
      </trkpt>
      <trkpt lat="46.68863" lon="6.16476">
        <ele>1004.23</ele>
        <time>2013-05-08T12:15:27Z</time>
      </trkpt>
      <trkpt lat="46.68874" lon="6.16502">
        <ele>1004.23</ele>
        <time>2013-05-08T12:15:35Z</time>
      </trkpt>
      <trkpt lat="46.68884" lon="6.16528">
        <ele>1005.2</ele>
        <time>2013-05-08T12:15:45Z</time>
      </trkpt>
      <trkpt lat="46.68893" lon="6.16545">
        <ele>1005.68</ele>
        <time>2013-05-08T12:15:51Z</time>
      </trkpt>
      <trkpt lat="46.68896" lon="6.16549">
        <ele>1006.16</ele>
        <time>2013-05-08T12:15:53Z</time>
      </trkpt>
      <trkpt lat="46.68896" lon="6.16554">
        <ele>1006.16</ele>
        <time>2013-05-08T12:15:58Z</time>
      </trkpt>
      <trkpt lat="46.68897" lon="6.16557">
        <ele>1006.16</ele>
        <time>2013-05-08T12:16:00Z</time>
      </trkpt>
      <trkpt lat="46.68903" lon="6.16567">
        <ele>1007.12</ele>
        <time>2013-05-08T12:16:12Z</time>
      </trkpt>
      <trkpt lat="46.68905" lon="6.16575">
        <ele>1008.08</ele>
        <time>2013-05-08T12:16:27Z</time>
      </trkpt>
      <trkpt lat="46.68907" lon="6.16584">
        <ele>1009.04</ele>
        <time>2013-05-08T12:16:39Z</time>
      </trkpt>
      <trkpt lat="46.68909" lon="6.16596">
        <ele>1010</ele>
        <time>2013-05-08T12:16:52Z</time>
      </trkpt>
      <trkpt lat="46.68911" lon="6.16603">
        <ele>1010.48</ele>
        <time>2013-05-08T12:17:00Z</time>
      </trkpt>
      <trkpt lat="46.68913" lon="6.16607">
        <ele>1010.48</ele>
        <time>2013-05-08T12:17:04Z</time>
      </trkpt>
      <trkpt lat="46.68914" lon="6.16608">
        <ele>1010.96</ele>
        <time>2013-05-08T12:17:05Z</time>
      </trkpt>
      <trkpt lat="46.68915" lon="6.16609">
        <ele>1010.96</ele>
        <time>2013-05-08T12:17:06Z</time>
      </trkpt>
      <trkpt lat="46.68918" lon="6.16614">
        <ele>1010.96</ele>
        <time>2013-05-08T12:17:09Z</time>
      </trkpt>
      <trkpt lat="46.68918" lon="6.1662">
        <ele>1011.44</ele>
        <time>2013-05-08T12:17:13Z</time>
      </trkpt>
      <trkpt lat="46.68919" lon="6.16621">
        <ele>1011.44</ele>
        <time>2013-05-08T12:17:14Z</time>
      </trkpt>
      <trkpt lat="46.6892" lon="6.16622">
        <ele>1011.93</ele>
        <time>2013-05-08T12:17:15Z</time>
      </trkpt>
      <trkpt lat="46.68922" lon="6.16636">
        <ele>1012.89</ele>
        <time>2013-05-08T12:17:27Z</time>
      </trkpt>
      <trkpt lat="46.68922" lon="6.16638">
        <ele>1012.89</ele>
        <time>2013-05-08T12:17:28Z</time>
      </trkpt>
      <trkpt lat="46.68922" lon="6.16639">
        <ele>1013.37</ele>
        <time>2013-05-08T12:17:29Z</time>
      </trkpt>
      <trkpt lat="46.68923" lon="6.16643">
        <ele>1013.37</ele>
        <time>2013-05-08T12:17:31Z</time>
      </trkpt>
      <trkpt lat="46.68923" lon="6.16645">
        <ele>1013.37</ele>
        <time>2013-05-08T12:17:32Z</time>
      </trkpt>
      <trkpt lat="46.68923" lon="6.16647">
        <ele>1013.85</ele>
        <time>2013-05-08T12:17:33Z</time>
      </trkpt>
      <trkpt lat="46.68924" lon="6.16649">
        <ele>1013.85</ele>
        <time>2013-05-08T12:17:34Z</time>
      </trkpt>
      <trkpt lat="46.68924" lon="6.16651">
        <ele>1014.33</ele>
        <time>2013-05-08T12:17:35Z</time>
      </trkpt>
      <trkpt lat="46.68923" lon="6.16656">
        <ele>1014.81</ele>
        <time>2013-05-08T12:17:38Z</time>
      </trkpt>
      <trkpt lat="46.68922" lon="6.16659">
        <ele>1015.29</ele>
        <time>2013-05-08T12:17:39Z</time>
      </trkpt>
      <trkpt lat="46.68923" lon="6.16668">
        <ele>1016.25</ele>
        <time>2013-05-08T12:17:43Z</time>
      </trkpt>
      <trkpt lat="46.68929" lon="6.16686">
        <ele>1015.77</ele>
        <time>2013-05-08T12:17:52Z</time>
      </trkpt>
      <trkpt lat="46.68928" lon="6.16689">
        <ele>1015.77</ele>
        <time>2013-05-08T12:17:53Z</time>
      </trkpt>
      <trkpt lat="46.68926" lon="6.16692">
        <ele>1015.77</ele>
        <time>2013-05-08T12:17:54Z</time>
      </trkpt>
      <trkpt lat="46.68936" lon="6.16717">
        <ele>1015.29</ele>
        <time>2013-05-08T12:18:04Z</time>
      </trkpt>
      <trkpt lat="46.68948" lon="6.16744">
        <ele>1014.33</ele>
        <time>2013-05-08T12:18:14Z</time>
      </trkpt>
      <trkpt lat="46.68951" lon="6.16752">
        <ele>1013.85</ele>
        <time>2013-05-08T12:18:16Z</time>
      </trkpt>
      <trkpt lat="46.68962" lon="6.16785">
        <ele>1015.29</ele>
        <time>2013-05-08T12:18:28Z</time>
      </trkpt>
      <trkpt lat="46.6897" lon="6.16808">
        <ele>1016.25</ele>
        <time>2013-05-08T12:18:38Z</time>
      </trkpt>
      <trkpt lat="46.68972" lon="6.1681">
        <ele>1016.25</ele>
        <time>2013-05-08T12:18:39Z</time>
      </trkpt>
      <trkpt lat="46.68975" lon="6.16819">
        <ele>1015.77</ele>
        <time>2013-05-08T12:18:44Z</time>
      </trkpt>
      <trkpt lat="46.68979" lon="6.16828">
        <ele>1015.29</ele>
        <time>2013-05-08T12:18:57Z</time>
      </trkpt>
      <trkpt lat="46.6898" lon="6.16829">
        <ele>1014.81</ele>
        <time>2013-05-08T12:19:14Z</time>
      </trkpt>
      <trkpt lat="46.6898" lon="6.16829">
        <ele>1014.81</ele>
        <time>2013-05-08T12:19:45Z</time>
      </trkpt>
      <trkpt lat="46.6898" lon="6.16829">
        <ele>1015.29</ele>
        <time>2013-05-08T12:20:15Z</time>
      </trkpt>
      <trkpt lat="46.68979" lon="6.16828">
        <ele>1014.81</ele>
        <time>2013-05-08T12:20:47Z</time>
      </trkpt>
      <trkpt lat="46.68979" lon="6.16828">
        <ele>1014.81</ele>
        <time>2013-05-08T12:21:20Z</time>
      </trkpt>
      <trkpt lat="46.6898" lon="6.16829">
        <ele>1014.81</ele>
        <time>2013-05-08T12:21:51Z</time>
      </trkpt>
      <trkpt lat="46.68979" lon="6.16828">
        <ele>1015.29</ele>
        <time>2013-05-08T12:22:12Z</time>
      </trkpt>
      <trkpt lat="46.68978" lon="6.16828">
        <ele>1015.77</ele>
        <time>2013-05-08T12:22:25Z</time>
      </trkpt>
      <trkpt lat="46.68978" lon="6.16827">
        <ele>1015.29</ele>
        <time>2013-05-08T12:22:58Z</time>
      </trkpt>
      <trkpt lat="46.68978" lon="6.16827">
        <ele>1015.29</ele>
        <time>2013-05-08T12:23:27Z</time>
      </trkpt>
      <trkpt lat="46.68979" lon="6.16827">
        <ele>1015.29</ele>
        <time>2013-05-08T12:23:51Z</time>
      </trkpt>
      <trkpt lat="46.6898" lon="6.16828">
        <ele>1015.77</ele>
        <time>2013-05-08T12:24:12Z</time>
      </trkpt>
      <trkpt lat="46.6898" lon="6.16828">
        <ele>1015.77</ele>
        <time>2013-05-08T12:24:33Z</time>
      </trkpt>
      <trkpt lat="46.68981" lon="6.16828">
        <ele>1015.77</ele>
        <time>2013-05-08T12:24:54Z</time>
      </trkpt>
      <trkpt lat="46.68981" lon="6.16832">
        <ele>1015.77</ele>
        <time>2013-05-08T12:25:11Z</time>
      </trkpt>
      <trkpt lat="46.68982" lon="6.16833">
        <ele>1015.77</ele>
        <time>2013-05-08T12:25:12Z</time>
      </trkpt>
      <trkpt lat="46.68989" lon="6.1684">
        <ele>1014.33</ele>
        <time>2013-05-08T12:25:16Z</time>
      </trkpt>
      <trkpt lat="46.68992" lon="6.16845">
        <ele>1013.85</ele>
        <time>2013-05-08T12:25:17Z</time>
      </trkpt>
      <trkpt lat="46.68996" lon="6.1685">
        <ele>1013.37</ele>
        <time>2013-05-08T12:25:18Z</time>
      </trkpt>
      <trkpt lat="46.69018" lon="6.16882">
        <ele>1010</ele>
        <time>2013-05-08T12:25:23Z</time>
      </trkpt>
      <trkpt lat="46.69031" lon="6.16903">
        <ele>1008.08</ele>
        <time>2013-05-08T12:25:26Z</time>
      </trkpt>
      <trkpt lat="46.69049" lon="6.16936">
        <ele>1006.64</ele>
        <time>2013-05-08T12:25:30Z</time>
      </trkpt>
      <trkpt lat="46.69097" lon="6.16993">
        <ele>1002.31</ele>
        <time>2013-05-08T12:25:38Z</time>
      </trkpt>
      <trkpt lat="46.6911" lon="6.17011">
        <ele>1001.35</ele>
        <time>2013-05-08T12:25:40Z</time>
      </trkpt>
      <trkpt lat="46.69155" lon="6.17074">
        <ele>1003.27</ele>
        <time>2013-05-08T12:25:50Z</time>
      </trkpt>
      <trkpt lat="46.6917" lon="6.171">
        <ele>1005.2</ele>
        <time>2013-05-08T12:25:58Z</time>
      </trkpt>
      <trkpt lat="46.69186" lon="6.17134">
        <ele>1006.64</ele>
        <time>2013-05-08T12:26:08Z</time>
      </trkpt>
      <trkpt lat="46.69188" lon="6.17138">
        <ele>1006.64</ele>
        <time>2013-05-08T12:26:09Z</time>
      </trkpt>
      <trkpt lat="46.6919" lon="6.17142">
        <ele>1006.64</ele>
        <time>2013-05-08T12:26:10Z</time>
      </trkpt>
      <trkpt lat="46.69192" lon="6.17146">
        <ele>1006.64</ele>
        <time>2013-05-08T12:26:11Z</time>
      </trkpt>
      <trkpt lat="46.69194" lon="6.17151">
        <ele>1006.64</ele>
        <time>2013-05-08T12:26:12Z</time>
      </trkpt>
      <trkpt lat="46.69198" lon="6.17155">
        <ele>1006.16</ele>
        <time>2013-05-08T12:26:13Z</time>
      </trkpt>
      <trkpt lat="46.69201" lon="6.1716">
        <ele>1006.16</ele>
        <time>2013-05-08T12:26:14Z</time>
      </trkpt>
      <trkpt lat="46.69204" lon="6.17165">
        <ele>1005.68</ele>
        <time>2013-05-08T12:26:15Z</time>
      </trkpt>
      <trkpt lat="46.69207" lon="6.17171">
        <ele>1005.68</ele>
        <time>2013-05-08T12:26:16Z</time>
      </trkpt>
      <trkpt lat="46.69225" lon="6.17206">
        <ele>1007.6</ele>
        <time>2013-05-08T12:26:25Z</time>
      </trkpt>
      <trkpt lat="46.6923" lon="6.17216">
        <ele>1008.56</ele>
        <time>2013-05-08T12:26:28Z</time>
      </trkpt>
      <trkpt lat="46.69231" lon="6.17219">
        <ele>1008.56</ele>
        <time>2013-05-08T12:26:29Z</time>
      </trkpt>
      <trkpt lat="46.69233" lon="6.17221">
        <ele>1008.56</ele>
        <time>2013-05-08T12:26:30Z</time>
      </trkpt>
      <trkpt lat="46.69234" lon="6.17224">
        <ele>1009.04</ele>
        <time>2013-05-08T12:26:31Z</time>
      </trkpt>
      <trkpt lat="46.69236" lon="6.17226">
        <ele>1009.04</ele>
        <time>2013-05-08T12:26:32Z</time>
      </trkpt>
      <trkpt lat="46.69237" lon="6.17228">
        <ele>1009.04</ele>
        <time>2013-05-08T12:26:33Z</time>
      </trkpt>
      <trkpt lat="46.69239" lon="6.1723">
        <ele>1008.56</ele>
        <time>2013-05-08T12:26:34Z</time>
      </trkpt>
      <trkpt lat="46.69241" lon="6.17232">
        <ele>1008.56</ele>
        <time>2013-05-08T12:26:35Z</time>
      </trkpt>
      <trkpt lat="46.69254" lon="6.17246">
        <ele>1007.12</ele>
        <time>2013-05-08T12:26:39Z</time>
      </trkpt>
      <trkpt lat="46.69258" lon="6.17251">
        <ele>1006.64</ele>
        <time>2013-05-08T12:26:40Z</time>
      </trkpt>
      <trkpt lat="46.69261" lon="6.17258">
        <ele>1006.16</ele>
        <time>2013-05-08T12:26:41Z</time>
      </trkpt>
      <trkpt lat="46.69265" lon="6.17264">
        <ele>1005.68</ele>
        <time>2013-05-08T12:26:42Z</time>
      </trkpt>
      <trkpt lat="46.69269" lon="6.1727">
        <ele>1005.2</ele>
        <time>2013-05-08T12:26:43Z</time>
      </trkpt>
      <trkpt lat="46.69273" lon="6.17276">
        <ele>1004.72</ele>
        <time>2013-05-08T12:26:44Z</time>
      </trkpt>
      <trkpt lat="46.69286" lon="6.17294">
        <ele>1004.23</ele>
        <time>2013-05-08T12:26:47Z</time>
      </trkpt>
      <trkpt lat="46.69303" lon="6.17314">
        <ele>1000.39</ele>
        <time>2013-05-08T12:26:51Z</time>
      </trkpt>
      <trkpt lat="46.69307" lon="6.1732">
        <ele>999.91</ele>
        <time>2013-05-08T12:26:52Z</time>
      </trkpt>
      <trkpt lat="46.69318" lon="6.17339">
        <ele>996.54</ele>
        <time>2013-05-08T12:26:55Z</time>
      </trkpt>
      <trkpt lat="46.69322" lon="6.17346">
        <ele>996.54</ele>
        <time>2013-05-08T12:26:56Z</time>
      </trkpt>
      <trkpt lat="46.69334" lon="6.17364">
        <ele>993.18</ele>
        <time>2013-05-08T12:26:59Z</time>
      </trkpt>
      <trkpt lat="46.69338" lon="6.17368">
        <ele>992.22</ele>
        <time>2013-05-08T12:27:00Z</time>
      </trkpt>
      <trkpt lat="46.69344" lon="6.17371">
        <ele>991.26</ele>
        <time>2013-05-08T12:27:01Z</time>
      </trkpt>
      <trkpt lat="46.6935" lon="6.17372">
        <ele>990.3</ele>
        <time>2013-05-08T12:27:02Z</time>
      </trkpt>
      <trkpt lat="46.69356" lon="6.17373">
        <ele>989.81</ele>
        <time>2013-05-08T12:27:03Z</time>
      </trkpt>
      <trkpt lat="46.69362" lon="6.17376">
        <ele>988.37</ele>
        <time>2013-05-08T12:27:04Z</time>
      </trkpt>
      <trkpt lat="46.69368" lon="6.17379">
        <ele>987.89</ele>
        <time>2013-05-08T12:27:05Z</time>
      </trkpt>
      <trkpt lat="46.69374" lon="6.17383">
        <ele>986.93</ele>
        <time>2013-05-08T12:27:06Z</time>
      </trkpt>
      <trkpt lat="46.69379" lon="6.17388">
        <ele>986.45</ele>
        <time>2013-05-08T12:27:07Z</time>
      </trkpt>
      <trkpt lat="46.69401" lon="6.17406">
        <ele>983.09</ele>
        <time>2013-05-08T12:27:13Z</time>
      </trkpt>
      <trkpt lat="46.69409" lon="6.17408">
        <ele>981.16</ele>
        <time>2013-05-08T12:27:22Z</time>
      </trkpt>
      <trkpt lat="46.69409" lon="6.17408">
        <ele>981.16</ele>
        <time>2013-05-08T12:27:44Z</time>
      </trkpt>
      <trkpt lat="46.69417" lon="6.17399">
        <ele>979.72</ele>
        <time>2013-05-08T12:27:49Z</time>
      </trkpt>
      <trkpt lat="46.6943" lon="6.17389">
        <ele>978.28</ele>
        <time>2013-05-08T12:27:53Z</time>
      </trkpt>
      <trkpt lat="46.69435" lon="6.17377">
        <ele>976.36</ele>
        <time>2013-05-08T12:27:57Z</time>
      </trkpt>
      <trkpt lat="46.69436" lon="6.17373">
        <ele>976.36</ele>
        <time>2013-05-08T12:27:58Z</time>
      </trkpt>
      <trkpt lat="46.6943" lon="6.17348">
        <ele>971.55</ele>
        <time>2013-05-08T12:28:03Z</time>
      </trkpt>
      <trkpt lat="46.69429" lon="6.17339">
        <ele>971.07</ele>
        <time>2013-05-08T12:28:06Z</time>
      </trkpt>
      <trkpt lat="46.69451" lon="6.17366">
        <ele>972.03</ele>
        <time>2013-05-08T12:28:17Z</time>
      </trkpt>
      <trkpt lat="46.6946" lon="6.17383">
        <ele>972.51</ele>
        <time>2013-05-08T12:28:21Z</time>
      </trkpt>
      <trkpt lat="46.69463" lon="6.17388">
        <ele>972.51</ele>
        <time>2013-05-08T12:28:22Z</time>
      </trkpt>
      <trkpt lat="46.69466" lon="6.17394">
        <ele>972.51</ele>
        <time>2013-05-08T12:28:23Z</time>
      </trkpt>
      <trkpt lat="46.69468" lon="6.17399">
        <ele>972.99</ele>
        <time>2013-05-08T12:28:24Z</time>
      </trkpt>
      <trkpt lat="46.6947" lon="6.17404">
        <ele>972.99</ele>
        <time>2013-05-08T12:28:25Z</time>
      </trkpt>
      <trkpt lat="46.69485" lon="6.17455">
        <ele>974.91</ele>
        <time>2013-05-08T12:28:37Z</time>
      </trkpt>
      <trkpt lat="46.69491" lon="6.17498">
        <ele>975.88</ele>
        <time>2013-05-08T12:28:48Z</time>
      </trkpt>
      <trkpt lat="46.6948" lon="6.1756">
        <ele>977.32</ele>
        <time>2013-05-08T12:29:02Z</time>
      </trkpt>
      <trkpt lat="46.69479" lon="6.17607">
        <ele>979.24</ele>
        <time>2013-05-08T12:29:13Z</time>
      </trkpt>
      <trkpt lat="46.69483" lon="6.17668">
        <ele>980.68</ele>
        <time>2013-05-08T12:29:25Z</time>
      </trkpt>
      <trkpt lat="46.69466" lon="6.17718">
        <ele>981.64</ele>
        <time>2013-05-08T12:29:37Z</time>
      </trkpt>
      <trkpt lat="46.69434" lon="6.17723">
        <ele>982.6</ele>
        <time>2013-05-08T12:29:48Z</time>
      </trkpt>
      <trkpt lat="46.69403" lon="6.17712">
        <ele>981.64</ele>
        <time>2013-05-08T12:29:57Z</time>
      </trkpt>
      <trkpt lat="46.69399" lon="6.17711">
        <ele>981.16</ele>
        <time>2013-05-08T12:29:58Z</time>
      </trkpt>
      <trkpt lat="46.69394" lon="6.1771">
        <ele>981.16</ele>
        <time>2013-05-08T12:29:59Z</time>
      </trkpt>
      <trkpt lat="46.69389" lon="6.1771">
        <ele>980.68</ele>
        <time>2013-05-08T12:30:00Z</time>
      </trkpt>
      <trkpt lat="46.69383" lon="6.1771">
        <ele>980.2</ele>
        <time>2013-05-08T12:30:01Z</time>
      </trkpt>
      <trkpt lat="46.69358" lon="6.17708">
        <ele>978.28</ele>
        <time>2013-05-08T12:30:05Z</time>
      </trkpt>
      <trkpt lat="46.69346" lon="6.17704">
        <ele>978.28</ele>
        <time>2013-05-08T12:30:07Z</time>
      </trkpt>
      <trkpt lat="46.69341" lon="6.17702">
        <ele>978.28</ele>
        <time>2013-05-08T12:30:08Z</time>
      </trkpt>
      <trkpt lat="46.69335" lon="6.17701">
        <ele>978.76</ele>
        <time>2013-05-08T12:30:09Z</time>
      </trkpt>
      <trkpt lat="46.6933" lon="6.17702">
        <ele>979.24</ele>
        <time>2013-05-08T12:30:10Z</time>
      </trkpt>
      <trkpt lat="46.69326" lon="6.17704">
        <ele>979.24</ele>
        <time>2013-05-08T12:30:11Z</time>
      </trkpt>
      <trkpt lat="46.69322" lon="6.17707">
        <ele>978.76</ele>
        <time>2013-05-08T12:30:12Z</time>
      </trkpt>
      <trkpt lat="46.69319" lon="6.17711">
        <ele>978.28</ele>
        <time>2013-05-08T12:30:13Z</time>
      </trkpt>
      <trkpt lat="46.69318" lon="6.17718">
        <ele>977.8</ele>
        <time>2013-05-08T12:30:14Z</time>
      </trkpt>
      <trkpt lat="46.69318" lon="6.17727">
        <ele>977.8</ele>
        <time>2013-05-08T12:30:15Z</time>
      </trkpt>
      <trkpt lat="46.69318" lon="6.17737">
        <ele>977.32</ele>
        <time>2013-05-08T12:30:16Z</time>
      </trkpt>
      <trkpt lat="46.69319" lon="6.17746">
        <ele>976.84</ele>
        <time>2013-05-08T12:30:17Z</time>
      </trkpt>
      <trkpt lat="46.69324" lon="6.17774">
        <ele>975.88</ele>
        <time>2013-05-08T12:30:20Z</time>
      </trkpt>
      <trkpt lat="46.69323" lon="6.17784">
        <ele>975.88</ele>
        <time>2013-05-08T12:30:21Z</time>
      </trkpt>
      <trkpt lat="46.69322" lon="6.17793">
        <ele>975.88</ele>
        <time>2013-05-08T12:30:22Z</time>
      </trkpt>
      <trkpt lat="46.69319" lon="6.178">
        <ele>975.88</ele>
        <time>2013-05-08T12:30:23Z</time>
      </trkpt>
      <trkpt lat="46.69316" lon="6.17807">
        <ele>975.88</ele>
        <time>2013-05-08T12:30:24Z</time>
      </trkpt>
      <trkpt lat="46.69311" lon="6.17812">
        <ele>975.88</ele>
        <time>2013-05-08T12:30:25Z</time>
      </trkpt>
      <trkpt lat="46.69305" lon="6.17815">
        <ele>975.39</ele>
        <time>2013-05-08T12:30:26Z</time>
      </trkpt>
      <trkpt lat="46.69299" lon="6.17818">
        <ele>975.39</ele>
        <time>2013-05-08T12:30:27Z</time>
      </trkpt>
      <trkpt lat="46.69292" lon="6.17821">
        <ele>974.91</ele>
        <time>2013-05-08T12:30:28Z</time>
      </trkpt>
      <trkpt lat="46.69272" lon="6.1783">
        <ele>973.95</ele>
        <time>2013-05-08T12:30:31Z</time>
      </trkpt>
      <trkpt lat="46.69268" lon="6.17834">
        <ele>973.95</ele>
        <time>2013-05-08T12:30:32Z</time>
      </trkpt>
      <trkpt lat="46.69264" lon="6.17839">
        <ele>974.43</ele>
        <time>2013-05-08T12:30:33Z</time>
      </trkpt>
      <trkpt lat="46.69263" lon="6.17844">
        <ele>974.43</ele>
        <time>2013-05-08T12:30:34Z</time>
      </trkpt>
      <trkpt lat="46.69261" lon="6.17849">
        <ele>974.91</ele>
        <time>2013-05-08T12:30:35Z</time>
      </trkpt>
      <trkpt lat="46.69259" lon="6.17861">
        <ele>975.39</ele>
        <time>2013-05-08T12:30:37Z</time>
      </trkpt>
      <trkpt lat="46.69258" lon="6.17867">
        <ele>975.39</ele>
        <time>2013-05-08T12:30:38Z</time>
      </trkpt>
      <trkpt lat="46.69259" lon="6.17872">
        <ele>975.88</ele>
        <time>2013-05-08T12:30:39Z</time>
      </trkpt>
      <trkpt lat="46.69261" lon="6.17877">
        <ele>975.88</ele>
        <time>2013-05-08T12:30:40Z</time>
      </trkpt>
      <trkpt lat="46.69264" lon="6.17882">
        <ele>975.88</ele>
        <time>2013-05-08T12:30:41Z</time>
      </trkpt>
      <trkpt lat="46.69267" lon="6.17886">
        <ele>975.88</ele>
        <time>2013-05-08T12:30:42Z</time>
      </trkpt>
      <trkpt lat="46.6927" lon="6.1789">
        <ele>975.39</ele>
        <time>2013-05-08T12:30:43Z</time>
      </trkpt>
      <trkpt lat="46.69275" lon="6.17895">
        <ele>974.91</ele>
        <time>2013-05-08T12:30:44Z</time>
      </trkpt>
      <trkpt lat="46.69278" lon="6.179">
        <ele>974.43</ele>
        <time>2013-05-08T12:30:45Z</time>
      </trkpt>
      <trkpt lat="46.69282" lon="6.17904">
        <ele>973.95</ele>
        <time>2013-05-08T12:30:46Z</time>
      </trkpt>
      <trkpt lat="46.69287" lon="6.17909">
        <ele>973.95</ele>
        <time>2013-05-08T12:30:47Z</time>
      </trkpt>
      <trkpt lat="46.69308" lon="6.17934">
        <ele>972.99</ele>
        <time>2013-05-08T12:30:52Z</time>
      </trkpt>
      <trkpt lat="46.69312" lon="6.1794">
        <ele>972.99</ele>
        <time>2013-05-08T12:30:53Z</time>
      </trkpt>
      <trkpt lat="46.69321" lon="6.17956">
        <ele>972.51</ele>
        <time>2013-05-08T12:30:56Z</time>
      </trkpt>
      <trkpt lat="46.69366" lon="6.18016">
        <ele>973.47</ele>
        <time>2013-05-08T12:31:09Z</time>
      </trkpt>
      <trkpt lat="46.6938" lon="6.18031">
        <ele>972.03</ele>
        <time>2013-05-08T12:31:12Z</time>
      </trkpt>
      <trkpt lat="46.69394" lon="6.18052">
        <ele>971.07</ele>
        <time>2013-05-08T12:31:18Z</time>
      </trkpt>
      <trkpt lat="46.69394" lon="6.18055">
        <ele>970.59</ele>
        <time>2013-05-08T12:31:19Z</time>
      </trkpt>
      <trkpt lat="46.69394" lon="6.18059">
        <ele>969.63</ele>
        <time>2013-05-08T12:31:20Z</time>
      </trkpt>
      <trkpt lat="46.69394" lon="6.18063">
        <ele>968.67</ele>
        <time>2013-05-08T12:31:21Z</time>
      </trkpt>
      <trkpt lat="46.69395" lon="6.18066">
        <ele>967.22</ele>
        <time>2013-05-08T12:31:22Z</time>
      </trkpt>
      <trkpt lat="46.69396" lon="6.18071">
        <ele>966.26</ele>
        <time>2013-05-08T12:31:23Z</time>
      </trkpt>
      <trkpt lat="46.69398" lon="6.18075">
        <ele>964.82</ele>
        <time>2013-05-08T12:31:24Z</time>
      </trkpt>
      <trkpt lat="46.694" lon="6.18079">
        <ele>963.38</ele>
        <time>2013-05-08T12:31:25Z</time>
      </trkpt>
      <trkpt lat="46.69405" lon="6.18088">
        <ele>961.94</ele>
        <time>2013-05-08T12:31:27Z</time>
      </trkpt>
      <trkpt lat="46.69408" lon="6.18093">
        <ele>960.98</ele>
        <time>2013-05-08T12:31:28Z</time>
      </trkpt>
      <trkpt lat="46.69413" lon="6.18098">
        <ele>960.49</ele>
        <time>2013-05-08T12:31:29Z</time>
      </trkpt>
      <trkpt lat="46.69421" lon="6.18103">
        <ele>960.01</ele>
        <time>2013-05-08T12:31:30Z</time>
      </trkpt>
      <trkpt lat="46.6945" lon="6.18123">
        <ele>955.69</ele>
        <time>2013-05-08T12:31:33Z</time>
      </trkpt>
      <trkpt lat="46.6946" lon="6.18128">
        <ele>959.05</ele>
        <time>2013-05-08T12:31:34Z</time>
      </trkpt>
      <trkpt lat="46.69495" lon="6.18138">
        <ele>957.61</ele>
        <time>2013-05-08T12:31:37Z</time>
      </trkpt>
      <trkpt lat="46.695" lon="6.18142">
        <ele>957.61</ele>
        <time>2013-05-08T12:31:38Z</time>
      </trkpt>
      <trkpt lat="46.69504" lon="6.18147">
        <ele>958.09</ele>
        <time>2013-05-08T12:31:39Z</time>
      </trkpt>
      <trkpt lat="46.69508" lon="6.18151">
        <ele>958.09</ele>
        <time>2013-05-08T12:31:40Z</time>
      </trkpt>
      <trkpt lat="46.69511" lon="6.18155">
        <ele>958.57</ele>
        <time>2013-05-08T12:31:41Z</time>
      </trkpt>
      <trkpt lat="46.69523" lon="6.18173">
        <ele>958.57</ele>
        <time>2013-05-08T12:31:45Z</time>
      </trkpt>
      <trkpt lat="46.69532" lon="6.18189">
        <ele>958.09</ele>
        <time>2013-05-08T12:31:48Z</time>
      </trkpt>
      <trkpt lat="46.69533" lon="6.18195">
        <ele>958.09</ele>
        <time>2013-05-08T12:31:49Z</time>
      </trkpt>
      <trkpt lat="46.69533" lon="6.18202">
        <ele>957.61</ele>
        <time>2013-05-08T12:31:50Z</time>
      </trkpt>
      <trkpt lat="46.69532" lon="6.18217">
        <ele>958.09</ele>
        <time>2013-05-08T12:31:52Z</time>
      </trkpt>
      <trkpt lat="46.69531" lon="6.18223">
        <ele>958.09</ele>
        <time>2013-05-08T12:31:53Z</time>
      </trkpt>
      <trkpt lat="46.6953" lon="6.18241">
        <ele>958.09</ele>
        <time>2013-05-08T12:31:56Z</time>
      </trkpt>
      <trkpt lat="46.6953" lon="6.18247">
        <ele>958.09</ele>
        <time>2013-05-08T12:31:57Z</time>
      </trkpt>
      <trkpt lat="46.6953" lon="6.18253">
        <ele>958.09</ele>
        <time>2013-05-08T12:31:58Z</time>
      </trkpt>
      <trkpt lat="46.69532" lon="6.18258">
        <ele>958.57</ele>
        <time>2013-05-08T12:31:59Z</time>
      </trkpt>
      <trkpt lat="46.69533" lon="6.18264">
        <ele>958.09</ele>
        <time>2013-05-08T12:32:00Z</time>
      </trkpt>
      <trkpt lat="46.69534" lon="6.18269">
        <ele>958.09</ele>
        <time>2013-05-08T12:32:01Z</time>
      </trkpt>
      <trkpt lat="46.69537" lon="6.18275">
        <ele>958.57</ele>
        <time>2013-05-08T12:32:02Z</time>
      </trkpt>
      <trkpt lat="46.6954" lon="6.18281">
        <ele>958.09</ele>
        <time>2013-05-08T12:32:03Z</time>
      </trkpt>
      <trkpt lat="46.69544" lon="6.18287">
        <ele>957.13</ele>
        <time>2013-05-08T12:32:04Z</time>
      </trkpt>
      <trkpt lat="46.69547" lon="6.18293">
        <ele>957.13</ele>
        <time>2013-05-08T12:32:05Z</time>
      </trkpt>
      <trkpt lat="46.69551" lon="6.18298">
        <ele>956.65</ele>
        <time>2013-05-08T12:32:06Z</time>
      </trkpt>
      <trkpt lat="46.69555" lon="6.18304">
        <ele>956.65</ele>
        <time>2013-05-08T12:32:07Z</time>
      </trkpt>
      <trkpt lat="46.69561" lon="6.18317">
        <ele>956.65</ele>
        <time>2013-05-08T12:32:09Z</time>
      </trkpt>
      <trkpt lat="46.69562" lon="6.18324">
        <ele>956.17</ele>
        <time>2013-05-08T12:32:10Z</time>
      </trkpt>
      <trkpt lat="46.69563" lon="6.18332">
        <ele>956.17</ele>
        <time>2013-05-08T12:32:11Z</time>
      </trkpt>
      <trkpt lat="46.69564" lon="6.18338">
        <ele>956.17</ele>
        <time>2013-05-08T12:32:12Z</time>
      </trkpt>
      <trkpt lat="46.69565" lon="6.18344">
        <ele>955.69</ele>
        <time>2013-05-08T12:32:13Z</time>
      </trkpt>
      <trkpt lat="46.69565" lon="6.18349">
        <ele>955.69</ele>
        <time>2013-05-08T12:32:14Z</time>
      </trkpt>
      <trkpt lat="46.69554" lon="6.18387">
        <ele>956.17</ele>
        <time>2013-05-08T12:32:22Z</time>
      </trkpt>
      <trkpt lat="46.69546" lon="6.18404">
        <ele>955.69</ele>
        <time>2013-05-08T12:32:26Z</time>
      </trkpt>
      <trkpt lat="46.69543" lon="6.18407">
        <ele>955.69</ele>
        <time>2013-05-08T12:32:27Z</time>
      </trkpt>
      <trkpt lat="46.6954" lon="6.1841">
        <ele>955.69</ele>
        <time>2013-05-08T12:32:28Z</time>
      </trkpt>
      <trkpt lat="46.69536" lon="6.18413">
        <ele>955.21</ele>
        <time>2013-05-08T12:32:29Z</time>
      </trkpt>
      <trkpt lat="46.69532" lon="6.18415">
        <ele>954.73</ele>
        <time>2013-05-08T12:32:30Z</time>
      </trkpt>
      <trkpt lat="46.69528" lon="6.18417">
        <ele>954.25</ele>
        <time>2013-05-08T12:32:31Z</time>
      </trkpt>
      <trkpt lat="46.69524" lon="6.18419">
        <ele>953.77</ele>
        <time>2013-05-08T12:32:32Z</time>
      </trkpt>
      <trkpt lat="46.6952" lon="6.18422">
        <ele>953.28</ele>
        <time>2013-05-08T12:32:33Z</time>
      </trkpt>
      <trkpt lat="46.69516" lon="6.18424">
        <ele>953.28</ele>
        <time>2013-05-08T12:32:34Z</time>
      </trkpt>
      <trkpt lat="46.69495" lon="6.18436">
        <ele>952.32</ele>
        <time>2013-05-08T12:32:38Z</time>
      </trkpt>
      <trkpt lat="46.69491" lon="6.1844">
        <ele>952.32</ele>
        <time>2013-05-08T12:32:39Z</time>
      </trkpt>
      <trkpt lat="46.69482" lon="6.18448">
        <ele>952.32</ele>
        <time>2013-05-08T12:32:41Z</time>
      </trkpt>
      <trkpt lat="46.69478" lon="6.18452">
        <ele>952.32</ele>
        <time>2013-05-08T12:32:42Z</time>
      </trkpt>
      <trkpt lat="46.69476" lon="6.18455">
        <ele>952.32</ele>
        <time>2013-05-08T12:32:43Z</time>
      </trkpt>
      <trkpt lat="46.69473" lon="6.18459">
        <ele>952.8</ele>
        <time>2013-05-08T12:32:44Z</time>
      </trkpt>
      <trkpt lat="46.69469" lon="6.18463">
        <ele>952.8</ele>
        <time>2013-05-08T12:32:45Z</time>
      </trkpt>
      <trkpt lat="46.69467" lon="6.18468">
        <ele>952.8</ele>
        <time>2013-05-08T12:32:46Z</time>
      </trkpt>
      <trkpt lat="46.69466" lon="6.18472">
        <ele>952.8</ele>
        <time>2013-05-08T12:32:47Z</time>
      </trkpt>
      <trkpt lat="46.69466" lon="6.18475">
        <ele>953.28</ele>
        <time>2013-05-08T12:32:48Z</time>
      </trkpt>
      <trkpt lat="46.69465" lon="6.18477">
        <ele>953.28</ele>
        <time>2013-05-08T12:32:49Z</time>
      </trkpt>
      <trkpt lat="46.69463" lon="6.1848">
        <ele>952.8</ele>
        <time>2013-05-08T12:32:51Z</time>
      </trkpt>
      <trkpt lat="46.69462" lon="6.18482">
        <ele>952.8</ele>
        <time>2013-05-08T12:33:03Z</time>
      </trkpt>
      <trkpt lat="46.69462" lon="6.18483">
        <ele>952.32</ele>
        <time>2013-05-08T12:33:13Z</time>
      </trkpt>
      <trkpt lat="46.69462" lon="6.18483">
        <ele>952.8</ele>
        <time>2013-05-08T12:33:22Z</time>
      </trkpt>
      <trkpt lat="46.69462" lon="6.18486">
        <ele>954.25</ele>
        <time>2013-05-08T12:33:34Z</time>
      </trkpt>
      <trkpt lat="46.69462" lon="6.18486">
        <ele>954.25</ele>
        <time>2013-05-08T12:33:57Z</time>
      </trkpt>
      <trkpt lat="46.69462" lon="6.1849">
        <ele>953.77</ele>
        <time>2013-05-08T12:34:00Z</time>
      </trkpt>
      <trkpt lat="46.69463" lon="6.18498">
        <ele>953.28</ele>
        <time>2013-05-08T12:34:01Z</time>
      </trkpt>
      <trkpt lat="46.69465" lon="6.18506">
        <ele>952.8</ele>
        <time>2013-05-08T12:34:02Z</time>
      </trkpt>
      <trkpt lat="46.69467" lon="6.18511">
        <ele>953.28</ele>
        <time>2013-05-08T12:34:03Z</time>
      </trkpt>
      <trkpt lat="46.6947" lon="6.18515">
        <ele>953.28</ele>
        <time>2013-05-08T12:34:04Z</time>
      </trkpt>
      <trkpt lat="46.69505" lon="6.18537">
        <ele>954.25</ele>
        <time>2013-05-08T12:34:15Z</time>
      </trkpt>
      <trkpt lat="46.69534" lon="6.1856">
        <ele>953.77</ele>
        <time>2013-05-08T12:34:23Z</time>
      </trkpt>
      <trkpt lat="46.69552" lon="6.18568">
        <ele>953.28</ele>
        <time>2013-05-08T12:34:27Z</time>
      </trkpt>
      <trkpt lat="46.69577" lon="6.18575">
        <ele>952.32</ele>
        <time>2013-05-08T12:34:33Z</time>
      </trkpt>
      <trkpt lat="46.69586" lon="6.1858">
        <ele>952.32</ele>
        <time>2013-05-08T12:34:35Z</time>
      </trkpt>
      <trkpt lat="46.69591" lon="6.18583">
        <ele>951.84</ele>
        <time>2013-05-08T12:34:36Z</time>
      </trkpt>
      <trkpt lat="46.69595" lon="6.18586">
        <ele>951.84</ele>
        <time>2013-05-08T12:34:37Z</time>
      </trkpt>
      <trkpt lat="46.69614" lon="6.18598">
        <ele>951.84</ele>
        <time>2013-05-08T12:34:41Z</time>
      </trkpt>
      <trkpt lat="46.69619" lon="6.186">
        <ele>951.84</ele>
        <time>2013-05-08T12:34:42Z</time>
      </trkpt>
      <trkpt lat="46.69623" lon="6.18602">
        <ele>951.84</ele>
        <time>2013-05-08T12:34:43Z</time>
      </trkpt>
      <trkpt lat="46.69628" lon="6.18604">
        <ele>951.84</ele>
        <time>2013-05-08T12:34:44Z</time>
      </trkpt>
      <trkpt lat="46.69633" lon="6.18607">
        <ele>951.84</ele>
        <time>2013-05-08T12:34:45Z</time>
      </trkpt>
      <trkpt lat="46.69646" lon="6.18617">
        <ele>952.32</ele>
        <time>2013-05-08T12:34:48Z</time>
      </trkpt>
      <trkpt lat="46.6965" lon="6.1862">
        <ele>952.8</ele>
        <time>2013-05-08T12:34:49Z</time>
      </trkpt>
      <trkpt lat="46.6969" lon="6.18663">
        <ele>953.77</ele>
        <time>2013-05-08T12:35:02Z</time>
      </trkpt>
      <trkpt lat="46.69707" lon="6.1868">
        <ele>952.32</ele>
        <time>2013-05-08T12:35:07Z</time>
      </trkpt>
      <trkpt lat="46.6971" lon="6.18685">
        <ele>951.84</ele>
        <time>2013-05-08T12:35:08Z</time>
      </trkpt>
      <trkpt lat="46.69713" lon="6.18689">
        <ele>951.84</ele>
        <time>2013-05-08T12:35:09Z</time>
      </trkpt>
      <trkpt lat="46.69716" lon="6.18693">
        <ele>951.84</ele>
        <time>2013-05-08T12:35:10Z</time>
      </trkpt>
      <trkpt lat="46.69719" lon="6.18698">
        <ele>951.84</ele>
        <time>2013-05-08T12:35:11Z</time>
      </trkpt>
      <trkpt lat="46.69721" lon="6.18704">
        <ele>951.84</ele>
        <time>2013-05-08T12:35:12Z</time>
      </trkpt>
      <trkpt lat="46.69724" lon="6.18709">
        <ele>951.84</ele>
        <time>2013-05-08T12:35:13Z</time>
      </trkpt>
      <trkpt lat="46.69727" lon="6.18714">
        <ele>951.84</ele>
        <time>2013-05-08T12:35:14Z</time>
      </trkpt>
      <trkpt lat="46.69729" lon="6.18719">
        <ele>951.36</ele>
        <time>2013-05-08T12:35:15Z</time>
      </trkpt>
      <trkpt lat="46.69734" lon="6.18729">
        <ele>951.84</ele>
        <time>2013-05-08T12:35:17Z</time>
      </trkpt>
      <trkpt lat="46.69737" lon="6.18734">
        <ele>951.36</ele>
        <time>2013-05-08T12:35:18Z</time>
      </trkpt>
      <trkpt lat="46.69743" lon="6.18743">
        <ele>951.36</ele>
        <time>2013-05-08T12:35:20Z</time>
      </trkpt>
      <trkpt lat="46.69746" lon="6.18747">
        <ele>951.36</ele>
        <time>2013-05-08T12:35:21Z</time>
      </trkpt>
      <trkpt lat="46.69748" lon="6.18751">
        <ele>951.36</ele>
        <time>2013-05-08T12:35:22Z</time>
      </trkpt>
      <trkpt lat="46.69782" lon="6.18792">
        <ele>951.84</ele>
        <time>2013-05-08T12:35:34Z</time>
      </trkpt>
      <trkpt lat="46.69821" lon="6.18837">
        <ele>950.4</ele>
        <time>2013-05-08T12:35:45Z</time>
      </trkpt>
      <trkpt lat="46.69831" lon="6.1885">
        <ele>950.4</ele>
        <time>2013-05-08T12:35:48Z</time>
      </trkpt>
      <trkpt lat="46.69834" lon="6.18855">
        <ele>950.4</ele>
        <time>2013-05-08T12:35:49Z</time>
      </trkpt>
      <trkpt lat="46.69837" lon="6.18859">
        <ele>950.4</ele>
        <time>2013-05-08T12:35:50Z</time>
      </trkpt>
      <trkpt lat="46.69841" lon="6.18862">
        <ele>949.92</ele>
        <time>2013-05-08T12:35:51Z</time>
      </trkpt>
      <trkpt lat="46.69877" lon="6.1889">
        <ele>950.4</ele>
        <time>2013-05-08T12:36:01Z</time>
      </trkpt>
      <trkpt lat="46.69926" lon="6.18939">
        <ele>948.48</ele>
        <time>2013-05-08T12:36:13Z</time>
      </trkpt>
      <trkpt lat="46.6993" lon="6.18946">
        <ele>948</ele>
        <time>2013-05-08T12:36:14Z</time>
      </trkpt>
      <trkpt lat="46.69934" lon="6.18953">
        <ele>947.52</ele>
        <time>2013-05-08T12:36:15Z</time>
      </trkpt>
      <trkpt lat="46.69944" lon="6.18974">
        <ele>947.52</ele>
        <time>2013-05-08T12:36:18Z</time>
      </trkpt>
      <trkpt lat="46.69986" lon="6.19072">
        <ele>947.04</ele>
        <time>2013-05-08T12:36:32Z</time>
      </trkpt>
      <trkpt lat="46.70025" lon="6.19156">
        <ele>946.56</ele>
        <time>2013-05-08T12:36:45Z</time>
      </trkpt>
      <trkpt lat="46.70036" lon="6.19185">
        <ele>947.04</ele>
        <time>2013-05-08T12:36:50Z</time>
      </trkpt>
      <trkpt lat="46.70038" lon="6.19191">
        <ele>947.04</ele>
        <time>2013-05-08T12:36:51Z</time>
      </trkpt>
      <trkpt lat="46.70039" lon="6.19197">
        <ele>947.04</ele>
        <time>2013-05-08T12:36:52Z</time>
      </trkpt>
      <trkpt lat="46.70041" lon="6.19202">
        <ele>947.04</ele>
        <time>2013-05-08T12:36:53Z</time>
      </trkpt>
      <trkpt lat="46.70042" lon="6.19208">
        <ele>947.04</ele>
        <time>2013-05-08T12:36:54Z</time>
      </trkpt>
      <trkpt lat="46.70044" lon="6.19214">
        <ele>947.04</ele>
        <time>2013-05-08T12:36:55Z</time>
      </trkpt>
      <trkpt lat="46.70054" lon="6.1924">
        <ele>946.56</ele>
        <time>2013-05-08T12:36:59Z</time>
      </trkpt>
      <trkpt lat="46.70057" lon="6.19247">
        <ele>946.56</ele>
        <time>2013-05-08T12:37:00Z</time>
      </trkpt>
      <trkpt lat="46.70059" lon="6.19253">
        <ele>946.56</ele>
        <time>2013-05-08T12:37:01Z</time>
      </trkpt>
      <trkpt lat="46.70067" lon="6.19282">
        <ele>947.04</ele>
        <time>2013-05-08T12:37:06Z</time>
      </trkpt>
      <trkpt lat="46.70071" lon="6.19306">
        <ele>947.52</ele>
        <time>2013-05-08T12:37:10Z</time>
      </trkpt>
      <trkpt lat="46.70072" lon="6.19312">
        <ele>947.52</ele>
        <time>2013-05-08T12:37:11Z</time>
      </trkpt>
      <trkpt lat="46.70088" lon="6.19368">
        <ele>948</ele>
        <time>2013-05-08T12:37:23Z</time>
      </trkpt>
      <trkpt lat="46.70097" lon="6.19384">
        <ele>948.48</ele>
        <time>2013-05-08T12:37:33Z</time>
      </trkpt>
      <trkpt lat="46.70099" lon="6.19391">
        <ele>948.48</ele>
        <time>2013-05-08T12:37:54Z</time>
      </trkpt>
      <trkpt lat="46.70122" lon="6.19418">
        <ele>947.52</ele>
        <time>2013-05-08T12:38:05Z</time>
      </trkpt>
      <trkpt lat="46.70122" lon="6.19418">
        <ele>948</ele>
        <time>2013-05-08T12:38:25Z</time>
      </trkpt>
      <trkpt lat="46.70127" lon="6.19431">
        <ele>947.52</ele>
        <time>2013-05-08T12:38:46Z</time>
      </trkpt>
      <trkpt lat="46.70141" lon="6.19468">
        <ele>947.04</ele>
        <time>2013-05-08T12:38:58Z</time>
      </trkpt>
      <trkpt lat="46.70162" lon="6.19519">
        <ele>947.04</ele>
        <time>2013-05-08T12:39:11Z</time>
      </trkpt>
      <trkpt lat="46.70173" lon="6.19544">
        <ele>946.56</ele>
        <time>2013-05-08T12:39:16Z</time>
      </trkpt>
      <trkpt lat="46.70177" lon="6.19555">
        <ele>946.56</ele>
        <time>2013-05-08T12:39:18Z</time>
      </trkpt>
      <trkpt lat="46.70179" lon="6.1956">
        <ele>946.56</ele>
        <time>2013-05-08T12:39:19Z</time>
      </trkpt>
      <trkpt lat="46.70186" lon="6.19581">
        <ele>946.07</ele>
        <time>2013-05-08T12:39:23Z</time>
      </trkpt>
      <trkpt lat="46.70207" lon="6.19624">
        <ele>945.59</ele>
        <time>2013-05-08T12:39:31Z</time>
      </trkpt>
      <trkpt lat="46.70231" lon="6.19676">
        <ele>944.15</ele>
        <time>2013-05-08T12:39:40Z</time>
      </trkpt>
      <trkpt lat="46.70233" lon="6.19681">
        <ele>944.15</ele>
        <time>2013-05-08T12:39:41Z</time>
      </trkpt>
      <trkpt lat="46.70243" lon="6.19706">
        <ele>944.15</ele>
        <time>2013-05-08T12:39:46Z</time>
      </trkpt>
      <trkpt lat="46.70246" lon="6.19712">
        <ele>943.67</ele>
        <time>2013-05-08T12:39:47Z</time>
      </trkpt>
      <trkpt lat="46.70258" lon="6.19749">
        <ele>942.71</ele>
        <time>2013-05-08T12:39:53Z</time>
      </trkpt>
      <trkpt lat="46.70272" lon="6.19795">
        <ele>942.71</ele>
        <time>2013-05-08T12:40:00Z</time>
      </trkpt>
      <trkpt lat="46.70286" lon="6.19831">
        <ele>942.71</ele>
        <time>2013-05-08T12:40:06Z</time>
      </trkpt>
      <trkpt lat="46.70292" lon="6.19849">
        <ele>942.71</ele>
        <time>2013-05-08T12:40:09Z</time>
      </trkpt>
      <trkpt lat="46.70295" lon="6.19855">
        <ele>942.71</ele>
        <time>2013-05-08T12:40:10Z</time>
      </trkpt>
      <trkpt lat="46.70297" lon="6.19861">
        <ele>942.71</ele>
        <time>2013-05-08T12:40:11Z</time>
      </trkpt>
      <trkpt lat="46.70313" lon="6.199">
        <ele>942.71</ele>
        <time>2013-05-08T12:40:18Z</time>
      </trkpt>
      <trkpt lat="46.70315" lon="6.19906">
        <ele>942.71</ele>
        <time>2013-05-08T12:40:19Z</time>
      </trkpt>
      <trkpt lat="46.70318" lon="6.19911">
        <ele>942.71</ele>
        <time>2013-05-08T12:40:20Z</time>
      </trkpt>
      <trkpt lat="46.70324" lon="6.19927">
        <ele>942.71</ele>
        <time>2013-05-08T12:40:23Z</time>
      </trkpt>
      <trkpt lat="46.70327" lon="6.19933">
        <ele>942.71</ele>
        <time>2013-05-08T12:40:24Z</time>
      </trkpt>
      <trkpt lat="46.70329" lon="6.19938">
        <ele>942.71</ele>
        <time>2013-05-08T12:40:25Z</time>
      </trkpt>
      <trkpt lat="46.70331" lon="6.19944">
        <ele>942.71</ele>
        <time>2013-05-08T12:40:26Z</time>
      </trkpt>
      <trkpt lat="46.70333" lon="6.19949">
        <ele>942.71</ele>
        <time>2013-05-08T12:40:27Z</time>
      </trkpt>
      <trkpt lat="46.70357" lon="6.20017">
        <ele>942.71</ele>
        <time>2013-05-08T12:40:39Z</time>
      </trkpt>
      <trkpt lat="46.70363" lon="6.20034">
        <ele>943.19</ele>
        <time>2013-05-08T12:40:42Z</time>
      </trkpt>
      <trkpt lat="46.70364" lon="6.2004">
        <ele>943.19</ele>
        <time>2013-05-08T12:40:43Z</time>
      </trkpt>
      <trkpt lat="46.70378" lon="6.20095">
        <ele>943.67</ele>
        <time>2013-05-08T12:40:53Z</time>
      </trkpt>
      <trkpt lat="46.7038" lon="6.20101">
        <ele>943.67</ele>
        <time>2013-05-08T12:40:54Z</time>
      </trkpt>
      <trkpt lat="46.70382" lon="6.20107">
        <ele>943.67</ele>
        <time>2013-05-08T12:40:55Z</time>
      </trkpt>
      <trkpt lat="46.7039" lon="6.20145">
        <ele>943.67</ele>
        <time>2013-05-08T12:41:01Z</time>
      </trkpt>
      <trkpt lat="46.70392" lon="6.2015">
        <ele>943.67</ele>
        <time>2013-05-08T12:41:02Z</time>
      </trkpt>
      <trkpt lat="46.70394" lon="6.20156">
        <ele>943.67</ele>
        <time>2013-05-08T12:41:03Z</time>
      </trkpt>
      <trkpt lat="46.70395" lon="6.20162">
        <ele>945.11</ele>
        <time>2013-05-08T12:41:04Z</time>
      </trkpt>
      <trkpt lat="46.70397" lon="6.20168">
        <ele>943.67</ele>
        <time>2013-05-08T12:41:05Z</time>
      </trkpt>
      <trkpt lat="46.70398" lon="6.20174">
        <ele>943.67</ele>
        <time>2013-05-08T12:41:06Z</time>
      </trkpt>
      <trkpt lat="46.70405" lon="6.202">
        <ele>943.67</ele>
        <time>2013-05-08T12:41:10Z</time>
      </trkpt>
      <trkpt lat="46.70406" lon="6.20207">
        <ele>943.19</ele>
        <time>2013-05-08T12:41:11Z</time>
      </trkpt>
      <trkpt lat="46.70408" lon="6.20213">
        <ele>942.71</ele>
        <time>2013-05-08T12:41:12Z</time>
      </trkpt>
      <trkpt lat="46.70419" lon="6.20262">
        <ele>943.19</ele>
        <time>2013-05-08T12:41:19Z</time>
      </trkpt>
      <trkpt lat="46.70426" lon="6.20289">
        <ele>942.71</ele>
        <time>2013-05-08T12:41:23Z</time>
      </trkpt>
      <trkpt lat="46.70427" lon="6.20296">
        <ele>942.71</ele>
        <time>2013-05-08T12:41:24Z</time>
      </trkpt>
      <trkpt lat="46.7043" lon="6.20309">
        <ele>943.19</ele>
        <time>2013-05-08T12:41:26Z</time>
      </trkpt>
      <trkpt lat="46.70444" lon="6.20347">
        <ele>943.67</ele>
        <time>2013-05-08T12:41:35Z</time>
      </trkpt>
      <trkpt lat="46.7047" lon="6.20377">
        <ele>943.67</ele>
        <time>2013-05-08T12:41:47Z</time>
      </trkpt>
      <trkpt lat="46.70482" lon="6.20413">
        <ele>943.19</ele>
        <time>2013-05-08T12:41:58Z</time>
      </trkpt>
      <trkpt lat="46.70487" lon="6.20448">
        <ele>942.71</ele>
        <time>2013-05-08T12:42:06Z</time>
      </trkpt>
      <trkpt lat="46.70506" lon="6.20501">
        <ele>943.67</ele>
        <time>2013-05-08T12:42:18Z</time>
      </trkpt>
      <trkpt lat="46.70517" lon="6.20543">
        <ele>943.67</ele>
        <time>2013-05-08T12:42:26Z</time>
      </trkpt>
      <trkpt lat="46.70519" lon="6.20548">
        <ele>943.67</ele>
        <time>2013-05-08T12:42:27Z</time>
      </trkpt>
      <trkpt lat="46.70522" lon="6.20554">
        <ele>944.15</ele>
        <time>2013-05-08T12:42:28Z</time>
      </trkpt>
      <trkpt lat="46.70525" lon="6.2056">
        <ele>944.15</ele>
        <time>2013-05-08T12:42:29Z</time>
      </trkpt>
      <trkpt lat="46.70528" lon="6.20567">
        <ele>943.67</ele>
        <time>2013-05-08T12:42:30Z</time>
      </trkpt>
      <trkpt lat="46.70531" lon="6.20575">
        <ele>943.19</ele>
        <time>2013-05-08T12:42:31Z</time>
      </trkpt>
      <trkpt lat="46.70533" lon="6.20584">
        <ele>943.19</ele>
        <time>2013-05-08T12:42:32Z</time>
      </trkpt>
      <trkpt lat="46.70536" lon="6.20598">
        <ele>943.67</ele>
        <time>2013-05-08T12:42:34Z</time>
      </trkpt>
      <trkpt lat="46.70537" lon="6.20603">
        <ele>944.15</ele>
        <time>2013-05-08T12:42:35Z</time>
      </trkpt>
      <trkpt lat="46.70538" lon="6.20609">
        <ele>944.63</ele>
        <time>2013-05-08T12:42:36Z</time>
      </trkpt>
      <trkpt lat="46.70544" lon="6.20641">
        <ele>945.59</ele>
        <time>2013-05-08T12:42:42Z</time>
      </trkpt>
      <trkpt lat="46.70547" lon="6.20659">
        <ele>944.63</ele>
        <time>2013-05-08T12:42:45Z</time>
      </trkpt>
      <trkpt lat="46.70549" lon="6.20665">
        <ele>944.63</ele>
        <time>2013-05-08T12:42:46Z</time>
      </trkpt>
      <trkpt lat="46.70551" lon="6.20672">
        <ele>944.15</ele>
        <time>2013-05-08T12:42:47Z</time>
      </trkpt>
      <trkpt lat="46.70553" lon="6.2068">
        <ele>943.67</ele>
        <time>2013-05-08T12:42:48Z</time>
      </trkpt>
      <trkpt lat="46.70555" lon="6.20688">
        <ele>943.19</ele>
        <time>2013-05-08T12:42:49Z</time>
      </trkpt>
      <trkpt lat="46.70566" lon="6.20731">
        <ele>942.23</ele>
        <time>2013-05-08T12:42:54Z</time>
      </trkpt>
      <trkpt lat="46.70573" lon="6.20751">
        <ele>941.75</ele>
        <time>2013-05-08T12:42:57Z</time>
      </trkpt>
      <trkpt lat="46.70576" lon="6.20756">
        <ele>941.75</ele>
        <time>2013-05-08T12:42:58Z</time>
      </trkpt>
      <trkpt lat="46.70579" lon="6.20759">
        <ele>941.75</ele>
        <time>2013-05-08T12:42:59Z</time>
      </trkpt>
      <trkpt lat="46.7058" lon="6.20762">
        <ele>942.23</ele>
        <time>2013-05-08T12:43:00Z</time>
      </trkpt>
      <trkpt lat="46.70581" lon="6.20763">
        <ele>942.23</ele>
        <time>2013-05-08T12:43:01Z</time>
      </trkpt>
      <trkpt lat="46.70582" lon="6.20764">
        <ele>942.23</ele>
        <time>2013-05-08T12:43:02Z</time>
      </trkpt>
      <trkpt lat="46.70586" lon="6.20772">
        <ele>942.23</ele>
        <time>2013-05-08T12:43:10Z</time>
      </trkpt>
      <trkpt lat="46.70587" lon="6.20775">
        <ele>942.23</ele>
        <time>2013-05-08T12:43:11Z</time>
      </trkpt>
      <trkpt lat="46.70588" lon="6.20775">
        <ele>942.23</ele>
        <time>2013-05-08T12:43:12Z</time>
      </trkpt>
      <trkpt lat="46.70589" lon="6.20774">
        <ele>942.23</ele>
        <time>2013-05-08T12:43:13Z</time>
      </trkpt>
      <trkpt lat="46.7059" lon="6.20771">
        <ele>942.23</ele>
        <time>2013-05-08T12:43:14Z</time>
      </trkpt>
      <trkpt lat="46.70588" lon="6.20769">
        <ele>941.75</ele>
        <time>2013-05-08T12:43:15Z</time>
      </trkpt>
      <trkpt lat="46.70586" lon="6.20767">
        <ele>941.75</ele>
        <time>2013-05-08T12:43:16Z</time>
      </trkpt>
      <trkpt lat="46.70584" lon="6.20765">
        <ele>941.75</ele>
        <time>2013-05-08T12:43:17Z</time>
      </trkpt>
      <trkpt lat="46.70582" lon="6.20763">
        <ele>941.75</ele>
        <time>2013-05-08T12:43:18Z</time>
      </trkpt>
      <trkpt lat="46.7058" lon="6.20761">
        <ele>941.75</ele>
        <time>2013-05-08T12:43:19Z</time>
      </trkpt>
      <trkpt lat="46.70578" lon="6.20758">
        <ele>941.75</ele>
        <time>2013-05-08T12:43:20Z</time>
      </trkpt>
      <trkpt lat="46.70576" lon="6.20755">
        <ele>941.75</ele>
        <time>2013-05-08T12:43:21Z</time>
      </trkpt>
      <trkpt lat="46.70575" lon="6.20751">
        <ele>941.75</ele>
        <time>2013-05-08T12:43:22Z</time>
      </trkpt>
      <trkpt lat="46.70572" lon="6.20748">
        <ele>941.75</ele>
        <time>2013-05-08T12:43:23Z</time>
      </trkpt>
      <trkpt lat="46.7057" lon="6.20745">
        <ele>941.75</ele>
        <time>2013-05-08T12:43:24Z</time>
      </trkpt>
      <trkpt lat="46.70567" lon="6.20744">
        <ele>941.75</ele>
        <time>2013-05-08T12:43:25Z</time>
      </trkpt>
      <trkpt lat="46.70564" lon="6.20744">
        <ele>941.75</ele>
        <time>2013-05-08T12:43:26Z</time>
      </trkpt>
      <trkpt lat="46.70561" lon="6.20745">
        <ele>942.23</ele>
        <time>2013-05-08T12:43:27Z</time>
      </trkpt>
      <trkpt lat="46.70559" lon="6.20747">
        <ele>942.23</ele>
        <time>2013-05-08T12:43:28Z</time>
      </trkpt>
      <trkpt lat="46.70557" lon="6.20749">
        <ele>942.23</ele>
        <time>2013-05-08T12:43:29Z</time>
      </trkpt>
      <trkpt lat="46.70555" lon="6.20753">
        <ele>942.71</ele>
        <time>2013-05-08T12:43:30Z</time>
      </trkpt>
      <trkpt lat="46.70551" lon="6.2076">
        <ele>942.71</ele>
        <time>2013-05-08T12:43:32Z</time>
      </trkpt>
      <trkpt lat="46.70549" lon="6.20764">
        <ele>942.71</ele>
        <time>2013-05-08T12:43:33Z</time>
      </trkpt>
      <trkpt lat="46.70547" lon="6.20767">
        <ele>943.19</ele>
        <time>2013-05-08T12:43:34Z</time>
      </trkpt>
      <trkpt lat="46.70528" lon="6.20794">
        <ele>944.15</ele>
        <time>2013-05-08T12:43:43Z</time>
      </trkpt>
      <trkpt lat="46.70527" lon="6.20798">
        <ele>944.63</ele>
        <time>2013-05-08T12:43:44Z</time>
      </trkpt>
      <trkpt lat="46.70525" lon="6.20802">
        <ele>944.63</ele>
        <time>2013-05-08T12:43:45Z</time>
      </trkpt>
      <trkpt lat="46.70524" lon="6.20806">
        <ele>944.63</ele>
        <time>2013-05-08T12:43:46Z</time>
      </trkpt>
      <trkpt lat="46.70523" lon="6.20809">
        <ele>944.63</ele>
        <time>2013-05-08T12:43:47Z</time>
      </trkpt>
      <trkpt lat="46.70522" lon="6.20812">
        <ele>945.11</ele>
        <time>2013-05-08T12:43:48Z</time>
      </trkpt>
      <trkpt lat="46.70521" lon="6.20824">
        <ele>945.11</ele>
        <time>2013-05-08T12:43:58Z</time>
      </trkpt>
      <trkpt lat="46.70521" lon="6.20826">
        <ele>945.11</ele>
        <time>2013-05-08T12:44:12Z</time>
      </trkpt>
      <trkpt lat="46.70521" lon="6.20826">
        <ele>945.59</ele>
        <time>2013-05-08T12:44:36Z</time>
      </trkpt>
      <trkpt lat="46.70522" lon="6.20826">
        <ele>947.04</ele>
        <time>2013-05-08T12:45:06Z</time>
      </trkpt>
      <trkpt lat="46.70522" lon="6.20825">
        <ele>945.59</ele>
        <time>2013-05-08T12:45:38Z</time>
      </trkpt>
      <trkpt lat="46.70522" lon="6.20826">
        <ele>945.59</ele>
        <time>2013-05-08T12:46:09Z</time>
      </trkpt>
      <trkpt lat="46.70522" lon="6.20826">
        <ele>945.11</ele>
        <time>2013-05-08T12:46:38Z</time>
      </trkpt>
      <trkpt lat="46.70522" lon="6.20825">
        <ele>945.11</ele>
        <time>2013-05-08T12:46:59Z</time>
      </trkpt>
      <trkpt lat="46.70522" lon="6.20825">
        <ele>945.11</ele>
        <time>2013-05-08T12:47:19Z</time>
      </trkpt>
      <trkpt lat="46.70522" lon="6.20825">
        <ele>945.59</ele>
        <time>2013-05-08T12:47:41Z</time>
      </trkpt>
      <trkpt lat="46.70522" lon="6.20825">
        <ele>945.59</ele>
        <time>2013-05-08T12:48:07Z</time>
      </trkpt>
      <trkpt lat="46.70522" lon="6.20825">
        <ele>945.59</ele>
        <time>2013-05-08T12:48:39Z</time>
      </trkpt>
      <trkpt lat="46.70523" lon="6.20825">
        <ele>945.11</ele>
        <time>2013-05-08T12:49:00Z</time>
      </trkpt>
      <trkpt lat="46.70521" lon="6.20817">
        <ele>945.59</ele>
        <time>2013-05-08T12:49:10Z</time>
      </trkpt>
      <trkpt lat="46.70522" lon="6.20809">
        <ele>945.11</ele>
        <time>2013-05-08T12:49:15Z</time>
      </trkpt>
      <trkpt lat="46.70527" lon="6.20799">
        <ele>944.15</ele>
        <time>2013-05-08T12:49:21Z</time>
      </trkpt>
      <trkpt lat="46.70526" lon="6.20793">
        <ele>944.15</ele>
        <time>2013-05-08T12:49:24Z</time>
      </trkpt>
      <trkpt lat="46.70525" lon="6.2079">
        <ele>943.67</ele>
        <time>2013-05-08T12:49:26Z</time>
      </trkpt>
      <trkpt lat="46.70526" lon="6.20788">
        <ele>943.67</ele>
        <time>2013-05-08T12:49:27Z</time>
      </trkpt>
      <trkpt lat="46.70533" lon="6.20775">
        <ele>943.67</ele>
        <time>2013-05-08T12:49:32Z</time>
      </trkpt>
      <trkpt lat="46.70535" lon="6.20773">
        <ele>943.67</ele>
        <time>2013-05-08T12:49:33Z</time>
      </trkpt>
      <trkpt lat="46.70548" lon="6.2076">
        <ele>942.23</ele>
        <time>2013-05-08T12:49:38Z</time>
      </trkpt>
      <trkpt lat="46.70551" lon="6.20758">
        <ele>942.71</ele>
        <time>2013-05-08T12:49:39Z</time>
      </trkpt>
      <trkpt lat="46.70553" lon="6.20756">
        <ele>942.23</ele>
        <time>2013-05-08T12:49:40Z</time>
      </trkpt>
      <trkpt lat="46.70567" lon="6.20745">
        <ele>941.75</ele>
        <time>2013-05-08T12:49:46Z</time>
      </trkpt>
      <trkpt lat="46.7057" lon="6.20747">
        <ele>941.75</ele>
        <time>2013-05-08T12:49:47Z</time>
      </trkpt>
      <trkpt lat="46.70572" lon="6.20749">
        <ele>941.75</ele>
        <time>2013-05-08T12:49:48Z</time>
      </trkpt>
      <trkpt lat="46.70574" lon="6.20752">
        <ele>942.23</ele>
        <time>2013-05-08T12:49:49Z</time>
      </trkpt>
      <trkpt lat="46.70576" lon="6.20755">
        <ele>941.75</ele>
        <time>2013-05-08T12:49:50Z</time>
      </trkpt>
      <trkpt lat="46.70578" lon="6.20757">
        <ele>942.23</ele>
        <time>2013-05-08T12:49:51Z</time>
      </trkpt>
      <trkpt lat="46.7058" lon="6.2076">
        <ele>941.75</ele>
        <time>2013-05-08T12:49:52Z</time>
      </trkpt>
      <trkpt lat="46.70582" lon="6.20762">
        <ele>942.23</ele>
        <time>2013-05-08T12:49:53Z</time>
      </trkpt>
      <trkpt lat="46.70602" lon="6.20794">
        <ele>943.19</ele>
        <time>2013-05-08T12:50:04Z</time>
      </trkpt>
      <trkpt lat="46.70624" lon="6.20826">
        <ele>943.19</ele>
        <time>2013-05-08T12:50:16Z</time>
      </trkpt>
      <trkpt lat="46.70646" lon="6.20861">
        <ele>944.15</ele>
        <time>2013-05-08T12:50:29Z</time>
      </trkpt>
      <trkpt lat="46.70678" lon="6.20901">
        <ele>945.11</ele>
        <time>2013-05-08T12:50:45Z</time>
      </trkpt>
      <trkpt lat="46.70702" lon="6.20931">
        <ele>946.07</ele>
        <time>2013-05-08T12:50:57Z</time>
      </trkpt>
      <trkpt lat="46.7073" lon="6.20972">
        <ele>947.04</ele>
        <time>2013-05-08T12:51:10Z</time>
      </trkpt>
      <trkpt lat="46.70767" lon="6.21024">
        <ele>948</ele>
        <time>2013-05-08T12:51:27Z</time>
      </trkpt>
      <trkpt lat="46.70816" lon="6.21069">
        <ele>948</ele>
        <time>2013-05-08T12:51:44Z</time>
      </trkpt>
      <trkpt lat="46.70852" lon="6.21058">
        <ele>948.48</ele>
        <time>2013-05-08T12:51:55Z</time>
      </trkpt>
      <trkpt lat="46.70876" lon="6.21001">
        <ele>948.96</ele>
        <time>2013-05-08T12:52:08Z</time>
      </trkpt>
      <trkpt lat="46.70895" lon="6.20932">
        <ele>950.88</ele>
        <time>2013-05-08T12:52:24Z</time>
      </trkpt>
      <trkpt lat="46.70918" lon="6.20847">
        <ele>953.77</ele>
        <time>2013-05-08T12:52:43Z</time>
      </trkpt>
      <trkpt lat="46.70939" lon="6.20787">
        <ele>954.25</ele>
        <time>2013-05-08T12:52:56Z</time>
      </trkpt>
      <trkpt lat="46.70967" lon="6.20714">
        <ele>954.73</ele>
        <time>2013-05-08T12:53:10Z</time>
      </trkpt>
      <trkpt lat="46.70968" lon="6.20708">
        <ele>954.25</ele>
        <time>2013-05-08T12:53:11Z</time>
      </trkpt>
      <trkpt lat="46.70971" lon="6.2069">
        <ele>954.25</ele>
        <time>2013-05-08T12:53:14Z</time>
      </trkpt>
      <trkpt lat="46.70971" lon="6.20683">
        <ele>954.25</ele>
        <time>2013-05-08T12:53:15Z</time>
      </trkpt>
      <trkpt lat="46.70969" lon="6.20576">
        <ele>952.8</ele>
        <time>2013-05-08T12:53:30Z</time>
      </trkpt>
      <trkpt lat="46.70971" lon="6.20459">
        <ele>952.8</ele>
        <time>2013-05-08T12:53:47Z</time>
      </trkpt>
      <trkpt lat="46.70979" lon="6.20412">
        <ele>952.8</ele>
        <time>2013-05-08T12:53:54Z</time>
      </trkpt>
      <trkpt lat="46.70997" lon="6.20364">
        <ele>950.4</ele>
        <time>2013-05-08T12:54:01Z</time>
      </trkpt>
      <trkpt lat="46.71036" lon="6.20282">
        <ele>947.52</ele>
        <time>2013-05-08T12:54:12Z</time>
      </trkpt>
      <trkpt lat="46.71083" lon="6.20231">
        <ele>947.52</ele>
        <time>2013-05-08T12:54:22Z</time>
      </trkpt>
      <trkpt lat="46.71108" lon="6.20195">
        <ele>948</ele>
        <time>2013-05-08T12:54:29Z</time>
      </trkpt>
      <trkpt lat="46.71111" lon="6.20189">
        <ele>948</ele>
        <time>2013-05-08T12:54:30Z</time>
      </trkpt>
      <trkpt lat="46.71141" lon="6.20119">
        <ele>950.88</ele>
        <time>2013-05-08T12:54:45Z</time>
      </trkpt>
      <trkpt lat="46.71156" lon="6.20085">
        <ele>951.36</ele>
        <time>2013-05-08T12:54:54Z</time>
      </trkpt>
      <trkpt lat="46.71159" lon="6.20084">
        <ele>951.36</ele>
        <time>2013-05-08T12:54:55Z</time>
      </trkpt>
      <trkpt lat="46.71162" lon="6.20086">
        <ele>950.88</ele>
        <time>2013-05-08T12:54:56Z</time>
      </trkpt>
      <trkpt lat="46.71164" lon="6.2009">
        <ele>950.88</ele>
        <time>2013-05-08T12:54:57Z</time>
      </trkpt>
      <trkpt lat="46.71165" lon="6.20094">
        <ele>950.88</ele>
        <time>2013-05-08T12:54:58Z</time>
      </trkpt>
      <trkpt lat="46.71166" lon="6.20098">
        <ele>950.88</ele>
        <time>2013-05-08T12:54:59Z</time>
      </trkpt>
      <trkpt lat="46.71176" lon="6.20143">
        <ele>952.8</ele>
        <time>2013-05-08T12:55:10Z</time>
      </trkpt>
      <trkpt lat="46.71191" lon="6.20216">
        <ele>952.32</ele>
        <time>2013-05-08T12:55:24Z</time>
      </trkpt>
      <trkpt lat="46.71194" lon="6.20236">
        <ele>952.32</ele>
        <time>2013-05-08T12:55:27Z</time>
      </trkpt>
      <trkpt lat="46.71195" lon="6.20242">
        <ele>952.32</ele>
        <time>2013-05-08T12:55:28Z</time>
      </trkpt>
      <trkpt lat="46.71197" lon="6.20248">
        <ele>952.32</ele>
        <time>2013-05-08T12:55:29Z</time>
      </trkpt>
      <trkpt lat="46.71207" lon="6.20289">
        <ele>953.28</ele>
        <time>2013-05-08T12:55:36Z</time>
      </trkpt>
      <trkpt lat="46.7121" lon="6.20294">
        <ele>953.28</ele>
        <time>2013-05-08T12:55:37Z</time>
      </trkpt>
      <trkpt lat="46.7125" lon="6.20354">
        <ele>955.69</ele>
        <time>2013-05-08T12:55:53Z</time>
      </trkpt>
      <trkpt lat="46.71273" lon="6.20398">
        <ele>957.61</ele>
        <time>2013-05-08T12:56:04Z</time>
      </trkpt>
      <trkpt lat="46.71296" lon="6.20472">
        <ele>959.05</ele>
        <time>2013-05-08T12:56:19Z</time>
      </trkpt>
      <trkpt lat="46.71302" lon="6.20518">
        <ele>964.82</ele>
        <time>2013-05-08T12:56:28Z</time>
      </trkpt>
      <trkpt lat="46.71301" lon="6.20523">
        <ele>961.46</ele>
        <time>2013-05-08T12:56:29Z</time>
      </trkpt>
      <trkpt lat="46.713" lon="6.20587">
        <ele>961.94</ele>
        <time>2013-05-08T12:56:41Z</time>
      </trkpt>
      <trkpt lat="46.71317" lon="6.20668">
        <ele>965.3</ele>
        <time>2013-05-08T12:56:57Z</time>
      </trkpt>
      <trkpt lat="46.71335" lon="6.20733">
        <ele>969.15</ele>
        <time>2013-05-08T12:57:11Z</time>
      </trkpt>
      <trkpt lat="46.71361" lon="6.20806">
        <ele>968.67</ele>
        <time>2013-05-08T12:57:27Z</time>
      </trkpt>
      <trkpt lat="46.71375" lon="6.20846">
        <ele>968.67</ele>
        <time>2013-05-08T12:57:35Z</time>
      </trkpt>
      <trkpt lat="46.71376" lon="6.20852">
        <ele>968.67</ele>
        <time>2013-05-08T12:57:36Z</time>
      </trkpt>
      <trkpt lat="46.71392" lon="6.20939">
        <ele>969.63</ele>
        <time>2013-05-08T12:57:52Z</time>
      </trkpt>
      <trkpt lat="46.71403" lon="6.20972">
        <ele>965.78</ele>
        <time>2013-05-08T12:57:59Z</time>
      </trkpt>
      <trkpt lat="46.71404" lon="6.20977">
        <ele>969.63</ele>
        <time>2013-05-08T12:58:00Z</time>
      </trkpt>
      <trkpt lat="46.71405" lon="6.20982">
        <ele>965.78</ele>
        <time>2013-05-08T12:58:01Z</time>
      </trkpt>
      <trkpt lat="46.71407" lon="6.20986">
        <ele>975.39</ele>
        <time>2013-05-08T12:58:02Z</time>
      </trkpt>
      <trkpt lat="46.71408" lon="6.20991">
        <ele>970.59</ele>
        <time>2013-05-08T12:58:03Z</time>
      </trkpt>
      <trkpt lat="46.71414" lon="6.21028">
        <ele>967.22</ele>
        <time>2013-05-08T12:58:11Z</time>
      </trkpt>
      <trkpt lat="46.71415" lon="6.21033">
        <ele>972.99</ele>
        <time>2013-05-08T12:58:12Z</time>
      </trkpt>
      <trkpt lat="46.71421" lon="6.21085">
        <ele>971.55</ele>
        <time>2013-05-08T12:58:24Z</time>
      </trkpt>
      <trkpt lat="46.71431" lon="6.21139">
        <ele>968.67</ele>
        <time>2013-05-08T12:58:37Z</time>
      </trkpt>
      <trkpt lat="46.71431" lon="6.21143">
        <ele>979.24</ele>
        <time>2013-05-08T12:58:38Z</time>
      </trkpt>
      <trkpt lat="46.71432" lon="6.21147">
        <ele>971.07</ele>
        <time>2013-05-08T12:58:39Z</time>
      </trkpt>
      <trkpt lat="46.71434" lon="6.21156">
        <ele>964.82</ele>
        <time>2013-05-08T12:58:41Z</time>
      </trkpt>
      <trkpt lat="46.71434" lon="6.2116">
        <ele>976.36</ele>
        <time>2013-05-08T12:58:42Z</time>
      </trkpt>
      <trkpt lat="46.71435" lon="6.21164">
        <ele>980.2</ele>
        <time>2013-05-08T12:58:43Z</time>
      </trkpt>
      <trkpt lat="46.71436" lon="6.21168">
        <ele>972.99</ele>
        <time>2013-05-08T12:58:44Z</time>
      </trkpt>
      <trkpt lat="46.71437" lon="6.21172">
        <ele>973.47</ele>
        <time>2013-05-08T12:58:45Z</time>
      </trkpt>
      <trkpt lat="46.71454" lon="6.21233">
        <ele>973.95</ele>
        <time>2013-05-08T12:58:59Z</time>
      </trkpt>
      <trkpt lat="46.71475" lon="6.21287">
        <ele>974.43</ele>
        <time>2013-05-08T12:59:10Z</time>
      </trkpt>
      <trkpt lat="46.71511" lon="6.2138">
        <ele>976.84</ele>
        <time>2013-05-08T12:59:29Z</time>
      </trkpt>
      <trkpt lat="46.71541" lon="6.21452">
        <ele>978.76</ele>
        <time>2013-05-08T12:59:44Z</time>
      </trkpt>
      <trkpt lat="46.71565" lon="6.21497">
        <ele>979.24</ele>
        <time>2013-05-08T12:59:53Z</time>
      </trkpt>
      <trkpt lat="46.71611" lon="6.21585">
        <ele>981.16</ele>
        <time>2013-05-08T13:00:10Z</time>
      </trkpt>
      <trkpt lat="46.71635" lon="6.2164">
        <ele>983.09</ele>
        <time>2013-05-08T13:00:20Z</time>
      </trkpt>
      <trkpt lat="46.71673" lon="6.2173">
        <ele>985.01</ele>
        <time>2013-05-08T13:00:36Z</time>
      </trkpt>
      <trkpt lat="46.7168" lon="6.21746">
        <ele>985.01</ele>
        <time>2013-05-08T13:00:39Z</time>
      </trkpt>
      <trkpt lat="46.71682" lon="6.21751">
        <ele>985.49</ele>
        <time>2013-05-08T13:00:40Z</time>
      </trkpt>
      <trkpt lat="46.71685" lon="6.21756">
        <ele>981.64</ele>
        <time>2013-05-08T13:00:41Z</time>
      </trkpt>
      <trkpt lat="46.71687" lon="6.21762">
        <ele>985.49</ele>
        <time>2013-05-08T13:00:42Z</time>
      </trkpt>
      <trkpt lat="46.71718" lon="6.21833">
        <ele>986.45</ele>
        <time>2013-05-08T13:00:58Z</time>
      </trkpt>
      <trkpt lat="46.71746" lon="6.21883">
        <ele>986.45</ele>
        <time>2013-05-08T13:01:12Z</time>
      </trkpt>
      <trkpt lat="46.71777" lon="6.21934">
        <ele>985.97</ele>
        <time>2013-05-08T13:01:27Z</time>
      </trkpt>
      <trkpt lat="46.71808" lon="6.21982">
        <ele>985.01</ele>
        <time>2013-05-08T13:01:41Z</time>
      </trkpt>
      <trkpt lat="46.71833" lon="6.22022">
        <ele>984.53</ele>
        <time>2013-05-08T13:01:52Z</time>
      </trkpt>
      <trkpt lat="46.71854" lon="6.22053">
        <ele>983.57</ele>
        <time>2013-05-08T13:02:00Z</time>
      </trkpt>
      <trkpt lat="46.71857" lon="6.22058">
        <ele>983.57</ele>
        <time>2013-05-08T13:02:01Z</time>
      </trkpt>
      <trkpt lat="46.71877" lon="6.22086">
        <ele>983.09</ele>
        <time>2013-05-08T13:02:08Z</time>
      </trkpt>
      <trkpt lat="46.71909" lon="6.2213">
        <ele>981.64</ele>
        <time>2013-05-08T13:02:20Z</time>
      </trkpt>
      <trkpt lat="46.71926" lon="6.2215">
        <ele>981.16</ele>
        <time>2013-05-08T13:02:25Z</time>
      </trkpt>
      <trkpt lat="46.71929" lon="6.22154">
        <ele>980.68</ele>
        <time>2013-05-08T13:02:26Z</time>
      </trkpt>
      <trkpt lat="46.71932" lon="6.22158">
        <ele>980.68</ele>
        <time>2013-05-08T13:02:27Z</time>
      </trkpt>
      <trkpt lat="46.71944" lon="6.22173">
        <ele>980.2</ele>
        <time>2013-05-08T13:02:31Z</time>
      </trkpt>
      <trkpt lat="46.71947" lon="6.22177">
        <ele>980.2</ele>
        <time>2013-05-08T13:02:32Z</time>
      </trkpt>
      <trkpt lat="46.71982" lon="6.2222">
        <ele>978.28</ele>
        <time>2013-05-08T13:02:44Z</time>
      </trkpt>
      <trkpt lat="46.71982" lon="6.22221">
        <ele>978.28</ele>
        <time>2013-05-08T13:02:56Z</time>
      </trkpt>
      <trkpt lat="46.71984" lon="6.22222">
        <ele>978.28</ele>
        <time>2013-05-08T13:03:25Z</time>
      </trkpt>
      <trkpt lat="46.71984" lon="6.22222">
        <ele>978.28</ele>
        <time>2013-05-08T13:03:50Z</time>
      </trkpt>
      <trkpt lat="46.71986" lon="6.22225">
        <ele>978.28</ele>
        <time>2013-05-08T13:04:07Z</time>
      </trkpt>
      <trkpt lat="46.71987" lon="6.22227">
        <ele>977.8</ele>
        <time>2013-05-08T13:04:08Z</time>
      </trkpt>
      <trkpt lat="46.71988" lon="6.22231">
        <ele>977.8</ele>
        <time>2013-05-08T13:04:09Z</time>
      </trkpt>
      <trkpt lat="46.71989" lon="6.22234">
        <ele>977.8</ele>
        <time>2013-05-08T13:04:10Z</time>
      </trkpt>
      <trkpt lat="46.7199" lon="6.22238">
        <ele>977.32</ele>
        <time>2013-05-08T13:04:11Z</time>
      </trkpt>
      <trkpt lat="46.72012" lon="6.22298">
        <ele>974.91</ele>
        <time>2013-05-08T13:04:24Z</time>
      </trkpt>
      <trkpt lat="46.72017" lon="6.22308">
        <ele>974.91</ele>
        <time>2013-05-08T13:04:26Z</time>
      </trkpt>
      <trkpt lat="46.7202" lon="6.22315">
        <ele>974.43</ele>
        <time>2013-05-08T13:04:27Z</time>
      </trkpt>
      <trkpt lat="46.72035" lon="6.22351">
        <ele>972.51</ele>
        <time>2013-05-08T13:04:32Z</time>
      </trkpt>
      <trkpt lat="46.72045" lon="6.22376">
        <ele>970.59</ele>
        <time>2013-05-08T13:04:35Z</time>
      </trkpt>
      <trkpt lat="46.72067" lon="6.22433">
        <ele>967.22</ele>
        <time>2013-05-08T13:04:42Z</time>
      </trkpt>
      <trkpt lat="46.72084" lon="6.22475">
        <ele>965.78</ele>
        <time>2013-05-08T13:04:51Z</time>
      </trkpt>
      <trkpt lat="46.72106" lon="6.22512">
        <ele>963.38</ele>
        <time>2013-05-08T13:05:00Z</time>
      </trkpt>
      <trkpt lat="46.7212" lon="6.22541">
        <ele>961.94</ele>
        <time>2013-05-08T13:05:05Z</time>
      </trkpt>
      <trkpt lat="46.72123" lon="6.22547">
        <ele>961.46</ele>
        <time>2013-05-08T13:05:06Z</time>
      </trkpt>
      <trkpt lat="46.72126" lon="6.22553">
        <ele>960.98</ele>
        <time>2013-05-08T13:05:07Z</time>
      </trkpt>
      <trkpt lat="46.72161" lon="6.22622">
        <ele>957.61</ele>
        <time>2013-05-08T13:05:17Z</time>
      </trkpt>
      <trkpt lat="46.72179" lon="6.22659">
        <ele>954.73</ele>
        <time>2013-05-08T13:05:22Z</time>
      </trkpt>
      <trkpt lat="46.72208" lon="6.22721">
        <ele>951.36</ele>
        <time>2013-05-08T13:05:29Z</time>
      </trkpt>
      <trkpt lat="46.72241" lon="6.22824">
        <ele>948.96</ele>
        <time>2013-05-08T13:05:41Z</time>
      </trkpt>
      <trkpt lat="46.72246" lon="6.22834">
        <ele>948</ele>
        <time>2013-05-08T13:05:44Z</time>
      </trkpt>
      <trkpt lat="46.72248" lon="6.22836">
        <ele>948</ele>
        <time>2013-05-08T13:05:45Z</time>
      </trkpt>
      <trkpt lat="46.7225" lon="6.22839">
        <ele>948</ele>
        <time>2013-05-08T13:05:46Z</time>
      </trkpt>
      <trkpt lat="46.72257" lon="6.22859">
        <ele>947.04</ele>
        <time>2013-05-08T13:05:53Z</time>
      </trkpt>
      <trkpt lat="46.72262" lon="6.22866">
        <ele>947.04</ele>
        <time>2013-05-08T13:05:56Z</time>
      </trkpt>
      <trkpt lat="46.72262" lon="6.22868">
        <ele>946.56</ele>
        <time>2013-05-08T13:06:08Z</time>
      </trkpt>
      <trkpt lat="46.72262" lon="6.22868">
        <ele>946.56</ele>
        <time>2013-05-08T13:06:27Z</time>
      </trkpt>
      <trkpt lat="46.72268" lon="6.22882">
        <ele>946.07</ele>
        <time>2013-05-08T13:06:52Z</time>
      </trkpt>
      <trkpt lat="46.72295" lon="6.22953">
        <ele>943.67</ele>
        <time>2013-05-08T13:07:05Z</time>
      </trkpt>
      <trkpt lat="46.72334" lon="6.23045">
        <ele>940.31</ele>
        <time>2013-05-08T13:07:17Z</time>
      </trkpt>
      <trkpt lat="46.72358" lon="6.23084">
        <ele>937.42</ele>
        <time>2013-05-08T13:07:22Z</time>
      </trkpt>
      <trkpt lat="46.72361" lon="6.23093">
        <ele>937.42</ele>
        <time>2013-05-08T13:07:23Z</time>
      </trkpt>
      <trkpt lat="46.72364" lon="6.23103">
        <ele>936.94</ele>
        <time>2013-05-08T13:07:24Z</time>
      </trkpt>
      <trkpt lat="46.72367" lon="6.23113">
        <ele>936.94</ele>
        <time>2013-05-08T13:07:25Z</time>
      </trkpt>
      <trkpt lat="46.72369" lon="6.23123">
        <ele>936.94</ele>
        <time>2013-05-08T13:07:26Z</time>
      </trkpt>
      <trkpt lat="46.7237" lon="6.23133">
        <ele>936.94</ele>
        <time>2013-05-08T13:07:27Z</time>
      </trkpt>
      <trkpt lat="46.72376" lon="6.23168">
        <ele>937.42</ele>
        <time>2013-05-08T13:07:31Z</time>
      </trkpt>
      <trkpt lat="46.72379" lon="6.23176">
        <ele>937.42</ele>
        <time>2013-05-08T13:07:32Z</time>
      </trkpt>
      <trkpt lat="46.72381" lon="6.23183">
        <ele>936.94</ele>
        <time>2013-05-08T13:07:33Z</time>
      </trkpt>
      <trkpt lat="46.72421" lon="6.23271">
        <ele>935.5</ele>
        <time>2013-05-08T13:07:45Z</time>
      </trkpt>
      <trkpt lat="46.72464" lon="6.23375">
        <ele>933.58</ele>
        <time>2013-05-08T13:08:00Z</time>
      </trkpt>
      <trkpt lat="46.72517" lon="6.23485">
        <ele>931.17</ele>
        <time>2013-05-08T13:08:13Z</time>
      </trkpt>
      <trkpt lat="46.72528" lon="6.23519">
        <ele>931.17</ele>
        <time>2013-05-08T13:08:18Z</time>
      </trkpt>
      <trkpt lat="46.72533" lon="6.23529">
        <ele>931.17</ele>
        <time>2013-05-08T13:08:20Z</time>
      </trkpt>
      <trkpt lat="46.72536" lon="6.23534">
        <ele>931.17</ele>
        <time>2013-05-08T13:08:21Z</time>
      </trkpt>
      <trkpt lat="46.72561" lon="6.2356">
        <ele>930.21</ele>
        <time>2013-05-08T13:08:28Z</time>
      </trkpt>
      <trkpt lat="46.72576" lon="6.23578">
        <ele>930.21</ele>
        <time>2013-05-08T13:08:32Z</time>
      </trkpt>
      <trkpt lat="46.7258" lon="6.23582">
        <ele>930.21</ele>
        <time>2013-05-08T13:08:33Z</time>
      </trkpt>
      <trkpt lat="46.72601" lon="6.23633">
        <ele>930.69</ele>
        <time>2013-05-08T13:08:42Z</time>
      </trkpt>
      <trkpt lat="46.72614" lon="6.23675">
        <ele>931.65</ele>
        <time>2013-05-08T13:08:49Z</time>
      </trkpt>
      <trkpt lat="46.72617" lon="6.2368">
        <ele>930.69</ele>
        <time>2013-05-08T13:08:50Z</time>
      </trkpt>
      <trkpt lat="46.72626" lon="6.23697">
        <ele>930.21</ele>
        <time>2013-05-08T13:08:53Z</time>
      </trkpt>
      <trkpt lat="46.72634" lon="6.23708">
        <ele>930.21</ele>
        <time>2013-05-08T13:08:55Z</time>
      </trkpt>
      <trkpt lat="46.72637" lon="6.23713">
        <ele>930.69</ele>
        <time>2013-05-08T13:08:56Z</time>
      </trkpt>
      <trkpt lat="46.72641" lon="6.23718">
        <ele>930.69</ele>
        <time>2013-05-08T13:08:57Z</time>
      </trkpt>
      <trkpt lat="46.7265" lon="6.23726">
        <ele>931.17</ele>
        <time>2013-05-08T13:08:59Z</time>
      </trkpt>
      <trkpt lat="46.72712" lon="6.23799">
        <ele>931.17</ele>
        <time>2013-05-08T13:09:14Z</time>
      </trkpt>
      <trkpt lat="46.72753" lon="6.23823">
        <ele>929.25</ele>
        <time>2013-05-08T13:09:22Z</time>
      </trkpt>
      <trkpt lat="46.72763" lon="6.23832">
        <ele>929.25</ele>
        <time>2013-05-08T13:09:24Z</time>
      </trkpt>
      <trkpt lat="46.72767" lon="6.23838">
        <ele>928.77</ele>
        <time>2013-05-08T13:09:25Z</time>
      </trkpt>
      <trkpt lat="46.72771" lon="6.23845">
        <ele>928.77</ele>
        <time>2013-05-08T13:09:26Z</time>
      </trkpt>
      <trkpt lat="46.72774" lon="6.23852">
        <ele>928.77</ele>
        <time>2013-05-08T13:09:27Z</time>
      </trkpt>
      <trkpt lat="46.72777" lon="6.23859">
        <ele>928.77</ele>
        <time>2013-05-08T13:09:28Z</time>
      </trkpt>
      <trkpt lat="46.7278" lon="6.23866">
        <ele>928.29</ele>
        <time>2013-05-08T13:09:29Z</time>
      </trkpt>
      <trkpt lat="46.72783" lon="6.23872">
        <ele>928.29</ele>
        <time>2013-05-08T13:09:30Z</time>
      </trkpt>
      <trkpt lat="46.72786" lon="6.23879">
        <ele>928.29</ele>
        <time>2013-05-08T13:09:31Z</time>
      </trkpt>
      <trkpt lat="46.72789" lon="6.23885">
        <ele>928.29</ele>
        <time>2013-05-08T13:09:32Z</time>
      </trkpt>
      <trkpt lat="46.72792" lon="6.23891">
        <ele>928.29</ele>
        <time>2013-05-08T13:09:33Z</time>
      </trkpt>
      <trkpt lat="46.72795" lon="6.23898">
        <ele>928.29</ele>
        <time>2013-05-08T13:09:34Z</time>
      </trkpt>
      <trkpt lat="46.72812" lon="6.23943">
        <ele>927.81</ele>
        <time>2013-05-08T13:09:40Z</time>
      </trkpt>
      <trkpt lat="46.72814" lon="6.2395">
        <ele>927.81</ele>
        <time>2013-05-08T13:09:41Z</time>
      </trkpt>
      <trkpt lat="46.72818" lon="6.23965">
        <ele>927.81</ele>
        <time>2013-05-08T13:09:43Z</time>
      </trkpt>
      <trkpt lat="46.7282" lon="6.23973">
        <ele>927.33</ele>
        <time>2013-05-08T13:09:44Z</time>
      </trkpt>
      <trkpt lat="46.7282" lon="6.23981">
        <ele>927.81</ele>
        <time>2013-05-08T13:09:45Z</time>
      </trkpt>
      <trkpt lat="46.72821" lon="6.23989">
        <ele>927.81</ele>
        <time>2013-05-08T13:09:46Z</time>
      </trkpt>
      <trkpt lat="46.7282" lon="6.23997">
        <ele>927.81</ele>
        <time>2013-05-08T13:09:47Z</time>
      </trkpt>
      <trkpt lat="46.7282" lon="6.24004">
        <ele>927.81</ele>
        <time>2013-05-08T13:09:48Z</time>
      </trkpt>
      <trkpt lat="46.72806" lon="6.24108">
        <ele>928.29</ele>
        <time>2013-05-08T13:10:01Z</time>
      </trkpt>
      <trkpt lat="46.72805" lon="6.24115">
        <ele>928.29</ele>
        <time>2013-05-08T13:10:02Z</time>
      </trkpt>
      <trkpt lat="46.72791" lon="6.242">
        <ele>929.73</ele>
        <time>2013-05-08T13:10:17Z</time>
      </trkpt>
      <trkpt lat="46.72784" lon="6.24268">
        <ele>931.17</ele>
        <time>2013-05-08T13:10:31Z</time>
      </trkpt>
      <trkpt lat="46.72785" lon="6.24273">
        <ele>931.17</ele>
        <time>2013-05-08T13:10:32Z</time>
      </trkpt>
      <trkpt lat="46.72795" lon="6.24323">
        <ele>932.62</ele>
        <time>2013-05-08T13:10:46Z</time>
      </trkpt>
      <trkpt lat="46.72802" lon="6.24367">
        <ele>934.06</ele>
        <time>2013-05-08T13:10:57Z</time>
      </trkpt>
      <trkpt lat="46.72807" lon="6.24424">
        <ele>935.98</ele>
        <time>2013-05-08T13:11:10Z</time>
      </trkpt>
      <trkpt lat="46.72808" lon="6.24478">
        <ele>938.86</ele>
        <time>2013-05-08T13:11:23Z</time>
      </trkpt>
      <trkpt lat="46.72817" lon="6.24528">
        <ele>939.35</ele>
        <time>2013-05-08T13:11:37Z</time>
      </trkpt>
      <trkpt lat="46.72828" lon="6.24584">
        <ele>941.27</ele>
        <time>2013-05-08T13:11:51Z</time>
      </trkpt>
      <trkpt lat="46.72839" lon="6.24637">
        <ele>943.19</ele>
        <time>2013-05-08T13:12:05Z</time>
      </trkpt>
      <trkpt lat="46.72856" lon="6.24703">
        <ele>945.59</ele>
        <time>2013-05-08T13:12:22Z</time>
      </trkpt>
      <trkpt lat="46.72875" lon="6.24738">
        <ele>947.52</ele>
        <time>2013-05-08T13:12:35Z</time>
      </trkpt>
      <trkpt lat="46.72898" lon="6.24776">
        <ele>949.92</ele>
        <time>2013-05-08T13:12:49Z</time>
      </trkpt>
      <trkpt lat="46.72915" lon="6.24822">
        <ele>951.36</ele>
        <time>2013-05-08T13:13:03Z</time>
      </trkpt>
      <trkpt lat="46.72921" lon="6.2484">
        <ele>951.84</ele>
        <time>2013-05-08T13:13:11Z</time>
      </trkpt>
      <trkpt lat="46.72922" lon="6.24843">
        <ele>951.84</ele>
        <time>2013-05-08T13:13:12Z</time>
      </trkpt>
      <trkpt lat="46.72922" lon="6.24846">
        <ele>951.84</ele>
        <time>2013-05-08T13:13:13Z</time>
      </trkpt>
      <trkpt lat="46.72923" lon="6.24849">
        <ele>951.84</ele>
        <time>2013-05-08T13:13:14Z</time>
      </trkpt>
      <trkpt lat="46.72924" lon="6.24853">
        <ele>951.84</ele>
        <time>2013-05-08T13:13:15Z</time>
      </trkpt>
      <trkpt lat="46.72926" lon="6.24856">
        <ele>951.84</ele>
        <time>2013-05-08T13:13:16Z</time>
      </trkpt>
      <trkpt lat="46.72928" lon="6.24859">
        <ele>951.84</ele>
        <time>2013-05-08T13:13:17Z</time>
      </trkpt>
      <trkpt lat="46.72929" lon="6.24862">
        <ele>951.36</ele>
        <time>2013-05-08T13:13:18Z</time>
      </trkpt>
      <trkpt lat="46.72949" lon="6.24911">
        <ele>950.88</ele>
        <time>2013-05-08T13:13:31Z</time>
      </trkpt>
      <trkpt lat="46.72969" lon="6.24958">
        <ele>950.4</ele>
        <time>2013-05-08T13:13:43Z</time>
      </trkpt>
      <trkpt lat="46.72991" lon="6.25">
        <ele>950.4</ele>
        <time>2013-05-08T13:13:55Z</time>
      </trkpt>
      <trkpt lat="46.73021" lon="6.2506">
        <ele>951.36</ele>
        <time>2013-05-08T13:14:11Z</time>
      </trkpt>
      <trkpt lat="46.73048" lon="6.25123">
        <ele>951.84</ele>
        <time>2013-05-08T13:14:25Z</time>
      </trkpt>
      <trkpt lat="46.73079" lon="6.25202">
        <ele>953.77</ele>
        <time>2013-05-08T13:14:42Z</time>
      </trkpt>
      <trkpt lat="46.731" lon="6.25253">
        <ele>956.65</ele>
        <time>2013-05-08T13:14:58Z</time>
      </trkpt>
      <trkpt lat="46.73122" lon="6.25303">
        <ele>959.53</ele>
        <time>2013-05-08T13:15:14Z</time>
      </trkpt>
      <trkpt lat="46.73143" lon="6.25358">
        <ele>962.9</ele>
        <time>2013-05-08T13:15:30Z</time>
      </trkpt>
      <trkpt lat="46.73165" lon="6.25427">
        <ele>965.3</ele>
        <time>2013-05-08T13:15:48Z</time>
      </trkpt>
      <trkpt lat="46.73189" lon="6.25502">
        <ele>966.26</ele>
        <time>2013-05-08T13:16:05Z</time>
      </trkpt>
      <trkpt lat="46.73224" lon="6.25596">
        <ele>965.78</ele>
        <time>2013-05-08T13:16:21Z</time>
      </trkpt>
      <trkpt lat="46.73263" lon="6.25699">
        <ele>966.74</ele>
        <time>2013-05-08T13:16:39Z</time>
      </trkpt>
      <trkpt lat="46.73311" lon="6.25812">
        <ele>968.67</ele>
        <time>2013-05-08T13:16:59Z</time>
      </trkpt>
      <trkpt lat="46.73326" lon="6.2585">
        <ele>972.03</ele>
        <time>2013-05-08T13:17:06Z</time>
      </trkpt>
      <trkpt lat="46.73351" lon="6.25921">
        <ele>972.51</ele>
        <time>2013-05-08T13:17:20Z</time>
      </trkpt>
      <trkpt lat="46.73366" lon="6.25974">
        <ele>972.99</ele>
        <time>2013-05-08T13:17:33Z</time>
      </trkpt>
      <trkpt lat="46.73368" lon="6.25977">
        <ele>972.99</ele>
        <time>2013-05-08T13:17:46Z</time>
      </trkpt>
      <trkpt lat="46.73368" lon="6.25977">
        <ele>972.99</ele>
        <time>2013-05-08T13:18:19Z</time>
      </trkpt>
      <trkpt lat="46.73368" lon="6.25977">
        <ele>972.99</ele>
        <time>2013-05-08T13:18:44Z</time>
      </trkpt>
      <trkpt lat="46.73368" lon="6.25978">
        <ele>972.99</ele>
        <time>2013-05-08T13:19:06Z</time>
      </trkpt>
      <trkpt lat="46.73377" lon="6.25997">
        <ele>972.03</ele>
        <time>2013-05-08T13:19:20Z</time>
      </trkpt>
      <trkpt lat="46.73399" lon="6.26056">
        <ele>970.11</ele>
        <time>2013-05-08T13:19:33Z</time>
      </trkpt>
      <trkpt lat="46.73415" lon="6.26099">
        <ele>969.15</ele>
        <time>2013-05-08T13:19:42Z</time>
      </trkpt>
      <trkpt lat="46.73417" lon="6.26104">
        <ele>968.67</ele>
        <time>2013-05-08T13:19:43Z</time>
      </trkpt>
      <trkpt lat="46.73419" lon="6.2611">
        <ele>968.18</ele>
        <time>2013-05-08T13:19:44Z</time>
      </trkpt>
      <trkpt lat="46.73423" lon="6.26122">
        <ele>968.18</ele>
        <time>2013-05-08T13:19:46Z</time>
      </trkpt>
      <trkpt lat="46.73425" lon="6.26128">
        <ele>967.7</ele>
        <time>2013-05-08T13:19:47Z</time>
      </trkpt>
      <trkpt lat="46.73428" lon="6.26135">
        <ele>967.22</ele>
        <time>2013-05-08T13:19:48Z</time>
      </trkpt>
      <trkpt lat="46.73432" lon="6.26149">
        <ele>966.26</ele>
        <time>2013-05-08T13:19:50Z</time>
      </trkpt>
      <trkpt lat="46.7345" lon="6.26195">
        <ele>962.9</ele>
        <time>2013-05-08T13:19:55Z</time>
      </trkpt>
      <trkpt lat="46.73464" lon="6.26242">
        <ele>959.53</ele>
        <time>2013-05-08T13:19:59Z</time>
      </trkpt>
      <trkpt lat="46.73483" lon="6.26307">
        <ele>956.65</ele>
        <time>2013-05-08T13:20:05Z</time>
      </trkpt>
      <trkpt lat="46.73486" lon="6.26317">
        <ele>955.69</ele>
        <time>2013-05-08T13:20:06Z</time>
      </trkpt>
      <trkpt lat="46.73507" lon="6.26367">
        <ele>953.28</ele>
        <time>2013-05-08T13:20:11Z</time>
      </trkpt>
      <trkpt lat="46.7351" lon="6.26377">
        <ele>952.32</ele>
        <time>2013-05-08T13:20:12Z</time>
      </trkpt>
      <trkpt lat="46.73521" lon="6.26408">
        <ele>950.88</ele>
        <time>2013-05-08T13:20:15Z</time>
      </trkpt>
      <trkpt lat="46.73537" lon="6.2646">
        <ele>947.52</ele>
        <time>2013-05-08T13:20:20Z</time>
      </trkpt>
      <trkpt lat="46.7354" lon="6.26473">
        <ele>947.04</ele>
        <time>2013-05-08T13:20:21Z</time>
      </trkpt>
      <trkpt lat="46.73551" lon="6.26536">
        <ele>943.67</ele>
        <time>2013-05-08T13:20:26Z</time>
      </trkpt>
      <trkpt lat="46.73557" lon="6.26594">
        <ele>940.31</ele>
        <time>2013-05-08T13:20:30Z</time>
      </trkpt>
      <trkpt lat="46.7356" lon="6.26667">
        <ele>936.94</ele>
        <time>2013-05-08T13:20:35Z</time>
      </trkpt>
      <trkpt lat="46.73562" lon="6.26697">
        <ele>934.54</ele>
        <time>2013-05-08T13:20:37Z</time>
      </trkpt>
      <trkpt lat="46.73565" lon="6.26711">
        <ele>934.54</ele>
        <time>2013-05-08T13:20:38Z</time>
      </trkpt>
      <trkpt lat="46.7357" lon="6.26723">
        <ele>934.06</ele>
        <time>2013-05-08T13:20:39Z</time>
      </trkpt>
      <trkpt lat="46.73577" lon="6.26733">
        <ele>934.06</ele>
        <time>2013-05-08T13:20:40Z</time>
      </trkpt>
      <trkpt lat="46.73585" lon="6.26743">
        <ele>934.06</ele>
        <time>2013-05-08T13:20:41Z</time>
      </trkpt>
      <trkpt lat="46.73647" lon="6.26831">
        <ele>930.69</ele>
        <time>2013-05-08T13:20:50Z</time>
      </trkpt>
      <trkpt lat="46.73653" lon="6.2684">
        <ele>930.69</ele>
        <time>2013-05-08T13:20:51Z</time>
      </trkpt>
      <trkpt lat="46.73665" lon="6.26859">
        <ele>930.21</ele>
        <time>2013-05-08T13:20:53Z</time>
      </trkpt>
      <trkpt lat="46.73672" lon="6.26868">
        <ele>930.21</ele>
        <time>2013-05-08T13:20:54Z</time>
      </trkpt>
      <trkpt lat="46.73678" lon="6.26877">
        <ele>929.25</ele>
        <time>2013-05-08T13:20:55Z</time>
      </trkpt>
      <trkpt lat="46.73688" lon="6.26896">
        <ele>929.73</ele>
        <time>2013-05-08T13:20:57Z</time>
      </trkpt>
      <trkpt lat="46.73699" lon="6.26925">
        <ele>928.77</ele>
        <time>2013-05-08T13:21:00Z</time>
      </trkpt>
      <trkpt lat="46.73701" lon="6.26936">
        <ele>929.25</ele>
        <time>2013-05-08T13:21:01Z</time>
      </trkpt>
      <trkpt lat="46.73719" lon="6.27023">
        <ele>930.21</ele>
        <time>2013-05-08T13:21:11Z</time>
      </trkpt>
      <trkpt lat="46.73719" lon="6.27029">
        <ele>930.21</ele>
        <time>2013-05-08T13:21:12Z</time>
      </trkpt>
      <trkpt lat="46.73719" lon="6.27035">
        <ele>930.69</ele>
        <time>2013-05-08T13:21:13Z</time>
      </trkpt>
      <trkpt lat="46.73719" lon="6.27041">
        <ele>930.69</ele>
        <time>2013-05-08T13:21:14Z</time>
      </trkpt>
      <trkpt lat="46.7372" lon="6.27046">
        <ele>931.17</ele>
        <time>2013-05-08T13:21:15Z</time>
      </trkpt>
      <trkpt lat="46.7372" lon="6.27051">
        <ele>931.17</ele>
        <time>2013-05-08T13:21:16Z</time>
      </trkpt>
      <trkpt lat="46.7372" lon="6.27056">
        <ele>931.65</ele>
        <time>2013-05-08T13:21:17Z</time>
      </trkpt>
      <trkpt lat="46.7372" lon="6.27061">
        <ele>931.65</ele>
        <time>2013-05-08T13:21:18Z</time>
      </trkpt>
      <trkpt lat="46.73723" lon="6.27124">
        <ele>934.54</ele>
        <time>2013-05-08T13:21:32Z</time>
      </trkpt>
      <trkpt lat="46.73722" lon="6.27191">
        <ele>935.98</ele>
        <time>2013-05-08T13:21:46Z</time>
      </trkpt>
      <trkpt lat="46.73723" lon="6.27254">
        <ele>935.98</ele>
        <time>2013-05-08T13:21:57Z</time>
      </trkpt>
      <trkpt lat="46.73732" lon="6.27356">
        <ele>934.06</ele>
        <time>2013-05-08T13:22:10Z</time>
      </trkpt>
      <trkpt lat="46.73738" lon="6.27395">
        <ele>934.54</ele>
        <time>2013-05-08T13:22:15Z</time>
      </trkpt>
      <trkpt lat="46.73739" lon="6.27402">
        <ele>934.54</ele>
        <time>2013-05-08T13:22:16Z</time>
      </trkpt>
      <trkpt lat="46.73747" lon="6.27451">
        <ele>935.02</ele>
        <time>2013-05-08T13:22:23Z</time>
      </trkpt>
      <trkpt lat="46.73749" lon="6.27457">
        <ele>935.5</ele>
        <time>2013-05-08T13:22:24Z</time>
      </trkpt>
      <trkpt lat="46.7375" lon="6.27464">
        <ele>935.5</ele>
        <time>2013-05-08T13:22:25Z</time>
      </trkpt>
      <trkpt lat="46.73753" lon="6.27483">
        <ele>935.98</ele>
        <time>2013-05-08T13:22:28Z</time>
      </trkpt>
      <trkpt lat="46.73755" lon="6.27488">
        <ele>935.98</ele>
        <time>2013-05-08T13:22:29Z</time>
      </trkpt>
      <trkpt lat="46.73757" lon="6.27494">
        <ele>935.98</ele>
        <time>2013-05-08T13:22:30Z</time>
      </trkpt>
      <trkpt lat="46.7376" lon="6.27505">
        <ele>935.98</ele>
        <time>2013-05-08T13:22:32Z</time>
      </trkpt>
      <trkpt lat="46.73763" lon="6.2751">
        <ele>936.46</ele>
        <time>2013-05-08T13:22:33Z</time>
      </trkpt>
      <trkpt lat="46.73798" lon="6.27595">
        <ele>936.46</ele>
        <time>2013-05-08T13:22:49Z</time>
      </trkpt>
      <trkpt lat="46.73802" lon="6.27611">
        <ele>935.98</ele>
        <time>2013-05-08T13:22:51Z</time>
      </trkpt>
      <trkpt lat="46.73814" lon="6.27739">
        <ele>934.06</ele>
        <time>2013-05-08T13:23:07Z</time>
      </trkpt>
      <trkpt lat="46.73824" lon="6.2787">
        <ele>933.58</ele>
        <time>2013-05-08T13:23:23Z</time>
      </trkpt>
      <trkpt lat="46.73826" lon="6.27892">
        <ele>932.14</ele>
        <time>2013-05-08T13:23:26Z</time>
      </trkpt>
      <trkpt lat="46.73829" lon="6.27911">
        <ele>932.14</ele>
        <time>2013-05-08T13:23:29Z</time>
      </trkpt>
      <trkpt lat="46.7383" lon="6.27918">
        <ele>932.62</ele>
        <time>2013-05-08T13:23:30Z</time>
      </trkpt>
      <trkpt lat="46.73832" lon="6.27946">
        <ele>931.65</ele>
        <time>2013-05-08T13:23:34Z</time>
      </trkpt>
      <trkpt lat="46.73842" lon="6.2801">
        <ele>932.14</ele>
        <time>2013-05-08T13:23:44Z</time>
      </trkpt>
      <trkpt lat="46.73854" lon="6.28095">
        <ele>936.46</ele>
        <time>2013-05-08T13:23:58Z</time>
      </trkpt>
      <trkpt lat="46.73854" lon="6.28101">
        <ele>932.14</ele>
        <time>2013-05-08T13:23:59Z</time>
      </trkpt>
      <trkpt lat="46.73855" lon="6.28107">
        <ele>935.5</ele>
        <time>2013-05-08T13:24:00Z</time>
      </trkpt>
      <trkpt lat="46.73856" lon="6.28119">
        <ele>930.21</ele>
        <time>2013-05-08T13:24:02Z</time>
      </trkpt>
      <trkpt lat="46.73856" lon="6.28125">
        <ele>937.9</ele>
        <time>2013-05-08T13:24:03Z</time>
      </trkpt>
      <trkpt lat="46.73857" lon="6.28131">
        <ele>934.06</ele>
        <time>2013-05-08T13:24:04Z</time>
      </trkpt>
      <trkpt lat="46.73859" lon="6.2815">
        <ele>934.54</ele>
        <time>2013-05-08T13:24:07Z</time>
      </trkpt>
      <trkpt lat="46.73867" lon="6.28232">
        <ele>935.5</ele>
        <time>2013-05-08T13:24:21Z</time>
      </trkpt>
      <trkpt lat="46.73869" lon="6.28245">
        <ele>935.5</ele>
        <time>2013-05-08T13:24:23Z</time>
      </trkpt>
      <trkpt lat="46.7387" lon="6.28251">
        <ele>935.5</ele>
        <time>2013-05-08T13:24:24Z</time>
      </trkpt>
      <trkpt lat="46.7387" lon="6.28257">
        <ele>935.5</ele>
        <time>2013-05-08T13:24:25Z</time>
      </trkpt>
      <trkpt lat="46.73877" lon="6.28298">
        <ele>934.06</ele>
        <time>2013-05-08T13:24:31Z</time>
      </trkpt>
      <trkpt lat="46.73878" lon="6.28305">
        <ele>933.58</ele>
        <time>2013-05-08T13:24:32Z</time>
      </trkpt>
      <trkpt lat="46.73892" lon="6.2836">
        <ele>930.21</ele>
        <time>2013-05-08T13:24:38Z</time>
      </trkpt>
      <trkpt lat="46.73909" lon="6.2845">
        <ele>927.33</ele>
        <time>2013-05-08T13:24:46Z</time>
      </trkpt>
      <trkpt lat="46.73925" lon="6.28493">
        <ele>926.37</ele>
        <time>2013-05-08T13:24:50Z</time>
      </trkpt>
      <trkpt lat="46.7393" lon="6.28502">
        <ele>925.41</ele>
        <time>2013-05-08T13:24:51Z</time>
      </trkpt>
      <trkpt lat="46.73936" lon="6.2851">
        <ele>925.41</ele>
        <time>2013-05-08T13:24:52Z</time>
      </trkpt>
      <trkpt lat="46.73942" lon="6.28517">
        <ele>924.93</ele>
        <time>2013-05-08T13:24:53Z</time>
      </trkpt>
      <trkpt lat="46.73948" lon="6.28525">
        <ele>924.93</ele>
        <time>2013-05-08T13:24:54Z</time>
      </trkpt>
      <trkpt lat="46.73988" lon="6.28569">
        <ele>922.52</ele>
        <time>2013-05-08T13:25:00Z</time>
      </trkpt>
      <trkpt lat="46.7401" lon="6.28604">
        <ele>920.6</ele>
        <time>2013-05-08T13:25:04Z</time>
      </trkpt>
      <trkpt lat="46.74014" lon="6.28613">
        <ele>921.08</ele>
        <time>2013-05-08T13:25:05Z</time>
      </trkpt>
      <trkpt lat="46.74018" lon="6.28624">
        <ele>921.08</ele>
        <time>2013-05-08T13:25:06Z</time>
      </trkpt>
      <trkpt lat="46.7406" lon="6.28764">
        <ele>918.68</ele>
        <time>2013-05-08T13:25:21Z</time>
      </trkpt>
      <trkpt lat="46.74101" lon="6.28893">
        <ele>917.24</ele>
        <time>2013-05-08T13:25:37Z</time>
      </trkpt>
      <trkpt lat="46.74124" lon="6.2896">
        <ele>921.08</ele>
        <time>2013-05-08T13:25:47Z</time>
      </trkpt>
      <trkpt lat="46.74125" lon="6.28964">
        <ele>917.24</ele>
        <time>2013-05-08T13:25:48Z</time>
      </trkpt>
      <trkpt lat="46.74126" lon="6.28974">
        <ele>918.2</ele>
        <time>2013-05-08T13:25:57Z</time>
      </trkpt>
      <trkpt lat="46.74126" lon="6.28974">
        <ele>918.2</ele>
        <time>2013-05-08T13:26:23Z</time>
      </trkpt>
      <trkpt lat="46.74126" lon="6.28974">
        <ele>918.2</ele>
        <time>2013-05-08T13:26:55Z</time>
      </trkpt>
      <trkpt lat="46.74126" lon="6.28976">
        <ele>918.2</ele>
        <time>2013-05-08T13:27:13Z</time>
      </trkpt>
      <trkpt lat="46.74147" lon="6.28981">
        <ele>917.24</ele>
        <time>2013-05-08T13:27:21Z</time>
      </trkpt>
      <trkpt lat="46.74152" lon="6.28979">
        <ele>916.75</ele>
        <time>2013-05-08T13:27:22Z</time>
      </trkpt>
      <trkpt lat="46.74156" lon="6.28976">
        <ele>916.75</ele>
        <time>2013-05-08T13:27:23Z</time>
      </trkpt>
      <trkpt lat="46.74189" lon="6.2896">
        <ele>915.79</ele>
        <time>2013-05-08T13:27:30Z</time>
      </trkpt>
      <trkpt lat="46.74194" lon="6.2896">
        <ele>915.79</ele>
        <time>2013-05-08T13:27:31Z</time>
      </trkpt>
      <trkpt lat="46.74203" lon="6.2896">
        <ele>915.31</ele>
        <time>2013-05-08T13:27:33Z</time>
      </trkpt>
      <trkpt lat="46.74207" lon="6.28958">
        <ele>915.31</ele>
        <time>2013-05-08T13:27:34Z</time>
      </trkpt>
      <trkpt lat="46.74212" lon="6.28956">
        <ele>915.31</ele>
        <time>2013-05-08T13:27:35Z</time>
      </trkpt>
      <trkpt lat="46.74221" lon="6.28952">
        <ele>915.31</ele>
        <time>2013-05-08T13:27:37Z</time>
      </trkpt>
      <trkpt lat="46.74225" lon="6.28951">
        <ele>915.31</ele>
        <time>2013-05-08T13:27:38Z</time>
      </trkpt>
      <trkpt lat="46.7423" lon="6.28949">
        <ele>915.31</ele>
        <time>2013-05-08T13:27:39Z</time>
      </trkpt>
      <trkpt lat="46.74278" lon="6.28946">
        <ele>915.79</ele>
        <time>2013-05-08T13:27:52Z</time>
      </trkpt>
      <trkpt lat="46.74297" lon="6.28949">
        <ele>916.27</ele>
        <time>2013-05-08T13:27:58Z</time>
      </trkpt>
      <trkpt lat="46.74299" lon="6.2895">
        <ele>916.27</ele>
        <time>2013-05-08T13:27:59Z</time>
      </trkpt>
      <trkpt lat="46.74303" lon="6.2895">
        <ele>916.75</ele>
        <time>2013-05-08T13:28:00Z</time>
      </trkpt>
      <trkpt lat="46.74306" lon="6.28952">
        <ele>916.75</ele>
        <time>2013-05-08T13:28:01Z</time>
      </trkpt>
      <trkpt lat="46.7431" lon="6.28955">
        <ele>916.75</ele>
        <time>2013-05-08T13:28:02Z</time>
      </trkpt>
      <trkpt lat="46.74314" lon="6.28956">
        <ele>916.75</ele>
        <time>2013-05-08T13:28:03Z</time>
      </trkpt>
      <trkpt lat="46.74318" lon="6.28958">
        <ele>916.75</ele>
        <time>2013-05-08T13:28:04Z</time>
      </trkpt>
      <trkpt lat="46.74325" lon="6.28962">
        <ele>917.24</ele>
        <time>2013-05-08T13:28:06Z</time>
      </trkpt>
      <trkpt lat="46.74329" lon="6.28965">
        <ele>917.24</ele>
        <time>2013-05-08T13:28:07Z</time>
      </trkpt>
      <trkpt lat="46.74338" lon="6.28977">
        <ele>917.72</ele>
        <time>2013-05-08T13:28:10Z</time>
      </trkpt>
      <trkpt lat="46.74341" lon="6.28982">
        <ele>917.72</ele>
        <time>2013-05-08T13:28:11Z</time>
      </trkpt>
      <trkpt lat="46.74344" lon="6.28986">
        <ele>917.72</ele>
        <time>2013-05-08T13:28:12Z</time>
      </trkpt>
      <trkpt lat="46.74346" lon="6.28991">
        <ele>918.2</ele>
        <time>2013-05-08T13:28:13Z</time>
      </trkpt>
      <trkpt lat="46.74348" lon="6.28997">
        <ele>918.2</ele>
        <time>2013-05-08T13:28:14Z</time>
      </trkpt>
      <trkpt lat="46.7435" lon="6.29002">
        <ele>918.68</ele>
        <time>2013-05-08T13:28:15Z</time>
      </trkpt>
      <trkpt lat="46.74374" lon="6.29071">
        <ele>920.6</ele>
        <time>2013-05-08T13:28:28Z</time>
      </trkpt>
      <trkpt lat="46.74377" lon="6.29076">
        <ele>920.6</ele>
        <time>2013-05-08T13:28:29Z</time>
      </trkpt>
      <trkpt lat="46.74379" lon="6.2908">
        <ele>921.08</ele>
        <time>2013-05-08T13:28:30Z</time>
      </trkpt>
      <trkpt lat="46.74425" lon="6.29149">
        <ele>923</ele>
        <time>2013-05-08T13:28:46Z</time>
      </trkpt>
      <trkpt lat="46.74468" lon="6.29213">
        <ele>925.41</ele>
        <time>2013-05-08T13:29:02Z</time>
      </trkpt>
      <trkpt lat="46.74503" lon="6.29284">
        <ele>927.33</ele>
        <time>2013-05-08T13:29:18Z</time>
      </trkpt>
      <trkpt lat="46.74525" lon="6.29341">
        <ele>929.25</ele>
        <time>2013-05-08T13:29:30Z</time>
      </trkpt>
      <trkpt lat="46.74533" lon="6.29361">
        <ele>929.25</ele>
        <time>2013-05-08T13:29:34Z</time>
      </trkpt>
      <trkpt lat="46.74536" lon="6.29366">
        <ele>929.25</ele>
        <time>2013-05-08T13:29:35Z</time>
      </trkpt>
      <trkpt lat="46.74552" lon="6.29414">
        <ele>928.77</ele>
        <time>2013-05-08T13:29:44Z</time>
      </trkpt>
      <trkpt lat="46.74554" lon="6.29419">
        <ele>928.77</ele>
        <time>2013-05-08T13:29:45Z</time>
      </trkpt>
      <trkpt lat="46.74573" lon="6.29499">
        <ele>928.77</ele>
        <time>2013-05-08T13:30:01Z</time>
      </trkpt>
      <trkpt lat="46.74601" lon="6.29552">
        <ele>926.85</ele>
        <time>2013-05-08T13:30:15Z</time>
      </trkpt>
      <trkpt lat="46.74615" lon="6.29569">
        <ele>925.41</ele>
        <time>2013-05-08T13:30:21Z</time>
      </trkpt>
      <trkpt lat="46.7463" lon="6.2959">
        <ele>923.96</ele>
        <time>2013-05-08T13:30:33Z</time>
      </trkpt>
      <trkpt lat="46.74647" lon="6.29604">
        <ele>923</ele>
        <time>2013-05-08T13:30:42Z</time>
      </trkpt>
      <trkpt lat="46.74657" lon="6.29615">
        <ele>921.56</ele>
        <time>2013-05-08T13:30:45Z</time>
      </trkpt>
      <trkpt lat="46.74671" lon="6.29634">
        <ele>920.6</ele>
        <time>2013-05-08T13:30:49Z</time>
      </trkpt>
      <trkpt lat="46.74675" lon="6.29641">
        <ele>920.6</ele>
        <time>2013-05-08T13:30:50Z</time>
      </trkpt>
      <trkpt lat="46.7468" lon="6.29653">
        <ele>919.64</ele>
        <time>2013-05-08T13:30:52Z</time>
      </trkpt>
      <trkpt lat="46.74693" lon="6.29701">
        <ele>917.72</ele>
        <time>2013-05-08T13:30:58Z</time>
      </trkpt>
      <trkpt lat="46.74695" lon="6.2971">
        <ele>917.24</ele>
        <time>2013-05-08T13:30:59Z</time>
      </trkpt>
      <trkpt lat="46.74696" lon="6.2972">
        <ele>916.75</ele>
        <time>2013-05-08T13:31:00Z</time>
      </trkpt>
      <trkpt lat="46.74696" lon="6.29762">
        <ele>915.31</ele>
        <time>2013-05-08T13:31:04Z</time>
      </trkpt>
      <trkpt lat="46.74694" lon="6.29773">
        <ele>915.31</ele>
        <time>2013-05-08T13:31:05Z</time>
      </trkpt>
      <trkpt lat="46.74692" lon="6.29783">
        <ele>914.83</ele>
        <time>2013-05-08T13:31:06Z</time>
      </trkpt>
      <trkpt lat="46.7469" lon="6.29792">
        <ele>914.83</ele>
        <time>2013-05-08T13:31:07Z</time>
      </trkpt>
      <trkpt lat="46.74687" lon="6.29802">
        <ele>914.83</ele>
        <time>2013-05-08T13:31:08Z</time>
      </trkpt>
      <trkpt lat="46.74683" lon="6.29811">
        <ele>914.83</ele>
        <time>2013-05-08T13:31:09Z</time>
      </trkpt>
      <trkpt lat="46.74656" lon="6.29879">
        <ele>915.31</ele>
        <time>2013-05-08T13:31:17Z</time>
      </trkpt>
      <trkpt lat="46.74654" lon="6.29887">
        <ele>915.31</ele>
        <time>2013-05-08T13:31:18Z</time>
      </trkpt>
      <trkpt lat="46.74653" lon="6.29895">
        <ele>915.31</ele>
        <time>2013-05-08T13:31:19Z</time>
      </trkpt>
      <trkpt lat="46.74649" lon="6.29931">
        <ele>915.31</ele>
        <time>2013-05-08T13:31:23Z</time>
      </trkpt>
      <trkpt lat="46.7465" lon="6.29941">
        <ele>915.31</ele>
        <time>2013-05-08T13:31:24Z</time>
      </trkpt>
      <trkpt lat="46.74651" lon="6.2995">
        <ele>915.31</ele>
        <time>2013-05-08T13:31:25Z</time>
      </trkpt>
      <trkpt lat="46.74683" lon="6.30058">
        <ele>914.83</ele>
        <time>2013-05-08T13:31:36Z</time>
      </trkpt>
      <trkpt lat="46.74722" lon="6.30154">
        <ele>917.72</ele>
        <time>2013-05-08T13:31:49Z</time>
      </trkpt>
      <trkpt lat="46.7475" lon="6.30232">
        <ele>919.16</ele>
        <time>2013-05-08T13:32:02Z</time>
      </trkpt>
      <trkpt lat="46.74785" lon="6.30325">
        <ele>920.12</ele>
        <time>2013-05-08T13:32:18Z</time>
      </trkpt>
      <trkpt lat="46.74812" lon="6.30403">
        <ele>920.6</ele>
        <time>2013-05-08T13:32:31Z</time>
      </trkpt>
      <trkpt lat="46.74814" lon="6.30409">
        <ele>920.6</ele>
        <time>2013-05-08T13:32:32Z</time>
      </trkpt>
      <trkpt lat="46.74821" lon="6.30427">
        <ele>920.12</ele>
        <time>2013-05-08T13:32:35Z</time>
      </trkpt>
      <trkpt lat="46.74859" lon="6.30523">
        <ele>918.2</ele>
        <time>2013-05-08T13:32:50Z</time>
      </trkpt>
      <trkpt lat="46.74923" lon="6.30636">
        <ele>917.72</ele>
        <time>2013-05-08T13:33:04Z</time>
      </trkpt>
      <trkpt lat="46.7498" lon="6.3073">
        <ele>918.68</ele>
        <time>2013-05-08T13:33:19Z</time>
      </trkpt>
      <trkpt lat="46.75031" lon="6.30815">
        <ele>919.16</ele>
        <time>2013-05-08T13:33:33Z</time>
      </trkpt>
      <trkpt lat="46.75078" lon="6.30897">
        <ele>920.12</ele>
        <time>2013-05-08T13:33:47Z</time>
      </trkpt>
      <trkpt lat="46.75082" lon="6.30903">
        <ele>920.6</ele>
        <time>2013-05-08T13:33:48Z</time>
      </trkpt>
      <trkpt lat="46.75098" lon="6.30931">
        <ele>920.6</ele>
        <time>2013-05-08T13:33:53Z</time>
      </trkpt>
      <trkpt lat="46.75137" lon="6.31002">
        <ele>922.52</ele>
        <time>2013-05-08T13:34:06Z</time>
      </trkpt>
      <trkpt lat="46.75141" lon="6.31012">
        <ele>922.52</ele>
        <time>2013-05-08T13:34:08Z</time>
      </trkpt>
      <trkpt lat="46.75144" lon="6.31017">
        <ele>922.52</ele>
        <time>2013-05-08T13:34:09Z</time>
      </trkpt>
      <trkpt lat="46.7515" lon="6.31026">
        <ele>922.04</ele>
        <time>2013-05-08T13:34:11Z</time>
      </trkpt>
      <trkpt lat="46.75154" lon="6.3103">
        <ele>922.04</ele>
        <time>2013-05-08T13:34:12Z</time>
      </trkpt>
      <trkpt lat="46.75165" lon="6.31041">
        <ele>921.56</ele>
        <time>2013-05-08T13:34:15Z</time>
      </trkpt>
      <trkpt lat="46.75184" lon="6.3106">
        <ele>921.56</ele>
        <time>2013-05-08T13:34:20Z</time>
      </trkpt>
      <trkpt lat="46.75188" lon="6.31065">
        <ele>921.08</ele>
        <time>2013-05-08T13:34:21Z</time>
      </trkpt>
      <trkpt lat="46.75203" lon="6.31084">
        <ele>920.6</ele>
        <time>2013-05-08T13:34:25Z</time>
      </trkpt>
      <trkpt lat="46.7523" lon="6.3114">
        <ele>919.16</ele>
        <time>2013-05-08T13:34:34Z</time>
      </trkpt>
      <trkpt lat="46.75232" lon="6.31146">
        <ele>918.68</ele>
        <time>2013-05-08T13:34:35Z</time>
      </trkpt>
      <trkpt lat="46.75255" lon="6.31205">
        <ele>919.64</ele>
        <time>2013-05-08T13:34:45Z</time>
      </trkpt>
      <trkpt lat="46.75257" lon="6.3121">
        <ele>919.64</ele>
        <time>2013-05-08T13:34:46Z</time>
      </trkpt>
      <trkpt lat="46.75258" lon="6.31216">
        <ele>919.64</ele>
        <time>2013-05-08T13:34:47Z</time>
      </trkpt>
      <trkpt lat="46.75279" lon="6.31308">
        <ele>920.12</ele>
        <time>2013-05-08T13:35:02Z</time>
      </trkpt>
      <trkpt lat="46.75285" lon="6.31325">
        <ele>920.6</ele>
        <time>2013-05-08T13:35:05Z</time>
      </trkpt>
      <trkpt lat="46.75294" lon="6.31348">
        <ele>920.6</ele>
        <time>2013-05-08T13:35:09Z</time>
      </trkpt>
      <trkpt lat="46.75328" lon="6.31432">
        <ele>923</ele>
        <time>2013-05-08T13:35:25Z</time>
      </trkpt>
      <trkpt lat="46.7536" lon="6.31509">
        <ele>924.93</ele>
        <time>2013-05-08T13:35:41Z</time>
      </trkpt>
      <trkpt lat="46.75402" lon="6.31606">
        <ele>927.33</ele>
        <time>2013-05-08T13:36:00Z</time>
      </trkpt>
      <trkpt lat="46.75408" lon="6.31621">
        <ele>927.33</ele>
        <time>2013-05-08T13:36:03Z</time>
      </trkpt>
      <trkpt lat="46.75409" lon="6.31627">
        <ele>927.33</ele>
        <time>2013-05-08T13:36:04Z</time>
      </trkpt>
      <trkpt lat="46.75428" lon="6.31676">
        <ele>927.81</ele>
        <time>2013-05-08T13:36:13Z</time>
      </trkpt>
      <trkpt lat="46.75437" lon="6.31697">
        <ele>927.81</ele>
        <time>2013-05-08T13:36:18Z</time>
      </trkpt>
      <trkpt lat="46.75437" lon="6.317">
        <ele>927.33</ele>
        <time>2013-05-08T13:36:19Z</time>
      </trkpt>
      <trkpt lat="46.75436" lon="6.31703">
        <ele>927.81</ele>
        <time>2013-05-08T13:36:20Z</time>
      </trkpt>
      <trkpt lat="46.75435" lon="6.31704">
        <ele>927.81</ele>
        <time>2013-05-08T13:36:21Z</time>
      </trkpt>
      <trkpt lat="46.75434" lon="6.31704">
        <ele>927.81</ele>
        <time>2013-05-08T13:36:22Z</time>
      </trkpt>
      <trkpt lat="46.75432" lon="6.31704">
        <ele>927.81</ele>
        <time>2013-05-08T13:36:23Z</time>
      </trkpt>
      <trkpt lat="46.75431" lon="6.31704">
        <ele>927.81</ele>
        <time>2013-05-08T13:36:24Z</time>
      </trkpt>
      <trkpt lat="46.75429" lon="6.31705">
        <ele>928.29</ele>
        <time>2013-05-08T13:36:25Z</time>
      </trkpt>
      <trkpt lat="46.75427" lon="6.31706">
        <ele>928.29</ele>
        <time>2013-05-08T13:36:26Z</time>
      </trkpt>
      <trkpt lat="46.75425" lon="6.31708">
        <ele>928.29</ele>
        <time>2013-05-08T13:36:27Z</time>
      </trkpt>
      <trkpt lat="46.75395" lon="6.31733">
        <ele>930.69</ele>
        <time>2013-05-08T13:36:40Z</time>
      </trkpt>
      <trkpt lat="46.75383" lon="6.31775">
        <ele>933.1</ele>
        <time>2013-05-08T13:36:53Z</time>
      </trkpt>
      <trkpt lat="46.75393" lon="6.31808">
        <ele>934.54</ele>
        <time>2013-05-08T13:37:04Z</time>
      </trkpt>
      <trkpt lat="46.75404" lon="6.31847">
        <ele>935.98</ele>
        <time>2013-05-08T13:37:16Z</time>
      </trkpt>
      <trkpt lat="46.75416" lon="6.31896">
        <ele>937.42</ele>
        <time>2013-05-08T13:37:30Z</time>
      </trkpt>
      <trkpt lat="46.75433" lon="6.31955">
        <ele>938.86</ele>
        <time>2013-05-08T13:37:45Z</time>
      </trkpt>
      <trkpt lat="46.75442" lon="6.32024">
        <ele>940.79</ele>
        <time>2013-05-08T13:38:01Z</time>
      </trkpt>
      <trkpt lat="46.75455" lon="6.32088">
        <ele>944.15</ele>
        <time>2013-05-08T13:38:17Z</time>
      </trkpt>
      <trkpt lat="46.7548" lon="6.32142">
        <ele>946.56</ele>
        <time>2013-05-08T13:38:33Z</time>
      </trkpt>
      <trkpt lat="46.75516" lon="6.32201">
        <ele>949.44</ele>
        <time>2013-05-08T13:38:51Z</time>
      </trkpt>
      <trkpt lat="46.75543" lon="6.32255">
        <ele>950.88</ele>
        <time>2013-05-08T13:39:07Z</time>
      </trkpt>
      <trkpt lat="46.75571" lon="6.32317">
        <ele>953.28</ele>
        <time>2013-05-08T13:39:24Z</time>
      </trkpt>
      <trkpt lat="46.75583" lon="6.32343">
        <ele>954.25</ele>
        <time>2013-05-08T13:39:32Z</time>
      </trkpt>
      <trkpt lat="46.75603" lon="6.32384">
        <ele>955.69</ele>
        <time>2013-05-08T13:39:45Z</time>
      </trkpt>
      <trkpt lat="46.75628" lon="6.32441">
        <ele>957.13</ele>
        <time>2013-05-08T13:40:00Z</time>
      </trkpt>
      <trkpt lat="46.75655" lon="6.32498">
        <ele>957.61</ele>
        <time>2013-05-08T13:40:15Z</time>
      </trkpt>
      <trkpt lat="46.75689" lon="6.3257">
        <ele>959.05</ele>
        <time>2013-05-08T13:40:33Z</time>
      </trkpt>
      <trkpt lat="46.75727" lon="6.32651">
        <ele>960.49</ele>
        <time>2013-05-08T13:40:52Z</time>
      </trkpt>
      <trkpt lat="46.75769" lon="6.32739">
        <ele>961.46</ele>
        <time>2013-05-08T13:41:12Z</time>
      </trkpt>
      <trkpt lat="46.75806" lon="6.3282">
        <ele>963.86</ele>
        <time>2013-05-08T13:41:30Z</time>
      </trkpt>
      <trkpt lat="46.75848" lon="6.32905">
        <ele>964.82</ele>
        <time>2013-05-08T13:41:49Z</time>
      </trkpt>
      <trkpt lat="46.75889" lon="6.32986">
        <ele>965.3</ele>
        <time>2013-05-08T13:42:06Z</time>
      </trkpt>
      <trkpt lat="46.75908" lon="6.33022">
        <ele>965.3</ele>
        <time>2013-05-08T13:42:14Z</time>
      </trkpt>
      <trkpt lat="46.75934" lon="6.33073">
        <ele>964.82</ele>
        <time>2013-05-08T13:42:24Z</time>
      </trkpt>
      <trkpt lat="46.75936" lon="6.33078">
        <ele>964.82</ele>
        <time>2013-05-08T13:42:25Z</time>
      </trkpt>
      <trkpt lat="46.75939" lon="6.33083">
        <ele>964.82</ele>
        <time>2013-05-08T13:42:26Z</time>
      </trkpt>
      <trkpt lat="46.75965" lon="6.33128">
        <ele>966.26</ele>
        <time>2013-05-08T13:42:40Z</time>
      </trkpt>
      <trkpt lat="46.75965" lon="6.33128">
        <ele>966.26</ele>
        <time>2013-05-08T13:42:59Z</time>
      </trkpt>
      <trkpt lat="46.75965" lon="6.33128">
        <ele>966.26</ele>
        <time>2013-05-08T13:43:17Z</time>
      </trkpt>
      <trkpt lat="46.75965" lon="6.3313">
        <ele>966.26</ele>
        <time>2013-05-08T13:43:18Z</time>
      </trkpt>
      <trkpt lat="46.75966" lon="6.33131">
        <ele>966.26</ele>
        <time>2013-05-08T13:43:19Z</time>
      </trkpt>
      <trkpt lat="46.75966" lon="6.3314">
        <ele>966.26</ele>
        <time>2013-05-08T13:43:23Z</time>
      </trkpt>
      <trkpt lat="46.75967" lon="6.33142">
        <ele>966.74</ele>
        <time>2013-05-08T13:43:24Z</time>
      </trkpt>
      <trkpt lat="46.75968" lon="6.33143">
        <ele>966.74</ele>
        <time>2013-05-08T13:43:25Z</time>
      </trkpt>
      <trkpt lat="46.75993" lon="6.33175">
        <ele>967.7</ele>
        <time>2013-05-08T13:43:40Z</time>
      </trkpt>
      <trkpt lat="46.75999" lon="6.33179">
        <ele>969.15</ele>
        <time>2013-05-08T13:43:43Z</time>
      </trkpt>
      <trkpt lat="46.76" lon="6.3318">
        <ele>969.15</ele>
        <time>2013-05-08T13:43:44Z</time>
      </trkpt>
      <trkpt lat="46.76001" lon="6.33182">
        <ele>969.63</ele>
        <time>2013-05-08T13:43:45Z</time>
      </trkpt>
      <trkpt lat="46.76003" lon="6.33183">
        <ele>970.11</ele>
        <time>2013-05-08T13:43:46Z</time>
      </trkpt>
      <trkpt lat="46.76004" lon="6.33185">
        <ele>970.11</ele>
        <time>2013-05-08T13:43:47Z</time>
      </trkpt>
      <trkpt lat="46.76006" lon="6.33187">
        <ele>970.59</ele>
        <time>2013-05-08T13:43:48Z</time>
      </trkpt>
      <trkpt lat="46.76007" lon="6.33188">
        <ele>971.07</ele>
        <time>2013-05-08T13:43:49Z</time>
      </trkpt>
      <trkpt lat="46.76008" lon="6.3319">
        <ele>971.07</ele>
        <time>2013-05-08T13:43:50Z</time>
      </trkpt>
      <trkpt lat="46.76016" lon="6.33201">
        <ele>973.47</ele>
        <time>2013-05-08T13:43:56Z</time>
      </trkpt>
      <trkpt lat="46.76039" lon="6.33233">
        <ele>976.36</ele>
        <time>2013-05-08T13:44:10Z</time>
      </trkpt>
      <trkpt lat="46.76069" lon="6.33263">
        <ele>977.8</ele>
        <time>2013-05-08T13:44:23Z</time>
      </trkpt>
      <trkpt lat="46.761" lon="6.33275">
        <ele>976.36</ele>
        <time>2013-05-08T13:44:32Z</time>
      </trkpt>
      <trkpt lat="46.76105" lon="6.3328">
        <ele>975.88</ele>
        <time>2013-05-08T13:44:33Z</time>
      </trkpt>
      <trkpt lat="46.76108" lon="6.33287">
        <ele>975.39</ele>
        <time>2013-05-08T13:44:34Z</time>
      </trkpt>
      <trkpt lat="46.76109" lon="6.33295">
        <ele>974.91</ele>
        <time>2013-05-08T13:44:35Z</time>
      </trkpt>
      <trkpt lat="46.76133" lon="6.33364">
        <ele>977.8</ele>
        <time>2013-05-08T13:44:48Z</time>
      </trkpt>
      <trkpt lat="46.76162" lon="6.33408">
        <ele>980.2</ele>
        <time>2013-05-08T13:45:00Z</time>
      </trkpt>
      <trkpt lat="46.76179" lon="6.33433">
        <ele>983.57</ele>
        <time>2013-05-08T13:45:08Z</time>
      </trkpt>
      <trkpt lat="46.76205" lon="6.33499">
        <ele>985.97</ele>
        <time>2013-05-08T13:45:23Z</time>
      </trkpt>
      <trkpt lat="46.76226" lon="6.33565">
        <ele>987.41</ele>
        <time>2013-05-08T13:45:37Z</time>
      </trkpt>
      <trkpt lat="46.76236" lon="6.33589">
        <ele>988.37</ele>
        <time>2013-05-08T13:45:43Z</time>
      </trkpt>
      <trkpt lat="46.76256" lon="6.3366">
        <ele>990.3</ele>
        <time>2013-05-08T13:45:58Z</time>
      </trkpt>
      <trkpt lat="46.76258" lon="6.33667">
        <ele>991.74</ele>
        <time>2013-05-08T13:46:00Z</time>
      </trkpt>
      <trkpt lat="46.76268" lon="6.33698">
        <ele>994.62</ele>
        <time>2013-05-08T13:46:10Z</time>
      </trkpt>
      <trkpt lat="46.76271" lon="6.33728">
        <ele>997.99</ele>
        <time>2013-05-08T13:46:19Z</time>
      </trkpt>
      <trkpt lat="46.76273" lon="6.33731">
        <ele>998.47</ele>
        <time>2013-05-08T13:46:20Z</time>
      </trkpt>
      <trkpt lat="46.76289" lon="6.33767">
        <ele>1001.35</ele>
        <time>2013-05-08T13:46:32Z</time>
      </trkpt>
      <trkpt lat="46.76302" lon="6.33812">
        <ele>1003.75</ele>
        <time>2013-05-08T13:46:46Z</time>
      </trkpt>
      <trkpt lat="46.76317" lon="6.33861">
        <ele>1006.64</ele>
        <time>2013-05-08T13:47:01Z</time>
      </trkpt>
      <trkpt lat="46.76329" lon="6.33898">
        <ele>1010</ele>
        <time>2013-05-08T13:47:12Z</time>
      </trkpt>
      <trkpt lat="46.7635" lon="6.33946">
        <ele>1012.89</ele>
        <time>2013-05-08T13:47:27Z</time>
      </trkpt>
      <trkpt lat="46.76368" lon="6.33994">
        <ele>1015.77</ele>
        <time>2013-05-08T13:47:43Z</time>
      </trkpt>
      <trkpt lat="46.76392" lon="6.34048">
        <ele>1014.81</ele>
        <time>2013-05-08T13:48:00Z</time>
      </trkpt>
      <trkpt lat="46.7641" lon="6.3409">
        <ele>1015.29</ele>
        <time>2013-05-08T13:48:12Z</time>
      </trkpt>
      <trkpt lat="46.76425" lon="6.34135">
        <ele>1015.77</ele>
        <time>2013-05-08T13:48:26Z</time>
      </trkpt>
      <trkpt lat="46.76438" lon="6.34181">
        <ele>1016.25</ele>
        <time>2013-05-08T13:48:40Z</time>
      </trkpt>
      <trkpt lat="46.76447" lon="6.34229">
        <ele>1016.25</ele>
        <time>2013-05-08T13:48:53Z</time>
      </trkpt>
      <trkpt lat="46.76452" lon="6.34279">
        <ele>1017.21</ele>
        <time>2013-05-08T13:49:06Z</time>
      </trkpt>
      <trkpt lat="46.76464" lon="6.34345">
        <ele>1016.25</ele>
        <time>2013-05-08T13:49:22Z</time>
      </trkpt>
      <trkpt lat="46.76477" lon="6.34422">
        <ele>1014.81</ele>
        <time>2013-05-08T13:49:35Z</time>
      </trkpt>
      <trkpt lat="46.76473" lon="6.34485">
        <ele>1016.25</ele>
        <time>2013-05-08T13:49:49Z</time>
      </trkpt>
      <trkpt lat="46.76481" lon="6.34561">
        <ele>1018.17</ele>
        <time>2013-05-08T13:50:06Z</time>
      </trkpt>
      <trkpt lat="46.76498" lon="6.34606">
        <ele>1018.65</ele>
        <time>2013-05-08T13:50:18Z</time>
      </trkpt>
      <trkpt lat="46.76522" lon="6.34669">
        <ele>1018.65</ele>
        <time>2013-05-08T13:50:34Z</time>
      </trkpt>
      <trkpt lat="46.76541" lon="6.34744">
        <ele>1019.13</ele>
        <time>2013-05-08T13:50:49Z</time>
      </trkpt>
      <trkpt lat="46.76559" lon="6.34783">
        <ele>1019.13</ele>
        <time>2013-05-08T13:50:58Z</time>
      </trkpt>
      <trkpt lat="46.76562" lon="6.34788">
        <ele>1019.13</ele>
        <time>2013-05-08T13:50:59Z</time>
      </trkpt>
      <trkpt lat="46.76564" lon="6.34793">
        <ele>1019.13</ele>
        <time>2013-05-08T13:51:00Z</time>
      </trkpt>
      <trkpt lat="46.76567" lon="6.34798">
        <ele>1019.13</ele>
        <time>2013-05-08T13:51:01Z</time>
      </trkpt>
      <trkpt lat="46.76569" lon="6.34802">
        <ele>1019.13</ele>
        <time>2013-05-08T13:51:02Z</time>
      </trkpt>
      <trkpt lat="46.76598" lon="6.3487">
        <ele>1018.17</ele>
        <time>2013-05-08T13:51:18Z</time>
      </trkpt>
      <trkpt lat="46.76619" lon="6.34917">
        <ele>1018.65</ele>
        <time>2013-05-08T13:51:28Z</time>
      </trkpt>
      <trkpt lat="46.76634" lon="6.34948">
        <ele>1017.69</ele>
        <time>2013-05-08T13:51:34Z</time>
      </trkpt>
      <trkpt lat="46.76636" lon="6.34953">
        <ele>1017.69</ele>
        <time>2013-05-08T13:51:35Z</time>
      </trkpt>
      <trkpt lat="46.7664" lon="6.34964">
        <ele>1017.21</ele>
        <time>2013-05-08T13:51:37Z</time>
      </trkpt>
      <trkpt lat="46.76658" lon="6.35003">
        <ele>1017.21</ele>
        <time>2013-05-08T13:51:45Z</time>
      </trkpt>
      <trkpt lat="46.76661" lon="6.35008">
        <ele>1017.21</ele>
        <time>2013-05-08T13:51:46Z</time>
      </trkpt>
      <trkpt lat="46.76678" lon="6.35046">
        <ele>1016.25</ele>
        <time>2013-05-08T13:51:53Z</time>
      </trkpt>
      <trkpt lat="46.7669" lon="6.35072">
        <ele>1015.77</ele>
        <time>2013-05-08T13:51:58Z</time>
      </trkpt>
      <trkpt lat="46.76708" lon="6.351">
        <ele>1015.29</ele>
        <time>2013-05-08T13:52:04Z</time>
      </trkpt>
      <trkpt lat="46.7674" lon="6.35132">
        <ele>1013.37</ele>
        <time>2013-05-08T13:52:12Z</time>
      </trkpt>
      <trkpt lat="46.76745" lon="6.35134">
        <ele>1012.89</ele>
        <time>2013-05-08T13:52:13Z</time>
      </trkpt>
      <trkpt lat="46.76755" lon="6.35139">
        <ele>1012.89</ele>
        <time>2013-05-08T13:52:15Z</time>
      </trkpt>
      <trkpt lat="46.76804" lon="6.35164">
        <ele>1010.96</ele>
        <time>2013-05-08T13:52:26Z</time>
      </trkpt>
      <trkpt lat="46.76808" lon="6.35165">
        <ele>1010.96</ele>
        <time>2013-05-08T13:52:27Z</time>
      </trkpt>
      <trkpt lat="46.76827" lon="6.35165">
        <ele>1010</ele>
        <time>2013-05-08T13:52:31Z</time>
      </trkpt>
      <trkpt lat="46.76837" lon="6.35163">
        <ele>1009.52</ele>
        <time>2013-05-08T13:52:33Z</time>
      </trkpt>
      <trkpt lat="46.76883" lon="6.35161">
        <ele>1008.56</ele>
        <time>2013-05-08T13:52:43Z</time>
      </trkpt>
      <trkpt lat="46.76893" lon="6.35161">
        <ele>1008.56</ele>
        <time>2013-05-08T13:52:45Z</time>
      </trkpt>
      <trkpt lat="46.76898" lon="6.35161">
        <ele>1008.56</ele>
        <time>2013-05-08T13:52:46Z</time>
      </trkpt>
      <trkpt lat="46.7692" lon="6.35163">
        <ele>1008.08</ele>
        <time>2013-05-08T13:52:51Z</time>
      </trkpt>
      <trkpt lat="46.76934" lon="6.35169">
        <ele>1008.08</ele>
        <time>2013-05-08T13:52:54Z</time>
      </trkpt>
      <trkpt lat="46.76938" lon="6.35173">
        <ele>1007.6</ele>
        <time>2013-05-08T13:52:55Z</time>
      </trkpt>
      <trkpt lat="46.76956" lon="6.35195">
        <ele>1006.64</ele>
        <time>2013-05-08T13:53:00Z</time>
      </trkpt>
      <trkpt lat="46.76994" lon="6.35253">
        <ele>1004.72</ele>
        <time>2013-05-08T13:53:11Z</time>
      </trkpt>
      <trkpt lat="46.77044" lon="6.3533">
        <ele>1002.79</ele>
        <time>2013-05-08T13:53:27Z</time>
      </trkpt>
      <trkpt lat="46.77075" lon="6.35368">
        <ele>1000.87</ele>
        <time>2013-05-08T13:53:36Z</time>
      </trkpt>
      <trkpt lat="46.77081" lon="6.35382">
        <ele>999.91</ele>
        <time>2013-05-08T13:53:38Z</time>
      </trkpt>
      <trkpt lat="46.77083" lon="6.35391">
        <ele>999.43</ele>
        <time>2013-05-08T13:53:39Z</time>
      </trkpt>
      <trkpt lat="46.77085" lon="6.35399">
        <ele>998.95</ele>
        <time>2013-05-08T13:53:40Z</time>
      </trkpt>
      <trkpt lat="46.77085" lon="6.35408">
        <ele>998.95</ele>
        <time>2013-05-08T13:53:41Z</time>
      </trkpt>
      <trkpt lat="46.77085" lon="6.35416">
        <ele>999.43</ele>
        <time>2013-05-08T13:53:42Z</time>
      </trkpt>
      <trkpt lat="46.77085" lon="6.35423">
        <ele>999.43</ele>
        <time>2013-05-08T13:53:43Z</time>
      </trkpt>
      <trkpt lat="46.77085" lon="6.35429">
        <ele>999.91</ele>
        <time>2013-05-08T13:53:44Z</time>
      </trkpt>
      <trkpt lat="46.77084" lon="6.35453">
        <ele>1000.39</ele>
        <time>2013-05-08T13:53:48Z</time>
      </trkpt>
      <trkpt lat="46.77083" lon="6.35459">
        <ele>999.91</ele>
        <time>2013-05-08T13:53:49Z</time>
      </trkpt>
      <trkpt lat="46.77081" lon="6.35463">
        <ele>1000.39</ele>
        <time>2013-05-08T13:53:50Z</time>
      </trkpt>
      <trkpt lat="46.77078" lon="6.35467">
        <ele>1000.39</ele>
        <time>2013-05-08T13:53:51Z</time>
      </trkpt>
      <trkpt lat="46.77076" lon="6.35469">
        <ele>1000.87</ele>
        <time>2013-05-08T13:53:52Z</time>
      </trkpt>
      <trkpt lat="46.77073" lon="6.35471">
        <ele>1001.35</ele>
        <time>2013-05-08T13:53:53Z</time>
      </trkpt>
      <trkpt lat="46.77071" lon="6.35472">
        <ele>1001.83</ele>
        <time>2013-05-08T13:53:54Z</time>
      </trkpt>
      <trkpt lat="46.77068" lon="6.35474">
        <ele>1002.31</ele>
        <time>2013-05-08T13:53:55Z</time>
      </trkpt>
      <trkpt lat="46.77066" lon="6.35476">
        <ele>1002.31</ele>
        <time>2013-05-08T13:53:56Z</time>
      </trkpt>
      <trkpt lat="46.77064" lon="6.35477">
        <ele>1002.31</ele>
        <time>2013-05-08T13:53:57Z</time>
      </trkpt>
      <trkpt lat="46.77061" lon="6.35479">
        <ele>1002.79</ele>
        <time>2013-05-08T13:53:58Z</time>
      </trkpt>
      <trkpt lat="46.77026" lon="6.35502">
        <ele>1005.68</ele>
        <time>2013-05-08T13:54:13Z</time>
      </trkpt>
      <trkpt lat="46.76987" lon="6.35517">
        <ele>1007.6</ele>
        <time>2013-05-08T13:54:28Z</time>
      </trkpt>
      <trkpt lat="46.76958" lon="6.35541">
        <ele>1009.52</ele>
        <time>2013-05-08T13:54:41Z</time>
      </trkpt>
      <trkpt lat="46.76929" lon="6.35584">
        <ele>1011.44</ele>
        <time>2013-05-08T13:54:59Z</time>
      </trkpt>
      <trkpt lat="46.76902" lon="6.35621">
        <ele>1011.44</ele>
        <time>2013-05-08T13:55:13Z</time>
      </trkpt>
      <trkpt lat="46.7688" lon="6.35657">
        <ele>1011.93</ele>
        <time>2013-05-08T13:55:26Z</time>
      </trkpt>
      <trkpt lat="46.7687" lon="6.35672">
        <ele>1013.37</ele>
        <time>2013-05-08T13:55:34Z</time>
      </trkpt>
      <trkpt lat="46.76868" lon="6.35672">
        <ele>1013.37</ele>
        <time>2013-05-08T13:55:35Z</time>
      </trkpt>
      <trkpt lat="46.76866" lon="6.35672">
        <ele>1013.85</ele>
        <time>2013-05-08T13:55:36Z</time>
      </trkpt>
      <trkpt lat="46.76842" lon="6.35673">
        <ele>1016.73</ele>
        <time>2013-05-08T13:55:48Z</time>
      </trkpt>
      <trkpt lat="46.76833" lon="6.35672">
        <ele>1016.73</ele>
        <time>2013-05-08T13:55:54Z</time>
      </trkpt>
      <trkpt lat="46.76832" lon="6.35672">
        <ele>1016.73</ele>
        <time>2013-05-08T13:55:55Z</time>
      </trkpt>
      <trkpt lat="46.76831" lon="6.35672">
        <ele>1016.73</ele>
        <time>2013-05-08T13:55:56Z</time>
      </trkpt>
      <trkpt lat="46.76828" lon="6.35672">
        <ele>1016.73</ele>
        <time>2013-05-08T13:56:09Z</time>
      </trkpt>
      <trkpt lat="46.76826" lon="6.35674">
        <ele>1016.73</ele>
        <time>2013-05-08T13:56:22Z</time>
      </trkpt>
      <trkpt lat="46.76826" lon="6.35674">
        <ele>1017.21</ele>
        <time>2013-05-08T13:56:43Z</time>
      </trkpt>
      <trkpt lat="46.76825" lon="6.35674">
        <ele>1017.21</ele>
        <time>2013-05-08T13:57:02Z</time>
      </trkpt>
      <trkpt lat="46.76825" lon="6.35674">
        <ele>1017.21</ele>
        <time>2013-05-08T13:57:27Z</time>
      </trkpt>
      <trkpt lat="46.76825" lon="6.35674">
        <ele>1017.21</ele>
        <time>2013-05-08T13:57:58Z</time>
      </trkpt>
      <trkpt lat="46.76825" lon="6.35674">
        <ele>1017.21</ele>
        <time>2013-05-08T13:58:25Z</time>
      </trkpt>
      <trkpt lat="46.76824" lon="6.35673">
        <ele>1017.21</ele>
        <time>2013-05-08T13:58:55Z</time>
      </trkpt>
      <trkpt lat="46.76824" lon="6.35673">
        <ele>1017.69</ele>
        <time>2013-05-08T13:59:15Z</time>
      </trkpt>
      <trkpt lat="46.76824" lon="6.35673">
        <ele>1017.69</ele>
        <time>2013-05-08T13:59:37Z</time>
      </trkpt>
      <trkpt lat="46.76824" lon="6.35673">
        <ele>1017.21</ele>
        <time>2013-05-08T13:59:40Z</time>
      </trkpt>
      <trkpt lat="46.76823" lon="6.35676">
        <ele>1017.21</ele>
        <time>2013-05-08T13:59:48Z</time>
      </trkpt>
      <trkpt lat="46.76822" lon="6.35677">
        <ele>1017.21</ele>
        <time>2013-05-08T13:59:49Z</time>
      </trkpt>
      <trkpt lat="46.76821" lon="6.35679">
        <ele>1017.21</ele>
        <time>2013-05-08T13:59:50Z</time>
      </trkpt>
      <trkpt lat="46.76819" lon="6.35682">
        <ele>1017.21</ele>
        <time>2013-05-08T13:59:51Z</time>
      </trkpt>
      <trkpt lat="46.76817" lon="6.35684">
        <ele>1017.69</ele>
        <time>2013-05-08T13:59:52Z</time>
      </trkpt>
      <trkpt lat="46.76816" lon="6.35686">
        <ele>1017.69</ele>
        <time>2013-05-08T13:59:53Z</time>
      </trkpt>
      <trkpt lat="46.76814" lon="6.35689">
        <ele>1018.17</ele>
        <time>2013-05-08T13:59:54Z</time>
      </trkpt>
      <trkpt lat="46.768" lon="6.35728">
        <ele>1018.65</ele>
        <time>2013-05-08T14:00:07Z</time>
      </trkpt>
      <trkpt lat="46.76788" lon="6.35752">
        <ele>1018.65</ele>
        <time>2013-05-08T14:00:15Z</time>
      </trkpt>
      <trkpt lat="46.76786" lon="6.35754">
        <ele>1018.17</ele>
        <time>2013-05-08T14:00:16Z</time>
      </trkpt>
      <trkpt lat="46.76785" lon="6.35756">
        <ele>1018.65</ele>
        <time>2013-05-08T14:00:17Z</time>
      </trkpt>
      <trkpt lat="46.76783" lon="6.35758">
        <ele>1018.65</ele>
        <time>2013-05-08T14:00:18Z</time>
      </trkpt>
      <trkpt lat="46.76782" lon="6.3576">
        <ele>1018.65</ele>
        <time>2013-05-08T14:00:19Z</time>
      </trkpt>
      <trkpt lat="46.76781" lon="6.35761">
        <ele>1018.65</ele>
        <time>2013-05-08T14:00:20Z</time>
      </trkpt>
      <trkpt lat="46.76781" lon="6.35763">
        <ele>1018.65</ele>
        <time>2013-05-08T14:00:21Z</time>
      </trkpt>
      <trkpt lat="46.76781" lon="6.35765">
        <ele>1018.65</ele>
        <time>2013-05-08T14:00:22Z</time>
      </trkpt>
      <trkpt lat="46.7678" lon="6.35768">
        <ele>1018.65</ele>
        <time>2013-05-08T14:00:23Z</time>
      </trkpt>
      <trkpt lat="46.7678" lon="6.35771">
        <ele>1018.65</ele>
        <time>2013-05-08T14:00:24Z</time>
      </trkpt>
      <trkpt lat="46.76779" lon="6.35774">
        <ele>1019.13</ele>
        <time>2013-05-08T14:00:25Z</time>
      </trkpt>
      <trkpt lat="46.76778" lon="6.35777">
        <ele>1019.13</ele>
        <time>2013-05-08T14:00:26Z</time>
      </trkpt>
      <trkpt lat="46.76777" lon="6.3578">
        <ele>1019.13</ele>
        <time>2013-05-08T14:00:27Z</time>
      </trkpt>
      <trkpt lat="46.76776" lon="6.35783">
        <ele>1019.13</ele>
        <time>2013-05-08T14:00:28Z</time>
      </trkpt>
      <trkpt lat="46.76764" lon="6.35827">
        <ele>1022.02</ele>
        <time>2013-05-08T14:00:42Z</time>
      </trkpt>
      <trkpt lat="46.76757" lon="6.35857">
        <ele>1024.9</ele>
        <time>2013-05-08T14:00:54Z</time>
      </trkpt>
      <trkpt lat="46.76739" lon="6.35891">
        <ele>1027.79</ele>
        <time>2013-05-08T14:01:08Z</time>
      </trkpt>
      <trkpt lat="46.7671" lon="6.35922">
        <ele>1031.15</ele>
        <time>2013-05-08T14:01:25Z</time>
      </trkpt>
      <trkpt lat="46.76696" lon="6.35936">
        <ele>1034.52</ele>
        <time>2013-05-08T14:01:33Z</time>
      </trkpt>
      <trkpt lat="46.76677" lon="6.35956">
        <ele>1035.96</ele>
        <time>2013-05-08T14:01:45Z</time>
      </trkpt>
      <trkpt lat="46.76659" lon="6.35971">
        <ele>1039.32</ele>
        <time>2013-05-08T14:01:57Z</time>
      </trkpt>
      <trkpt lat="46.76645" lon="6.35979">
        <ele>1045.09</ele>
        <time>2013-05-08T14:02:06Z</time>
      </trkpt>
      <trkpt lat="46.76644" lon="6.3598">
        <ele>1042.21</ele>
        <time>2013-05-08T14:02:07Z</time>
      </trkpt>
      <trkpt lat="46.76635" lon="6.35985">
        <ele>1043.65</ele>
        <time>2013-05-08T14:02:13Z</time>
      </trkpt>
      <trkpt lat="46.76621" lon="6.36008">
        <ele>1046.53</ele>
        <time>2013-05-08T14:02:27Z</time>
      </trkpt>
      <trkpt lat="46.76618" lon="6.36045">
        <ele>1049.42</ele>
        <time>2013-05-08T14:02:40Z</time>
      </trkpt>
      <trkpt lat="46.76617" lon="6.36086">
        <ele>1051.82</ele>
        <time>2013-05-08T14:02:54Z</time>
      </trkpt>
      <trkpt lat="46.76606" lon="6.3613">
        <ele>1054.7</ele>
        <time>2013-05-08T14:03:10Z</time>
      </trkpt>
      <trkpt lat="46.76596" lon="6.36165">
        <ele>1058.07</ele>
        <time>2013-05-08T14:03:23Z</time>
      </trkpt>
      <trkpt lat="46.76585" lon="6.36195">
        <ele>1060.95</ele>
        <time>2013-05-08T14:03:36Z</time>
      </trkpt>
      <trkpt lat="46.7657" lon="6.36212">
        <ele>1063.84</ele>
        <time>2013-05-08T14:03:47Z</time>
      </trkpt>
      <trkpt lat="46.76556" lon="6.3623">
        <ele>1066.72</ele>
        <time>2013-05-08T14:03:58Z</time>
      </trkpt>
      <trkpt lat="46.76539" lon="6.36251">
        <ele>1069.6</ele>
        <time>2013-05-08T14:04:11Z</time>
      </trkpt>
      <trkpt lat="46.76527" lon="6.36267">
        <ele>1072.49</ele>
        <time>2013-05-08T14:04:23Z</time>
      </trkpt>
      <trkpt lat="46.76513" lon="6.36285">
        <ele>1075.85</ele>
        <time>2013-05-08T14:04:35Z</time>
      </trkpt>
      <trkpt lat="46.765" lon="6.363">
        <ele>1078.26</ele>
        <time>2013-05-08T14:04:45Z</time>
      </trkpt>
      <trkpt lat="46.76498" lon="6.36305">
        <ele>1079.22</ele>
        <time>2013-05-08T14:04:48Z</time>
      </trkpt>
      <trkpt lat="46.76489" lon="6.3632">
        <ele>1081.62</ele>
        <time>2013-05-08T14:04:59Z</time>
      </trkpt>
      <trkpt lat="46.76488" lon="6.36321">
        <ele>1082.1</ele>
        <time>2013-05-08T14:05:00Z</time>
      </trkpt>
      <trkpt lat="46.76478" lon="6.36338">
        <ele>1084.99</ele>
        <time>2013-05-08T14:05:11Z</time>
      </trkpt>
      <trkpt lat="46.76467" lon="6.36353">
        <ele>1086.43</ele>
        <time>2013-05-08T14:05:18Z</time>
      </trkpt>
      <trkpt lat="46.76464" lon="6.36356">
        <ele>1086.91</ele>
        <time>2013-05-08T14:05:20Z</time>
      </trkpt>
      <trkpt lat="46.76463" lon="6.36359">
        <ele>1087.39</ele>
        <time>2013-05-08T14:05:21Z</time>
      </trkpt>
      <trkpt lat="46.76461" lon="6.36362">
        <ele>1087.39</ele>
        <time>2013-05-08T14:05:22Z</time>
      </trkpt>
      <trkpt lat="46.76459" lon="6.36365">
        <ele>1087.39</ele>
        <time>2013-05-08T14:05:23Z</time>
      </trkpt>
      <trkpt lat="46.76458" lon="6.36368">
        <ele>1087.87</ele>
        <time>2013-05-08T14:05:24Z</time>
      </trkpt>
      <trkpt lat="46.76441" lon="6.3639">
        <ele>1090.75</ele>
        <time>2013-05-08T14:05:38Z</time>
      </trkpt>
      <trkpt lat="46.7643" lon="6.364">
        <ele>1092.68</ele>
        <time>2013-05-08T14:05:46Z</time>
      </trkpt>
      <trkpt lat="46.76429" lon="6.364">
        <ele>1092.68</ele>
        <time>2013-05-08T14:05:47Z</time>
      </trkpt>
      <trkpt lat="46.76427" lon="6.36401">
        <ele>1093.16</ele>
        <time>2013-05-08T14:05:48Z</time>
      </trkpt>
      <trkpt lat="46.76426" lon="6.36402">
        <ele>1093.64</ele>
        <time>2013-05-08T14:05:49Z</time>
      </trkpt>
      <trkpt lat="46.76423" lon="6.36404">
        <ele>1093.64</ele>
        <time>2013-05-08T14:05:50Z</time>
      </trkpt>
      <trkpt lat="46.76422" lon="6.36405">
        <ele>1093.64</ele>
        <time>2013-05-08T14:05:51Z</time>
      </trkpt>
      <trkpt lat="46.7642" lon="6.36406">
        <ele>1094.12</ele>
        <time>2013-05-08T14:05:52Z</time>
      </trkpt>
      <trkpt lat="46.76418" lon="6.36407">
        <ele>1094.12</ele>
        <time>2013-05-08T14:05:53Z</time>
      </trkpt>
      <trkpt lat="46.76398" lon="6.36425">
        <ele>1097.48</ele>
        <time>2013-05-08T14:06:07Z</time>
      </trkpt>
      <trkpt lat="46.76376" lon="6.36444">
        <ele>1100.37</ele>
        <time>2013-05-08T14:06:21Z</time>
      </trkpt>
      <trkpt lat="46.76357" lon="6.36465">
        <ele>1102.29</ele>
        <time>2013-05-08T14:06:34Z</time>
      </trkpt>
      <trkpt lat="46.76341" lon="6.36479">
        <ele>1103.73</ele>
        <time>2013-05-08T14:06:43Z</time>
      </trkpt>
      <trkpt lat="46.76339" lon="6.36482">
        <ele>1104.21</ele>
        <time>2013-05-08T14:06:44Z</time>
      </trkpt>
      <trkpt lat="46.76338" lon="6.36484">
        <ele>1104.21</ele>
        <time>2013-05-08T14:06:45Z</time>
      </trkpt>
      <trkpt lat="46.76322" lon="6.36517">
        <ele>1107.1</ele>
        <time>2013-05-08T14:07:00Z</time>
      </trkpt>
      <trkpt lat="46.76318" lon="6.36528">
        <ele>1107.58</ele>
        <time>2013-05-08T14:07:04Z</time>
      </trkpt>
      <trkpt lat="46.76317" lon="6.3653">
        <ele>1107.58</ele>
        <time>2013-05-08T14:07:05Z</time>
      </trkpt>
      <trkpt lat="46.76307" lon="6.36562">
        <ele>1110.46</ele>
        <time>2013-05-08T14:07:19Z</time>
      </trkpt>
      <trkpt lat="46.76295" lon="6.36592">
        <ele>1112.38</ele>
        <time>2013-05-08T14:07:30Z</time>
      </trkpt>
      <trkpt lat="46.76281" lon="6.36619">
        <ele>1114.31</ele>
        <time>2013-05-08T14:07:42Z</time>
      </trkpt>
      <trkpt lat="46.76264" lon="6.36644">
        <ele>1116.23</ele>
        <time>2013-05-08T14:07:53Z</time>
      </trkpt>
      <trkpt lat="46.76241" lon="6.3665">
        <ele>1118.63</ele>
        <time>2013-05-08T14:08:06Z</time>
      </trkpt>
      <trkpt lat="46.76216" lon="6.36657">
        <ele>1120.55</ele>
        <time>2013-05-08T14:08:19Z</time>
      </trkpt>
      <trkpt lat="46.76205" lon="6.36666">
        <ele>1122</ele>
        <time>2013-05-08T14:08:25Z</time>
      </trkpt>
      <trkpt lat="46.76203" lon="6.36667">
        <ele>1122.48</ele>
        <time>2013-05-08T14:08:26Z</time>
      </trkpt>
      <trkpt lat="46.76201" lon="6.36669">
        <ele>1122.48</ele>
        <time>2013-05-08T14:08:27Z</time>
      </trkpt>
      <trkpt lat="46.762" lon="6.36669">
        <ele>1122.96</ele>
        <time>2013-05-08T14:08:28Z</time>
      </trkpt>
      <trkpt lat="46.76198" lon="6.3667">
        <ele>1122.96</ele>
        <time>2013-05-08T14:08:29Z</time>
      </trkpt>
      <trkpt lat="46.76178" lon="6.36687">
        <ele>1125.84</ele>
        <time>2013-05-08T14:08:43Z</time>
      </trkpt>
      <trkpt lat="46.76152" lon="6.36698">
        <ele>1128.73</ele>
        <time>2013-05-08T14:08:57Z</time>
      </trkpt>
      <trkpt lat="46.76127" lon="6.36702">
        <ele>1130.65</ele>
        <time>2013-05-08T14:09:09Z</time>
      </trkpt>
      <trkpt lat="46.76122" lon="6.36701">
        <ele>1131.61</ele>
        <time>2013-05-08T14:09:12Z</time>
      </trkpt>
      <trkpt lat="46.7612" lon="6.36701">
        <ele>1131.61</ele>
        <time>2013-05-08T14:09:13Z</time>
      </trkpt>
      <trkpt lat="46.76103" lon="6.36694">
        <ele>1133.53</ele>
        <time>2013-05-08T14:09:22Z</time>
      </trkpt>
      <trkpt lat="46.76101" lon="6.36694">
        <ele>1133.53</ele>
        <time>2013-05-08T14:09:23Z</time>
      </trkpt>
      <trkpt lat="46.76099" lon="6.36692">
        <ele>1134.01</ele>
        <time>2013-05-08T14:09:24Z</time>
      </trkpt>
      <trkpt lat="46.76098" lon="6.36691">
        <ele>1134.01</ele>
        <time>2013-05-08T14:09:25Z</time>
      </trkpt>
      <trkpt lat="46.76096" lon="6.36689">
        <ele>1134.01</ele>
        <time>2013-05-08T14:09:26Z</time>
      </trkpt>
      <trkpt lat="46.76094" lon="6.36688">
        <ele>1134.49</ele>
        <time>2013-05-08T14:09:27Z</time>
      </trkpt>
      <trkpt lat="46.76092" lon="6.36687">
        <ele>1134.49</ele>
        <time>2013-05-08T14:09:28Z</time>
      </trkpt>
      <trkpt lat="46.76069" lon="6.3667">
        <ele>1136.9</ele>
        <time>2013-05-08T14:09:41Z</time>
      </trkpt>
      <trkpt lat="46.76039" lon="6.36652">
        <ele>1139.78</ele>
        <time>2013-05-08T14:09:56Z</time>
      </trkpt>
      <trkpt lat="46.76014" lon="6.36635">
        <ele>1142.66</ele>
        <time>2013-05-08T14:10:10Z</time>
      </trkpt>
      <trkpt lat="46.75993" lon="6.36621">
        <ele>1144.59</ele>
        <time>2013-05-08T14:10:21Z</time>
      </trkpt>
      <trkpt lat="46.75976" lon="6.36607">
        <ele>1146.51</ele>
        <time>2013-05-08T14:10:31Z</time>
      </trkpt>
      <trkpt lat="46.75974" lon="6.36605">
        <ele>1146.99</ele>
        <time>2013-05-08T14:10:32Z</time>
      </trkpt>
      <trkpt lat="46.75972" lon="6.36603">
        <ele>1146.99</ele>
        <time>2013-05-08T14:10:33Z</time>
      </trkpt>
      <trkpt lat="46.75959" lon="6.3658">
        <ele>1149.87</ele>
        <time>2013-05-08T14:10:44Z</time>
      </trkpt>
      <trkpt lat="46.75958" lon="6.36577">
        <ele>1149.87</ele>
        <time>2013-05-08T14:10:45Z</time>
      </trkpt>
      <trkpt lat="46.75958" lon="6.36574">
        <ele>1150.35</ele>
        <time>2013-05-08T14:10:46Z</time>
      </trkpt>
      <trkpt lat="46.75957" lon="6.36571">
        <ele>1150.35</ele>
        <time>2013-05-08T14:10:47Z</time>
      </trkpt>
      <trkpt lat="46.75957" lon="6.36569">
        <ele>1150.35</ele>
        <time>2013-05-08T14:10:48Z</time>
      </trkpt>
      <trkpt lat="46.75956" lon="6.36566">
        <ele>1150.84</ele>
        <time>2013-05-08T14:10:49Z</time>
      </trkpt>
      <trkpt lat="46.75956" lon="6.36563">
        <ele>1150.84</ele>
        <time>2013-05-08T14:10:50Z</time>
      </trkpt>
      <trkpt lat="46.75956" lon="6.36561">
        <ele>1151.32</ele>
        <time>2013-05-08T14:10:51Z</time>
      </trkpt>
      <trkpt lat="46.75956" lon="6.36558">
        <ele>1151.32</ele>
        <time>2013-05-08T14:10:52Z</time>
      </trkpt>
      <trkpt lat="46.75956" lon="6.36556">
        <ele>1151.8</ele>
        <time>2013-05-08T14:10:53Z</time>
      </trkpt>
      <trkpt lat="46.75956" lon="6.36554">
        <ele>1152.28</ele>
        <time>2013-05-08T14:10:54Z</time>
      </trkpt>
      <trkpt lat="46.75956" lon="6.36552">
        <ele>1152.28</ele>
        <time>2013-05-08T14:10:55Z</time>
      </trkpt>
      <trkpt lat="46.75957" lon="6.36549">
        <ele>1152.76</ele>
        <time>2013-05-08T14:10:56Z</time>
      </trkpt>
      <trkpt lat="46.75958" lon="6.36543">
        <ele>1153.24</ele>
        <time>2013-05-08T14:10:58Z</time>
      </trkpt>
      <trkpt lat="46.75959" lon="6.36541">
        <ele>1153.24</ele>
        <time>2013-05-08T14:10:59Z</time>
      </trkpt>
      <trkpt lat="46.7596" lon="6.36539">
        <ele>1153.24</ele>
        <time>2013-05-08T14:11:00Z</time>
      </trkpt>
      <trkpt lat="46.75961" lon="6.36537">
        <ele>1153.72</ele>
        <time>2013-05-08T14:11:01Z</time>
      </trkpt>
      <trkpt lat="46.75962" lon="6.36534">
        <ele>1153.72</ele>
        <time>2013-05-08T14:11:02Z</time>
      </trkpt>
      <trkpt lat="46.75963" lon="6.36532">
        <ele>1153.72</ele>
        <time>2013-05-08T14:11:03Z</time>
      </trkpt>
      <trkpt lat="46.75964" lon="6.3653">
        <ele>1153.72</ele>
        <time>2013-05-08T14:11:04Z</time>
      </trkpt>
      <trkpt lat="46.75971" lon="6.36521">
        <ele>1154.68</ele>
        <time>2013-05-08T14:11:08Z</time>
      </trkpt>
      <trkpt lat="46.75972" lon="6.3652">
        <ele>1153.72</ele>
        <time>2013-05-08T14:11:09Z</time>
      </trkpt>
      <trkpt lat="46.75973" lon="6.36518">
        <ele>1157.56</ele>
        <time>2013-05-08T14:11:10Z</time>
      </trkpt>
      <trkpt lat="46.75995" lon="6.36517">
        <ele>1157.08</ele>
        <time>2013-05-08T14:11:22Z</time>
      </trkpt>
      <trkpt lat="46.76019" lon="6.36525">
        <ele>1159.49</ele>
        <time>2013-05-08T14:11:35Z</time>
      </trkpt>
      <trkpt lat="46.76021" lon="6.36525">
        <ele>1159.97</ele>
        <time>2013-05-08T14:11:36Z</time>
      </trkpt>
      <trkpt lat="46.76046" lon="6.36533">
        <ele>1162.37</ele>
        <time>2013-05-08T14:11:48Z</time>
      </trkpt>
      <trkpt lat="46.76076" lon="6.36549">
        <ele>1164.29</ele>
        <time>2013-05-08T14:12:01Z</time>
      </trkpt>
      <trkpt lat="46.76088" lon="6.36555">
        <ele>1165.26</ele>
        <time>2013-05-08T14:12:07Z</time>
      </trkpt>
      <trkpt lat="46.7609" lon="6.36557">
        <ele>1165.74</ele>
        <time>2013-05-08T14:12:08Z</time>
      </trkpt>
      <trkpt lat="46.76092" lon="6.36559">
        <ele>1165.74</ele>
        <time>2013-05-08T14:12:09Z</time>
      </trkpt>
      <trkpt lat="46.76094" lon="6.3656">
        <ele>1166.22</ele>
        <time>2013-05-08T14:12:10Z</time>
      </trkpt>
      <trkpt lat="46.76096" lon="6.36562">
        <ele>1166.22</ele>
        <time>2013-05-08T14:12:11Z</time>
      </trkpt>
      <trkpt lat="46.76098" lon="6.36564">
        <ele>1166.22</ele>
        <time>2013-05-08T14:12:12Z</time>
      </trkpt>
      <trkpt lat="46.76099" lon="6.36566">
        <ele>1166.7</ele>
        <time>2013-05-08T14:12:13Z</time>
      </trkpt>
      <trkpt lat="46.76101" lon="6.36569">
        <ele>1166.7</ele>
        <time>2013-05-08T14:12:14Z</time>
      </trkpt>
      <trkpt lat="46.76103" lon="6.36571">
        <ele>1167.18</ele>
        <time>2013-05-08T14:12:15Z</time>
      </trkpt>
      <trkpt lat="46.76125" lon="6.36586">
        <ele>1169.58</ele>
        <time>2013-05-08T14:12:27Z</time>
      </trkpt>
      <trkpt lat="46.76141" lon="6.36591">
        <ele>1171.02</ele>
        <time>2013-05-08T14:12:35Z</time>
      </trkpt>
      <trkpt lat="46.76166" lon="6.36575">
        <ele>1173.91</ele>
        <time>2013-05-08T14:12:47Z</time>
      </trkpt>
      <trkpt lat="46.76179" lon="6.36554">
        <ele>1174.87</ele>
        <time>2013-05-08T14:12:55Z</time>
      </trkpt>
      <trkpt lat="46.7618" lon="6.3655">
        <ele>1174.87</ele>
        <time>2013-05-08T14:12:56Z</time>
      </trkpt>
      <trkpt lat="46.76183" lon="6.36546">
        <ele>1175.35</ele>
        <time>2013-05-08T14:12:58Z</time>
      </trkpt>
      <trkpt lat="46.76184" lon="6.36544">
        <ele>1175.83</ele>
        <time>2013-05-08T14:12:59Z</time>
      </trkpt>
      <trkpt lat="46.76186" lon="6.36543">
        <ele>1175.83</ele>
        <time>2013-05-08T14:13:00Z</time>
      </trkpt>
      <trkpt lat="46.76186" lon="6.36541">
        <ele>1176.31</ele>
        <time>2013-05-08T14:13:01Z</time>
      </trkpt>
      <trkpt lat="46.76187" lon="6.36538">
        <ele>1176.79</ele>
        <time>2013-05-08T14:13:02Z</time>
      </trkpt>
      <trkpt lat="46.76189" lon="6.36536">
        <ele>1176.79</ele>
        <time>2013-05-08T14:13:03Z</time>
      </trkpt>
      <trkpt lat="46.76199" lon="6.365">
        <ele>1179.19</ele>
        <time>2013-05-08T14:13:15Z</time>
      </trkpt>
      <trkpt lat="46.76199" lon="6.36458">
        <ele>1182.08</ele>
        <time>2013-05-08T14:13:28Z</time>
      </trkpt>
      <trkpt lat="46.76199" lon="6.3645">
        <ele>1182.56</ele>
        <time>2013-05-08T14:13:31Z</time>
      </trkpt>
      <trkpt lat="46.76199" lon="6.36447">
        <ele>1182.56</ele>
        <time>2013-05-08T14:13:32Z</time>
      </trkpt>
      <trkpt lat="46.76199" lon="6.36445">
        <ele>1182.56</ele>
        <time>2013-05-08T14:13:33Z</time>
      </trkpt>
      <trkpt lat="46.76199" lon="6.36442">
        <ele>1183.04</ele>
        <time>2013-05-08T14:13:34Z</time>
      </trkpt>
      <trkpt lat="46.76199" lon="6.36439">
        <ele>1183.52</ele>
        <time>2013-05-08T14:13:35Z</time>
      </trkpt>
      <trkpt lat="46.76199" lon="6.36435">
        <ele>1183.52</ele>
        <time>2013-05-08T14:13:36Z</time>
      </trkpt>
      <trkpt lat="46.76199" lon="6.36431">
        <ele>1183.52</ele>
        <time>2013-05-08T14:13:37Z</time>
      </trkpt>
      <trkpt lat="46.762" lon="6.36399">
        <ele>1185.44</ele>
        <time>2013-05-08T14:13:46Z</time>
      </trkpt>
      <trkpt lat="46.76196" lon="6.36358">
        <ele>1187.85</ele>
        <time>2013-05-08T14:13:59Z</time>
      </trkpt>
      <trkpt lat="46.76186" lon="6.36319">
        <ele>1190.25</ele>
        <time>2013-05-08T14:14:10Z</time>
      </trkpt>
      <trkpt lat="46.76171" lon="6.36279">
        <ele>1193.13</ele>
        <time>2013-05-08T14:14:24Z</time>
      </trkpt>
      <trkpt lat="46.76153" lon="6.36239">
        <ele>1195.54</ele>
        <time>2013-05-08T14:14:38Z</time>
      </trkpt>
      <trkpt lat="46.76135" lon="6.36201">
        <ele>1198.9</ele>
        <time>2013-05-08T14:14:52Z</time>
      </trkpt>
      <trkpt lat="46.7612" lon="6.36158">
        <ele>1201.79</ele>
        <time>2013-05-08T14:15:05Z</time>
      </trkpt>
      <trkpt lat="46.7611" lon="6.36124">
        <ele>1203.71</ele>
        <time>2013-05-08T14:15:15Z</time>
      </trkpt>
      <trkpt lat="46.76104" lon="6.3607">
        <ele>1206.59</ele>
        <time>2013-05-08T14:15:30Z</time>
      </trkpt>
      <trkpt lat="46.76116" lon="6.36024">
        <ele>1209</ele>
        <time>2013-05-08T14:15:44Z</time>
      </trkpt>
      <trkpt lat="46.76117" lon="6.35974">
        <ele>1211.88</ele>
        <time>2013-05-08T14:15:58Z</time>
      </trkpt>
      <trkpt lat="46.76113" lon="6.35946">
        <ele>1213.8</ele>
        <time>2013-05-08T14:16:07Z</time>
      </trkpt>
      <trkpt lat="46.76112" lon="6.35943">
        <ele>1214.28</ele>
        <time>2013-05-08T14:16:08Z</time>
      </trkpt>
      <trkpt lat="46.76112" lon="6.3594">
        <ele>1214.28</ele>
        <time>2013-05-08T14:16:09Z</time>
      </trkpt>
      <trkpt lat="46.76112" lon="6.35938">
        <ele>1214.28</ele>
        <time>2013-05-08T14:16:10Z</time>
      </trkpt>
      <trkpt lat="46.76111" lon="6.35935">
        <ele>1214.76</ele>
        <time>2013-05-08T14:16:11Z</time>
      </trkpt>
      <trkpt lat="46.76108" lon="6.35905">
        <ele>1216.69</ele>
        <time>2013-05-08T14:16:21Z</time>
      </trkpt>
      <trkpt lat="46.76104" lon="6.3587">
        <ele>1219.09</ele>
        <time>2013-05-08T14:16:32Z</time>
      </trkpt>
      <trkpt lat="46.76102" lon="6.35824">
        <ele>1221.49</ele>
        <time>2013-05-08T14:16:43Z</time>
      </trkpt>
      <trkpt lat="46.76102" lon="6.35819">
        <ele>1221.49</ele>
        <time>2013-05-08T14:16:44Z</time>
      </trkpt>
      <trkpt lat="46.76102" lon="6.35815">
        <ele>1221.97</ele>
        <time>2013-05-08T14:16:45Z</time>
      </trkpt>
      <trkpt lat="46.76099" lon="6.35797">
        <ele>1222.93</ele>
        <time>2013-05-08T14:16:50Z</time>
      </trkpt>
      <trkpt lat="46.7609" lon="6.3575">
        <ele>1225.34</ele>
        <time>2013-05-08T14:17:01Z</time>
      </trkpt>
      <trkpt lat="46.76091" lon="6.35741">
        <ele>1225.82</ele>
        <time>2013-05-08T14:17:03Z</time>
      </trkpt>
      <trkpt lat="46.7609" lon="6.35737">
        <ele>1225.82</ele>
        <time>2013-05-08T14:17:04Z</time>
      </trkpt>
      <trkpt lat="46.76089" lon="6.35732">
        <ele>1226.3</ele>
        <time>2013-05-08T14:17:05Z</time>
      </trkpt>
      <trkpt lat="46.76088" lon="6.35729">
        <ele>1226.3</ele>
        <time>2013-05-08T14:17:06Z</time>
      </trkpt>
      <trkpt lat="46.76087" lon="6.35726">
        <ele>1226.78</ele>
        <time>2013-05-08T14:17:07Z</time>
      </trkpt>
      <trkpt lat="46.76086" lon="6.35723">
        <ele>1226.78</ele>
        <time>2013-05-08T14:17:08Z</time>
      </trkpt>
      <trkpt lat="46.76078" lon="6.35665">
        <ele>1228.7</ele>
        <time>2013-05-08T14:17:22Z</time>
      </trkpt>
      <trkpt lat="46.76068" lon="6.35619">
        <ele>1229.66</ele>
        <time>2013-05-08T14:17:32Z</time>
      </trkpt>
      <trkpt lat="46.76048" lon="6.35565">
        <ele>1231.11</ele>
        <time>2013-05-08T14:17:46Z</time>
      </trkpt>
      <trkpt lat="46.7603" lon="6.35527">
        <ele>1233.99</ele>
        <time>2013-05-08T14:17:59Z</time>
      </trkpt>
      <trkpt lat="46.76012" lon="6.35493">
        <ele>1236.87</ele>
        <time>2013-05-08T14:18:11Z</time>
      </trkpt>
      <trkpt lat="46.76001" lon="6.35473">
        <ele>1240.72</ele>
        <time>2013-05-08T14:18:19Z</time>
      </trkpt>
      <trkpt lat="46.75985" lon="6.35435">
        <ele>1241.2</ele>
        <time>2013-05-08T14:18:32Z</time>
      </trkpt>
      <trkpt lat="46.75969" lon="6.35415">
        <ele>1243.12</ele>
        <time>2013-05-08T14:18:43Z</time>
      </trkpt>
      <trkpt lat="46.75967" lon="6.35413">
        <ele>1243.6</ele>
        <time>2013-05-08T14:18:44Z</time>
      </trkpt>
      <trkpt lat="46.75948" lon="6.35396">
        <ele>1245.53</ele>
        <time>2013-05-08T14:18:53Z</time>
      </trkpt>
      <trkpt lat="46.75925" lon="6.35373">
        <ele>1247.93</ele>
        <time>2013-05-08T14:19:05Z</time>
      </trkpt>
      <trkpt lat="46.75905" lon="6.3535">
        <ele>1250.33</ele>
        <time>2013-05-08T14:19:16Z</time>
      </trkpt>
      <trkpt lat="46.75872" lon="6.3533">
        <ele>1253.22</ele>
        <time>2013-05-08T14:19:30Z</time>
      </trkpt>
      <trkpt lat="46.7585" lon="6.35316">
        <ele>1255.62</ele>
        <time>2013-05-08T14:19:40Z</time>
      </trkpt>
      <trkpt lat="46.75819" lon="6.35299">
        <ele>1258.02</ele>
        <time>2013-05-08T14:19:53Z</time>
      </trkpt>
      <trkpt lat="46.75797" lon="6.35285">
        <ele>1260.43</ele>
        <time>2013-05-08T14:20:05Z</time>
      </trkpt>
      <trkpt lat="46.75775" lon="6.35273">
        <ele>1262.83</ele>
        <time>2013-05-08T14:20:17Z</time>
      </trkpt>
      <trkpt lat="46.75754" lon="6.3526">
        <ele>1265.23</ele>
        <time>2013-05-08T14:20:29Z</time>
      </trkpt>
      <trkpt lat="46.75752" lon="6.35259">
        <ele>1265.23</ele>
        <time>2013-05-08T14:20:30Z</time>
      </trkpt>
      <trkpt lat="46.7575" lon="6.35258">
        <ele>1265.71</ele>
        <time>2013-05-08T14:20:31Z</time>
      </trkpt>
      <trkpt lat="46.75749" lon="6.35258">
        <ele>1265.71</ele>
        <time>2013-05-08T14:20:32Z</time>
      </trkpt>
      <trkpt lat="46.75747" lon="6.35256">
        <ele>1265.71</ele>
        <time>2013-05-08T14:20:33Z</time>
      </trkpt>
      <trkpt lat="46.75719" lon="6.35237">
        <ele>1267.64</ele>
        <time>2013-05-08T14:20:44Z</time>
      </trkpt>
      <trkpt lat="46.75695" lon="6.35221">
        <ele>1270.04</ele>
        <time>2013-05-08T14:20:56Z</time>
      </trkpt>
      <trkpt lat="46.7566" lon="6.35216">
        <ele>1273.4</ele>
        <time>2013-05-08T14:21:11Z</time>
      </trkpt>
      <trkpt lat="46.75632" lon="6.35219">
        <ele>1275.81</ele>
        <time>2013-05-08T14:21:23Z</time>
      </trkpt>
      <trkpt lat="46.7562" lon="6.35206">
        <ele>1277.25</ele>
        <time>2013-05-08T14:21:29Z</time>
      </trkpt>
      <trkpt lat="46.75618" lon="6.35204">
        <ele>1277.25</ele>
        <time>2013-05-08T14:21:30Z</time>
      </trkpt>
      <trkpt lat="46.75617" lon="6.35201">
        <ele>1277.73</ele>
        <time>2013-05-08T14:21:31Z</time>
      </trkpt>
      <trkpt lat="46.75616" lon="6.35198">
        <ele>1278.21</ele>
        <time>2013-05-08T14:21:32Z</time>
      </trkpt>
      <trkpt lat="46.75615" lon="6.35195">
        <ele>1277.73</ele>
        <time>2013-05-08T14:21:33Z</time>
      </trkpt>
      <trkpt lat="46.75597" lon="6.35154">
        <ele>1280.61</ele>
        <time>2013-05-08T14:21:45Z</time>
      </trkpt>
      <trkpt lat="46.75589" lon="6.35132">
        <ele>1282.06</ele>
        <time>2013-05-08T14:21:51Z</time>
      </trkpt>
      <trkpt lat="46.75582" lon="6.35123">
        <ele>1283.02</ele>
        <time>2013-05-08T14:21:54Z</time>
      </trkpt>
      <trkpt lat="46.7558" lon="6.3512">
        <ele>1283.02</ele>
        <time>2013-05-08T14:21:55Z</time>
      </trkpt>
      <trkpt lat="46.75578" lon="6.35116">
        <ele>1283.5</ele>
        <time>2013-05-08T14:21:56Z</time>
      </trkpt>
      <trkpt lat="46.7555" lon="6.35074">
        <ele>1286.38</ele>
        <time>2013-05-08T14:22:09Z</time>
      </trkpt>
      <trkpt lat="46.75527" lon="6.35045">
        <ele>1289.27</ele>
        <time>2013-05-08T14:22:20Z</time>
      </trkpt>
      <trkpt lat="46.75502" lon="6.35037">
        <ele>1291.67</ele>
        <time>2013-05-08T14:22:32Z</time>
      </trkpt>
      <trkpt lat="46.75476" lon="6.35046">
        <ele>1294.55</ele>
        <time>2013-05-08T14:22:45Z</time>
      </trkpt>
      <trkpt lat="46.75457" lon="6.35053">
        <ele>1296.48</ele>
        <time>2013-05-08T14:22:55Z</time>
      </trkpt>
      <trkpt lat="46.75432" lon="6.35049">
        <ele>1298.4</ele>
        <time>2013-05-08T14:23:06Z</time>
      </trkpt>
      <trkpt lat="46.75414" lon="6.35028">
        <ele>1300.32</ele>
        <time>2013-05-08T14:23:17Z</time>
      </trkpt>
      <trkpt lat="46.75412" lon="6.35024">
        <ele>1300.8</ele>
        <time>2013-05-08T14:23:19Z</time>
      </trkpt>
      <trkpt lat="46.75411" lon="6.35021">
        <ele>1300.8</ele>
        <time>2013-05-08T14:23:20Z</time>
      </trkpt>
      <trkpt lat="46.7541" lon="6.35018">
        <ele>1301.28</ele>
        <time>2013-05-08T14:23:21Z</time>
      </trkpt>
      <trkpt lat="46.75409" lon="6.35015">
        <ele>1301.28</ele>
        <time>2013-05-08T14:23:22Z</time>
      </trkpt>
      <trkpt lat="46.75408" lon="6.35012">
        <ele>1301.28</ele>
        <time>2013-05-08T14:23:23Z</time>
      </trkpt>
      <trkpt lat="46.75407" lon="6.35009">
        <ele>1301.76</ele>
        <time>2013-05-08T14:23:24Z</time>
      </trkpt>
      <trkpt lat="46.75406" lon="6.35007">
        <ele>1302.24</ele>
        <time>2013-05-08T14:23:25Z</time>
      </trkpt>
      <trkpt lat="46.754" lon="6.34985">
        <ele>1304.17</ele>
        <time>2013-05-08T14:23:34Z</time>
      </trkpt>
      <trkpt lat="46.75395" lon="6.34958">
        <ele>1305.61</ele>
        <time>2013-05-08T14:23:42Z</time>
      </trkpt>
      <trkpt lat="46.7538" lon="6.34912">
        <ele>1308.49</ele>
        <time>2013-05-08T14:23:54Z</time>
      </trkpt>
      <trkpt lat="46.75361" lon="6.34873">
        <ele>1310.9</ele>
        <time>2013-05-08T14:24:07Z</time>
      </trkpt>
      <trkpt lat="46.75338" lon="6.34853">
        <ele>1315.22</ele>
        <time>2013-05-08T14:24:19Z</time>
      </trkpt>
      <trkpt lat="46.75337" lon="6.34852">
        <ele>1314.74</ele>
        <time>2013-05-08T14:24:20Z</time>
      </trkpt>
      <trkpt lat="46.75312" lon="6.34826">
        <ele>1316.66</ele>
        <time>2013-05-08T14:24:33Z</time>
      </trkpt>
      <trkpt lat="46.7529" lon="6.34827">
        <ele>1319.07</ele>
        <time>2013-05-08T14:24:45Z</time>
      </trkpt>
      <trkpt lat="46.75289" lon="6.34829">
        <ele>1319.07</ele>
        <time>2013-05-08T14:24:46Z</time>
      </trkpt>
      <trkpt lat="46.75288" lon="6.34832">
        <ele>1319.55</ele>
        <time>2013-05-08T14:24:47Z</time>
      </trkpt>
      <trkpt lat="46.75287" lon="6.34836">
        <ele>1319.55</ele>
        <time>2013-05-08T14:24:48Z</time>
      </trkpt>
      <trkpt lat="46.75287" lon="6.3484">
        <ele>1319.55</ele>
        <time>2013-05-08T14:24:49Z</time>
      </trkpt>
      <trkpt lat="46.75287" lon="6.34843">
        <ele>1320.03</ele>
        <time>2013-05-08T14:24:50Z</time>
      </trkpt>
      <trkpt lat="46.75288" lon="6.34847">
        <ele>1320.03</ele>
        <time>2013-05-08T14:24:51Z</time>
      </trkpt>
      <trkpt lat="46.75288" lon="6.34849">
        <ele>1320.03</ele>
        <time>2013-05-08T14:24:52Z</time>
      </trkpt>
      <trkpt lat="46.7529" lon="6.34852">
        <ele>1320.03</ele>
        <time>2013-05-08T14:24:53Z</time>
      </trkpt>
      <trkpt lat="46.75291" lon="6.34854">
        <ele>1320.51</ele>
        <time>2013-05-08T14:24:54Z</time>
      </trkpt>
      <trkpt lat="46.75292" lon="6.34856">
        <ele>1320.51</ele>
        <time>2013-05-08T14:24:55Z</time>
      </trkpt>
      <trkpt lat="46.75293" lon="6.34858">
        <ele>1320.99</ele>
        <time>2013-05-08T14:24:56Z</time>
      </trkpt>
      <trkpt lat="46.75294" lon="6.34861">
        <ele>1320.99</ele>
        <time>2013-05-08T14:24:57Z</time>
      </trkpt>
      <trkpt lat="46.75296" lon="6.34863">
        <ele>1320.99</ele>
        <time>2013-05-08T14:24:58Z</time>
      </trkpt>
      <trkpt lat="46.75298" lon="6.34865">
        <ele>1320.99</ele>
        <time>2013-05-08T14:24:59Z</time>
      </trkpt>
      <trkpt lat="46.753" lon="6.34868">
        <ele>1321.47</ele>
        <time>2013-05-08T14:25:00Z</time>
      </trkpt>
      <trkpt lat="46.75301" lon="6.3487">
        <ele>1321.47</ele>
        <time>2013-05-08T14:25:01Z</time>
      </trkpt>
      <trkpt lat="46.75303" lon="6.34873">
        <ele>1321.95</ele>
        <time>2013-05-08T14:25:02Z</time>
      </trkpt>
      <trkpt lat="46.75305" lon="6.34875">
        <ele>1321.95</ele>
        <time>2013-05-08T14:25:03Z</time>
      </trkpt>
      <trkpt lat="46.75312" lon="6.34884">
        <ele>1322.91</ele>
        <time>2013-05-08T14:25:07Z</time>
      </trkpt>
      <trkpt lat="46.75314" lon="6.34885">
        <ele>1322.91</ele>
        <time>2013-05-08T14:25:08Z</time>
      </trkpt>
      <trkpt lat="46.75316" lon="6.34886">
        <ele>1322.91</ele>
        <time>2013-05-08T14:25:09Z</time>
      </trkpt>
      <trkpt lat="46.75318" lon="6.34889">
        <ele>1323.39</ele>
        <time>2013-05-08T14:25:10Z</time>
      </trkpt>
      <trkpt lat="46.7532" lon="6.34892">
        <ele>1323.39</ele>
        <time>2013-05-08T14:25:11Z</time>
      </trkpt>
      <trkpt lat="46.75321" lon="6.34895">
        <ele>1323.39</ele>
        <time>2013-05-08T14:25:12Z</time>
      </trkpt>
      <trkpt lat="46.75323" lon="6.34899">
        <ele>1323.87</ele>
        <time>2013-05-08T14:25:13Z</time>
      </trkpt>
      <trkpt lat="46.75324" lon="6.34901">
        <ele>1323.87</ele>
        <time>2013-05-08T14:25:14Z</time>
      </trkpt>
      <trkpt lat="46.75325" lon="6.34904">
        <ele>1324.35</ele>
        <time>2013-05-08T14:25:15Z</time>
      </trkpt>
      <trkpt lat="46.75326" lon="6.34907">
        <ele>1324.35</ele>
        <time>2013-05-08T14:25:16Z</time>
      </trkpt>
      <trkpt lat="46.75327" lon="6.3491">
        <ele>1324.35</ele>
        <time>2013-05-08T14:25:17Z</time>
      </trkpt>
      <trkpt lat="46.75331" lon="6.34921">
        <ele>1325.8</ele>
        <time>2013-05-08T14:25:22Z</time>
      </trkpt>
      <trkpt lat="46.7533" lon="6.34923">
        <ele>1325.8</ele>
        <time>2013-05-08T14:25:23Z</time>
      </trkpt>
      <trkpt lat="46.75329" lon="6.34926">
        <ele>1325.8</ele>
        <time>2013-05-08T14:25:24Z</time>
      </trkpt>
      <trkpt lat="46.75329" lon="6.34929">
        <ele>1326.28</ele>
        <time>2013-05-08T14:25:25Z</time>
      </trkpt>
      <trkpt lat="46.75329" lon="6.34932">
        <ele>1326.28</ele>
        <time>2013-05-08T14:25:26Z</time>
      </trkpt>
      <trkpt lat="46.75329" lon="6.34936">
        <ele>1326.76</ele>
        <time>2013-05-08T14:25:27Z</time>
      </trkpt>
      <trkpt lat="46.75331" lon="6.34976">
        <ele>1329.16</ele>
        <time>2013-05-08T14:25:39Z</time>
      </trkpt>
      <trkpt lat="46.75331" lon="6.34979">
        <ele>1329.16</ele>
        <time>2013-05-08T14:25:40Z</time>
      </trkpt>
      <trkpt lat="46.75332" lon="6.34983">
        <ele>1329.64</ele>
        <time>2013-05-08T14:25:41Z</time>
      </trkpt>
      <trkpt lat="46.75333" lon="6.34986">
        <ele>1329.64</ele>
        <time>2013-05-08T14:25:42Z</time>
      </trkpt>
      <trkpt lat="46.75333" lon="6.34989">
        <ele>1329.64</ele>
        <time>2013-05-08T14:25:43Z</time>
      </trkpt>
      <trkpt lat="46.75334" lon="6.34992">
        <ele>1330.12</ele>
        <time>2013-05-08T14:25:44Z</time>
      </trkpt>
      <trkpt lat="46.75337" lon="6.35028">
        <ele>1332.04</ele>
        <time>2013-05-08T14:25:56Z</time>
      </trkpt>
      <trkpt lat="46.75337" lon="6.35038">
        <ele>1333.01</ele>
        <time>2013-05-08T14:26:00Z</time>
      </trkpt>
      <trkpt lat="46.75337" lon="6.3504">
        <ele>1333.49</ele>
        <time>2013-05-08T14:26:01Z</time>
      </trkpt>
      <trkpt lat="46.75336" lon="6.35043">
        <ele>1333.49</ele>
        <time>2013-05-08T14:26:02Z</time>
      </trkpt>
      <trkpt lat="46.75333" lon="6.35076">
        <ele>1335.41</ele>
        <time>2013-05-08T14:26:11Z</time>
      </trkpt>
      <trkpt lat="46.75344" lon="6.35114">
        <ele>1337.81</ele>
        <time>2013-05-08T14:26:21Z</time>
      </trkpt>
      <trkpt lat="46.75345" lon="6.35116">
        <ele>1338.29</ele>
        <time>2013-05-08T14:26:22Z</time>
      </trkpt>
      <trkpt lat="46.7535" lon="6.35146">
        <ele>1340.22</ele>
        <time>2013-05-08T14:26:31Z</time>
      </trkpt>
      <trkpt lat="46.75351" lon="6.35172">
        <ele>1341.66</ele>
        <time>2013-05-08T14:26:42Z</time>
      </trkpt>
      <trkpt lat="46.75352" lon="6.35174">
        <ele>1342.14</ele>
        <time>2013-05-08T14:26:43Z</time>
      </trkpt>
      <trkpt lat="46.75352" lon="6.35176">
        <ele>1342.14</ele>
        <time>2013-05-08T14:26:44Z</time>
      </trkpt>
      <trkpt lat="46.75351" lon="6.35179">
        <ele>1342.14</ele>
        <time>2013-05-08T14:26:45Z</time>
      </trkpt>
      <trkpt lat="46.75351" lon="6.35182">
        <ele>1342.14</ele>
        <time>2013-05-08T14:26:46Z</time>
      </trkpt>
      <trkpt lat="46.75351" lon="6.35185">
        <ele>1342.62</ele>
        <time>2013-05-08T14:26:47Z</time>
      </trkpt>
      <trkpt lat="46.7535" lon="6.35188">
        <ele>1342.62</ele>
        <time>2013-05-08T14:26:48Z</time>
      </trkpt>
      <trkpt lat="46.7535" lon="6.35191">
        <ele>1343.1</ele>
        <time>2013-05-08T14:26:49Z</time>
      </trkpt>
      <trkpt lat="46.75351" lon="6.352">
        <ele>1343.58</ele>
        <time>2013-05-08T14:26:52Z</time>
      </trkpt>
      <trkpt lat="46.75351" lon="6.35203">
        <ele>1343.58</ele>
        <time>2013-05-08T14:26:53Z</time>
      </trkpt>
      <trkpt lat="46.7535" lon="6.35207">
        <ele>1344.06</ele>
        <time>2013-05-08T14:26:54Z</time>
      </trkpt>
      <trkpt lat="46.7535" lon="6.3521">
        <ele>1344.06</ele>
        <time>2013-05-08T14:26:55Z</time>
      </trkpt>
      <trkpt lat="46.7535" lon="6.35213">
        <ele>1344.06</ele>
        <time>2013-05-08T14:26:56Z</time>
      </trkpt>
      <trkpt lat="46.75344" lon="6.35249">
        <ele>1346.46</ele>
        <time>2013-05-08T14:27:09Z</time>
      </trkpt>
      <trkpt lat="46.75343" lon="6.35251">
        <ele>1346.46</ele>
        <time>2013-05-08T14:27:10Z</time>
      </trkpt>
      <trkpt lat="46.75343" lon="6.35254">
        <ele>1346.94</ele>
        <time>2013-05-08T14:27:11Z</time>
      </trkpt>
      <trkpt lat="46.75342" lon="6.35257">
        <ele>1347.43</ele>
        <time>2013-05-08T14:27:12Z</time>
      </trkpt>
      <trkpt lat="46.75342" lon="6.35259">
        <ele>1347.43</ele>
        <time>2013-05-08T14:27:13Z</time>
      </trkpt>
      <trkpt lat="46.75341" lon="6.35261">
        <ele>1347.91</ele>
        <time>2013-05-08T14:27:14Z</time>
      </trkpt>
      <trkpt lat="46.75341" lon="6.35266">
        <ele>1347.91</ele>
        <time>2013-05-08T14:27:15Z</time>
      </trkpt>
      <trkpt lat="46.75337" lon="6.35282">
        <ele>1348.87</ele>
        <time>2013-05-08T14:27:19Z</time>
      </trkpt>
      <trkpt lat="46.75337" lon="6.35286">
        <ele>1348.87</ele>
        <time>2013-05-08T14:27:20Z</time>
      </trkpt>
      <trkpt lat="46.75338" lon="6.3529">
        <ele>1349.35</ele>
        <time>2013-05-08T14:27:21Z</time>
      </trkpt>
      <trkpt lat="46.75339" lon="6.35295">
        <ele>1349.35</ele>
        <time>2013-05-08T14:27:22Z</time>
      </trkpt>
      <trkpt lat="46.75339" lon="6.35299">
        <ele>1349.83</ele>
        <time>2013-05-08T14:27:23Z</time>
      </trkpt>
      <trkpt lat="46.7534" lon="6.35302">
        <ele>1349.83</ele>
        <time>2013-05-08T14:27:24Z</time>
      </trkpt>
      <trkpt lat="46.75351" lon="6.3535">
        <ele>1352.71</ele>
        <time>2013-05-08T14:27:38Z</time>
      </trkpt>
      <trkpt lat="46.7534" lon="6.35399">
        <ele>1353.67</ele>
        <time>2013-05-08T14:27:50Z</time>
      </trkpt>
      <trkpt lat="46.75299" lon="6.35419">
        <ele>1356.08</ele>
        <time>2013-05-08T14:28:04Z</time>
      </trkpt>
      <trkpt lat="46.75278" lon="6.35428">
        <ele>1359.44</ele>
        <time>2013-05-08T14:28:16Z</time>
      </trkpt>
      <trkpt lat="46.75263" lon="6.35445">
        <ele>1362.81</ele>
        <time>2013-05-08T14:28:27Z</time>
      </trkpt>
      <trkpt lat="46.75249" lon="6.35463">
        <ele>1366.17</ele>
        <time>2013-05-08T14:28:39Z</time>
      </trkpt>
      <trkpt lat="46.75238" lon="6.35482">
        <ele>1369.05</ele>
        <time>2013-05-08T14:28:51Z</time>
      </trkpt>
      <trkpt lat="46.75221" lon="6.35497">
        <ele>1371.94</ele>
        <time>2013-05-08T14:29:04Z</time>
      </trkpt>
      <trkpt lat="46.75209" lon="6.35471">
        <ele>1374.82</ele>
        <time>2013-05-08T14:29:17Z</time>
      </trkpt>
      <trkpt lat="46.75206" lon="6.35447">
        <ele>1376.75</ele>
        <time>2013-05-08T14:29:26Z</time>
      </trkpt>
      <trkpt lat="46.75205" lon="6.35445">
        <ele>1376.75</ele>
        <time>2013-05-08T14:29:27Z</time>
      </trkpt>
      <trkpt lat="46.75205" lon="6.35442">
        <ele>1377.23</ele>
        <time>2013-05-08T14:29:28Z</time>
      </trkpt>
      <trkpt lat="46.75205" lon="6.35439">
        <ele>1377.23</ele>
        <time>2013-05-08T14:29:29Z</time>
      </trkpt>
      <trkpt lat="46.75204" lon="6.35437">
        <ele>1377.23</ele>
        <time>2013-05-08T14:29:30Z</time>
      </trkpt>
      <trkpt lat="46.75204" lon="6.35405">
        <ele>1380.11</ele>
        <time>2013-05-08T14:29:42Z</time>
      </trkpt>
      <trkpt lat="46.75205" lon="6.35364">
        <ele>1382.99</ele>
        <time>2013-05-08T14:29:53Z</time>
      </trkpt>
      <trkpt lat="46.75195" lon="6.35329">
        <ele>1385.88</ele>
        <time>2013-05-08T14:30:06Z</time>
      </trkpt>
      <trkpt lat="46.75179" lon="6.35308">
        <ele>1388.28</ele>
        <time>2013-05-08T14:30:17Z</time>
      </trkpt>
      <trkpt lat="46.7517" lon="6.35296">
        <ele>1390.2</ele>
        <time>2013-05-08T14:30:23Z</time>
      </trkpt>
      <trkpt lat="46.75151" lon="6.35267">
        <ele>1393.09</ele>
        <time>2013-05-08T14:30:35Z</time>
      </trkpt>
      <trkpt lat="46.75135" lon="6.35231">
        <ele>1396.45</ele>
        <time>2013-05-08T14:30:49Z</time>
      </trkpt>
      <trkpt lat="46.75121" lon="6.35201">
        <ele>1398.86</ele>
        <time>2013-05-08T14:31:01Z</time>
      </trkpt>
      <trkpt lat="46.75099" lon="6.35197">
        <ele>1401.74</ele>
        <time>2013-05-08T14:31:09Z</time>
      </trkpt>
      <trkpt lat="46.75097" lon="6.35199">
        <ele>1401.74</ele>
        <time>2013-05-08T14:31:10Z</time>
      </trkpt>
      <trkpt lat="46.75092" lon="6.35219">
        <ele>1405.58</ele>
        <time>2013-05-08T14:31:19Z</time>
      </trkpt>
      <trkpt lat="46.751" lon="6.35255">
        <ele>1408.47</ele>
        <time>2013-05-08T14:31:33Z</time>
      </trkpt>
      <trkpt lat="46.75105" lon="6.35277">
        <ele>1410.39</ele>
        <time>2013-05-08T14:31:48Z</time>
      </trkpt>
      <trkpt lat="46.75105" lon="6.35277">
        <ele>1410.39</ele>
        <time>2013-05-08T14:32:15Z</time>
      </trkpt>
      <trkpt lat="46.75105" lon="6.35277">
        <ele>1410.87</ele>
        <time>2013-05-08T14:32:43Z</time>
      </trkpt>
      <trkpt lat="46.75105" lon="6.35277">
        <ele>1410.87</ele>
        <time>2013-05-08T14:33:13Z</time>
      </trkpt>
      <trkpt lat="46.75105" lon="6.35277">
        <ele>1410.87</ele>
        <time>2013-05-08T14:33:45Z</time>
      </trkpt>
      <trkpt lat="46.75105" lon="6.35277">
        <ele>1410.87</ele>
        <time>2013-05-08T14:34:18Z</time>
      </trkpt>
      <trkpt lat="46.75105" lon="6.35279">
        <ele>1411.35</ele>
        <time>2013-05-08T14:34:35Z</time>
      </trkpt>
      <trkpt lat="46.75105" lon="6.35279">
        <ele>1411.35</ele>
        <time>2013-05-08T14:34:53Z</time>
      </trkpt>
      <trkpt lat="46.75105" lon="6.3528">
        <ele>1411.83</ele>
        <time>2013-05-08T14:35:11Z</time>
      </trkpt>
      <trkpt lat="46.75105" lon="6.3528">
        <ele>1411.83</ele>
        <time>2013-05-08T14:35:33Z</time>
      </trkpt>
      <trkpt lat="46.75097" lon="6.35325">
        <ele>1413.28</ele>
        <time>2013-05-08T14:35:45Z</time>
      </trkpt>
      <trkpt lat="46.75093" lon="6.3535">
        <ele>1414.24</ele>
        <time>2013-05-08T14:35:56Z</time>
      </trkpt>
      <trkpt lat="46.7509" lon="6.35353">
        <ele>1414.24</ele>
        <time>2013-05-08T14:36:13Z</time>
      </trkpt>
      <trkpt lat="46.7509" lon="6.35353">
        <ele>1414.72</ele>
        <time>2013-05-08T14:36:42Z</time>
      </trkpt>
      <trkpt lat="46.7509" lon="6.35353">
        <ele>1415.2</ele>
        <time>2013-05-08T14:37:06Z</time>
      </trkpt>
      <trkpt lat="46.7509" lon="6.35353">
        <ele>1415.68</ele>
        <time>2013-05-08T14:37:33Z</time>
      </trkpt>
      <trkpt lat="46.7509" lon="6.35353">
        <ele>1414.72</ele>
        <time>2013-05-08T14:37:56Z</time>
      </trkpt>
      <trkpt lat="46.7509" lon="6.35353">
        <ele>1414.72</ele>
        <time>2013-05-08T14:38:22Z</time>
      </trkpt>
      <trkpt lat="46.7509" lon="6.35354">
        <ele>1415.2</ele>
        <time>2013-05-08T14:38:42Z</time>
      </trkpt>
      <trkpt lat="46.75091" lon="6.35356">
        <ele>1414.72</ele>
        <time>2013-05-08T14:38:45Z</time>
      </trkpt>
      <trkpt lat="46.75092" lon="6.35358">
        <ele>1414.72</ele>
        <time>2013-05-08T14:38:46Z</time>
      </trkpt>
      <trkpt lat="46.75092" lon="6.35361">
        <ele>1414.72</ele>
        <time>2013-05-08T14:38:47Z</time>
      </trkpt>
      <trkpt lat="46.75093" lon="6.35363">
        <ele>1414.24</ele>
        <time>2013-05-08T14:38:48Z</time>
      </trkpt>
      <trkpt lat="46.75093" lon="6.35366">
        <ele>1414.24</ele>
        <time>2013-05-08T14:38:49Z</time>
      </trkpt>
      <trkpt lat="46.75094" lon="6.3537">
        <ele>1414.24</ele>
        <time>2013-05-08T14:38:50Z</time>
      </trkpt>
      <trkpt lat="46.75094" lon="6.35373">
        <ele>1414.24</ele>
        <time>2013-05-08T14:38:51Z</time>
      </trkpt>
      <trkpt lat="46.75094" lon="6.35376">
        <ele>1414.24</ele>
        <time>2013-05-08T14:38:52Z</time>
      </trkpt>
      <trkpt lat="46.75095" lon="6.35379">
        <ele>1414.24</ele>
        <time>2013-05-08T14:38:53Z</time>
      </trkpt>
      <trkpt lat="46.75094" lon="6.35392">
        <ele>1413.76</ele>
        <time>2013-05-08T14:39:04Z</time>
      </trkpt>
      <trkpt lat="46.75094" lon="6.35396">
        <ele>1413.76</ele>
        <time>2013-05-08T14:39:08Z</time>
      </trkpt>
      <trkpt lat="46.75093" lon="6.35398">
        <ele>1413.76</ele>
        <time>2013-05-08T14:39:09Z</time>
      </trkpt>
      <trkpt lat="46.75092" lon="6.35401">
        <ele>1413.76</ele>
        <time>2013-05-08T14:39:10Z</time>
      </trkpt>
      <trkpt lat="46.75091" lon="6.35403">
        <ele>1413.28</ele>
        <time>2013-05-08T14:39:11Z</time>
      </trkpt>
      <trkpt lat="46.7509" lon="6.35405">
        <ele>1413.28</ele>
        <time>2013-05-08T14:39:12Z</time>
      </trkpt>
      <trkpt lat="46.75082" lon="6.35416">
        <ele>1411.83</ele>
        <time>2013-05-08T14:39:24Z</time>
      </trkpt>
      <trkpt lat="46.75078" lon="6.35421">
        <ele>1411.35</ele>
        <time>2013-05-08T14:39:39Z</time>
      </trkpt>
      <trkpt lat="46.75074" lon="6.35424">
        <ele>1410.87</ele>
        <time>2013-05-08T14:39:40Z</time>
      </trkpt>
      <trkpt lat="46.7507" lon="6.35429">
        <ele>1409.91</ele>
        <time>2013-05-08T14:39:41Z</time>
      </trkpt>
      <trkpt lat="46.7506" lon="6.35443">
        <ele>1406.55</ele>
        <time>2013-05-08T14:39:43Z</time>
      </trkpt>
      <trkpt lat="46.75051" lon="6.35457">
        <ele>1403.18</ele>
        <time>2013-05-08T14:39:45Z</time>
      </trkpt>
      <trkpt lat="46.75043" lon="6.35468">
        <ele>1399.34</ele>
        <time>2013-05-08T14:39:47Z</time>
      </trkpt>
      <trkpt lat="46.75041" lon="6.35472">
        <ele>1397.89</ele>
        <time>2013-05-08T14:39:48Z</time>
      </trkpt>
      <trkpt lat="46.75039" lon="6.35474">
        <ele>1396.93</ele>
        <time>2013-05-08T14:39:49Z</time>
      </trkpt>
      <trkpt lat="46.75033" lon="6.35488">
        <ele>1394.05</ele>
        <time>2013-05-08T14:39:54Z</time>
      </trkpt>
      <trkpt lat="46.75032" lon="6.35494">
        <ele>1393.09</ele>
        <time>2013-05-08T14:39:55Z</time>
      </trkpt>
      <trkpt lat="46.75032" lon="6.35513">
        <ele>1389.24</ele>
        <time>2013-05-08T14:39:58Z</time>
      </trkpt>
      <trkpt lat="46.75031" lon="6.35532">
        <ele>1385.4</ele>
        <time>2013-05-08T14:40:01Z</time>
      </trkpt>
      <trkpt lat="46.75031" lon="6.3554">
        <ele>1383.96</ele>
        <time>2013-05-08T14:40:02Z</time>
      </trkpt>
      <trkpt lat="46.75031" lon="6.35548">
        <ele>1382.03</ele>
        <time>2013-05-08T14:40:03Z</time>
      </trkpt>
      <trkpt lat="46.7503" lon="6.35564">
        <ele>1378.67</ele>
        <time>2013-05-08T14:40:05Z</time>
      </trkpt>
      <trkpt lat="46.7503" lon="6.35578">
        <ele>1375.3</ele>
        <time>2013-05-08T14:40:07Z</time>
      </trkpt>
      <trkpt lat="46.75029" lon="6.35585">
        <ele>1373.86</ele>
        <time>2013-05-08T14:40:08Z</time>
      </trkpt>
      <trkpt lat="46.75028" lon="6.3559">
        <ele>1372.9</ele>
        <time>2013-05-08T14:40:09Z</time>
      </trkpt>
      <trkpt lat="46.75025" lon="6.35595">
        <ele>1371.94</ele>
        <time>2013-05-08T14:40:10Z</time>
      </trkpt>
      <trkpt lat="46.75023" lon="6.35599">
        <ele>1370.98</ele>
        <time>2013-05-08T14:40:11Z</time>
      </trkpt>
      <trkpt lat="46.75008" lon="6.35614">
        <ele>1368.09</ele>
        <time>2013-05-08T14:40:16Z</time>
      </trkpt>
      <trkpt lat="46.74998" lon="6.3562">
        <ele>1365.21</ele>
        <time>2013-05-08T14:40:18Z</time>
      </trkpt>
      <trkpt lat="46.74994" lon="6.35623">
        <ele>1364.73</ele>
        <time>2013-05-08T14:40:19Z</time>
      </trkpt>
      <trkpt lat="46.74991" lon="6.35626">
        <ele>1364.25</ele>
        <time>2013-05-08T14:40:20Z</time>
      </trkpt>
      <trkpt lat="46.74989" lon="6.35629">
        <ele>1363.77</ele>
        <time>2013-05-08T14:40:21Z</time>
      </trkpt>
      <trkpt lat="46.74985" lon="6.35631">
        <ele>1363.29</ele>
        <time>2013-05-08T14:40:22Z</time>
      </trkpt>
      <trkpt lat="46.74982" lon="6.35633">
        <ele>1362.81</ele>
        <time>2013-05-08T14:40:23Z</time>
      </trkpt>
      <trkpt lat="46.74979" lon="6.35634">
        <ele>1362.81</ele>
        <time>2013-05-08T14:40:24Z</time>
      </trkpt>
      <trkpt lat="46.74974" lon="6.3564">
        <ele>1362.33</ele>
        <time>2013-05-08T14:40:26Z</time>
      </trkpt>
      <trkpt lat="46.74972" lon="6.35644">
        <ele>1361.84</ele>
        <time>2013-05-08T14:40:27Z</time>
      </trkpt>
      <trkpt lat="46.7497" lon="6.35647">
        <ele>1361.36</ele>
        <time>2013-05-08T14:40:28Z</time>
      </trkpt>
      <trkpt lat="46.74966" lon="6.35651">
        <ele>1360.88</ele>
        <time>2013-05-08T14:40:29Z</time>
      </trkpt>
      <trkpt lat="46.74963" lon="6.35655">
        <ele>1360.4</ele>
        <time>2013-05-08T14:40:30Z</time>
      </trkpt>
      <trkpt lat="46.74961" lon="6.35659">
        <ele>1360.4</ele>
        <time>2013-05-08T14:40:31Z</time>
      </trkpt>
      <trkpt lat="46.74958" lon="6.35661">
        <ele>1358.96</ele>
        <time>2013-05-08T14:40:32Z</time>
      </trkpt>
      <trkpt lat="46.74955" lon="6.35664">
        <ele>1358.96</ele>
        <time>2013-05-08T14:40:33Z</time>
      </trkpt>
      <trkpt lat="46.74944" lon="6.3567">
        <ele>1355.6</ele>
        <time>2013-05-08T14:40:36Z</time>
      </trkpt>
      <trkpt lat="46.74936" lon="6.35675">
        <ele>1353.67</ele>
        <time>2013-05-08T14:40:38Z</time>
      </trkpt>
      <trkpt lat="46.74932" lon="6.35678">
        <ele>1352.71</ele>
        <time>2013-05-08T14:40:39Z</time>
      </trkpt>
      <trkpt lat="46.74927" lon="6.35681">
        <ele>1350.31</ele>
        <time>2013-05-08T14:40:40Z</time>
      </trkpt>
      <trkpt lat="46.74917" lon="6.35686">
        <ele>1347.91</ele>
        <time>2013-05-08T14:40:42Z</time>
      </trkpt>
      <trkpt lat="46.74913" lon="6.35689">
        <ele>1346.94</ele>
        <time>2013-05-08T14:40:43Z</time>
      </trkpt>
      <trkpt lat="46.74907" lon="6.35694">
        <ele>1345.5</ele>
        <time>2013-05-08T14:40:44Z</time>
      </trkpt>
      <trkpt lat="46.74893" lon="6.35703">
        <ele>1342.14</ele>
        <time>2013-05-08T14:40:46Z</time>
      </trkpt>
      <trkpt lat="46.74878" lon="6.35714">
        <ele>1341.18</ele>
        <time>2013-05-08T14:40:48Z</time>
      </trkpt>
      <trkpt lat="46.74846" lon="6.35745">
        <ele>1341.18</ele>
        <time>2013-05-08T14:40:54Z</time>
      </trkpt>
      <trkpt lat="46.74842" lon="6.35746">
        <ele>1339.73</ele>
        <time>2013-05-08T14:40:55Z</time>
      </trkpt>
      <trkpt lat="46.74817" lon="6.35757">
        <ele>1343.1</ele>
        <time>2013-05-08T14:41:04Z</time>
      </trkpt>
      <trkpt lat="46.74794" lon="6.35777">
        <ele>1345.02</ele>
        <time>2013-05-08T14:41:15Z</time>
      </trkpt>
      <trkpt lat="46.74788" lon="6.35785">
        <ele>1345.02</ele>
        <time>2013-05-08T14:41:18Z</time>
      </trkpt>
      <trkpt lat="46.74765" lon="6.35793">
        <ele>1346.94</ele>
        <time>2013-05-08T14:41:29Z</time>
      </trkpt>
      <trkpt lat="46.74754" lon="6.35799">
        <ele>1348.39</ele>
        <time>2013-05-08T14:41:35Z</time>
      </trkpt>
      <trkpt lat="46.74753" lon="6.35801">
        <ele>1348.39</ele>
        <time>2013-05-08T14:41:36Z</time>
      </trkpt>
      <trkpt lat="46.74752" lon="6.35802">
        <ele>1348.39</ele>
        <time>2013-05-08T14:41:37Z</time>
      </trkpt>
      <trkpt lat="46.7475" lon="6.35804">
        <ele>1347.91</ele>
        <time>2013-05-08T14:41:38Z</time>
      </trkpt>
      <trkpt lat="46.74748" lon="6.35806">
        <ele>1347.91</ele>
        <time>2013-05-08T14:41:39Z</time>
      </trkpt>
      <trkpt lat="46.74744" lon="6.35812">
        <ele>1347.43</ele>
        <time>2013-05-08T14:41:50Z</time>
      </trkpt>
      <trkpt lat="46.74745" lon="6.35812">
        <ele>1347.43</ele>
        <time>2013-05-08T14:42:11Z</time>
      </trkpt>
      <trkpt lat="46.7474" lon="6.35821">
        <ele>1347.43</ele>
        <time>2013-05-08T14:42:32Z</time>
      </trkpt>
      <trkpt lat="46.7474" lon="6.35821">
        <ele>1347.43</ele>
        <time>2013-05-08T14:42:48Z</time>
      </trkpt>
      <trkpt lat="46.7474" lon="6.35821">
        <ele>1347.43</ele>
        <time>2013-05-08T14:43:06Z</time>
      </trkpt>
      <trkpt lat="46.7474" lon="6.35821">
        <ele>1347.43</ele>
        <time>2013-05-08T14:43:30Z</time>
      </trkpt>
      <trkpt lat="46.7474" lon="6.35821">
        <ele>1347.43</ele>
        <time>2013-05-08T14:43:50Z</time>
      </trkpt>
      <trkpt lat="46.74735" lon="6.35834">
        <ele>1347.43</ele>
        <time>2013-05-08T14:44:07Z</time>
      </trkpt>
      <trkpt lat="46.74735" lon="6.35836">
        <ele>1347.43</ele>
        <time>2013-05-08T14:44:08Z</time>
      </trkpt>
      <trkpt lat="46.74734" lon="6.35838">
        <ele>1347.43</ele>
        <time>2013-05-08T14:44:09Z</time>
      </trkpt>
      <trkpt lat="46.74734" lon="6.35842">
        <ele>1347.43</ele>
        <time>2013-05-08T14:44:10Z</time>
      </trkpt>
      <trkpt lat="46.74733" lon="6.35845">
        <ele>1347.43</ele>
        <time>2013-05-08T14:44:11Z</time>
      </trkpt>
      <trkpt lat="46.74732" lon="6.35848">
        <ele>1347.43</ele>
        <time>2013-05-08T14:44:12Z</time>
      </trkpt>
      <trkpt lat="46.74731" lon="6.35851">
        <ele>1347.43</ele>
        <time>2013-05-08T14:44:13Z</time>
      </trkpt>
      <trkpt lat="46.74731" lon="6.35855">
        <ele>1347.43</ele>
        <time>2013-05-08T14:44:15Z</time>
      </trkpt>
      <trkpt lat="46.7473" lon="6.35856">
        <ele>1347.43</ele>
        <time>2013-05-08T14:44:16Z</time>
      </trkpt>
      <trkpt lat="46.74729" lon="6.35858">
        <ele>1346.94</ele>
        <time>2013-05-08T14:44:17Z</time>
      </trkpt>
      <trkpt lat="46.74729" lon="6.35859">
        <ele>1347.43</ele>
        <time>2013-05-08T14:44:18Z</time>
      </trkpt>
      <trkpt lat="46.74728" lon="6.35861">
        <ele>1347.43</ele>
        <time>2013-05-08T14:44:19Z</time>
      </trkpt>
      <trkpt lat="46.74727" lon="6.35864">
        <ele>1347.43</ele>
        <time>2013-05-08T14:44:20Z</time>
      </trkpt>
      <trkpt lat="46.74725" lon="6.35866">
        <ele>1347.91</ele>
        <time>2013-05-08T14:44:21Z</time>
      </trkpt>
      <trkpt lat="46.74723" lon="6.35868">
        <ele>1348.39</ele>
        <time>2013-05-08T14:44:22Z</time>
      </trkpt>
      <trkpt lat="46.7472" lon="6.3587">
        <ele>1348.39</ele>
        <time>2013-05-08T14:44:23Z</time>
      </trkpt>
      <trkpt lat="46.74718" lon="6.35871">
        <ele>1348.87</ele>
        <time>2013-05-08T14:44:24Z</time>
      </trkpt>
      <trkpt lat="46.74715" lon="6.35872">
        <ele>1348.87</ele>
        <time>2013-05-08T14:44:25Z</time>
      </trkpt>
      <trkpt lat="46.74712" lon="6.35874">
        <ele>1349.35</ele>
        <time>2013-05-08T14:44:26Z</time>
      </trkpt>
      <trkpt lat="46.7471" lon="6.35874">
        <ele>1349.83</ele>
        <time>2013-05-08T14:44:27Z</time>
      </trkpt>
      <trkpt lat="46.74708" lon="6.35873">
        <ele>1350.31</ele>
        <time>2013-05-08T14:44:28Z</time>
      </trkpt>
      <trkpt lat="46.74706" lon="6.35874">
        <ele>1350.79</ele>
        <time>2013-05-08T14:44:29Z</time>
      </trkpt>
      <trkpt lat="46.74704" lon="6.35874">
        <ele>1351.27</ele>
        <time>2013-05-08T14:44:30Z</time>
      </trkpt>
      <trkpt lat="46.74703" lon="6.35875">
        <ele>1351.27</ele>
        <time>2013-05-08T14:44:31Z</time>
      </trkpt>
      <trkpt lat="46.74701" lon="6.35876">
        <ele>1351.27</ele>
        <time>2013-05-08T14:44:32Z</time>
      </trkpt>
      <trkpt lat="46.74686" lon="6.35883">
        <ele>1353.19</ele>
        <time>2013-05-08T14:44:40Z</time>
      </trkpt>
      <trkpt lat="46.74676" lon="6.35887">
        <ele>1355.12</ele>
        <time>2013-05-08T14:44:46Z</time>
      </trkpt>
      <trkpt lat="46.74674" lon="6.35887">
        <ele>1355.6</ele>
        <time>2013-05-08T14:44:47Z</time>
      </trkpt>
      <trkpt lat="46.74654" lon="6.35882">
        <ele>1358.48</ele>
        <time>2013-05-08T14:44:59Z</time>
      </trkpt>
      <trkpt lat="46.74638" lon="6.35875">
        <ele>1360.88</ele>
        <time>2013-05-08T14:45:11Z</time>
      </trkpt>
      <trkpt lat="46.74637" lon="6.35875">
        <ele>1361.36</ele>
        <time>2013-05-08T14:45:12Z</time>
      </trkpt>
      <trkpt lat="46.74631" lon="6.35873">
        <ele>1362.33</ele>
        <time>2013-05-08T14:45:16Z</time>
      </trkpt>
      <trkpt lat="46.7463" lon="6.35874">
        <ele>1362.33</ele>
        <time>2013-05-08T14:45:17Z</time>
      </trkpt>
      <trkpt lat="46.74628" lon="6.35875">
        <ele>1362.81</ele>
        <time>2013-05-08T14:45:18Z</time>
      </trkpt>
      <trkpt lat="46.74622" lon="6.35876">
        <ele>1364.25</ele>
        <time>2013-05-08T14:45:23Z</time>
      </trkpt>
      <trkpt lat="46.74621" lon="6.35877">
        <ele>1364.73</ele>
        <time>2013-05-08T14:45:24Z</time>
      </trkpt>
      <trkpt lat="46.7462" lon="6.35878">
        <ele>1364.73</ele>
        <time>2013-05-08T14:45:25Z</time>
      </trkpt>
      <trkpt lat="46.74619" lon="6.35879">
        <ele>1364.73</ele>
        <time>2013-05-08T14:45:26Z</time>
      </trkpt>
      <trkpt lat="46.7461" lon="6.35883">
        <ele>1366.65</ele>
        <time>2013-05-08T14:45:35Z</time>
      </trkpt>
      <trkpt lat="46.74609" lon="6.35882">
        <ele>1366.65</ele>
        <time>2013-05-08T14:45:36Z</time>
      </trkpt>
      <trkpt lat="46.74597" lon="6.35888">
        <ele>1367.13</ele>
        <time>2013-05-08T14:45:44Z</time>
      </trkpt>
      <trkpt lat="46.74596" lon="6.35888">
        <ele>1367.13</ele>
        <time>2013-05-08T14:45:45Z</time>
      </trkpt>
      <trkpt lat="46.74588" lon="6.35888">
        <ele>1368.57</ele>
        <time>2013-05-08T14:45:54Z</time>
      </trkpt>
      <trkpt lat="46.74587" lon="6.35886">
        <ele>1368.57</ele>
        <time>2013-05-08T14:45:55Z</time>
      </trkpt>
      <trkpt lat="46.74586" lon="6.35884">
        <ele>1369.05</ele>
        <time>2013-05-08T14:45:56Z</time>
      </trkpt>
      <trkpt lat="46.74585" lon="6.35883">
        <ele>1369.05</ele>
        <time>2013-05-08T14:45:57Z</time>
      </trkpt>
      <trkpt lat="46.74584" lon="6.35881">
        <ele>1369.54</ele>
        <time>2013-05-08T14:45:58Z</time>
      </trkpt>
      <trkpt lat="46.74582" lon="6.35877">
        <ele>1370.5</ele>
        <time>2013-05-08T14:46:01Z</time>
      </trkpt>
      <trkpt lat="46.74581" lon="6.35875">
        <ele>1370.5</ele>
        <time>2013-05-08T14:46:02Z</time>
      </trkpt>
      <trkpt lat="46.7458" lon="6.35873">
        <ele>1370.5</ele>
        <time>2013-05-08T14:46:03Z</time>
      </trkpt>
      <trkpt lat="46.74579" lon="6.35871">
        <ele>1370.98</ele>
        <time>2013-05-08T14:46:04Z</time>
      </trkpt>
      <trkpt lat="46.74578" lon="6.3587">
        <ele>1371.46</ele>
        <time>2013-05-08T14:46:05Z</time>
      </trkpt>
      <trkpt lat="46.74576" lon="6.35868">
        <ele>1371.46</ele>
        <time>2013-05-08T14:46:06Z</time>
      </trkpt>
      <trkpt lat="46.74575" lon="6.35867">
        <ele>1371.94</ele>
        <time>2013-05-08T14:46:07Z</time>
      </trkpt>
      <trkpt lat="46.74574" lon="6.35865">
        <ele>1372.42</ele>
        <time>2013-05-08T14:46:08Z</time>
      </trkpt>
      <trkpt lat="46.74572" lon="6.35863">
        <ele>1372.42</ele>
        <time>2013-05-08T14:46:09Z</time>
      </trkpt>
      <trkpt lat="46.7457" lon="6.35861">
        <ele>1372.9</ele>
        <time>2013-05-08T14:46:10Z</time>
      </trkpt>
      <trkpt lat="46.74548" lon="6.35857">
        <ele>1373.86</ele>
        <time>2013-05-08T14:46:22Z</time>
      </trkpt>
      <trkpt lat="46.74544" lon="6.35856">
        <ele>1374.34</ele>
        <time>2013-05-08T14:46:25Z</time>
      </trkpt>
      <trkpt lat="46.74543" lon="6.35856">
        <ele>1374.82</ele>
        <time>2013-05-08T14:46:26Z</time>
      </trkpt>
      <trkpt lat="46.74542" lon="6.35854">
        <ele>1374.82</ele>
        <time>2013-05-08T14:46:27Z</time>
      </trkpt>
      <trkpt lat="46.74539" lon="6.3585">
        <ele>1375.78</ele>
        <time>2013-05-08T14:46:30Z</time>
      </trkpt>
      <trkpt lat="46.74537" lon="6.35847">
        <ele>1375.78</ele>
        <time>2013-05-08T14:46:31Z</time>
      </trkpt>
      <trkpt lat="46.74536" lon="6.35845">
        <ele>1376.26</ele>
        <time>2013-05-08T14:46:32Z</time>
      </trkpt>
      <trkpt lat="46.74519" lon="6.35832">
        <ele>1379.15</ele>
        <time>2013-05-08T14:46:42Z</time>
      </trkpt>
      <trkpt lat="46.74519" lon="6.3583">
        <ele>1379.63</ele>
        <time>2013-05-08T14:46:43Z</time>
      </trkpt>
      <trkpt lat="46.74517" lon="6.35827">
        <ele>1380.59</ele>
        <time>2013-05-08T14:46:45Z</time>
      </trkpt>
      <trkpt lat="46.74512" lon="6.3582">
        <ele>1382.03</ele>
        <time>2013-05-08T14:46:52Z</time>
      </trkpt>
      <trkpt lat="46.74505" lon="6.35812">
        <ele>1383.47</ele>
        <time>2013-05-08T14:47:05Z</time>
      </trkpt>
      <trkpt lat="46.74504" lon="6.35813">
        <ele>1383.47</ele>
        <time>2013-05-08T14:47:07Z</time>
      </trkpt>
      <trkpt lat="46.74503" lon="6.35814">
        <ele>1383.47</ele>
        <time>2013-05-08T14:47:08Z</time>
      </trkpt>
      <trkpt lat="46.74502" lon="6.35816">
        <ele>1383.47</ele>
        <time>2013-05-08T14:47:09Z</time>
      </trkpt>
      <trkpt lat="46.74501" lon="6.35817">
        <ele>1383.47</ele>
        <time>2013-05-08T14:47:10Z</time>
      </trkpt>
      <trkpt lat="46.745" lon="6.35819">
        <ele>1383.96</ele>
        <time>2013-05-08T14:47:11Z</time>
      </trkpt>
      <trkpt lat="46.74493" lon="6.35833">
        <ele>1386.36</ele>
        <time>2013-05-08T14:47:20Z</time>
      </trkpt>
      <trkpt lat="46.74491" lon="6.35833">
        <ele>1386.84</ele>
        <time>2013-05-08T14:47:21Z</time>
      </trkpt>
      <trkpt lat="46.7449" lon="6.35832">
        <ele>1386.84</ele>
        <time>2013-05-08T14:47:22Z</time>
      </trkpt>
      <trkpt lat="46.74463" lon="6.3581">
        <ele>1386.84</ele>
        <time>2013-05-08T14:47:36Z</time>
      </trkpt>
      <trkpt lat="46.74442" lon="6.35796">
        <ele>1389.72</ele>
        <time>2013-05-08T14:47:47Z</time>
      </trkpt>
      <trkpt lat="46.74435" lon="6.35793">
        <ele>1390.2</ele>
        <time>2013-05-08T14:47:51Z</time>
      </trkpt>
      <trkpt lat="46.74428" lon="6.35789">
        <ele>1391.17</ele>
        <time>2013-05-08T14:47:55Z</time>
      </trkpt>
      <trkpt lat="46.74427" lon="6.35788">
        <ele>1391.65</ele>
        <time>2013-05-08T14:47:56Z</time>
      </trkpt>
      <trkpt lat="46.74426" lon="6.35787">
        <ele>1392.13</ele>
        <time>2013-05-08T14:47:57Z</time>
      </trkpt>
      <trkpt lat="46.74395" lon="6.35765">
        <ele>1394.05</ele>
        <time>2013-05-08T14:48:11Z</time>
      </trkpt>
      <trkpt lat="46.7437" lon="6.35744">
        <ele>1393.57</ele>
        <time>2013-05-08T14:48:19Z</time>
      </trkpt>
      <trkpt lat="46.74366" lon="6.35745">
        <ele>1393.57</ele>
        <time>2013-05-08T14:48:20Z</time>
      </trkpt>
      <trkpt lat="46.74358" lon="6.35751">
        <ele>1392.13</ele>
        <time>2013-05-08T14:48:22Z</time>
      </trkpt>
      <trkpt lat="46.74352" lon="6.35751">
        <ele>1391.17</ele>
        <time>2013-05-08T14:48:23Z</time>
      </trkpt>
      <trkpt lat="46.74348" lon="6.35747">
        <ele>1389.72</ele>
        <time>2013-05-08T14:48:24Z</time>
      </trkpt>
      <trkpt lat="46.74343" lon="6.35744">
        <ele>1389.72</ele>
        <time>2013-05-08T14:48:25Z</time>
      </trkpt>
      <trkpt lat="46.74339" lon="6.3574">
        <ele>1389.24</ele>
        <time>2013-05-08T14:48:26Z</time>
      </trkpt>
      <trkpt lat="46.74331" lon="6.35732">
        <ele>1389.72</ele>
        <time>2013-05-08T14:48:28Z</time>
      </trkpt>
      <trkpt lat="46.74328" lon="6.35729">
        <ele>1390.2</ele>
        <time>2013-05-08T14:48:29Z</time>
      </trkpt>
      <trkpt lat="46.74325" lon="6.35726">
        <ele>1390.68</ele>
        <time>2013-05-08T14:48:30Z</time>
      </trkpt>
      <trkpt lat="46.74323" lon="6.35723">
        <ele>1391.17</ele>
        <time>2013-05-08T14:48:31Z</time>
      </trkpt>
      <trkpt lat="46.74321" lon="6.3572">
        <ele>1391.65</ele>
        <time>2013-05-08T14:48:32Z</time>
      </trkpt>
      <trkpt lat="46.74319" lon="6.35718">
        <ele>1391.65</ele>
        <time>2013-05-08T14:48:33Z</time>
      </trkpt>
      <trkpt lat="46.74296" lon="6.35695">
        <ele>1394.53</ele>
        <time>2013-05-08T14:48:43Z</time>
      </trkpt>
      <trkpt lat="46.74273" lon="6.35637">
        <ele>1395.49</ele>
        <time>2013-05-08T14:48:55Z</time>
      </trkpt>
      <trkpt lat="46.7427" lon="6.35634">
        <ele>1395.97</ele>
        <time>2013-05-08T14:48:56Z</time>
      </trkpt>
      <trkpt lat="46.74267" lon="6.35631">
        <ele>1396.93</ele>
        <time>2013-05-08T14:48:57Z</time>
      </trkpt>
      <trkpt lat="46.74254" lon="6.35615">
        <ele>1399.82</ele>
        <time>2013-05-08T14:49:04Z</time>
      </trkpt>
      <trkpt lat="46.74223" lon="6.35607">
        <ele>1401.26</ele>
        <time>2013-05-08T14:49:17Z</time>
      </trkpt>
      <trkpt lat="46.7421" lon="6.35612">
        <ele>1400.78</ele>
        <time>2013-05-08T14:49:21Z</time>
      </trkpt>
      <trkpt lat="46.74191" lon="6.35616">
        <ele>1399.82</ele>
        <time>2013-05-08T14:49:25Z</time>
      </trkpt>
      <trkpt lat="46.74186" lon="6.35615">
        <ele>1399.34</ele>
        <time>2013-05-08T14:49:26Z</time>
      </trkpt>
      <trkpt lat="46.74182" lon="6.35614">
        <ele>1399.82</ele>
        <time>2013-05-08T14:49:27Z</time>
      </trkpt>
      <trkpt lat="46.74178" lon="6.35611">
        <ele>1399.82</ele>
        <time>2013-05-08T14:49:28Z</time>
      </trkpt>
      <trkpt lat="46.74176" lon="6.35608">
        <ele>1400.78</ele>
        <time>2013-05-08T14:49:29Z</time>
      </trkpt>
      <trkpt lat="46.74174" lon="6.35606">
        <ele>1400.78</ele>
        <time>2013-05-08T14:49:30Z</time>
      </trkpt>
      <trkpt lat="46.7415" lon="6.35583">
        <ele>1404.14</ele>
        <time>2013-05-08T14:49:40Z</time>
      </trkpt>
      <trkpt lat="46.74122" lon="6.35559">
        <ele>1407.99</ele>
        <time>2013-05-08T14:49:52Z</time>
      </trkpt>
      <trkpt lat="46.74107" lon="6.35551">
        <ele>1405.58</ele>
        <time>2013-05-08T14:49:56Z</time>
      </trkpt>
      <trkpt lat="46.74102" lon="6.35549">
        <ele>1405.58</ele>
        <time>2013-05-08T14:49:57Z</time>
      </trkpt>
      <trkpt lat="46.74088" lon="6.35547">
        <ele>1405.58</ele>
        <time>2013-05-08T14:50:00Z</time>
      </trkpt>
      <trkpt lat="46.74084" lon="6.35545">
        <ele>1405.1</ele>
        <time>2013-05-08T14:50:01Z</time>
      </trkpt>
      <trkpt lat="46.74067" lon="6.35538">
        <ele>1404.14</ele>
        <time>2013-05-08T14:50:04Z</time>
      </trkpt>
      <trkpt lat="46.74038" lon="6.35538">
        <ele>1407.51</ele>
        <time>2013-05-08T14:50:12Z</time>
      </trkpt>
      <trkpt lat="46.74009" lon="6.35542">
        <ele>1410.39</ele>
        <time>2013-05-08T14:50:23Z</time>
      </trkpt>
      <trkpt lat="46.73974" lon="6.35527">
        <ele>1410.87</ele>
        <time>2013-05-08T14:50:35Z</time>
      </trkpt>
      <trkpt lat="46.73915" lon="6.3546">
        <ele>1408.95</ele>
        <time>2013-05-08T14:50:49Z</time>
      </trkpt>
      <trkpt lat="46.73907" lon="6.3545">
        <ele>1408.95</ele>
        <time>2013-05-08T14:50:51Z</time>
      </trkpt>
      <trkpt lat="46.73903" lon="6.35447">
        <ele>1409.43</ele>
        <time>2013-05-08T14:50:52Z</time>
      </trkpt>
      <trkpt lat="46.73899" lon="6.35446">
        <ele>1409.91</ele>
        <time>2013-05-08T14:50:53Z</time>
      </trkpt>
      <trkpt lat="46.73897" lon="6.35447">
        <ele>1410.87</ele>
        <time>2013-05-08T14:50:54Z</time>
      </trkpt>
      <trkpt lat="46.73895" lon="6.35448">
        <ele>1411.35</ele>
        <time>2013-05-08T14:50:55Z</time>
      </trkpt>
      <trkpt lat="46.73893" lon="6.35448">
        <ele>1411.35</ele>
        <time>2013-05-08T14:50:56Z</time>
      </trkpt>
      <trkpt lat="46.73889" lon="6.3545">
        <ele>1412.79</ele>
        <time>2013-05-08T14:51:05Z</time>
      </trkpt>
      <trkpt lat="46.73878" lon="6.35455">
        <ele>1415.2</ele>
        <time>2013-05-08T14:51:17Z</time>
      </trkpt>
      <trkpt lat="46.73866" lon="6.35455">
        <ele>1417.12</ele>
        <time>2013-05-08T14:51:30Z</time>
      </trkpt>
      <trkpt lat="46.73851" lon="6.35451">
        <ele>1417.6</ele>
        <time>2013-05-08T14:51:42Z</time>
      </trkpt>
      <trkpt lat="46.73825" lon="6.35448">
        <ele>1419.52</ele>
        <time>2013-05-08T14:51:56Z</time>
      </trkpt>
      <trkpt lat="46.73797" lon="6.35444">
        <ele>1420.97</ele>
        <time>2013-05-08T14:52:11Z</time>
      </trkpt>
      <trkpt lat="46.73793" lon="6.35443">
        <ele>1420.97</ele>
        <time>2013-05-08T14:52:14Z</time>
      </trkpt>
      <trkpt lat="46.73791" lon="6.35443">
        <ele>1421.45</ele>
        <time>2013-05-08T14:52:15Z</time>
      </trkpt>
      <trkpt lat="46.73789" lon="6.35443">
        <ele>1421.45</ele>
        <time>2013-05-08T14:52:16Z</time>
      </trkpt>
      <trkpt lat="46.73788" lon="6.35444">
        <ele>1421.45</ele>
        <time>2013-05-08T14:52:17Z</time>
      </trkpt>
      <trkpt lat="46.73787" lon="6.35445">
        <ele>1421.45</ele>
        <time>2013-05-08T14:52:18Z</time>
      </trkpt>
      <trkpt lat="46.73785" lon="6.35444">
        <ele>1421.93</ele>
        <time>2013-05-08T14:52:19Z</time>
      </trkpt>
      <trkpt lat="46.73784" lon="6.35444">
        <ele>1421.93</ele>
        <time>2013-05-08T14:52:20Z</time>
      </trkpt>
      <trkpt lat="46.73782" lon="6.35444">
        <ele>1421.93</ele>
        <time>2013-05-08T14:52:21Z</time>
      </trkpt>
      <trkpt lat="46.73781" lon="6.35444">
        <ele>1421.93</ele>
        <time>2013-05-08T14:52:22Z</time>
      </trkpt>
      <trkpt lat="46.73779" lon="6.35445">
        <ele>1421.93</ele>
        <time>2013-05-08T14:52:23Z</time>
      </trkpt>
      <trkpt lat="46.73778" lon="6.35445">
        <ele>1422.41</ele>
        <time>2013-05-08T14:52:24Z</time>
      </trkpt>
      <trkpt lat="46.73776" lon="6.35446">
        <ele>1422.41</ele>
        <time>2013-05-08T14:52:25Z</time>
      </trkpt>
      <trkpt lat="46.73744" lon="6.35452">
        <ele>1424.33</ele>
        <time>2013-05-08T14:52:40Z</time>
      </trkpt>
      <trkpt lat="46.73708" lon="6.35428">
        <ele>1424.33</ele>
        <time>2013-05-08T14:52:55Z</time>
      </trkpt>
      <trkpt lat="46.73702" lon="6.35419">
        <ele>1423.37</ele>
        <time>2013-05-08T14:52:57Z</time>
      </trkpt>
      <trkpt lat="46.73698" lon="6.35414">
        <ele>1422.41</ele>
        <time>2013-05-08T14:52:58Z</time>
      </trkpt>
      <trkpt lat="46.73693" lon="6.35409">
        <ele>1421.93</ele>
        <time>2013-05-08T14:52:59Z</time>
      </trkpt>
      <trkpt lat="46.73688" lon="6.35404">
        <ele>1420.97</ele>
        <time>2013-05-08T14:53:00Z</time>
      </trkpt>
      <trkpt lat="46.73682" lon="6.354">
        <ele>1420.49</ele>
        <time>2013-05-08T14:53:01Z</time>
      </trkpt>
      <trkpt lat="46.73675" lon="6.35397">
        <ele>1420</ele>
        <time>2013-05-08T14:53:02Z</time>
      </trkpt>
      <trkpt lat="46.73668" lon="6.35395">
        <ele>1419.52</ele>
        <time>2013-05-08T14:53:03Z</time>
      </trkpt>
      <trkpt lat="46.73661" lon="6.35395">
        <ele>1419.52</ele>
        <time>2013-05-08T14:53:04Z</time>
      </trkpt>
      <trkpt lat="46.73649" lon="6.35393">
        <ele>1419.52</ele>
        <time>2013-05-08T14:53:06Z</time>
      </trkpt>
      <trkpt lat="46.73643" lon="6.3539">
        <ele>1419.52</ele>
        <time>2013-05-08T14:53:07Z</time>
      </trkpt>
      <trkpt lat="46.73638" lon="6.35387">
        <ele>1419.52</ele>
        <time>2013-05-08T14:53:08Z</time>
      </trkpt>
      <trkpt lat="46.73616" lon="6.35364">
        <ele>1420</ele>
        <time>2013-05-08T14:53:17Z</time>
      </trkpt>
      <trkpt lat="46.73591" lon="6.35347">
        <ele>1418.56</ele>
        <time>2013-05-08T14:53:27Z</time>
      </trkpt>
      <trkpt lat="46.73562" lon="6.35332">
        <ele>1416.16</ele>
        <time>2013-05-08T14:53:38Z</time>
      </trkpt>
      <trkpt lat="46.7356" lon="6.35333">
        <ele>1416.16</ele>
        <time>2013-05-08T14:53:39Z</time>
      </trkpt>
      <trkpt lat="46.73558" lon="6.35334">
        <ele>1416.16</ele>
        <time>2013-05-08T14:53:40Z</time>
      </trkpt>
      <trkpt lat="46.73557" lon="6.35336">
        <ele>1416.16</ele>
        <time>2013-05-08T14:53:41Z</time>
      </trkpt>
      <trkpt lat="46.73556" lon="6.35338">
        <ele>1416.16</ele>
        <time>2013-05-08T14:53:42Z</time>
      </trkpt>
      <trkpt lat="46.73555" lon="6.3534">
        <ele>1416.16</ele>
        <time>2013-05-08T14:53:43Z</time>
      </trkpt>
      <trkpt lat="46.73555" lon="6.35343">
        <ele>1416.16</ele>
        <time>2013-05-08T14:53:44Z</time>
      </trkpt>
      <trkpt lat="46.73555" lon="6.35344">
        <ele>1416.16</ele>
        <time>2013-05-08T14:53:59Z</time>
      </trkpt>
      <trkpt lat="46.73555" lon="6.35344">
        <ele>1416.16</ele>
        <time>2013-05-08T14:54:25Z</time>
      </trkpt>
      <trkpt lat="46.73555" lon="6.35344">
        <ele>1416.16</ele>
        <time>2013-05-08T14:54:39Z</time>
      </trkpt>
      <trkpt lat="46.73555" lon="6.35344">
        <ele>1416.64</ele>
        <time>2013-05-08T14:54:55Z</time>
      </trkpt>
      <trkpt lat="46.73555" lon="6.35344">
        <ele>1416.64</ele>
        <time>2013-05-08T14:55:19Z</time>
      </trkpt>
      <trkpt lat="46.73555" lon="6.35344">
        <ele>1416.64</ele>
        <time>2013-05-08T14:55:45Z</time>
      </trkpt>
      <trkpt lat="46.73555" lon="6.35344">
        <ele>1417.12</ele>
        <time>2013-05-08T14:56:11Z</time>
      </trkpt>
      <trkpt lat="46.73552" lon="6.3535">
        <ele>1417.12</ele>
        <time>2013-05-08T14:56:34Z</time>
      </trkpt>
      <trkpt lat="46.73549" lon="6.35352">
        <ele>1415.68</ele>
        <time>2013-05-08T14:56:49Z</time>
      </trkpt>
      <trkpt lat="46.73549" lon="6.35352">
        <ele>1420</ele>
        <time>2013-05-08T14:56:50Z</time>
      </trkpt>
      <trkpt lat="46.73549" lon="6.35352">
        <ele>1417.6</ele>
        <time>2013-05-08T14:56:51Z</time>
      </trkpt>
      <trkpt lat="46.73549" lon="6.35352">
        <ele>1417.6</ele>
        <time>2013-05-08T14:57:07Z</time>
      </trkpt>
      <trkpt lat="46.73548" lon="6.35354">
        <ele>1417.12</ele>
        <time>2013-05-08T14:57:20Z</time>
      </trkpt>
      <trkpt lat="46.73548" lon="6.35354">
        <ele>1417.12</ele>
        <time>2013-05-08T14:57:30Z</time>
      </trkpt>
      <trkpt lat="46.73548" lon="6.35355">
        <ele>1417.12</ele>
        <time>2013-05-08T14:57:33Z</time>
      </trkpt>
      <trkpt lat="46.73547" lon="6.35358">
        <ele>1417.6</ele>
        <time>2013-05-08T14:57:36Z</time>
      </trkpt>
      <trkpt lat="46.73544" lon="6.35361">
        <ele>1417.6</ele>
        <time>2013-05-08T14:57:47Z</time>
      </trkpt>
      <trkpt lat="46.73539" lon="6.35366">
        <ele>1418.56</ele>
        <time>2013-05-08T14:57:53Z</time>
      </trkpt>
      <trkpt lat="46.73538" lon="6.35367">
        <ele>1418.08</ele>
        <time>2013-05-08T14:57:54Z</time>
      </trkpt>
      <trkpt lat="46.73537" lon="6.35367">
        <ele>1418.08</ele>
        <time>2013-05-08T14:57:55Z</time>
      </trkpt>
      <trkpt lat="46.73527" lon="6.35374">
        <ele>1418.56</ele>
        <time>2013-05-08T14:58:06Z</time>
      </trkpt>
      <trkpt lat="46.73519" lon="6.35386">
        <ele>1420</ele>
        <time>2013-05-08T14:58:18Z</time>
      </trkpt>
      <trkpt lat="46.73517" lon="6.35393">
        <ele>1420.49</ele>
        <time>2013-05-08T14:58:26Z</time>
      </trkpt>
      <trkpt lat="46.73514" lon="6.35409">
        <ele>1420.97</ele>
        <time>2013-05-08T14:58:37Z</time>
      </trkpt>
      <trkpt lat="46.73512" lon="6.35415">
        <ele>1421.45</ele>
        <time>2013-05-08T14:58:41Z</time>
      </trkpt>
      <trkpt lat="46.73508" lon="6.35431">
        <ele>1423.37</ele>
        <time>2013-05-08T14:58:53Z</time>
      </trkpt>
      <trkpt lat="46.73508" lon="6.35435">
        <ele>1423.37</ele>
        <time>2013-05-08T14:58:56Z</time>
      </trkpt>
      <trkpt lat="46.73505" lon="6.35443">
        <ele>1425.29</ele>
        <time>2013-05-08T14:59:05Z</time>
      </trkpt>
      <trkpt lat="46.73504" lon="6.35444">
        <ele>1425.29</ele>
        <time>2013-05-08T14:59:06Z</time>
      </trkpt>
      <trkpt lat="46.73504" lon="6.35445">
        <ele>1425.29</ele>
        <time>2013-05-08T14:59:07Z</time>
      </trkpt>
      <trkpt lat="46.73502" lon="6.35447">
        <ele>1425.77</ele>
        <time>2013-05-08T14:59:09Z</time>
      </trkpt>
      <trkpt lat="46.73501" lon="6.35448">
        <ele>1426.25</ele>
        <time>2013-05-08T14:59:11Z</time>
      </trkpt>
      <trkpt lat="46.735" lon="6.3545">
        <ele>1426.25</ele>
        <time>2013-05-08T14:59:12Z</time>
      </trkpt>
      <trkpt lat="46.73498" lon="6.35457">
        <ele>1427.7</ele>
        <time>2013-05-08T14:59:19Z</time>
      </trkpt>
      <trkpt lat="46.73493" lon="6.35464">
        <ele>1428.66</ele>
        <time>2013-05-08T14:59:30Z</time>
      </trkpt>
      <trkpt lat="46.73492" lon="6.35463">
        <ele>1428.66</ele>
        <time>2013-05-08T14:59:44Z</time>
      </trkpt>
      <trkpt lat="46.7349" lon="6.35463">
        <ele>1429.14</ele>
        <time>2013-05-08T14:59:58Z</time>
      </trkpt>
      <trkpt lat="46.7349" lon="6.35463">
        <ele>1429.14</ele>
        <time>2013-05-08T15:00:20Z</time>
      </trkpt>
      <trkpt lat="46.73493" lon="6.35465">
        <ele>1428.66</ele>
        <time>2013-05-08T15:00:35Z</time>
      </trkpt>
      <trkpt lat="46.73498" lon="6.3548">
        <ele>1431.54</ele>
        <time>2013-05-08T15:00:50Z</time>
      </trkpt>
      <trkpt lat="46.73499" lon="6.35482">
        <ele>1431.54</ele>
        <time>2013-05-08T15:01:07Z</time>
      </trkpt>
      <trkpt lat="46.73499" lon="6.35482">
        <ele>1431.54</ele>
        <time>2013-05-08T15:01:30Z</time>
      </trkpt>
      <trkpt lat="46.73498" lon="6.3548">
        <ele>1431.54</ele>
        <time>2013-05-08T15:01:51Z</time>
      </trkpt>
      <trkpt lat="46.73497" lon="6.35468">
        <ele>1429.14</ele>
        <time>2013-05-08T15:02:05Z</time>
      </trkpt>
      <trkpt lat="46.73498" lon="6.35461">
        <ele>1428.18</ele>
        <time>2013-05-08T15:02:11Z</time>
      </trkpt>
      <trkpt lat="46.73503" lon="6.35448">
        <ele>1426.25</ele>
        <time>2013-05-08T15:02:24Z</time>
      </trkpt>
      <trkpt lat="46.73504" lon="6.35445">
        <ele>1425.77</ele>
        <time>2013-05-08T15:02:27Z</time>
      </trkpt>
      <trkpt lat="46.73511" lon="6.35433">
        <ele>1423.85</ele>
        <time>2013-05-08T15:02:39Z</time>
      </trkpt>
      <trkpt lat="46.73511" lon="6.35429">
        <ele>1423.37</ele>
        <time>2013-05-08T15:02:43Z</time>
      </trkpt>
      <trkpt lat="46.73511" lon="6.35425">
        <ele>1422.89</ele>
        <time>2013-05-08T15:02:45Z</time>
      </trkpt>
      <trkpt lat="46.73511" lon="6.35423">
        <ele>1422.89</ele>
        <time>2013-05-08T15:02:46Z</time>
      </trkpt>
      <trkpt lat="46.73512" lon="6.35422">
        <ele>1422.41</ele>
        <time>2013-05-08T15:02:47Z</time>
      </trkpt>
      <trkpt lat="46.73515" lon="6.35412">
        <ele>1421.93</ele>
        <time>2013-05-08T15:02:54Z</time>
      </trkpt>
      <trkpt lat="46.73515" lon="6.3541">
        <ele>1421.45</ele>
        <time>2013-05-08T15:02:55Z</time>
      </trkpt>
      <trkpt lat="46.73516" lon="6.35409">
        <ele>1421.45</ele>
        <time>2013-05-08T15:02:56Z</time>
      </trkpt>
      <trkpt lat="46.73516" lon="6.35408">
        <ele>1421.45</ele>
        <time>2013-05-08T15:02:57Z</time>
      </trkpt>
      <trkpt lat="46.73516" lon="6.35406">
        <ele>1421.45</ele>
        <time>2013-05-08T15:02:58Z</time>
      </trkpt>
      <trkpt lat="46.73518" lon="6.354">
        <ele>1421.45</ele>
        <time>2013-05-08T15:03:02Z</time>
      </trkpt>
      <trkpt lat="46.73522" lon="6.3539">
        <ele>1420.49</ele>
        <time>2013-05-08T15:03:12Z</time>
      </trkpt>
      <trkpt lat="46.73523" lon="6.35387">
        <ele>1420</ele>
        <time>2013-05-08T15:03:13Z</time>
      </trkpt>
      <trkpt lat="46.73524" lon="6.35384">
        <ele>1420</ele>
        <time>2013-05-08T15:03:14Z</time>
      </trkpt>
      <trkpt lat="46.73524" lon="6.35382">
        <ele>1420</ele>
        <time>2013-05-08T15:03:15Z</time>
      </trkpt>
      <trkpt lat="46.73528" lon="6.35378">
        <ele>1418.56</ele>
        <time>2013-05-08T15:03:24Z</time>
      </trkpt>
      <trkpt lat="46.73528" lon="6.35376">
        <ele>1418.56</ele>
        <time>2013-05-08T15:03:25Z</time>
      </trkpt>
      <trkpt lat="46.7353" lon="6.35373">
        <ele>1418.08</ele>
        <time>2013-05-08T15:03:26Z</time>
      </trkpt>
      <trkpt lat="46.73533" lon="6.35372">
        <ele>1418.08</ele>
        <time>2013-05-08T15:03:27Z</time>
      </trkpt>
      <trkpt lat="46.73534" lon="6.35371">
        <ele>1418.08</ele>
        <time>2013-05-08T15:03:28Z</time>
      </trkpt>
      <trkpt lat="46.73536" lon="6.35369">
        <ele>1418.08</ele>
        <time>2013-05-08T15:03:32Z</time>
      </trkpt>
      <trkpt lat="46.73537" lon="6.35368">
        <ele>1418.08</ele>
        <time>2013-05-08T15:03:33Z</time>
      </trkpt>
      <trkpt lat="46.73544" lon="6.35359">
        <ele>1418.08</ele>
        <time>2013-05-08T15:03:42Z</time>
      </trkpt>
      <trkpt lat="46.73547" lon="6.3535">
        <ele>1417.6</ele>
        <time>2013-05-08T15:03:52Z</time>
      </trkpt>
      <trkpt lat="46.73548" lon="6.35353">
        <ele>1417.6</ele>
        <time>2013-05-08T15:04:05Z</time>
      </trkpt>
      <trkpt lat="46.7355" lon="6.35354">
        <ele>1418.08</ele>
        <time>2013-05-08T15:04:24Z</time>
      </trkpt>
      <trkpt lat="46.73551" lon="6.35354">
        <ele>1418.08</ele>
        <time>2013-05-08T15:04:38Z</time>
      </trkpt>
      <trkpt lat="46.73552" lon="6.35353">
        <ele>1418.08</ele>
        <time>2013-05-08T15:04:39Z</time>
      </trkpt>
      <trkpt lat="46.73552" lon="6.35351">
        <ele>1418.08</ele>
        <time>2013-05-08T15:04:40Z</time>
      </trkpt>
      <trkpt lat="46.73553" lon="6.35348">
        <ele>1418.08</ele>
        <time>2013-05-08T15:04:41Z</time>
      </trkpt>
      <trkpt lat="46.73553" lon="6.35344">
        <ele>1418.08</ele>
        <time>2013-05-08T15:04:42Z</time>
      </trkpt>
      <trkpt lat="46.73552" lon="6.3534">
        <ele>1417.6</ele>
        <time>2013-05-08T15:04:43Z</time>
      </trkpt>
      <trkpt lat="46.73551" lon="6.35336">
        <ele>1417.6</ele>
        <time>2013-05-08T15:04:44Z</time>
      </trkpt>
      <trkpt lat="46.73549" lon="6.35333">
        <ele>1417.6</ele>
        <time>2013-05-08T15:04:45Z</time>
      </trkpt>
      <trkpt lat="46.73547" lon="6.3533">
        <ele>1417.6</ele>
        <time>2013-05-08T15:04:46Z</time>
      </trkpt>
      <trkpt lat="46.73544" lon="6.35327">
        <ele>1417.12</ele>
        <time>2013-05-08T15:04:47Z</time>
      </trkpt>
      <trkpt lat="46.7354" lon="6.35325">
        <ele>1416.64</ele>
        <time>2013-05-08T15:04:48Z</time>
      </trkpt>
      <trkpt lat="46.73527" lon="6.35319">
        <ele>1416.64</ele>
        <time>2013-05-08T15:04:51Z</time>
      </trkpt>
      <trkpt lat="46.73475" lon="6.35297">
        <ele>1413.28</ele>
        <time>2013-05-08T15:05:00Z</time>
      </trkpt>
      <trkpt lat="46.73431" lon="6.35275">
        <ele>1414.24</ele>
        <time>2013-05-08T15:05:10Z</time>
      </trkpt>
      <trkpt lat="46.73419" lon="6.35265">
        <ele>1414.72</ele>
        <time>2013-05-08T15:05:16Z</time>
      </trkpt>
      <trkpt lat="46.73418" lon="6.35261">
        <ele>1414.24</ele>
        <time>2013-05-08T15:05:17Z</time>
      </trkpt>
      <trkpt lat="46.73417" lon="6.35258">
        <ele>1414.24</ele>
        <time>2013-05-08T15:05:18Z</time>
      </trkpt>
      <trkpt lat="46.73399" lon="6.35218">
        <ele>1411.83</ele>
        <time>2013-05-08T15:05:31Z</time>
      </trkpt>
      <trkpt lat="46.73385" lon="6.35192">
        <ele>1408.47</ele>
        <time>2013-05-08T15:05:38Z</time>
      </trkpt>
      <trkpt lat="46.73367" lon="6.35159">
        <ele>1405.1</ele>
        <time>2013-05-08T15:05:45Z</time>
      </trkpt>
      <trkpt lat="46.7335" lon="6.35119">
        <ele>1401.74</ele>
        <time>2013-05-08T15:05:51Z</time>
      </trkpt>
      <trkpt lat="46.73341" lon="6.35089">
        <ele>1398.37</ele>
        <time>2013-05-08T15:05:55Z</time>
      </trkpt>
      <trkpt lat="46.73331" lon="6.3506">
        <ele>1395.01</ele>
        <time>2013-05-08T15:05:59Z</time>
      </trkpt>
      <trkpt lat="46.73322" lon="6.35033">
        <ele>1391.65</ele>
        <time>2013-05-08T15:06:03Z</time>
      </trkpt>
      <trkpt lat="46.73317" lon="6.35009">
        <ele>1388.28</ele>
        <time>2013-05-08T15:06:08Z</time>
      </trkpt>
      <trkpt lat="46.73318" lon="6.35006">
        <ele>1387.8</ele>
        <time>2013-05-08T15:06:09Z</time>
      </trkpt>
      <trkpt lat="46.73319" lon="6.35004">
        <ele>1387.32</ele>
        <time>2013-05-08T15:06:10Z</time>
      </trkpt>
      <trkpt lat="46.73321" lon="6.35001">
        <ele>1387.32</ele>
        <time>2013-05-08T15:06:11Z</time>
      </trkpt>
      <trkpt lat="46.73322" lon="6.34999">
        <ele>1386.84</ele>
        <time>2013-05-08T15:06:12Z</time>
      </trkpt>
      <trkpt lat="46.73323" lon="6.34997">
        <ele>1386.36</ele>
        <time>2013-05-08T15:06:13Z</time>
      </trkpt>
      <trkpt lat="46.73348" lon="6.34974">
        <ele>1384.44</ele>
        <time>2013-05-08T15:06:22Z</time>
      </trkpt>
      <trkpt lat="46.73376" lon="6.34943">
        <ele>1382.99</ele>
        <time>2013-05-08T15:06:32Z</time>
      </trkpt>
      <trkpt lat="46.73384" lon="6.3493">
        <ele>1381.55</ele>
        <time>2013-05-08T15:06:35Z</time>
      </trkpt>
      <trkpt lat="46.73386" lon="6.34924">
        <ele>1381.07</ele>
        <time>2013-05-08T15:06:36Z</time>
      </trkpt>
      <trkpt lat="46.73387" lon="6.34918">
        <ele>1381.07</ele>
        <time>2013-05-08T15:06:37Z</time>
      </trkpt>
      <trkpt lat="46.73391" lon="6.34891">
        <ele>1377.71</ele>
        <time>2013-05-08T15:06:43Z</time>
      </trkpt>
      <trkpt lat="46.73388" lon="6.34876">
        <ele>1376.75</ele>
        <time>2013-05-08T15:06:51Z</time>
      </trkpt>
      <trkpt lat="46.73388" lon="6.34849">
        <ele>1372.9</ele>
        <time>2013-05-08T15:06:57Z</time>
      </trkpt>
      <trkpt lat="46.73387" lon="6.34843">
        <ele>1370.98</ele>
        <time>2013-05-08T15:07:00Z</time>
      </trkpt>
      <trkpt lat="46.73387" lon="6.34844">
        <ele>1372.42</ele>
        <time>2013-05-08T15:07:08Z</time>
      </trkpt>
      <trkpt lat="46.73388" lon="6.34841">
        <ele>1371.46</ele>
        <time>2013-05-08T15:07:09Z</time>
      </trkpt>
      <trkpt lat="46.73388" lon="6.34837">
        <ele>1370.98</ele>
        <time>2013-05-08T15:07:10Z</time>
      </trkpt>
      <trkpt lat="46.73389" lon="6.34832">
        <ele>1370.5</ele>
        <time>2013-05-08T15:07:11Z</time>
      </trkpt>
      <trkpt lat="46.73389" lon="6.34825">
        <ele>1370.02</ele>
        <time>2013-05-08T15:07:12Z</time>
      </trkpt>
      <trkpt lat="46.7339" lon="6.34819">
        <ele>1369.05</ele>
        <time>2013-05-08T15:07:13Z</time>
      </trkpt>
      <trkpt lat="46.73393" lon="6.34795">
        <ele>1366.17</ele>
        <time>2013-05-08T15:07:18Z</time>
      </trkpt>
      <trkpt lat="46.73394" lon="6.34769">
        <ele>1362.33</ele>
        <time>2013-05-08T15:07:23Z</time>
      </trkpt>
      <trkpt lat="46.73396" lon="6.34748">
        <ele>1359.44</ele>
        <time>2013-05-08T15:07:27Z</time>
      </trkpt>
      <trkpt lat="46.73394" lon="6.34729">
        <ele>1356.08</ele>
        <time>2013-05-08T15:07:31Z</time>
      </trkpt>
      <trkpt lat="46.73391" lon="6.34714">
        <ele>1353.67</ele>
        <time>2013-05-08T15:07:34Z</time>
      </trkpt>
      <trkpt lat="46.73398" lon="6.34688">
        <ele>1349.83</ele>
        <time>2013-05-08T15:07:39Z</time>
      </trkpt>
      <trkpt lat="46.7341" lon="6.34664">
        <ele>1346.46</ele>
        <time>2013-05-08T15:07:45Z</time>
      </trkpt>
      <trkpt lat="46.73419" lon="6.34634">
        <ele>1343.58</ele>
        <time>2013-05-08T15:07:51Z</time>
      </trkpt>
      <trkpt lat="46.73428" lon="6.34605">
        <ele>1339.25</ele>
        <time>2013-05-08T15:07:56Z</time>
      </trkpt>
      <trkpt lat="46.73439" lon="6.34561">
        <ele>1334.93</ele>
        <time>2013-05-08T15:08:04Z</time>
      </trkpt>
      <trkpt lat="46.73442" lon="6.34542">
        <ele>1332.04</ele>
        <time>2013-05-08T15:08:07Z</time>
      </trkpt>
      <trkpt lat="46.73443" lon="6.34523">
        <ele>1329.64</ele>
        <time>2013-05-08T15:08:10Z</time>
      </trkpt>
      <trkpt lat="46.73452" lon="6.34493">
        <ele>1327.24</ele>
        <time>2013-05-08T15:08:18Z</time>
      </trkpt>
      <trkpt lat="46.73454" lon="6.34485">
        <ele>1326.76</ele>
        <time>2013-05-08T15:08:22Z</time>
      </trkpt>
      <trkpt lat="46.7346" lon="6.34477">
        <ele>1326.76</ele>
        <time>2013-05-08T15:08:27Z</time>
      </trkpt>
      <trkpt lat="46.73464" lon="6.34443">
        <ele>1323.39</ele>
        <time>2013-05-08T15:08:35Z</time>
      </trkpt>
      <trkpt lat="46.73465" lon="6.34439">
        <ele>1322.91</ele>
        <time>2013-05-08T15:08:36Z</time>
      </trkpt>
      <trkpt lat="46.73468" lon="6.34414">
        <ele>1321.47</ele>
        <time>2013-05-08T15:08:42Z</time>
      </trkpt>
      <trkpt lat="46.73465" lon="6.34378">
        <ele>1317.62</ele>
        <time>2013-05-08T15:08:48Z</time>
      </trkpt>
      <trkpt lat="46.73463" lon="6.34359">
        <ele>1315.22</ele>
        <time>2013-05-08T15:08:51Z</time>
      </trkpt>
      <trkpt lat="46.73466" lon="6.34348">
        <ele>1314.26</ele>
        <time>2013-05-08T15:08:53Z</time>
      </trkpt>
      <trkpt lat="46.7347" lon="6.34337">
        <ele>1313.78</ele>
        <time>2013-05-08T15:08:55Z</time>
      </trkpt>
      <trkpt lat="46.73487" lon="6.34309">
        <ele>1312.34</ele>
        <time>2013-05-08T15:09:03Z</time>
      </trkpt>
      <trkpt lat="46.73485" lon="6.34286">
        <ele>1308.49</ele>
        <time>2013-05-08T15:09:10Z</time>
      </trkpt>
      <trkpt lat="46.73484" lon="6.34261">
        <ele>1305.13</ele>
        <time>2013-05-08T15:09:16Z</time>
      </trkpt>
      <trkpt lat="46.73482" lon="6.34237">
        <ele>1301.76</ele>
        <time>2013-05-08T15:09:22Z</time>
      </trkpt>
      <trkpt lat="46.73486" lon="6.34212">
        <ele>1299.84</ele>
        <time>2013-05-08T15:09:27Z</time>
      </trkpt>
      <trkpt lat="46.73488" lon="6.34207">
        <ele>1299.84</ele>
        <time>2013-05-08T15:09:35Z</time>
      </trkpt>
      <trkpt lat="46.73488" lon="6.34207">
        <ele>1299.84</ele>
        <time>2013-05-08T15:09:59Z</time>
      </trkpt>
      <trkpt lat="46.73489" lon="6.34207">
        <ele>1299.84</ele>
        <time>2013-05-08T15:10:17Z</time>
      </trkpt>
      <trkpt lat="46.73489" lon="6.34207">
        <ele>1299.36</ele>
        <time>2013-05-08T15:10:48Z</time>
      </trkpt>
      <trkpt lat="46.73491" lon="6.34202">
        <ele>1299.36</ele>
        <time>2013-05-08T15:10:58Z</time>
      </trkpt>
      <trkpt lat="46.73491" lon="6.34194">
        <ele>1298.88</ele>
        <time>2013-05-08T15:11:03Z</time>
      </trkpt>
      <trkpt lat="46.73494" lon="6.3419">
        <ele>1298.88</ele>
        <time>2013-05-08T15:11:05Z</time>
      </trkpt>
      <trkpt lat="46.73497" lon="6.34175">
        <ele>1297.92</ele>
        <time>2013-05-08T15:11:11Z</time>
      </trkpt>
      <trkpt lat="46.735" lon="6.34156">
        <ele>1295.51</ele>
        <time>2013-05-08T15:11:16Z</time>
      </trkpt>
      <trkpt lat="46.73488" lon="6.34146">
        <ele>1292.63</ele>
        <time>2013-05-08T15:11:25Z</time>
      </trkpt>
      <trkpt lat="46.73484" lon="6.34142">
        <ele>1290.71</ele>
        <time>2013-05-08T15:11:36Z</time>
      </trkpt>
      <trkpt lat="46.73478" lon="6.3414">
        <ele>1289.75</ele>
        <time>2013-05-08T15:11:41Z</time>
      </trkpt>
      <trkpt lat="46.7347" lon="6.34128">
        <ele>1287.34</ele>
        <time>2013-05-08T15:11:49Z</time>
      </trkpt>
      <trkpt lat="46.73464" lon="6.34124">
        <ele>1286.86</ele>
        <time>2013-05-08T15:11:59Z</time>
      </trkpt>
      <trkpt lat="46.73459" lon="6.34124">
        <ele>1285.9</ele>
        <time>2013-05-08T15:12:06Z</time>
      </trkpt>
      <trkpt lat="46.73455" lon="6.34125">
        <ele>1284.94</ele>
        <time>2013-05-08T15:12:09Z</time>
      </trkpt>
      <trkpt lat="46.73434" lon="6.34114">
        <ele>1281.09</ele>
        <time>2013-05-08T15:12:16Z</time>
      </trkpt>
      <trkpt lat="46.73415" lon="6.3411">
        <ele>1278.21</ele>
        <time>2013-05-08T15:12:21Z</time>
      </trkpt>
      <trkpt lat="46.73397" lon="6.34099">
        <ele>1275.33</ele>
        <time>2013-05-08T15:12:25Z</time>
      </trkpt>
      <trkpt lat="46.73393" lon="6.34095">
        <ele>1274.85</ele>
        <time>2013-05-08T15:12:26Z</time>
      </trkpt>
      <trkpt lat="46.73389" lon="6.34092">
        <ele>1274.36</ele>
        <time>2013-05-08T15:12:27Z</time>
      </trkpt>
      <trkpt lat="46.73379" lon="6.3408">
        <ele>1274.36</ele>
        <time>2013-05-08T15:12:32Z</time>
      </trkpt>
      <trkpt lat="46.73379" lon="6.34077">
        <ele>1274.36</ele>
        <time>2013-05-08T15:12:33Z</time>
      </trkpt>
      <trkpt lat="46.7338" lon="6.34074">
        <ele>1273.88</ele>
        <time>2013-05-08T15:12:34Z</time>
      </trkpt>
      <trkpt lat="46.73384" lon="6.34065">
        <ele>1272.92</ele>
        <time>2013-05-08T15:12:46Z</time>
      </trkpt>
      <trkpt lat="46.73396" lon="6.34048">
        <ele>1271.96</ele>
        <time>2013-05-08T15:12:59Z</time>
      </trkpt>
      <trkpt lat="46.73397" lon="6.34047">
        <ele>1271.96</ele>
        <time>2013-05-08T15:13:09Z</time>
      </trkpt>
      <trkpt lat="46.73397" lon="6.34047">
        <ele>1271.96</ele>
        <time>2013-05-08T15:13:33Z</time>
      </trkpt>
      <trkpt lat="46.734" lon="6.34048">
        <ele>1271.96</ele>
        <time>2013-05-08T15:13:59Z</time>
      </trkpt>
      <trkpt lat="46.73403" lon="6.3405">
        <ele>1271.48</ele>
        <time>2013-05-08T15:14:14Z</time>
      </trkpt>
      <trkpt lat="46.73403" lon="6.3405">
        <ele>1271.96</ele>
        <time>2013-05-08T15:14:45Z</time>
      </trkpt>
      <trkpt lat="46.73403" lon="6.3405">
        <ele>1271.96</ele>
        <time>2013-05-08T15:15:25Z</time>
      </trkpt>
      <trkpt lat="46.73404" lon="6.3405">
        <ele>1271.96</ele>
        <time>2013-05-08T15:16:05Z</time>
      </trkpt>
      <trkpt lat="46.73403" lon="6.34049">
        <ele>1271.96</ele>
        <time>2013-05-08T15:16:48Z</time>
      </trkpt>
      <trkpt lat="46.73405" lon="6.34049">
        <ele>1271.96</ele>
        <time>2013-05-08T15:17:35Z</time>
      </trkpt>
      <trkpt lat="46.73404" lon="6.3405">
        <ele>1271.48</ele>
        <time>2013-05-08T15:18:16Z</time>
      </trkpt>
      <trkpt lat="46.73404" lon="6.3405">
        <ele>1271.48</ele>
        <time>2013-05-08T15:19:00Z</time>
      </trkpt>
      <trkpt lat="46.73404" lon="6.34051">
        <ele>1271</ele>
        <time>2013-05-08T15:19:44Z</time>
      </trkpt>
      <trkpt lat="46.73404" lon="6.34051">
        <ele>1271</ele>
        <time>2013-05-08T15:20:29Z</time>
      </trkpt>
      <trkpt lat="46.73404" lon="6.34051">
        <ele>1270.52</ele>
        <time>2013-05-08T15:21:12Z</time>
      </trkpt>
      <trkpt lat="46.73404" lon="6.34051">
        <ele>1270.52</ele>
        <time>2013-05-08T15:21:53Z</time>
      </trkpt>
      <trkpt lat="46.73405" lon="6.34051">
        <ele>1270.52</ele>
        <time>2013-05-08T15:22:34Z</time>
      </trkpt>
      <trkpt lat="46.73405" lon="6.34051">
        <ele>1270.52</ele>
        <time>2013-05-08T15:23:16Z</time>
      </trkpt>
      <trkpt lat="46.73405" lon="6.34051">
        <ele>1270.52</ele>
        <time>2013-05-08T15:23:56Z</time>
      </trkpt>
      <trkpt lat="46.73405" lon="6.34051">
        <ele>1270.52</ele>
        <time>2013-05-08T15:24:39Z</time>
      </trkpt>
      <trkpt lat="46.73404" lon="6.3405">
        <ele>1270.04</ele>
        <time>2013-05-08T15:25:19Z</time>
      </trkpt>
      <trkpt lat="46.73404" lon="6.34049">
        <ele>1270.52</ele>
        <time>2013-05-08T15:25:57Z</time>
      </trkpt>
      <trkpt lat="46.73404" lon="6.3405">
        <ele>1270.52</ele>
        <time>2013-05-08T15:26:34Z</time>
      </trkpt>
      <trkpt lat="46.73404" lon="6.34049">
        <ele>1270.52</ele>
        <time>2013-05-08T15:27:12Z</time>
      </trkpt>
      <trkpt lat="46.73404" lon="6.3405">
        <ele>1270.52</ele>
        <time>2013-05-08T15:27:52Z</time>
      </trkpt>
      <trkpt lat="46.73405" lon="6.3405">
        <ele>1270.52</ele>
        <time>2013-05-08T15:28:34Z</time>
      </trkpt>
      <trkpt lat="46.73405" lon="6.3405">
        <ele>1270.52</ele>
        <time>2013-05-08T15:29:14Z</time>
      </trkpt>
      <trkpt lat="46.73404" lon="6.3405">
        <ele>1270.52</ele>
        <time>2013-05-08T15:29:55Z</time>
      </trkpt>
      <trkpt lat="46.73405" lon="6.34049">
        <ele>1270.52</ele>
        <time>2013-05-08T15:30:34Z</time>
      </trkpt>
      <trkpt lat="46.73404" lon="6.34051">
        <ele>1270.52</ele>
        <time>2013-05-08T15:31:11Z</time>
      </trkpt>
      <trkpt lat="46.73404" lon="6.34051">
        <ele>1270.52</ele>
        <time>2013-05-08T15:31:50Z</time>
      </trkpt>
      <trkpt lat="46.73404" lon="6.3405">
        <ele>1270.52</ele>
        <time>2013-05-08T15:32:24Z</time>
      </trkpt>
      <trkpt lat="46.73404" lon="6.3405">
        <ele>1270.52</ele>
        <time>2013-05-08T15:32:56Z</time>
      </trkpt>
      <trkpt lat="46.73404" lon="6.3405">
        <ele>1270.52</ele>
        <time>2013-05-08T15:33:10Z</time>
      </trkpt>
      <trkpt lat="46.73404" lon="6.34047">
        <ele>1270.52</ele>
        <time>2013-05-08T15:33:11Z</time>
      </trkpt>
      <trkpt lat="46.73404" lon="6.34043">
        <ele>1270.52</ele>
        <time>2013-05-08T15:33:12Z</time>
      </trkpt>
      <trkpt lat="46.73404" lon="6.34038">
        <ele>1270.04</ele>
        <time>2013-05-08T15:33:13Z</time>
      </trkpt>
      <trkpt lat="46.73405" lon="6.34032">
        <ele>1269.56</ele>
        <time>2013-05-08T15:33:14Z</time>
      </trkpt>
      <trkpt lat="46.73408" lon="6.34027">
        <ele>1269.08</ele>
        <time>2013-05-08T15:33:15Z</time>
      </trkpt>
      <trkpt lat="46.7341" lon="6.34022">
        <ele>1268.6</ele>
        <time>2013-05-08T15:33:16Z</time>
      </trkpt>
      <trkpt lat="46.73419" lon="6.34005">
        <ele>1267.64</ele>
        <time>2013-05-08T15:33:19Z</time>
      </trkpt>
      <trkpt lat="46.73422" lon="6.33998">
        <ele>1266.67</ele>
        <time>2013-05-08T15:33:20Z</time>
      </trkpt>
      <trkpt lat="46.73435" lon="6.33957">
        <ele>1263.31</ele>
        <time>2013-05-08T15:33:25Z</time>
      </trkpt>
      <trkpt lat="46.73445" lon="6.33918">
        <ele>1259.94</ele>
        <time>2013-05-08T15:33:29Z</time>
      </trkpt>
      <trkpt lat="46.73454" lon="6.3388">
        <ele>1255.62</ele>
        <time>2013-05-08T15:33:33Z</time>
      </trkpt>
      <trkpt lat="46.73461" lon="6.3385">
        <ele>1252.74</ele>
        <time>2013-05-08T15:33:36Z</time>
      </trkpt>
      <trkpt lat="46.73466" lon="6.33824">
        <ele>1250.81</ele>
        <time>2013-05-08T15:33:39Z</time>
      </trkpt>
      <trkpt lat="46.73472" lon="6.3377">
        <ele>1246.49</ele>
        <time>2013-05-08T15:33:45Z</time>
      </trkpt>
      <trkpt lat="46.7348" lon="6.33716">
        <ele>1243.12</ele>
        <time>2013-05-08T15:33:50Z</time>
      </trkpt>
      <trkpt lat="46.73496" lon="6.33642">
        <ele>1240.24</ele>
        <time>2013-05-08T15:33:57Z</time>
      </trkpt>
      <trkpt lat="46.73506" lon="6.33571">
        <ele>1235.91</ele>
        <time>2013-05-08T15:34:03Z</time>
      </trkpt>
      <trkpt lat="46.7352" lon="6.33501">
        <ele>1232.07</ele>
        <time>2013-05-08T15:34:08Z</time>
      </trkpt>
      <trkpt lat="46.7353" lon="6.33456">
        <ele>1229.18</ele>
        <time>2013-05-08T15:34:11Z</time>
      </trkpt>
      <trkpt lat="46.7354" lon="6.33412">
        <ele>1227.74</ele>
        <time>2013-05-08T15:34:14Z</time>
      </trkpt>
      <trkpt lat="46.73578" lon="6.33306">
        <ele>1224.38</ele>
        <time>2013-05-08T15:34:24Z</time>
      </trkpt>
      <trkpt lat="46.73585" lon="6.33288">
        <ele>1223.42</ele>
        <time>2013-05-08T15:34:26Z</time>
      </trkpt>
      <trkpt lat="46.73598" lon="6.33265">
        <ele>1222.45</ele>
        <time>2013-05-08T15:34:29Z</time>
      </trkpt>
      <trkpt lat="46.73631" lon="6.33221">
        <ele>1219.57</ele>
        <time>2013-05-08T15:34:37Z</time>
      </trkpt>
      <trkpt lat="46.73635" lon="6.33214">
        <ele>1219.09</ele>
        <time>2013-05-08T15:34:38Z</time>
      </trkpt>
      <trkpt lat="46.73664" lon="6.33161">
        <ele>1216.21</ele>
        <time>2013-05-08T15:34:45Z</time>
      </trkpt>
      <trkpt lat="46.73676" lon="6.33137">
        <ele>1214.76</ele>
        <time>2013-05-08T15:34:48Z</time>
      </trkpt>
      <trkpt lat="46.73679" lon="6.33128">
        <ele>1214.28</ele>
        <time>2013-05-08T15:34:49Z</time>
      </trkpt>
      <trkpt lat="46.73681" lon="6.33118">
        <ele>1214.28</ele>
        <time>2013-05-08T15:34:50Z</time>
      </trkpt>
      <trkpt lat="46.73683" lon="6.33107">
        <ele>1213.32</ele>
        <time>2013-05-08T15:34:51Z</time>
      </trkpt>
      <trkpt lat="46.73684" lon="6.33097">
        <ele>1212.84</ele>
        <time>2013-05-08T15:34:52Z</time>
      </trkpt>
      <trkpt lat="46.73685" lon="6.33087">
        <ele>1212.84</ele>
        <time>2013-05-08T15:34:53Z</time>
      </trkpt>
      <trkpt lat="46.73686" lon="6.33077">
        <ele>1212.36</ele>
        <time>2013-05-08T15:34:54Z</time>
      </trkpt>
      <trkpt lat="46.73685" lon="6.33066">
        <ele>1211.88</ele>
        <time>2013-05-08T15:34:55Z</time>
      </trkpt>
      <trkpt lat="46.73684" lon="6.33043">
        <ele>1210.92</ele>
        <time>2013-05-08T15:34:57Z</time>
      </trkpt>
      <trkpt lat="46.73687" lon="6.32976">
        <ele>1207.55</ele>
        <time>2013-05-08T15:35:03Z</time>
      </trkpt>
      <trkpt lat="46.73689" lon="6.32964">
        <ele>1207.07</ele>
        <time>2013-05-08T15:35:04Z</time>
      </trkpt>
      <trkpt lat="46.73692" lon="6.32953">
        <ele>1206.59</ele>
        <time>2013-05-08T15:35:05Z</time>
      </trkpt>
      <trkpt lat="46.73695" lon="6.32942">
        <ele>1206.11</ele>
        <time>2013-05-08T15:35:06Z</time>
      </trkpt>
      <trkpt lat="46.73698" lon="6.32931">
        <ele>1205.63</ele>
        <time>2013-05-08T15:35:07Z</time>
      </trkpt>
      <trkpt lat="46.73699" lon="6.3292">
        <ele>1205.15</ele>
        <time>2013-05-08T15:35:08Z</time>
      </trkpt>
      <trkpt lat="46.73708" lon="6.32858">
        <ele>1202.75</ele>
        <time>2013-05-08T15:35:13Z</time>
      </trkpt>
      <trkpt lat="46.73715" lon="6.32774">
        <ele>1201.79</ele>
        <time>2013-05-08T15:35:22Z</time>
      </trkpt>
      <trkpt lat="46.73714" lon="6.32771">
        <ele>1201.79</ele>
        <time>2013-05-08T15:35:23Z</time>
      </trkpt>
      <trkpt lat="46.73713" lon="6.3277">
        <ele>1201.79</ele>
        <time>2013-05-08T15:35:24Z</time>
      </trkpt>
      <trkpt lat="46.73711" lon="6.32769">
        <ele>1201.79</ele>
        <time>2013-05-08T15:35:25Z</time>
      </trkpt>
      <trkpt lat="46.73709" lon="6.32767">
        <ele>1201.79</ele>
        <time>2013-05-08T15:35:36Z</time>
      </trkpt>
      <trkpt lat="46.73708" lon="6.32766">
        <ele>1202.27</ele>
        <time>2013-05-08T15:35:47Z</time>
      </trkpt>
      <trkpt lat="46.73707" lon="6.32765">
        <ele>1202.27</ele>
        <time>2013-05-08T15:36:11Z</time>
      </trkpt>
      <trkpt lat="46.73699" lon="6.32755">
        <ele>1202.27</ele>
        <time>2013-05-08T15:36:19Z</time>
      </trkpt>
      <trkpt lat="46.73698" lon="6.32753">
        <ele>1202.27</ele>
        <time>2013-05-08T15:36:20Z</time>
      </trkpt>
      <trkpt lat="46.73686" lon="6.32738">
        <ele>1202.75</ele>
        <time>2013-05-08T15:36:32Z</time>
      </trkpt>
      <trkpt lat="46.73682" lon="6.32734">
        <ele>1202.27</ele>
        <time>2013-05-08T15:36:35Z</time>
      </trkpt>
      <trkpt lat="46.73681" lon="6.32732">
        <ele>1202.75</ele>
        <time>2013-05-08T15:36:36Z</time>
      </trkpt>
      <trkpt lat="46.7368" lon="6.32731">
        <ele>1202.75</ele>
        <time>2013-05-08T15:36:37Z</time>
      </trkpt>
      <trkpt lat="46.73678" lon="6.32729">
        <ele>1202.75</ele>
        <time>2013-05-08T15:36:38Z</time>
      </trkpt>
      <trkpt lat="46.73677" lon="6.32728">
        <ele>1202.75</ele>
        <time>2013-05-08T15:36:39Z</time>
      </trkpt>
      <trkpt lat="46.73675" lon="6.32727">
        <ele>1202.75</ele>
        <time>2013-05-08T15:36:40Z</time>
      </trkpt>
      <trkpt lat="46.73674" lon="6.32725">
        <ele>1202.75</ele>
        <time>2013-05-08T15:36:41Z</time>
      </trkpt>
      <trkpt lat="46.73673" lon="6.32724">
        <ele>1202.75</ele>
        <time>2013-05-08T15:36:42Z</time>
      </trkpt>
      <trkpt lat="46.73659" lon="6.32707">
        <ele>1202.27</ele>
        <time>2013-05-08T15:36:56Z</time>
      </trkpt>
      <trkpt lat="46.73656" lon="6.32699">
        <ele>1202.27</ele>
        <time>2013-05-08T15:37:00Z</time>
      </trkpt>
      <trkpt lat="46.73656" lon="6.32697">
        <ele>1202.27</ele>
        <time>2013-05-08T15:37:01Z</time>
      </trkpt>
      <trkpt lat="46.73655" lon="6.32695">
        <ele>1202.27</ele>
        <time>2013-05-08T15:37:02Z</time>
      </trkpt>
      <trkpt lat="46.73651" lon="6.32692">
        <ele>1202.27</ele>
        <time>2013-05-08T15:37:06Z</time>
      </trkpt>
      <trkpt lat="46.73651" lon="6.3269">
        <ele>1202.27</ele>
        <time>2013-05-08T15:37:17Z</time>
      </trkpt>
      <trkpt lat="46.73651" lon="6.3269">
        <ele>1202.75</ele>
        <time>2013-05-08T15:37:39Z</time>
      </trkpt>
      <trkpt lat="46.73651" lon="6.3269">
        <ele>1202.27</ele>
        <time>2013-05-08T15:37:57Z</time>
      </trkpt>
      <trkpt lat="46.73651" lon="6.3269">
        <ele>1202.27</ele>
        <time>2013-05-08T15:38:22Z</time>
      </trkpt>
      <trkpt lat="46.73648" lon="6.32686">
        <ele>1202.27</ele>
        <time>2013-05-08T15:38:43Z</time>
      </trkpt>
      <trkpt lat="46.73617" lon="6.32655">
        <ele>1201.79</ele>
        <time>2013-05-08T15:38:57Z</time>
      </trkpt>
      <trkpt lat="46.73595" lon="6.32641">
        <ele>1204.67</ele>
        <time>2013-05-08T15:39:10Z</time>
      </trkpt>
      <trkpt lat="46.73592" lon="6.3264">
        <ele>1205.15</ele>
        <time>2013-05-08T15:39:13Z</time>
      </trkpt>
      <trkpt lat="46.7359" lon="6.32639">
        <ele>1205.15</ele>
        <time>2013-05-08T15:39:14Z</time>
      </trkpt>
      <trkpt lat="46.73589" lon="6.32638">
        <ele>1205.15</ele>
        <time>2013-05-08T15:39:15Z</time>
      </trkpt>
      <trkpt lat="46.7357" lon="6.32628">
        <ele>1208.03</ele>
        <time>2013-05-08T15:39:30Z</time>
      </trkpt>
      <trkpt lat="46.73569" lon="6.32628">
        <ele>1208.51</ele>
        <time>2013-05-08T15:39:31Z</time>
      </trkpt>
      <trkpt lat="46.73567" lon="6.32628">
        <ele>1208.51</ele>
        <time>2013-05-08T15:39:32Z</time>
      </trkpt>
      <trkpt lat="46.73566" lon="6.32628">
        <ele>1209</ele>
        <time>2013-05-08T15:39:33Z</time>
      </trkpt>
      <trkpt lat="46.73565" lon="6.32627">
        <ele>1209</ele>
        <time>2013-05-08T15:39:34Z</time>
      </trkpt>
      <trkpt lat="46.73564" lon="6.32627">
        <ele>1209.48</ele>
        <time>2013-05-08T15:39:35Z</time>
      </trkpt>
      <trkpt lat="46.73562" lon="6.32626">
        <ele>1209</ele>
        <time>2013-05-08T15:39:36Z</time>
      </trkpt>
      <trkpt lat="46.73561" lon="6.32626">
        <ele>1209.48</ele>
        <time>2013-05-08T15:39:37Z</time>
      </trkpt>
      <trkpt lat="46.7356" lon="6.32625">
        <ele>1209.48</ele>
        <time>2013-05-08T15:39:38Z</time>
      </trkpt>
      <trkpt lat="46.73558" lon="6.32625">
        <ele>1209.96</ele>
        <time>2013-05-08T15:39:39Z</time>
      </trkpt>
      <trkpt lat="46.73557" lon="6.32625">
        <ele>1209.96</ele>
        <time>2013-05-08T15:39:40Z</time>
      </trkpt>
      <trkpt lat="46.73556" lon="6.32625">
        <ele>1209.96</ele>
        <time>2013-05-08T15:39:41Z</time>
      </trkpt>
      <trkpt lat="46.73554" lon="6.32625">
        <ele>1210.44</ele>
        <time>2013-05-08T15:39:42Z</time>
      </trkpt>
      <trkpt lat="46.73553" lon="6.32625">
        <ele>1210.44</ele>
        <time>2013-05-08T15:39:43Z</time>
      </trkpt>
      <trkpt lat="46.73552" lon="6.32624">
        <ele>1210.44</ele>
        <time>2013-05-08T15:39:44Z</time>
      </trkpt>
      <trkpt lat="46.7355" lon="6.32624">
        <ele>1210.92</ele>
        <time>2013-05-08T15:39:45Z</time>
      </trkpt>
      <trkpt lat="46.73549" lon="6.32624">
        <ele>1210.92</ele>
        <time>2013-05-08T15:39:46Z</time>
      </trkpt>
      <trkpt lat="46.73548" lon="6.32625">
        <ele>1210.92</ele>
        <time>2013-05-08T15:39:47Z</time>
      </trkpt>
      <trkpt lat="46.73546" lon="6.32625">
        <ele>1210.92</ele>
        <time>2013-05-08T15:39:48Z</time>
      </trkpt>
      <trkpt lat="46.73545" lon="6.32624">
        <ele>1211.4</ele>
        <time>2013-05-08T15:39:49Z</time>
      </trkpt>
      <trkpt lat="46.73544" lon="6.32624">
        <ele>1211.4</ele>
        <time>2013-05-08T15:39:50Z</time>
      </trkpt>
      <trkpt lat="46.73542" lon="6.32624">
        <ele>1211.88</ele>
        <time>2013-05-08T15:39:51Z</time>
      </trkpt>
      <trkpt lat="46.73541" lon="6.32625">
        <ele>1211.88</ele>
        <time>2013-05-08T15:39:52Z</time>
      </trkpt>
      <trkpt lat="46.73523" lon="6.32621">
        <ele>1213.8</ele>
        <time>2013-05-08T15:40:06Z</time>
      </trkpt>
      <trkpt lat="46.73513" lon="6.32618">
        <ele>1214.76</ele>
        <time>2013-05-08T15:40:13Z</time>
      </trkpt>
      <trkpt lat="46.73512" lon="6.32617">
        <ele>1215.24</ele>
        <time>2013-05-08T15:40:14Z</time>
      </trkpt>
      <trkpt lat="46.73511" lon="6.32617">
        <ele>1215.24</ele>
        <time>2013-05-08T15:40:15Z</time>
      </trkpt>
      <trkpt lat="46.7351" lon="6.32617">
        <ele>1215.24</ele>
        <time>2013-05-08T15:40:16Z</time>
      </trkpt>
      <trkpt lat="46.73508" lon="6.32617">
        <ele>1215.72</ele>
        <time>2013-05-08T15:40:17Z</time>
      </trkpt>
      <trkpt lat="46.73507" lon="6.32617">
        <ele>1215.72</ele>
        <time>2013-05-08T15:40:18Z</time>
      </trkpt>
      <trkpt lat="46.73506" lon="6.32617">
        <ele>1215.72</ele>
        <time>2013-05-08T15:40:19Z</time>
      </trkpt>
      <trkpt lat="46.73484" lon="6.32613">
        <ele>1217.17</ele>
        <time>2013-05-08T15:40:33Z</time>
      </trkpt>
      <trkpt lat="46.73466" lon="6.32611">
        <ele>1218.13</ele>
        <time>2013-05-08T15:40:45Z</time>
      </trkpt>
      <trkpt lat="46.73465" lon="6.32611">
        <ele>1218.61</ele>
        <time>2013-05-08T15:40:46Z</time>
      </trkpt>
      <trkpt lat="46.73463" lon="6.3261">
        <ele>1218.61</ele>
        <time>2013-05-08T15:40:47Z</time>
      </trkpt>
      <trkpt lat="46.73461" lon="6.32609">
        <ele>1218.61</ele>
        <time>2013-05-08T15:40:48Z</time>
      </trkpt>
      <trkpt lat="46.73459" lon="6.32608">
        <ele>1218.61</ele>
        <time>2013-05-08T15:40:49Z</time>
      </trkpt>
      <trkpt lat="46.73457" lon="6.32608">
        <ele>1218.61</ele>
        <time>2013-05-08T15:40:50Z</time>
      </trkpt>
      <trkpt lat="46.73456" lon="6.32607">
        <ele>1218.61</ele>
        <time>2013-05-08T15:40:51Z</time>
      </trkpt>
      <trkpt lat="46.73454" lon="6.32606">
        <ele>1218.61</ele>
        <time>2013-05-08T15:40:52Z</time>
      </trkpt>
      <trkpt lat="46.73451" lon="6.32604">
        <ele>1218.61</ele>
        <time>2013-05-08T15:40:54Z</time>
      </trkpt>
      <trkpt lat="46.73449" lon="6.32603">
        <ele>1218.61</ele>
        <time>2013-05-08T15:40:55Z</time>
      </trkpt>
      <trkpt lat="46.73447" lon="6.32602">
        <ele>1218.61</ele>
        <time>2013-05-08T15:40:56Z</time>
      </trkpt>
      <trkpt lat="46.73446" lon="6.32601">
        <ele>1218.61</ele>
        <time>2013-05-08T15:40:57Z</time>
      </trkpt>
      <trkpt lat="46.73445" lon="6.326">
        <ele>1218.61</ele>
        <time>2013-05-08T15:40:58Z</time>
      </trkpt>
      <trkpt lat="46.73442" lon="6.32598">
        <ele>1218.61</ele>
        <time>2013-05-08T15:41:00Z</time>
      </trkpt>
      <trkpt lat="46.7344" lon="6.32597">
        <ele>1219.09</ele>
        <time>2013-05-08T15:41:01Z</time>
      </trkpt>
      <trkpt lat="46.73439" lon="6.32596">
        <ele>1219.09</ele>
        <time>2013-05-08T15:41:02Z</time>
      </trkpt>
      <trkpt lat="46.73438" lon="6.32594">
        <ele>1219.09</ele>
        <time>2013-05-08T15:41:03Z</time>
      </trkpt>
      <trkpt lat="46.73437" lon="6.32592">
        <ele>1219.09</ele>
        <time>2013-05-08T15:41:04Z</time>
      </trkpt>
      <trkpt lat="46.73435" lon="6.3259">
        <ele>1219.09</ele>
        <time>2013-05-08T15:41:05Z</time>
      </trkpt>
      <trkpt lat="46.73433" lon="6.32589">
        <ele>1219.57</ele>
        <time>2013-05-08T15:41:06Z</time>
      </trkpt>
      <trkpt lat="46.73432" lon="6.32588">
        <ele>1219.57</ele>
        <time>2013-05-08T15:41:07Z</time>
      </trkpt>
      <trkpt lat="46.7343" lon="6.32587">
        <ele>1219.57</ele>
        <time>2013-05-08T15:41:08Z</time>
      </trkpt>
      <trkpt lat="46.73429" lon="6.32585">
        <ele>1219.57</ele>
        <time>2013-05-08T15:41:09Z</time>
      </trkpt>
      <trkpt lat="46.73425" lon="6.32577">
        <ele>1219.57</ele>
        <time>2013-05-08T15:41:14Z</time>
      </trkpt>
      <trkpt lat="46.73424" lon="6.32575">
        <ele>1219.09</ele>
        <time>2013-05-08T15:41:15Z</time>
      </trkpt>
      <trkpt lat="46.73424" lon="6.32573">
        <ele>1219.09</ele>
        <time>2013-05-08T15:41:16Z</time>
      </trkpt>
      <trkpt lat="46.73422" lon="6.3257">
        <ele>1219.57</ele>
        <time>2013-05-08T15:41:17Z</time>
      </trkpt>
      <trkpt lat="46.73421" lon="6.32567">
        <ele>1219.09</ele>
        <time>2013-05-08T15:41:18Z</time>
      </trkpt>
      <trkpt lat="46.73419" lon="6.32565">
        <ele>1219.09</ele>
        <time>2013-05-08T15:41:19Z</time>
      </trkpt>
      <trkpt lat="46.73417" lon="6.32563">
        <ele>1219.09</ele>
        <time>2013-05-08T15:41:20Z</time>
      </trkpt>
      <trkpt lat="46.73415" lon="6.32561">
        <ele>1219.57</ele>
        <time>2013-05-08T15:41:21Z</time>
      </trkpt>
      <trkpt lat="46.73407" lon="6.32552">
        <ele>1219.57</ele>
        <time>2013-05-08T15:41:26Z</time>
      </trkpt>
      <trkpt lat="46.73405" lon="6.32551">
        <ele>1219.57</ele>
        <time>2013-05-08T15:41:27Z</time>
      </trkpt>
      <trkpt lat="46.73403" lon="6.32549">
        <ele>1219.57</ele>
        <time>2013-05-08T15:41:28Z</time>
      </trkpt>
      <trkpt lat="46.73402" lon="6.32547">
        <ele>1219.57</ele>
        <time>2013-05-08T15:41:29Z</time>
      </trkpt>
      <trkpt lat="46.734" lon="6.32545">
        <ele>1219.57</ele>
        <time>2013-05-08T15:41:30Z</time>
      </trkpt>
      <trkpt lat="46.73399" lon="6.32544">
        <ele>1219.57</ele>
        <time>2013-05-08T15:41:31Z</time>
      </trkpt>
      <trkpt lat="46.73396" lon="6.32542">
        <ele>1219.09</ele>
        <time>2013-05-08T15:41:32Z</time>
      </trkpt>
      <trkpt lat="46.73394" lon="6.32539">
        <ele>1219.09</ele>
        <time>2013-05-08T15:41:33Z</time>
      </trkpt>
      <trkpt lat="46.73392" lon="6.32536">
        <ele>1218.61</ele>
        <time>2013-05-08T15:41:34Z</time>
      </trkpt>
      <trkpt lat="46.73384" lon="6.32523">
        <ele>1219.09</ele>
        <time>2013-05-08T15:41:42Z</time>
      </trkpt>
      <trkpt lat="46.73384" lon="6.32523">
        <ele>1219.09</ele>
        <time>2013-05-08T15:42:08Z</time>
      </trkpt>
      <trkpt lat="46.73384" lon="6.32523">
        <ele>1219.09</ele>
        <time>2013-05-08T15:42:35Z</time>
      </trkpt>
      <trkpt lat="46.73384" lon="6.32523">
        <ele>1219.09</ele>
        <time>2013-05-08T15:42:56Z</time>
      </trkpt>
      <trkpt lat="46.73383" lon="6.32523">
        <ele>1219.09</ele>
        <time>2013-05-08T15:43:00Z</time>
      </trkpt>
      <trkpt lat="46.73382" lon="6.32523">
        <ele>1219.09</ele>
        <time>2013-05-08T15:43:01Z</time>
      </trkpt>
      <trkpt lat="46.73381" lon="6.32523">
        <ele>1219.57</ele>
        <time>2013-05-08T15:43:02Z</time>
      </trkpt>
      <trkpt lat="46.73372" lon="6.3252">
        <ele>1220.53</ele>
        <time>2013-05-08T15:43:11Z</time>
      </trkpt>
      <trkpt lat="46.7337" lon="6.32518">
        <ele>1221.49</ele>
        <time>2013-05-08T15:43:14Z</time>
      </trkpt>
      <trkpt lat="46.73367" lon="6.32515">
        <ele>1221.49</ele>
        <time>2013-05-08T15:43:16Z</time>
      </trkpt>
      <trkpt lat="46.73365" lon="6.32514">
        <ele>1221.97</ele>
        <time>2013-05-08T15:43:17Z</time>
      </trkpt>
      <trkpt lat="46.73363" lon="6.32512">
        <ele>1221.97</ele>
        <time>2013-05-08T15:43:18Z</time>
      </trkpt>
      <trkpt lat="46.73361" lon="6.3251">
        <ele>1222.45</ele>
        <time>2013-05-08T15:43:19Z</time>
      </trkpt>
      <trkpt lat="46.7336" lon="6.32508">
        <ele>1222.45</ele>
        <time>2013-05-08T15:43:20Z</time>
      </trkpt>
      <trkpt lat="46.73357" lon="6.32506">
        <ele>1222.45</ele>
        <time>2013-05-08T15:43:21Z</time>
      </trkpt>
      <trkpt lat="46.73354" lon="6.32503">
        <ele>1222.93</ele>
        <time>2013-05-08T15:43:22Z</time>
      </trkpt>
      <trkpt lat="46.73353" lon="6.32501">
        <ele>1222.93</ele>
        <time>2013-05-08T15:43:23Z</time>
      </trkpt>
      <trkpt lat="46.73351" lon="6.32499">
        <ele>1222.45</ele>
        <time>2013-05-08T15:43:24Z</time>
      </trkpt>
      <trkpt lat="46.7335" lon="6.32497">
        <ele>1222.45</ele>
        <time>2013-05-08T15:43:25Z</time>
      </trkpt>
      <trkpt lat="46.73349" lon="6.32494">
        <ele>1222.93</ele>
        <time>2013-05-08T15:43:26Z</time>
      </trkpt>
      <trkpt lat="46.73348" lon="6.32492">
        <ele>1222.93</ele>
        <time>2013-05-08T15:43:27Z</time>
      </trkpt>
      <trkpt lat="46.73347" lon="6.32489">
        <ele>1222.93</ele>
        <time>2013-05-08T15:43:28Z</time>
      </trkpt>
      <trkpt lat="46.73346" lon="6.32487">
        <ele>1222.93</ele>
        <time>2013-05-08T15:43:29Z</time>
      </trkpt>
      <trkpt lat="46.73344" lon="6.32483">
        <ele>1222.93</ele>
        <time>2013-05-08T15:43:30Z</time>
      </trkpt>
      <trkpt lat="46.73342" lon="6.3248">
        <ele>1222.93</ele>
        <time>2013-05-08T15:43:31Z</time>
      </trkpt>
      <trkpt lat="46.73324" lon="6.3245">
        <ele>1224.38</ele>
        <time>2013-05-08T15:43:43Z</time>
      </trkpt>
      <trkpt lat="46.73307" lon="6.32441">
        <ele>1225.82</ele>
        <time>2013-05-08T15:43:53Z</time>
      </trkpt>
      <trkpt lat="46.73301" lon="6.32435">
        <ele>1226.3</ele>
        <time>2013-05-08T15:44:01Z</time>
      </trkpt>
      <trkpt lat="46.73299" lon="6.32433">
        <ele>1226.3</ele>
        <time>2013-05-08T15:44:02Z</time>
      </trkpt>
      <trkpt lat="46.73297" lon="6.3243">
        <ele>1226.3</ele>
        <time>2013-05-08T15:44:03Z</time>
      </trkpt>
      <trkpt lat="46.73296" lon="6.32428">
        <ele>1226.3</ele>
        <time>2013-05-08T15:44:04Z</time>
      </trkpt>
      <trkpt lat="46.73295" lon="6.32425">
        <ele>1226.3</ele>
        <time>2013-05-08T15:44:05Z</time>
      </trkpt>
      <trkpt lat="46.73286" lon="6.32394">
        <ele>1225.34</ele>
        <time>2013-05-08T15:44:13Z</time>
      </trkpt>
      <trkpt lat="46.73262" lon="6.32353">
        <ele>1222.45</ele>
        <time>2013-05-08T15:44:25Z</time>
      </trkpt>
      <trkpt lat="46.73236" lon="6.32342">
        <ele>1222.93</ele>
        <time>2013-05-08T15:44:34Z</time>
      </trkpt>
      <trkpt lat="46.73217" lon="6.32344">
        <ele>1222.93</ele>
        <time>2013-05-08T15:44:43Z</time>
      </trkpt>
      <trkpt lat="46.73212" lon="6.32347">
        <ele>1222.93</ele>
        <time>2013-05-08T15:44:46Z</time>
      </trkpt>
      <trkpt lat="46.7321" lon="6.32347">
        <ele>1223.42</ele>
        <time>2013-05-08T15:44:47Z</time>
      </trkpt>
      <trkpt lat="46.73208" lon="6.32347">
        <ele>1223.42</ele>
        <time>2013-05-08T15:44:48Z</time>
      </trkpt>
      <trkpt lat="46.73206" lon="6.32347">
        <ele>1223.42</ele>
        <time>2013-05-08T15:44:49Z</time>
      </trkpt>
      <trkpt lat="46.73204" lon="6.32347">
        <ele>1223.42</ele>
        <time>2013-05-08T15:44:50Z</time>
      </trkpt>
      <trkpt lat="46.73202" lon="6.32347">
        <ele>1223.42</ele>
        <time>2013-05-08T15:44:51Z</time>
      </trkpt>
      <trkpt lat="46.73201" lon="6.32348">
        <ele>1223.9</ele>
        <time>2013-05-08T15:44:52Z</time>
      </trkpt>
      <trkpt lat="46.73199" lon="6.32348">
        <ele>1223.9</ele>
        <time>2013-05-08T15:44:53Z</time>
      </trkpt>
      <trkpt lat="46.73197" lon="6.32348">
        <ele>1223.9</ele>
        <time>2013-05-08T15:44:54Z</time>
      </trkpt>
      <trkpt lat="46.73196" lon="6.32349">
        <ele>1223.9</ele>
        <time>2013-05-08T15:44:55Z</time>
      </trkpt>
      <trkpt lat="46.73175" lon="6.32352">
        <ele>1224.86</ele>
        <time>2013-05-08T15:45:05Z</time>
      </trkpt>
      <trkpt lat="46.73168" lon="6.32353">
        <ele>1225.34</ele>
        <time>2013-05-08T15:45:10Z</time>
      </trkpt>
      <trkpt lat="46.73163" lon="6.3235">
        <ele>1225.82</ele>
        <time>2013-05-08T15:45:14Z</time>
      </trkpt>
      <trkpt lat="46.73161" lon="6.32348">
        <ele>1225.82</ele>
        <time>2013-05-08T15:45:15Z</time>
      </trkpt>
      <trkpt lat="46.73138" lon="6.32316">
        <ele>1224.86</ele>
        <time>2013-05-08T15:45:27Z</time>
      </trkpt>
      <trkpt lat="46.73123" lon="6.3231">
        <ele>1223.42</ele>
        <time>2013-05-08T15:45:31Z</time>
      </trkpt>
      <trkpt lat="46.73119" lon="6.32311">
        <ele>1223.42</ele>
        <time>2013-05-08T15:45:32Z</time>
      </trkpt>
      <trkpt lat="46.73084" lon="6.32316">
        <ele>1222.93</ele>
        <time>2013-05-08T15:45:43Z</time>
      </trkpt>
      <trkpt lat="46.73076" lon="6.32311">
        <ele>1222.45</ele>
        <time>2013-05-08T15:45:46Z</time>
      </trkpt>
      <trkpt lat="46.73069" lon="6.32307">
        <ele>1221.97</ele>
        <time>2013-05-08T15:45:49Z</time>
      </trkpt>
      <trkpt lat="46.73068" lon="6.32303">
        <ele>1221.97</ele>
        <time>2013-05-08T15:45:50Z</time>
      </trkpt>
      <trkpt lat="46.73066" lon="6.323">
        <ele>1221.97</ele>
        <time>2013-05-08T15:45:51Z</time>
      </trkpt>
      <trkpt lat="46.73059" lon="6.32256">
        <ele>1219.09</ele>
        <time>2013-05-08T15:46:01Z</time>
      </trkpt>
      <trkpt lat="46.73048" lon="6.32228">
        <ele>1216.21</ele>
        <time>2013-05-08T15:46:08Z</time>
      </trkpt>
      <trkpt lat="46.73041" lon="6.32218">
        <ele>1214.76</ele>
        <time>2013-05-08T15:46:11Z</time>
      </trkpt>
      <trkpt lat="46.73009" lon="6.32182">
        <ele>1214.28</ele>
        <time>2013-05-08T15:46:24Z</time>
      </trkpt>
      <trkpt lat="46.72994" lon="6.3216">
        <ele>1217.17</ele>
        <time>2013-05-08T15:46:35Z</time>
      </trkpt>
      <trkpt lat="46.72994" lon="6.32158">
        <ele>1217.17</ele>
        <time>2013-05-08T15:46:36Z</time>
      </trkpt>
      <trkpt lat="46.72982" lon="6.32136">
        <ele>1219.09</ele>
        <time>2013-05-08T15:46:49Z</time>
      </trkpt>
      <trkpt lat="46.72981" lon="6.32134">
        <ele>1219.57</ele>
        <time>2013-05-08T15:47:00Z</time>
      </trkpt>
      <trkpt lat="46.72981" lon="6.32135">
        <ele>1220.05</ele>
        <time>2013-05-08T15:47:19Z</time>
      </trkpt>
      <trkpt lat="46.72981" lon="6.32135">
        <ele>1219.09</ele>
        <time>2013-05-08T15:47:21Z</time>
      </trkpt>
      <trkpt lat="46.7298" lon="6.32132">
        <ele>1219.09</ele>
        <time>2013-05-08T15:47:32Z</time>
      </trkpt>
      <trkpt lat="46.7298" lon="6.3213">
        <ele>1219.57</ele>
        <time>2013-05-08T15:47:33Z</time>
      </trkpt>
      <trkpt lat="46.72979" lon="6.32127">
        <ele>1219.57</ele>
        <time>2013-05-08T15:47:34Z</time>
      </trkpt>
      <trkpt lat="46.72978" lon="6.32124">
        <ele>1219.57</ele>
        <time>2013-05-08T15:47:35Z</time>
      </trkpt>
      <trkpt lat="46.72977" lon="6.32122">
        <ele>1220.05</ele>
        <time>2013-05-08T15:47:36Z</time>
      </trkpt>
      <trkpt lat="46.72975" lon="6.32119">
        <ele>1220.05</ele>
        <time>2013-05-08T15:47:37Z</time>
      </trkpt>
      <trkpt lat="46.72974" lon="6.32115">
        <ele>1220.53</ele>
        <time>2013-05-08T15:47:38Z</time>
      </trkpt>
      <trkpt lat="46.72972" lon="6.32113">
        <ele>1220.53</ele>
        <time>2013-05-08T15:47:39Z</time>
      </trkpt>
      <trkpt lat="46.72971" lon="6.32111">
        <ele>1221.49</ele>
        <time>2013-05-08T15:47:40Z</time>
      </trkpt>
      <trkpt lat="46.7297" lon="6.32108">
        <ele>1221.49</ele>
        <time>2013-05-08T15:47:41Z</time>
      </trkpt>
      <trkpt lat="46.72954" lon="6.32092">
        <ele>1224.86</ele>
        <time>2013-05-08T15:47:52Z</time>
      </trkpt>
      <trkpt lat="46.72947" lon="6.32089">
        <ele>1225.34</ele>
        <time>2013-05-08T15:47:56Z</time>
      </trkpt>
      <trkpt lat="46.72945" lon="6.32087">
        <ele>1225.82</ele>
        <time>2013-05-08T15:47:57Z</time>
      </trkpt>
      <trkpt lat="46.72937" lon="6.32082">
        <ele>1227.26</ele>
        <time>2013-05-08T15:48:03Z</time>
      </trkpt>
      <trkpt lat="46.72935" lon="6.32078">
        <ele>1227.74</ele>
        <time>2013-05-08T15:48:07Z</time>
      </trkpt>
      <trkpt lat="46.72935" lon="6.32076">
        <ele>1227.74</ele>
        <time>2013-05-08T15:48:08Z</time>
      </trkpt>
      <trkpt lat="46.72935" lon="6.32074">
        <ele>1227.74</ele>
        <time>2013-05-08T15:48:09Z</time>
      </trkpt>
      <trkpt lat="46.72934" lon="6.32072">
        <ele>1227.74</ele>
        <time>2013-05-08T15:48:10Z</time>
      </trkpt>
      <trkpt lat="46.72933" lon="6.32071">
        <ele>1228.22</ele>
        <time>2013-05-08T15:48:11Z</time>
      </trkpt>
      <trkpt lat="46.7292" lon="6.32059">
        <ele>1229.66</ele>
        <time>2013-05-08T15:48:22Z</time>
      </trkpt>
      <trkpt lat="46.72919" lon="6.32058">
        <ele>1229.66</ele>
        <time>2013-05-08T15:48:23Z</time>
      </trkpt>
      <trkpt lat="46.72918" lon="6.32056">
        <ele>1229.66</ele>
        <time>2013-05-08T15:48:24Z</time>
      </trkpt>
      <trkpt lat="46.72887" lon="6.32045">
        <ele>1231.11</ele>
        <time>2013-05-08T15:48:39Z</time>
      </trkpt>
      <trkpt lat="46.7287" lon="6.3204">
        <ele>1229.66</ele>
        <time>2013-05-08T15:48:44Z</time>
      </trkpt>
      <trkpt lat="46.72844" lon="6.32016">
        <ele>1231.59</ele>
        <time>2013-05-08T15:48:55Z</time>
      </trkpt>
      <trkpt lat="46.72819" lon="6.31977">
        <ele>1231.59</ele>
        <time>2013-05-08T15:49:10Z</time>
      </trkpt>
      <trkpt lat="46.72798" lon="6.31934">
        <ele>1231.11</ele>
        <time>2013-05-08T15:49:23Z</time>
      </trkpt>
      <trkpt lat="46.72783" lon="6.31898">
        <ele>1230.62</ele>
        <time>2013-05-08T15:49:35Z</time>
      </trkpt>
      <trkpt lat="46.72768" lon="6.31855">
        <ele>1227.74</ele>
        <time>2013-05-08T15:49:45Z</time>
      </trkpt>
      <trkpt lat="46.72754" lon="6.31816">
        <ele>1224.38</ele>
        <time>2013-05-08T15:49:50Z</time>
      </trkpt>
      <trkpt lat="46.72726" lon="6.31741">
        <ele>1221.49</ele>
        <time>2013-05-08T15:50:01Z</time>
      </trkpt>
      <trkpt lat="46.72724" lon="6.31735">
        <ele>1221.01</ele>
        <time>2013-05-08T15:50:02Z</time>
      </trkpt>
      <trkpt lat="46.72718" lon="6.31712">
        <ele>1221.49</ele>
        <time>2013-05-08T15:50:07Z</time>
      </trkpt>
      <trkpt lat="46.72719" lon="6.31708">
        <ele>1221.49</ele>
        <time>2013-05-08T15:50:08Z</time>
      </trkpt>
      <trkpt lat="46.7272" lon="6.31704">
        <ele>1221.49</ele>
        <time>2013-05-08T15:50:09Z</time>
      </trkpt>
      <trkpt lat="46.72724" lon="6.31698">
        <ele>1221.49</ele>
        <time>2013-05-08T15:50:11Z</time>
      </trkpt>
      <trkpt lat="46.72735" lon="6.31661">
        <ele>1220.05</ele>
        <time>2013-05-08T15:50:22Z</time>
      </trkpt>
      <trkpt lat="46.72727" lon="6.31621">
        <ele>1217.65</ele>
        <time>2013-05-08T15:50:30Z</time>
      </trkpt>
      <trkpt lat="46.72726" lon="6.31614">
        <ele>1217.65</ele>
        <time>2013-05-08T15:50:31Z</time>
      </trkpt>
      <trkpt lat="46.72724" lon="6.31609">
        <ele>1217.17</ele>
        <time>2013-05-08T15:50:32Z</time>
      </trkpt>
      <trkpt lat="46.72712" lon="6.31561">
        <ele>1214.76</ele>
        <time>2013-05-08T15:50:43Z</time>
      </trkpt>
      <trkpt lat="46.72707" lon="6.31544">
        <ele>1213.8</ele>
        <time>2013-05-08T15:50:46Z</time>
      </trkpt>
      <trkpt lat="46.72696" lon="6.31483">
        <ele>1212.84</ele>
        <time>2013-05-08T15:50:57Z</time>
      </trkpt>
      <trkpt lat="46.72694" lon="6.31471">
        <ele>1212.36</ele>
        <time>2013-05-08T15:50:59Z</time>
      </trkpt>
      <trkpt lat="46.72685" lon="6.31427">
        <ele>1210.44</ele>
        <time>2013-05-08T15:51:06Z</time>
      </trkpt>
      <trkpt lat="46.72675" lon="6.3139">
        <ele>1209.96</ele>
        <time>2013-05-08T15:51:14Z</time>
      </trkpt>
      <trkpt lat="46.72656" lon="6.31332">
        <ele>1208.03</ele>
        <time>2013-05-08T15:51:26Z</time>
      </trkpt>
      <trkpt lat="46.72645" lon="6.31294">
        <ele>1208.03</ele>
        <time>2013-05-08T15:51:37Z</time>
      </trkpt>
      <trkpt lat="46.72636" lon="6.31258">
        <ele>1204.67</ele>
        <time>2013-05-08T15:51:46Z</time>
      </trkpt>
      <trkpt lat="46.72632" lon="6.31245">
        <ele>1202.75</ele>
        <time>2013-05-08T15:51:48Z</time>
      </trkpt>
      <trkpt lat="46.72627" lon="6.31225">
        <ele>1200.82</ele>
        <time>2013-05-08T15:51:51Z</time>
      </trkpt>
      <trkpt lat="46.72627" lon="6.31217">
        <ele>1200.34</ele>
        <time>2013-05-08T15:51:52Z</time>
      </trkpt>
      <trkpt lat="46.72626" lon="6.31211">
        <ele>1199.86</ele>
        <time>2013-05-08T15:51:53Z</time>
      </trkpt>
      <trkpt lat="46.72623" lon="6.31205">
        <ele>1199.38</ele>
        <time>2013-05-08T15:51:54Z</time>
      </trkpt>
      <trkpt lat="46.72621" lon="6.31201">
        <ele>1199.38</ele>
        <time>2013-05-08T15:51:55Z</time>
      </trkpt>
      <trkpt lat="46.72619" lon="6.31196">
        <ele>1199.38</ele>
        <time>2013-05-08T15:51:56Z</time>
      </trkpt>
      <trkpt lat="46.72617" lon="6.3119">
        <ele>1198.9</ele>
        <time>2013-05-08T15:51:57Z</time>
      </trkpt>
      <trkpt lat="46.72616" lon="6.31184">
        <ele>1198.9</ele>
        <time>2013-05-08T15:51:58Z</time>
      </trkpt>
      <trkpt lat="46.72609" lon="6.31146">
        <ele>1198.9</ele>
        <time>2013-05-08T15:52:07Z</time>
      </trkpt>
      <trkpt lat="46.72601" lon="6.31112">
        <ele>1197.94</ele>
        <time>2013-05-08T15:52:17Z</time>
      </trkpt>
      <trkpt lat="46.72595" lon="6.31093">
        <ele>1196.98</ele>
        <time>2013-05-08T15:52:29Z</time>
      </trkpt>
      <trkpt lat="46.72589" lon="6.31076">
        <ele>1195.54</ele>
        <time>2013-05-08T15:52:40Z</time>
      </trkpt>
      <trkpt lat="46.7258" lon="6.31044">
        <ele>1192.17</ele>
        <time>2013-05-08T15:52:49Z</time>
      </trkpt>
      <trkpt lat="46.72577" lon="6.31029">
        <ele>1189.29</ele>
        <time>2013-05-08T15:52:53Z</time>
      </trkpt>
      <trkpt lat="46.72572" lon="6.3101">
        <ele>1185.92</ele>
        <time>2013-05-08T15:52:58Z</time>
      </trkpt>
      <trkpt lat="46.72569" lon="6.30999">
        <ele>1184.96</ele>
        <time>2013-05-08T15:53:00Z</time>
      </trkpt>
      <trkpt lat="46.72568" lon="6.30994">
        <ele>1184.48</ele>
        <time>2013-05-08T15:53:01Z</time>
      </trkpt>
      <trkpt lat="46.72561" lon="6.30963">
        <ele>1182.56</ele>
        <time>2013-05-08T15:53:10Z</time>
      </trkpt>
      <trkpt lat="46.72552" lon="6.30926">
        <ele>1183.04</ele>
        <time>2013-05-08T15:53:19Z</time>
      </trkpt>
      <trkpt lat="46.72543" lon="6.30893">
        <ele>1181.12</ele>
        <time>2013-05-08T15:53:26Z</time>
      </trkpt>
      <trkpt lat="46.7254" lon="6.30887">
        <ele>1180.64</ele>
        <time>2013-05-08T15:53:27Z</time>
      </trkpt>
      <trkpt lat="46.72535" lon="6.30876">
        <ele>1179.67</ele>
        <time>2013-05-08T15:53:29Z</time>
      </trkpt>
      <trkpt lat="46.72532" lon="6.30872">
        <ele>1178.71</ele>
        <time>2013-05-08T15:53:30Z</time>
      </trkpt>
      <trkpt lat="46.7253" lon="6.30867">
        <ele>1178.23</ele>
        <time>2013-05-08T15:53:31Z</time>
      </trkpt>
      <trkpt lat="46.72528" lon="6.30862">
        <ele>1177.75</ele>
        <time>2013-05-08T15:53:32Z</time>
      </trkpt>
      <trkpt lat="46.72528" lon="6.30856">
        <ele>1176.79</ele>
        <time>2013-05-08T15:53:33Z</time>
      </trkpt>
      <trkpt lat="46.72528" lon="6.3085">
        <ele>1176.31</ele>
        <time>2013-05-08T15:53:34Z</time>
      </trkpt>
      <trkpt lat="46.72528" lon="6.30843">
        <ele>1175.35</ele>
        <time>2013-05-08T15:53:35Z</time>
      </trkpt>
      <trkpt lat="46.72528" lon="6.30837">
        <ele>1174.39</ele>
        <time>2013-05-08T15:53:36Z</time>
      </trkpt>
      <trkpt lat="46.72528" lon="6.3083">
        <ele>1173.43</ele>
        <time>2013-05-08T15:53:37Z</time>
      </trkpt>
      <trkpt lat="46.72528" lon="6.30823">
        <ele>1171.5</ele>
        <time>2013-05-08T15:53:38Z</time>
      </trkpt>
      <trkpt lat="46.72528" lon="6.30815">
        <ele>1171.5</ele>
        <time>2013-05-08T15:53:39Z</time>
      </trkpt>
      <trkpt lat="46.72528" lon="6.30801">
        <ele>1169.58</ele>
        <time>2013-05-08T15:53:41Z</time>
      </trkpt>
      <trkpt lat="46.72528" lon="6.30795">
        <ele>1169.1</ele>
        <time>2013-05-08T15:53:42Z</time>
      </trkpt>
      <trkpt lat="46.72527" lon="6.30765">
        <ele>1165.74</ele>
        <time>2013-05-08T15:53:46Z</time>
      </trkpt>
      <trkpt lat="46.72526" lon="6.30747">
        <ele>1165.26</ele>
        <time>2013-05-08T15:53:48Z</time>
      </trkpt>
      <trkpt lat="46.72525" lon="6.30731">
        <ele>1164.77</ele>
        <time>2013-05-08T15:53:50Z</time>
      </trkpt>
      <trkpt lat="46.72524" lon="6.30725">
        <ele>1164.77</ele>
        <time>2013-05-08T15:53:51Z</time>
      </trkpt>
      <trkpt lat="46.72522" lon="6.3069">
        <ele>1164.77</ele>
        <time>2013-05-08T15:54:00Z</time>
      </trkpt>
      <trkpt lat="46.72519" lon="6.30675">
        <ele>1164.77</ele>
        <time>2013-05-08T15:54:04Z</time>
      </trkpt>
      <trkpt lat="46.72517" lon="6.30673">
        <ele>1164.77</ele>
        <time>2013-05-08T15:54:05Z</time>
      </trkpt>
      <trkpt lat="46.72515" lon="6.30671">
        <ele>1165.26</ele>
        <time>2013-05-08T15:54:06Z</time>
      </trkpt>
      <trkpt lat="46.72514" lon="6.30669">
        <ele>1165.74</ele>
        <time>2013-05-08T15:54:07Z</time>
      </trkpt>
      <trkpt lat="46.72512" lon="6.30667">
        <ele>1166.22</ele>
        <time>2013-05-08T15:54:08Z</time>
      </trkpt>
      <trkpt lat="46.72511" lon="6.30666">
        <ele>1166.22</ele>
        <time>2013-05-08T15:54:09Z</time>
      </trkpt>
      <trkpt lat="46.7251" lon="6.30665">
        <ele>1166.22</ele>
        <time>2013-05-08T15:54:10Z</time>
      </trkpt>
      <trkpt lat="46.72509" lon="6.30664">
        <ele>1166.22</ele>
        <time>2013-05-08T15:54:11Z</time>
      </trkpt>
      <trkpt lat="46.72507" lon="6.30664">
        <ele>1165.74</ele>
        <time>2013-05-08T15:54:12Z</time>
      </trkpt>
      <trkpt lat="46.72505" lon="6.30664">
        <ele>1166.7</ele>
        <time>2013-05-08T15:54:13Z</time>
      </trkpt>
      <trkpt lat="46.72504" lon="6.30665">
        <ele>1166.22</ele>
        <time>2013-05-08T15:54:14Z</time>
      </trkpt>
      <trkpt lat="46.72491" lon="6.30661">
        <ele>1164.77</ele>
        <time>2013-05-08T15:54:20Z</time>
      </trkpt>
      <trkpt lat="46.72478" lon="6.30658">
        <ele>1163.33</ele>
        <time>2013-05-08T15:54:24Z</time>
      </trkpt>
      <trkpt lat="46.72476" lon="6.30655">
        <ele>1163.33</ele>
        <time>2013-05-08T15:54:25Z</time>
      </trkpt>
      <trkpt lat="46.72474" lon="6.30652">
        <ele>1163.33</ele>
        <time>2013-05-08T15:54:26Z</time>
      </trkpt>
      <trkpt lat="46.72471" lon="6.3065">
        <ele>1162.85</ele>
        <time>2013-05-08T15:54:27Z</time>
      </trkpt>
      <trkpt lat="46.72467" lon="6.3065">
        <ele>1162.85</ele>
        <time>2013-05-08T15:54:28Z</time>
      </trkpt>
      <trkpt lat="46.72464" lon="6.3065">
        <ele>1162.85</ele>
        <time>2013-05-08T15:54:29Z</time>
      </trkpt>
      <trkpt lat="46.72462" lon="6.30651">
        <ele>1162.85</ele>
        <time>2013-05-08T15:54:30Z</time>
      </trkpt>
      <trkpt lat="46.72459" lon="6.30651">
        <ele>1162.85</ele>
        <time>2013-05-08T15:54:31Z</time>
      </trkpt>
      <trkpt lat="46.72456" lon="6.30652">
        <ele>1162.85</ele>
        <time>2013-05-08T15:54:32Z</time>
      </trkpt>
      <trkpt lat="46.72453" lon="6.30652">
        <ele>1162.85</ele>
        <time>2013-05-08T15:54:33Z</time>
      </trkpt>
      <trkpt lat="46.7245" lon="6.30653">
        <ele>1162.85</ele>
        <time>2013-05-08T15:54:34Z</time>
      </trkpt>
      <trkpt lat="46.72447" lon="6.30654">
        <ele>1162.85</ele>
        <time>2013-05-08T15:54:35Z</time>
      </trkpt>
      <trkpt lat="46.72444" lon="6.30656">
        <ele>1162.85</ele>
        <time>2013-05-08T15:54:36Z</time>
      </trkpt>
      <trkpt lat="46.7244" lon="6.30657">
        <ele>1162.85</ele>
        <time>2013-05-08T15:54:37Z</time>
      </trkpt>
      <trkpt lat="46.72437" lon="6.30659">
        <ele>1162.85</ele>
        <time>2013-05-08T15:54:38Z</time>
      </trkpt>
      <trkpt lat="46.72432" lon="6.3066">
        <ele>1162.37</ele>
        <time>2013-05-08T15:54:40Z</time>
      </trkpt>
      <trkpt lat="46.7243" lon="6.30659">
        <ele>1162.37</ele>
        <time>2013-05-08T15:54:41Z</time>
      </trkpt>
      <trkpt lat="46.72428" lon="6.30655">
        <ele>1161.89</ele>
        <time>2013-05-08T15:54:42Z</time>
      </trkpt>
      <trkpt lat="46.72426" lon="6.30651">
        <ele>1161.41</ele>
        <time>2013-05-08T15:54:43Z</time>
      </trkpt>
      <trkpt lat="46.72424" lon="6.30646">
        <ele>1160.45</ele>
        <time>2013-05-08T15:54:44Z</time>
      </trkpt>
      <trkpt lat="46.72423" lon="6.3064">
        <ele>1159.49</ele>
        <time>2013-05-08T15:54:45Z</time>
      </trkpt>
      <trkpt lat="46.72421" lon="6.30635">
        <ele>1159.01</ele>
        <time>2013-05-08T15:54:46Z</time>
      </trkpt>
      <trkpt lat="46.7242" lon="6.30629">
        <ele>1158.53</ele>
        <time>2013-05-08T15:54:47Z</time>
      </trkpt>
      <trkpt lat="46.72419" lon="6.30623">
        <ele>1158.05</ele>
        <time>2013-05-08T15:54:48Z</time>
      </trkpt>
      <trkpt lat="46.72417" lon="6.30614">
        <ele>1157.08</ele>
        <time>2013-05-08T15:54:50Z</time>
      </trkpt>
      <trkpt lat="46.72407" lon="6.30598">
        <ele>1156.6</ele>
        <time>2013-05-08T15:54:57Z</time>
      </trkpt>
      <trkpt lat="46.72406" lon="6.30598">
        <ele>1156.6</ele>
        <time>2013-05-08T15:55:09Z</time>
      </trkpt>
      <trkpt lat="46.72407" lon="6.30595">
        <ele>1156.12</ele>
        <time>2013-05-08T15:55:16Z</time>
      </trkpt>
      <trkpt lat="46.7241" lon="6.30578">
        <ele>1155.64</ele>
        <time>2013-05-08T15:55:21Z</time>
      </trkpt>
      <trkpt lat="46.7241" lon="6.30574">
        <ele>1155.64</ele>
        <time>2013-05-08T15:55:22Z</time>
      </trkpt>
      <trkpt lat="46.72418" lon="6.30526">
        <ele>1154.2</ele>
        <time>2013-05-08T15:55:32Z</time>
      </trkpt>
      <trkpt lat="46.72422" lon="6.30479">
        <ele>1151.8</ele>
        <time>2013-05-08T15:55:38Z</time>
      </trkpt>
      <trkpt lat="46.72426" lon="6.3045">
        <ele>1150.35</ele>
        <time>2013-05-08T15:55:41Z</time>
      </trkpt>
      <trkpt lat="46.72434" lon="6.30384">
        <ele>1146.99</ele>
        <time>2013-05-08T15:55:47Z</time>
      </trkpt>
      <trkpt lat="46.72461" lon="6.30245">
        <ele>1146.51</ele>
        <time>2013-05-08T15:56:01Z</time>
      </trkpt>
      <trkpt lat="46.72481" lon="6.30184">
        <ele>1147.95</ele>
        <time>2013-05-08T15:56:13Z</time>
      </trkpt>
      <trkpt lat="46.72494" lon="6.30141">
        <ele>1147.95</ele>
        <time>2013-05-08T15:56:25Z</time>
      </trkpt>
      <trkpt lat="46.72508" lon="6.30112">
        <ele>1148.43</ele>
        <time>2013-05-08T15:56:38Z</time>
      </trkpt>
      <trkpt lat="46.72508" lon="6.30112">
        <ele>1147.95</ele>
        <time>2013-05-08T15:56:54Z</time>
      </trkpt>
      <trkpt lat="46.72508" lon="6.30112">
        <ele>1148.43</ele>
        <time>2013-05-08T15:57:10Z</time>
      </trkpt>
      <trkpt lat="46.72508" lon="6.3011">
        <ele>1147.95</ele>
        <time>2013-05-08T15:57:26Z</time>
      </trkpt>
      <trkpt lat="46.72508" lon="6.30108">
        <ele>1147.95</ele>
        <time>2013-05-08T15:57:27Z</time>
      </trkpt>
      <trkpt lat="46.72507" lon="6.30106">
        <ele>1147.95</ele>
        <time>2013-05-08T15:57:28Z</time>
      </trkpt>
      <trkpt lat="46.72507" lon="6.30104">
        <ele>1147.95</ele>
        <time>2013-05-08T15:57:29Z</time>
      </trkpt>
      <trkpt lat="46.72506" lon="6.30101">
        <ele>1147.95</ele>
        <time>2013-05-08T15:57:30Z</time>
      </trkpt>
      <trkpt lat="46.72506" lon="6.30098">
        <ele>1147.95</ele>
        <time>2013-05-08T15:57:31Z</time>
      </trkpt>
      <trkpt lat="46.72505" lon="6.30095">
        <ele>1147.95</ele>
        <time>2013-05-08T15:57:32Z</time>
      </trkpt>
      <trkpt lat="46.72504" lon="6.30092">
        <ele>1147.95</ele>
        <time>2013-05-08T15:57:33Z</time>
      </trkpt>
      <trkpt lat="46.72486" lon="6.30042">
        <ele>1147.95</ele>
        <time>2013-05-08T15:57:48Z</time>
      </trkpt>
      <trkpt lat="46.72483" lon="6.29963">
        <ele>1147.95</ele>
        <time>2013-05-08T15:58:03Z</time>
      </trkpt>
      <trkpt lat="46.72483" lon="6.29901">
        <ele>1147.47</ele>
        <time>2013-05-08T15:58:14Z</time>
      </trkpt>
      <trkpt lat="46.72482" lon="6.29844">
        <ele>1147.47</ele>
        <time>2013-05-08T15:58:24Z</time>
      </trkpt>
      <trkpt lat="46.7248" lon="6.29798">
        <ele>1147.47</ele>
        <time>2013-05-08T15:58:32Z</time>
      </trkpt>
      <trkpt lat="46.7248" lon="6.29792">
        <ele>1147.47</ele>
        <time>2013-05-08T15:58:33Z</time>
      </trkpt>
      <trkpt lat="46.7248" lon="6.29732">
        <ele>1144.11</ele>
        <time>2013-05-08T15:58:42Z</time>
      </trkpt>
      <trkpt lat="46.72482" lon="6.29701">
        <ele>1145.07</ele>
        <time>2013-05-08T15:58:46Z</time>
      </trkpt>
      <trkpt lat="46.72483" lon="6.29693">
        <ele>1144.59</ele>
        <time>2013-05-08T15:58:47Z</time>
      </trkpt>
      <trkpt lat="46.72503" lon="6.29587">
        <ele>1141.22</ele>
        <time>2013-05-08T15:58:58Z</time>
      </trkpt>
      <trkpt lat="46.7251" lon="6.29557">
        <ele>1139.78</ele>
        <time>2013-05-08T15:59:01Z</time>
      </trkpt>
      <trkpt lat="46.72516" lon="6.29537">
        <ele>1138.82</ele>
        <time>2013-05-08T15:59:03Z</time>
      </trkpt>
      <trkpt lat="46.72526" lon="6.29507">
        <ele>1137.86</ele>
        <time>2013-05-08T15:59:06Z</time>
      </trkpt>
      <trkpt lat="46.72528" lon="6.29495">
        <ele>1137.38</ele>
        <time>2013-05-08T15:59:07Z</time>
      </trkpt>
      <trkpt lat="46.72538" lon="6.29445">
        <ele>1133.53</ele>
        <time>2013-05-08T15:59:11Z</time>
      </trkpt>
      <trkpt lat="46.72546" lon="6.29418">
        <ele>1132.09</ele>
        <time>2013-05-08T15:59:13Z</time>
      </trkpt>
      <trkpt lat="46.72551" lon="6.29406">
        <ele>1131.13</ele>
        <time>2013-05-08T15:59:14Z</time>
      </trkpt>
      <trkpt lat="46.72571" lon="6.29366">
        <ele>1128.24</ele>
        <time>2013-05-08T15:59:17Z</time>
      </trkpt>
      <trkpt lat="46.72593" lon="6.29323">
        <ele>1124.4</ele>
        <time>2013-05-08T15:59:20Z</time>
      </trkpt>
      <trkpt lat="46.72617" lon="6.29282">
        <ele>1121.03</ele>
        <time>2013-05-08T15:59:23Z</time>
      </trkpt>
      <trkpt lat="46.72644" lon="6.2924">
        <ele>1117.67</ele>
        <time>2013-05-08T15:59:26Z</time>
      </trkpt>
      <trkpt lat="46.72653" lon="6.29227">
        <ele>1115.27</ele>
        <time>2013-05-08T15:59:27Z</time>
      </trkpt>
      <trkpt lat="46.72682" lon="6.29194">
        <ele>1111.9</ele>
        <time>2013-05-08T15:59:30Z</time>
      </trkpt>
      <trkpt lat="46.727" lon="6.29174">
        <ele>1109.98</ele>
        <time>2013-05-08T15:59:32Z</time>
      </trkpt>
      <trkpt lat="46.72717" lon="6.29156">
        <ele>1109.5</ele>
        <time>2013-05-08T15:59:34Z</time>
      </trkpt>
      <trkpt lat="46.72724" lon="6.29148">
        <ele>1108.54</ele>
        <time>2013-05-08T15:59:35Z</time>
      </trkpt>
      <trkpt lat="46.72745" lon="6.29127">
        <ele>1105.65</ele>
        <time>2013-05-08T15:59:38Z</time>
      </trkpt>
      <trkpt lat="46.72763" lon="6.2911">
        <ele>1104.69</ele>
        <time>2013-05-08T15:59:41Z</time>
      </trkpt>
      <trkpt lat="46.72783" lon="6.29095">
        <ele>1101.81</ele>
        <time>2013-05-08T15:59:45Z</time>
      </trkpt>
      <trkpt lat="46.72791" lon="6.29088">
        <ele>1101.33</ele>
        <time>2013-05-08T15:59:48Z</time>
      </trkpt>
      <trkpt lat="46.72791" lon="6.29085">
        <ele>1101.81</ele>
        <time>2013-05-08T15:59:49Z</time>
      </trkpt>
      <trkpt lat="46.72789" lon="6.29085">
        <ele>1101.33</ele>
        <time>2013-05-08T15:59:50Z</time>
      </trkpt>
      <trkpt lat="46.72787" lon="6.29084">
        <ele>1101.33</ele>
        <time>2013-05-08T15:59:51Z</time>
      </trkpt>
      <trkpt lat="46.72784" lon="6.29084">
        <ele>1101.33</ele>
        <time>2013-05-08T15:59:52Z</time>
      </trkpt>
      <trkpt lat="46.72781" lon="6.29083">
        <ele>1101.33</ele>
        <time>2013-05-08T15:59:53Z</time>
      </trkpt>
      <trkpt lat="46.72777" lon="6.29083">
        <ele>1101.33</ele>
        <time>2013-05-08T15:59:54Z</time>
      </trkpt>
      <trkpt lat="46.72772" lon="6.29082">
        <ele>1101.33</ele>
        <time>2013-05-08T15:59:55Z</time>
      </trkpt>
      <trkpt lat="46.72734" lon="6.29086">
        <ele>1101.81</ele>
        <time>2013-05-08T16:00:04Z</time>
      </trkpt>
      <trkpt lat="46.72705" lon="6.29114">
        <ele>1102.29</ele>
        <time>2013-05-08T16:00:15Z</time>
      </trkpt>
      <trkpt lat="46.72703" lon="6.29114">
        <ele>1102.29</ele>
        <time>2013-05-08T16:00:16Z</time>
      </trkpt>
      <trkpt lat="46.727" lon="6.29112">
        <ele>1102.29</ele>
        <time>2013-05-08T16:00:17Z</time>
      </trkpt>
      <trkpt lat="46.72691" lon="6.29109">
        <ele>1102.29</ele>
        <time>2013-05-08T16:00:19Z</time>
      </trkpt>
      <trkpt lat="46.72688" lon="6.29106">
        <ele>1102.29</ele>
        <time>2013-05-08T16:00:20Z</time>
      </trkpt>
      <trkpt lat="46.72684" lon="6.29102">
        <ele>1101.81</ele>
        <time>2013-05-08T16:00:21Z</time>
      </trkpt>
      <trkpt lat="46.72674" lon="6.29088">
        <ele>1102.29</ele>
        <time>2013-05-08T16:00:24Z</time>
      </trkpt>
      <trkpt lat="46.72673" lon="6.29082">
        <ele>1101.81</ele>
        <time>2013-05-08T16:00:25Z</time>
      </trkpt>
      <trkpt lat="46.72671" lon="6.29076">
        <ele>1101.81</ele>
        <time>2013-05-08T16:00:26Z</time>
      </trkpt>
      <trkpt lat="46.72671" lon="6.29069">
        <ele>1101.33</ele>
        <time>2013-05-08T16:00:27Z</time>
      </trkpt>
      <trkpt lat="46.72671" lon="6.29061">
        <ele>1101.33</ele>
        <time>2013-05-08T16:00:28Z</time>
      </trkpt>
      <trkpt lat="46.72671" lon="6.29046">
        <ele>1100.37</ele>
        <time>2013-05-08T16:00:30Z</time>
      </trkpt>
      <trkpt lat="46.72674" lon="6.29031">
        <ele>1100.37</ele>
        <time>2013-05-08T16:00:32Z</time>
      </trkpt>
      <trkpt lat="46.72676" lon="6.29023">
        <ele>1099.89</ele>
        <time>2013-05-08T16:00:33Z</time>
      </trkpt>
      <trkpt lat="46.72679" lon="6.29016">
        <ele>1099.89</ele>
        <time>2013-05-08T16:00:34Z</time>
      </trkpt>
      <trkpt lat="46.72682" lon="6.2901">
        <ele>1099.89</ele>
        <time>2013-05-08T16:00:35Z</time>
      </trkpt>
      <trkpt lat="46.72686" lon="6.29004">
        <ele>1099.89</ele>
        <time>2013-05-08T16:00:36Z</time>
      </trkpt>
      <trkpt lat="46.72691" lon="6.28998">
        <ele>1099.89</ele>
        <time>2013-05-08T16:00:37Z</time>
      </trkpt>
      <trkpt lat="46.72696" lon="6.28993">
        <ele>1099.89</ele>
        <time>2013-05-08T16:00:38Z</time>
      </trkpt>
      <trkpt lat="46.727" lon="6.28987">
        <ele>1099.4</ele>
        <time>2013-05-08T16:00:39Z</time>
      </trkpt>
      <trkpt lat="46.72714" lon="6.28969">
        <ele>1098.92</ele>
        <time>2013-05-08T16:00:42Z</time>
      </trkpt>
      <trkpt lat="46.72718" lon="6.28963">
        <ele>1098.92</ele>
        <time>2013-05-08T16:00:43Z</time>
      </trkpt>
      <trkpt lat="46.72723" lon="6.28958">
        <ele>1098.92</ele>
        <time>2013-05-08T16:00:44Z</time>
      </trkpt>
      <trkpt lat="46.72734" lon="6.28951">
        <ele>1098.92</ele>
        <time>2013-05-08T16:00:46Z</time>
      </trkpt>
      <trkpt lat="46.72738" lon="6.28948">
        <ele>1098.44</ele>
        <time>2013-05-08T16:00:47Z</time>
      </trkpt>
      <trkpt lat="46.72746" lon="6.28945">
        <ele>1098.92</ele>
        <time>2013-05-08T16:00:49Z</time>
      </trkpt>
      <trkpt lat="46.72751" lon="6.28946">
        <ele>1098.92</ele>
        <time>2013-05-08T16:00:50Z</time>
      </trkpt>
      <trkpt lat="46.72756" lon="6.28947">
        <ele>1098.92</ele>
        <time>2013-05-08T16:00:51Z</time>
      </trkpt>
      <trkpt lat="46.72772" lon="6.28952">
        <ele>1099.4</ele>
        <time>2013-05-08T16:00:54Z</time>
      </trkpt>
      <trkpt lat="46.72778" lon="6.28952">
        <ele>1099.89</ele>
        <time>2013-05-08T16:00:55Z</time>
      </trkpt>
      <trkpt lat="46.72783" lon="6.28952">
        <ele>1100.37</ele>
        <time>2013-05-08T16:00:56Z</time>
      </trkpt>
      <trkpt lat="46.72787" lon="6.2895">
        <ele>1100.37</ele>
        <time>2013-05-08T16:00:57Z</time>
      </trkpt>
      <trkpt lat="46.72792" lon="6.28948">
        <ele>1100.37</ele>
        <time>2013-05-08T16:00:58Z</time>
      </trkpt>
      <trkpt lat="46.72796" lon="6.28943">
        <ele>1099.89</ele>
        <time>2013-05-08T16:00:59Z</time>
      </trkpt>
      <trkpt lat="46.728" lon="6.28938">
        <ele>1100.37</ele>
        <time>2013-05-08T16:01:00Z</time>
      </trkpt>
      <trkpt lat="46.72804" lon="6.28932">
        <ele>1099.89</ele>
        <time>2013-05-08T16:01:01Z</time>
      </trkpt>
      <trkpt lat="46.72807" lon="6.28925">
        <ele>1099.4</ele>
        <time>2013-05-08T16:01:02Z</time>
      </trkpt>
      <trkpt lat="46.7281" lon="6.28917">
        <ele>1099.4</ele>
        <time>2013-05-08T16:01:03Z</time>
      </trkpt>
      <trkpt lat="46.72814" lon="6.2891">
        <ele>1098.92</ele>
        <time>2013-05-08T16:01:04Z</time>
      </trkpt>
      <trkpt lat="46.72818" lon="6.28902">
        <ele>1098.92</ele>
        <time>2013-05-08T16:01:05Z</time>
      </trkpt>
      <trkpt lat="46.72822" lon="6.28895">
        <ele>1098.92</ele>
        <time>2013-05-08T16:01:06Z</time>
      </trkpt>
      <trkpt lat="46.72826" lon="6.28888">
        <ele>1098.92</ele>
        <time>2013-05-08T16:01:07Z</time>
      </trkpt>
      <trkpt lat="46.7284" lon="6.28858">
        <ele>1098.44</ele>
        <time>2013-05-08T16:01:11Z</time>
      </trkpt>
      <trkpt lat="46.72843" lon="6.2885">
        <ele>1098.44</ele>
        <time>2013-05-08T16:01:12Z</time>
      </trkpt>
      <trkpt lat="46.72846" lon="6.28842">
        <ele>1098.44</ele>
        <time>2013-05-08T16:01:13Z</time>
      </trkpt>
      <trkpt lat="46.72848" lon="6.28833">
        <ele>1097.96</ele>
        <time>2013-05-08T16:01:14Z</time>
      </trkpt>
      <trkpt lat="46.72849" lon="6.28823">
        <ele>1097.96</ele>
        <time>2013-05-08T16:01:15Z</time>
      </trkpt>
      <trkpt lat="46.72851" lon="6.28814">
        <ele>1097.96</ele>
        <time>2013-05-08T16:01:16Z</time>
      </trkpt>
      <trkpt lat="46.72852" lon="6.28804">
        <ele>1097.96</ele>
        <time>2013-05-08T16:01:17Z</time>
      </trkpt>
      <trkpt lat="46.72865" lon="6.28731">
        <ele>1096.52</ele>
        <time>2013-05-08T16:01:25Z</time>
      </trkpt>
      <trkpt lat="46.72867" lon="6.28723">
        <ele>1096.52</ele>
        <time>2013-05-08T16:01:26Z</time>
      </trkpt>
      <trkpt lat="46.72894" lon="6.28623">
        <ele>1095.56</ele>
        <time>2013-05-08T16:01:38Z</time>
      </trkpt>
      <trkpt lat="46.729" lon="6.28581">
        <ele>1096.04</ele>
        <time>2013-05-08T16:01:43Z</time>
      </trkpt>
      <trkpt lat="46.72899" lon="6.28558">
        <ele>1096.52</ele>
        <time>2013-05-08T16:01:46Z</time>
      </trkpt>
      <trkpt lat="46.72899" lon="6.2855">
        <ele>1096.52</ele>
        <time>2013-05-08T16:01:47Z</time>
      </trkpt>
      <trkpt lat="46.72895" lon="6.28507">
        <ele>1097</ele>
        <time>2013-05-08T16:01:53Z</time>
      </trkpt>
      <trkpt lat="46.72891" lon="6.28475">
        <ele>1097.96</ele>
        <time>2013-05-08T16:01:58Z</time>
      </trkpt>
      <trkpt lat="46.72885" lon="6.28451">
        <ele>1098.44</ele>
        <time>2013-05-08T16:02:02Z</time>
      </trkpt>
      <trkpt lat="46.72883" lon="6.28446">
        <ele>1098.44</ele>
        <time>2013-05-08T16:02:03Z</time>
      </trkpt>
      <trkpt lat="46.72877" lon="6.28423">
        <ele>1098.92</ele>
        <time>2013-05-08T16:02:07Z</time>
      </trkpt>
      <trkpt lat="46.72874" lon="6.28366">
        <ele>1100.37</ele>
        <time>2013-05-08T16:02:17Z</time>
      </trkpt>
      <trkpt lat="46.72878" lon="6.28309">
        <ele>1101.33</ele>
        <time>2013-05-08T16:02:28Z</time>
      </trkpt>
      <trkpt lat="46.72876" lon="6.28292">
        <ele>1101.33</ele>
        <time>2013-05-08T16:02:31Z</time>
      </trkpt>
      <trkpt lat="46.72875" lon="6.28286">
        <ele>1101.33</ele>
        <time>2013-05-08T16:02:32Z</time>
      </trkpt>
      <trkpt lat="46.72875" lon="6.2828">
        <ele>1101.33</ele>
        <time>2013-05-08T16:02:33Z</time>
      </trkpt>
      <trkpt lat="46.72874" lon="6.28274">
        <ele>1101.33</ele>
        <time>2013-05-08T16:02:34Z</time>
      </trkpt>
      <trkpt lat="46.72874" lon="6.28268">
        <ele>1101.33</ele>
        <time>2013-05-08T16:02:35Z</time>
      </trkpt>
      <trkpt lat="46.72873" lon="6.28262">
        <ele>1101.81</ele>
        <time>2013-05-08T16:02:36Z</time>
      </trkpt>
      <trkpt lat="46.72871" lon="6.28235">
        <ele>1101.33</ele>
        <time>2013-05-08T16:02:40Z</time>
      </trkpt>
      <trkpt lat="46.72871" lon="6.28228">
        <ele>1101.33</ele>
        <time>2013-05-08T16:02:41Z</time>
      </trkpt>
      <trkpt lat="46.7287" lon="6.28221">
        <ele>1101.33</ele>
        <time>2013-05-08T16:02:42Z</time>
      </trkpt>
      <trkpt lat="46.72871" lon="6.28215">
        <ele>1101.33</ele>
        <time>2013-05-08T16:02:43Z</time>
      </trkpt>
      <trkpt lat="46.72872" lon="6.28208">
        <ele>1100.85</ele>
        <time>2013-05-08T16:02:44Z</time>
      </trkpt>
      <trkpt lat="46.72874" lon="6.282">
        <ele>1100.85</ele>
        <time>2013-05-08T16:02:45Z</time>
      </trkpt>
      <trkpt lat="46.72877" lon="6.28193">
        <ele>1100.85</ele>
        <time>2013-05-08T16:02:46Z</time>
      </trkpt>
      <trkpt lat="46.72882" lon="6.28181">
        <ele>1100.37</ele>
        <time>2013-05-08T16:02:48Z</time>
      </trkpt>
      <trkpt lat="46.72886" lon="6.28175">
        <ele>1100.37</ele>
        <time>2013-05-08T16:02:49Z</time>
      </trkpt>
      <trkpt lat="46.72901" lon="6.28148">
        <ele>1099.4</ele>
        <time>2013-05-08T16:02:53Z</time>
      </trkpt>
      <trkpt lat="46.72909" lon="6.28124">
        <ele>1099.4</ele>
        <time>2013-05-08T16:02:56Z</time>
      </trkpt>
      <trkpt lat="46.7291" lon="6.28116">
        <ele>1099.4</ele>
        <time>2013-05-08T16:02:57Z</time>
      </trkpt>
      <trkpt lat="46.72911" lon="6.28108">
        <ele>1098.92</ele>
        <time>2013-05-08T16:02:58Z</time>
      </trkpt>
      <trkpt lat="46.72913" lon="6.28098">
        <ele>1098.92</ele>
        <time>2013-05-08T16:02:59Z</time>
      </trkpt>
      <trkpt lat="46.72914" lon="6.28088">
        <ele>1098.44</ele>
        <time>2013-05-08T16:03:00Z</time>
      </trkpt>
      <trkpt lat="46.72921" lon="6.2805">
        <ele>1097.48</ele>
        <time>2013-05-08T16:03:04Z</time>
      </trkpt>
      <trkpt lat="46.7295" lon="6.27973">
        <ele>1097</ele>
        <time>2013-05-08T16:03:14Z</time>
      </trkpt>
      <trkpt lat="46.72951" lon="6.27966">
        <ele>1097</ele>
        <time>2013-05-08T16:03:23Z</time>
      </trkpt>
      <trkpt lat="46.72952" lon="6.27961">
        <ele>1097.48</ele>
        <time>2013-05-08T16:03:25Z</time>
      </trkpt>
      <trkpt lat="46.72951" lon="6.27956">
        <ele>1097.96</ele>
        <time>2013-05-08T16:03:28Z</time>
      </trkpt>
      <trkpt lat="46.72951" lon="6.27954">
        <ele>1097.96</ele>
        <time>2013-05-08T16:03:29Z</time>
      </trkpt>
      <trkpt lat="46.72951" lon="6.27952">
        <ele>1097.96</ele>
        <time>2013-05-08T16:03:30Z</time>
      </trkpt>
      <trkpt lat="46.72945" lon="6.27915">
        <ele>1098.44</ele>
        <time>2013-05-08T16:03:41Z</time>
      </trkpt>
      <trkpt lat="46.72944" lon="6.27905">
        <ele>1097.96</ele>
        <time>2013-05-08T16:03:44Z</time>
      </trkpt>
      <trkpt lat="46.72939" lon="6.27894">
        <ele>1098.44</ele>
        <time>2013-05-08T16:03:48Z</time>
      </trkpt>
      <trkpt lat="46.72938" lon="6.27877">
        <ele>1098.44</ele>
        <time>2013-05-08T16:03:54Z</time>
      </trkpt>
      <trkpt lat="46.72937" lon="6.27868">
        <ele>1098.44</ele>
        <time>2013-05-08T16:03:57Z</time>
      </trkpt>
      <trkpt lat="46.72924" lon="6.27857">
        <ele>1099.89</ele>
        <time>2013-05-08T16:04:05Z</time>
      </trkpt>
      <trkpt lat="46.72912" lon="6.27835">
        <ele>1101.81</ele>
        <time>2013-05-08T16:04:15Z</time>
      </trkpt>
      <trkpt lat="46.7289" lon="6.27812">
        <ele>1102.77</ele>
        <time>2013-05-08T16:04:27Z</time>
      </trkpt>
      <trkpt lat="46.72889" lon="6.27811">
        <ele>1102.77</ele>
        <time>2013-05-08T16:04:28Z</time>
      </trkpt>
      <trkpt lat="46.72865" lon="6.27794">
        <ele>1105.17</ele>
        <time>2013-05-08T16:04:43Z</time>
      </trkpt>
      <trkpt lat="46.72863" lon="6.27793">
        <ele>1106.61</ele>
        <time>2013-05-08T16:04:45Z</time>
      </trkpt>
      <trkpt lat="46.72861" lon="6.2779">
        <ele>1105.65</ele>
        <time>2013-05-08T16:04:47Z</time>
      </trkpt>
      <trkpt lat="46.7285" lon="6.27761">
        <ele>1105.65</ele>
        <time>2013-05-08T16:04:59Z</time>
      </trkpt>
      <trkpt lat="46.7283" lon="6.27718">
        <ele>1105.65</ele>
        <time>2013-05-08T16:05:15Z</time>
      </trkpt>
      <trkpt lat="46.72814" lon="6.27685">
        <ele>1105.65</ele>
        <time>2013-05-08T16:05:29Z</time>
      </trkpt>
      <trkpt lat="46.72802" lon="6.27662">
        <ele>1106.13</ele>
        <time>2013-05-08T16:05:42Z</time>
      </trkpt>
      <trkpt lat="46.72793" lon="6.27645">
        <ele>1105.17</ele>
        <time>2013-05-08T16:05:51Z</time>
      </trkpt>
      <trkpt lat="46.72779" lon="6.27621">
        <ele>1104.21</ele>
        <time>2013-05-08T16:06:05Z</time>
      </trkpt>
      <trkpt lat="46.72763" lon="6.2759">
        <ele>1101.81</ele>
        <time>2013-05-08T16:06:19Z</time>
      </trkpt>
      <trkpt lat="46.7275" lon="6.27568">
        <ele>1100.37</ele>
        <time>2013-05-08T16:06:27Z</time>
      </trkpt>
      <trkpt lat="46.72739" lon="6.27555">
        <ele>1102.29</ele>
        <time>2013-05-08T16:06:39Z</time>
      </trkpt>
      <trkpt lat="46.72729" lon="6.27545">
        <ele>1102.29</ele>
        <time>2013-05-08T16:06:47Z</time>
      </trkpt>
      <trkpt lat="46.72702" lon="6.27528">
        <ele>1102.77</ele>
        <time>2013-05-08T16:07:00Z</time>
      </trkpt>
      <trkpt lat="46.72681" lon="6.2752">
        <ele>1103.73</ele>
        <time>2013-05-08T16:07:10Z</time>
      </trkpt>
      <trkpt lat="46.72677" lon="6.27519">
        <ele>1104.21</ele>
        <time>2013-05-08T16:07:12Z</time>
      </trkpt>
      <trkpt lat="46.7267" lon="6.27515">
        <ele>1104.69</ele>
        <time>2013-05-08T16:07:16Z</time>
      </trkpt>
      <trkpt lat="46.72653" lon="6.27493">
        <ele>1104.69</ele>
        <time>2013-05-08T16:07:27Z</time>
      </trkpt>
      <trkpt lat="46.72632" lon="6.2746">
        <ele>1105.17</ele>
        <time>2013-05-08T16:07:41Z</time>
      </trkpt>
      <trkpt lat="46.72623" lon="6.27421">
        <ele>1106.13</ele>
        <time>2013-05-08T16:07:52Z</time>
      </trkpt>
      <trkpt lat="46.72621" lon="6.27375">
        <ele>1105.17</ele>
        <time>2013-05-08T16:08:03Z</time>
      </trkpt>
      <trkpt lat="46.72625" lon="6.27325">
        <ele>1102.29</ele>
        <time>2013-05-08T16:08:15Z</time>
      </trkpt>
      <trkpt lat="46.72623" lon="6.27293">
        <ele>1101.81</ele>
        <time>2013-05-08T16:08:23Z</time>
      </trkpt>
      <trkpt lat="46.7262" lon="6.27255">
        <ele>1100.37</ele>
        <time>2013-05-08T16:08:31Z</time>
      </trkpt>
      <trkpt lat="46.72616" lon="6.2724">
        <ele>1099.89</ele>
        <time>2013-05-08T16:08:33Z</time>
      </trkpt>
      <trkpt lat="46.72614" lon="6.27213">
        <ele>1098.92</ele>
        <time>2013-05-08T16:08:37Z</time>
      </trkpt>
      <trkpt lat="46.72613" lon="6.27199">
        <ele>1097.96</ele>
        <time>2013-05-08T16:08:39Z</time>
      </trkpt>
      <trkpt lat="46.72613" lon="6.27186">
        <ele>1097.48</ele>
        <time>2013-05-08T16:08:41Z</time>
      </trkpt>
      <trkpt lat="46.72613" lon="6.2718">
        <ele>1097.48</ele>
        <time>2013-05-08T16:08:42Z</time>
      </trkpt>
      <trkpt lat="46.72612" lon="6.27173">
        <ele>1097</ele>
        <time>2013-05-08T16:08:43Z</time>
      </trkpt>
      <trkpt lat="46.72612" lon="6.27167">
        <ele>1097.48</ele>
        <time>2013-05-08T16:08:44Z</time>
      </trkpt>
      <trkpt lat="46.72612" lon="6.27162">
        <ele>1097</ele>
        <time>2013-05-08T16:08:45Z</time>
      </trkpt>
      <trkpt lat="46.72613" lon="6.27156">
        <ele>1097</ele>
        <time>2013-05-08T16:08:46Z</time>
      </trkpt>
      <trkpt lat="46.72614" lon="6.2715">
        <ele>1097</ele>
        <time>2013-05-08T16:08:47Z</time>
      </trkpt>
      <trkpt lat="46.72616" lon="6.27145">
        <ele>1096.52</ele>
        <time>2013-05-08T16:08:48Z</time>
      </trkpt>
      <trkpt lat="46.72618" lon="6.27139">
        <ele>1096.52</ele>
        <time>2013-05-08T16:08:49Z</time>
      </trkpt>
      <trkpt lat="46.7262" lon="6.27135">
        <ele>1096.52</ele>
        <time>2013-05-08T16:08:50Z</time>
      </trkpt>
      <trkpt lat="46.72632" lon="6.27115">
        <ele>1094.6</ele>
        <time>2013-05-08T16:08:54Z</time>
      </trkpt>
      <trkpt lat="46.72635" lon="6.27109">
        <ele>1094.12</ele>
        <time>2013-05-08T16:08:55Z</time>
      </trkpt>
      <trkpt lat="46.72637" lon="6.27102">
        <ele>1094.12</ele>
        <time>2013-05-08T16:08:56Z</time>
      </trkpt>
      <trkpt lat="46.72638" lon="6.27095">
        <ele>1093.16</ele>
        <time>2013-05-08T16:08:57Z</time>
      </trkpt>
      <trkpt lat="46.72639" lon="6.27088">
        <ele>1092.68</ele>
        <time>2013-05-08T16:08:58Z</time>
      </trkpt>
      <trkpt lat="46.72638" lon="6.2708">
        <ele>1092.2</ele>
        <time>2013-05-08T16:08:59Z</time>
      </trkpt>
      <trkpt lat="46.72637" lon="6.27073">
        <ele>1092.2</ele>
        <time>2013-05-08T16:09:00Z</time>
      </trkpt>
      <trkpt lat="46.72633" lon="6.27052">
        <ele>1092.2</ele>
        <time>2013-05-08T16:09:04Z</time>
      </trkpt>
      <trkpt lat="46.7263" lon="6.27049">
        <ele>1092.68</ele>
        <time>2013-05-08T16:09:14Z</time>
      </trkpt>
      <trkpt lat="46.7263" lon="6.27046">
        <ele>1092.68</ele>
        <time>2013-05-08T16:09:32Z</time>
      </trkpt>
      <trkpt lat="46.7263" lon="6.27043">
        <ele>1092.68</ele>
        <time>2013-05-08T16:09:33Z</time>
      </trkpt>
      <trkpt lat="46.72629" lon="6.27041">
        <ele>1092.68</ele>
        <time>2013-05-08T16:09:34Z</time>
      </trkpt>
      <trkpt lat="46.72628" lon="6.27038">
        <ele>1092.68</ele>
        <time>2013-05-08T16:09:35Z</time>
      </trkpt>
      <trkpt lat="46.72627" lon="6.27035">
        <ele>1092.68</ele>
        <time>2013-05-08T16:09:36Z</time>
      </trkpt>
      <trkpt lat="46.72627" lon="6.27032">
        <ele>1092.68</ele>
        <time>2013-05-08T16:09:37Z</time>
      </trkpt>
      <trkpt lat="46.72625" lon="6.27029">
        <ele>1092.68</ele>
        <time>2013-05-08T16:09:38Z</time>
      </trkpt>
      <trkpt lat="46.72623" lon="6.27025">
        <ele>1092.68</ele>
        <time>2013-05-08T16:09:39Z</time>
      </trkpt>
      <trkpt lat="46.72621" lon="6.2702">
        <ele>1092.68</ele>
        <time>2013-05-08T16:09:40Z</time>
      </trkpt>
      <trkpt lat="46.72619" lon="6.27017">
        <ele>1092.2</ele>
        <time>2013-05-08T16:09:41Z</time>
      </trkpt>
      <trkpt lat="46.72616" lon="6.27013">
        <ele>1092.68</ele>
        <time>2013-05-08T16:09:42Z</time>
      </trkpt>
      <trkpt lat="46.72604" lon="6.26986">
        <ele>1092.2</ele>
        <time>2013-05-08T16:09:48Z</time>
      </trkpt>
      <trkpt lat="46.72601" lon="6.26983">
        <ele>1092.2</ele>
        <time>2013-05-08T16:09:49Z</time>
      </trkpt>
      <trkpt lat="46.72568" lon="6.26933">
        <ele>1094.12</ele>
        <time>2013-05-08T16:10:00Z</time>
      </trkpt>
      <trkpt lat="46.7255" lon="6.269">
        <ele>1094.12</ele>
        <time>2013-05-08T16:10:08Z</time>
      </trkpt>
      <trkpt lat="46.72548" lon="6.26895">
        <ele>1094.12</ele>
        <time>2013-05-08T16:10:09Z</time>
      </trkpt>
      <trkpt lat="46.72545" lon="6.26889">
        <ele>1093.64</ele>
        <time>2013-05-08T16:10:10Z</time>
      </trkpt>
      <trkpt lat="46.72529" lon="6.26848">
        <ele>1093.64</ele>
        <time>2013-05-08T16:10:18Z</time>
      </trkpt>
      <trkpt lat="46.72526" lon="6.26841">
        <ele>1093.64</ele>
        <time>2013-05-08T16:10:19Z</time>
      </trkpt>
      <trkpt lat="46.72524" lon="6.26834">
        <ele>1093.16</ele>
        <time>2013-05-08T16:10:20Z</time>
      </trkpt>
      <trkpt lat="46.72522" lon="6.26826">
        <ele>1093.16</ele>
        <time>2013-05-08T16:10:21Z</time>
      </trkpt>
      <trkpt lat="46.72519" lon="6.26811">
        <ele>1092.68</ele>
        <time>2013-05-08T16:10:23Z</time>
      </trkpt>
      <trkpt lat="46.72513" lon="6.26785">
        <ele>1091.23</ele>
        <time>2013-05-08T16:10:26Z</time>
      </trkpt>
      <trkpt lat="46.72507" lon="6.26767">
        <ele>1089.31</ele>
        <time>2013-05-08T16:10:28Z</time>
      </trkpt>
      <trkpt lat="46.72503" lon="6.26758">
        <ele>1088.83</ele>
        <time>2013-05-08T16:10:29Z</time>
      </trkpt>
      <trkpt lat="46.72498" lon="6.2675">
        <ele>1088.35</ele>
        <time>2013-05-08T16:10:30Z</time>
      </trkpt>
      <trkpt lat="46.72466" lon="6.26694">
        <ele>1085.47</ele>
        <time>2013-05-08T16:10:36Z</time>
      </trkpt>
      <trkpt lat="46.72461" lon="6.26685">
        <ele>1084.99</ele>
        <time>2013-05-08T16:10:37Z</time>
      </trkpt>
      <trkpt lat="46.72457" lon="6.26675">
        <ele>1084.99</ele>
        <time>2013-05-08T16:10:38Z</time>
      </trkpt>
      <trkpt lat="46.72455" lon="6.26665">
        <ele>1085.47</ele>
        <time>2013-05-08T16:10:39Z</time>
      </trkpt>
      <trkpt lat="46.72455" lon="6.26656">
        <ele>1085.47</ele>
        <time>2013-05-08T16:10:40Z</time>
      </trkpt>
      <trkpt lat="46.72457" lon="6.26649">
        <ele>1085.95</ele>
        <time>2013-05-08T16:10:41Z</time>
      </trkpt>
      <trkpt lat="46.72459" lon="6.26642">
        <ele>1085.47</ele>
        <time>2013-05-08T16:10:42Z</time>
      </trkpt>
      <trkpt lat="46.72462" lon="6.26637">
        <ele>1084.99</ele>
        <time>2013-05-08T16:10:43Z</time>
      </trkpt>
      <trkpt lat="46.72465" lon="6.26631">
        <ele>1084.99</ele>
        <time>2013-05-08T16:10:44Z</time>
      </trkpt>
      <trkpt lat="46.72468" lon="6.26626">
        <ele>1084.5</ele>
        <time>2013-05-08T16:10:45Z</time>
      </trkpt>
      <trkpt lat="46.72473" lon="6.26621">
        <ele>1084.02</ele>
        <time>2013-05-08T16:10:46Z</time>
      </trkpt>
      <trkpt lat="46.72489" lon="6.26596">
        <ele>1083.06</ele>
        <time>2013-05-08T16:10:50Z</time>
      </trkpt>
      <trkpt lat="46.72492" lon="6.26589">
        <ele>1082.58</ele>
        <time>2013-05-08T16:10:51Z</time>
      </trkpt>
      <trkpt lat="46.72496" lon="6.26583">
        <ele>1081.62</ele>
        <time>2013-05-08T16:10:52Z</time>
      </trkpt>
      <trkpt lat="46.72499" lon="6.26579">
        <ele>1081.62</ele>
        <time>2013-05-08T16:10:53Z</time>
      </trkpt>
      <trkpt lat="46.72502" lon="6.26574">
        <ele>1081.62</ele>
        <time>2013-05-08T16:10:54Z</time>
      </trkpt>
      <trkpt lat="46.72506" lon="6.26569">
        <ele>1081.14</ele>
        <time>2013-05-08T16:10:55Z</time>
      </trkpt>
      <trkpt lat="46.7251" lon="6.26565">
        <ele>1080.66</ele>
        <time>2013-05-08T16:10:56Z</time>
      </trkpt>
      <trkpt lat="46.72514" lon="6.26562">
        <ele>1080.18</ele>
        <time>2013-05-08T16:10:57Z</time>
      </trkpt>
      <trkpt lat="46.72525" lon="6.26555">
        <ele>1079.22</ele>
        <time>2013-05-08T16:10:59Z</time>
      </trkpt>
      <trkpt lat="46.72537" lon="6.26539">
        <ele>1075.85</ele>
        <time>2013-05-08T16:11:03Z</time>
      </trkpt>
      <trkpt lat="46.7254" lon="6.26534">
        <ele>1075.37</ele>
        <time>2013-05-08T16:11:04Z</time>
      </trkpt>
      <trkpt lat="46.72542" lon="6.26528">
        <ele>1074.41</ele>
        <time>2013-05-08T16:11:05Z</time>
      </trkpt>
      <trkpt lat="46.72545" lon="6.26521">
        <ele>1073.93</ele>
        <time>2013-05-08T16:11:06Z</time>
      </trkpt>
      <trkpt lat="46.72548" lon="6.26514">
        <ele>1073.45</ele>
        <time>2013-05-08T16:11:07Z</time>
      </trkpt>
      <trkpt lat="46.72551" lon="6.26507">
        <ele>1072.97</ele>
        <time>2013-05-08T16:11:08Z</time>
      </trkpt>
      <trkpt lat="46.72552" lon="6.26499">
        <ele>1072.01</ele>
        <time>2013-05-08T16:11:09Z</time>
      </trkpt>
      <trkpt lat="46.72553" lon="6.2649">
        <ele>1071.53</ele>
        <time>2013-05-08T16:11:10Z</time>
      </trkpt>
      <trkpt lat="46.72555" lon="6.26454">
        <ele>1070.08</ele>
        <time>2013-05-08T16:11:14Z</time>
      </trkpt>
      <trkpt lat="46.72558" lon="6.26433">
        <ele>1068.16</ele>
        <time>2013-05-08T16:11:16Z</time>
      </trkpt>
      <trkpt lat="46.72558" lon="6.264">
        <ele>1067.2</ele>
        <time>2013-05-08T16:11:19Z</time>
      </trkpt>
      <trkpt lat="46.72556" lon="6.26391">
        <ele>1067.2</ele>
        <time>2013-05-08T16:11:20Z</time>
      </trkpt>
      <trkpt lat="46.72555" lon="6.26384">
        <ele>1067.68</ele>
        <time>2013-05-08T16:11:21Z</time>
      </trkpt>
      <trkpt lat="46.72552" lon="6.26377">
        <ele>1068.16</ele>
        <time>2013-05-08T16:11:22Z</time>
      </trkpt>
      <trkpt lat="46.72549" lon="6.26372">
        <ele>1068.64</ele>
        <time>2013-05-08T16:11:23Z</time>
      </trkpt>
      <trkpt lat="46.72546" lon="6.26366">
        <ele>1069.12</ele>
        <time>2013-05-08T16:11:24Z</time>
      </trkpt>
      <trkpt lat="46.72541" lon="6.26356">
        <ele>1069.6</ele>
        <time>2013-05-08T16:11:26Z</time>
      </trkpt>
      <trkpt lat="46.72539" lon="6.26351">
        <ele>1070.08</ele>
        <time>2013-05-08T16:11:27Z</time>
      </trkpt>
      <trkpt lat="46.72509" lon="6.26304">
        <ele>1072.97</ele>
        <time>2013-05-08T16:11:39Z</time>
      </trkpt>
      <trkpt lat="46.72496" lon="6.26278">
        <ele>1074.89</ele>
        <time>2013-05-08T16:11:48Z</time>
      </trkpt>
      <trkpt lat="46.72495" lon="6.26275">
        <ele>1075.37</ele>
        <time>2013-05-08T16:11:49Z</time>
      </trkpt>
      <trkpt lat="46.72494" lon="6.26272">
        <ele>1075.37</ele>
        <time>2013-05-08T16:11:50Z</time>
      </trkpt>
      <trkpt lat="46.72492" lon="6.26269">
        <ele>1075.37</ele>
        <time>2013-05-08T16:11:51Z</time>
      </trkpt>
      <trkpt lat="46.72491" lon="6.26266">
        <ele>1075.37</ele>
        <time>2013-05-08T16:11:52Z</time>
      </trkpt>
      <trkpt lat="46.72489" lon="6.26263">
        <ele>1075.85</ele>
        <time>2013-05-08T16:11:53Z</time>
      </trkpt>
      <trkpt lat="46.72487" lon="6.26259">
        <ele>1075.85</ele>
        <time>2013-05-08T16:11:54Z</time>
      </trkpt>
      <trkpt lat="46.72485" lon="6.26256">
        <ele>1075.85</ele>
        <time>2013-05-08T16:11:55Z</time>
      </trkpt>
      <trkpt lat="46.72483" lon="6.26253">
        <ele>1076.33</ele>
        <time>2013-05-08T16:11:56Z</time>
      </trkpt>
      <trkpt lat="46.7248" lon="6.2625">
        <ele>1076.33</ele>
        <time>2013-05-08T16:11:57Z</time>
      </trkpt>
      <trkpt lat="46.72467" lon="6.26219">
        <ele>1077.78</ele>
        <time>2013-05-08T16:12:06Z</time>
      </trkpt>
      <trkpt lat="46.72465" lon="6.26216">
        <ele>1077.78</ele>
        <time>2013-05-08T16:12:07Z</time>
      </trkpt>
      <trkpt lat="46.72463" lon="6.26213">
        <ele>1078.26</ele>
        <time>2013-05-08T16:12:08Z</time>
      </trkpt>
      <trkpt lat="46.72461" lon="6.2621">
        <ele>1078.26</ele>
        <time>2013-05-08T16:12:09Z</time>
      </trkpt>
      <trkpt lat="46.72459" lon="6.26207">
        <ele>1078.74</ele>
        <time>2013-05-08T16:12:10Z</time>
      </trkpt>
      <trkpt lat="46.72458" lon="6.26204">
        <ele>1078.74</ele>
        <time>2013-05-08T16:12:11Z</time>
      </trkpt>
      <trkpt lat="46.72456" lon="6.262">
        <ele>1079.22</ele>
        <time>2013-05-08T16:12:12Z</time>
      </trkpt>
      <trkpt lat="46.72439" lon="6.26172">
        <ele>1081.14</ele>
        <time>2013-05-08T16:12:21Z</time>
      </trkpt>
      <trkpt lat="46.72437" lon="6.26169">
        <ele>1080.66</ele>
        <time>2013-05-08T16:12:22Z</time>
      </trkpt>
      <trkpt lat="46.72435" lon="6.26166">
        <ele>1080.66</ele>
        <time>2013-05-08T16:12:23Z</time>
      </trkpt>
      <trkpt lat="46.72413" lon="6.26141">
        <ele>1082.58</ele>
        <time>2013-05-08T16:12:31Z</time>
      </trkpt>
      <trkpt lat="46.72379" lon="6.2611">
        <ele>1085.47</ele>
        <time>2013-05-08T16:12:43Z</time>
      </trkpt>
      <trkpt lat="46.72351" lon="6.26098">
        <ele>1086.91</ele>
        <time>2013-05-08T16:12:54Z</time>
      </trkpt>
      <trkpt lat="46.7231" lon="6.26081">
        <ele>1089.31</ele>
        <time>2013-05-08T16:13:06Z</time>
      </trkpt>
      <trkpt lat="46.72277" lon="6.26055">
        <ele>1091.71</ele>
        <time>2013-05-08T16:13:18Z</time>
      </trkpt>
      <trkpt lat="46.72243" lon="6.26037">
        <ele>1093.64</ele>
        <time>2013-05-08T16:13:29Z</time>
      </trkpt>
      <trkpt lat="46.72204" lon="6.26013">
        <ele>1096.52</ele>
        <time>2013-05-08T16:13:42Z</time>
      </trkpt>
      <trkpt lat="46.72175" lon="6.25976">
        <ele>1098.44</ele>
        <time>2013-05-08T16:13:54Z</time>
      </trkpt>
      <trkpt lat="46.72151" lon="6.25945">
        <ele>1100.37</ele>
        <time>2013-05-08T16:14:03Z</time>
      </trkpt>
      <trkpt lat="46.72137" lon="6.25926">
        <ele>1101.81</ele>
        <time>2013-05-08T16:14:10Z</time>
      </trkpt>
      <trkpt lat="46.72136" lon="6.25924">
        <ele>1101.81</ele>
        <time>2013-05-08T16:14:11Z</time>
      </trkpt>
      <trkpt lat="46.72135" lon="6.25921">
        <ele>1102.29</ele>
        <time>2013-05-08T16:14:12Z</time>
      </trkpt>
      <trkpt lat="46.72134" lon="6.25918">
        <ele>1102.29</ele>
        <time>2013-05-08T16:14:13Z</time>
      </trkpt>
      <trkpt lat="46.72133" lon="6.25915">
        <ele>1102.29</ele>
        <time>2013-05-08T16:14:14Z</time>
      </trkpt>
      <trkpt lat="46.72131" lon="6.25897">
        <ele>1102.29</ele>
        <time>2013-05-08T16:14:20Z</time>
      </trkpt>
      <trkpt lat="46.7213" lon="6.25894">
        <ele>1102.29</ele>
        <time>2013-05-08T16:14:21Z</time>
      </trkpt>
      <trkpt lat="46.72129" lon="6.25891">
        <ele>1102.29</ele>
        <time>2013-05-08T16:14:22Z</time>
      </trkpt>
      <trkpt lat="46.72128" lon="6.25882">
        <ele>1101.81</ele>
        <time>2013-05-08T16:14:25Z</time>
      </trkpt>
      <trkpt lat="46.72129" lon="6.2588">
        <ele>1101.81</ele>
        <time>2013-05-08T16:14:26Z</time>
      </trkpt>
      <trkpt lat="46.72129" lon="6.25877">
        <ele>1101.81</ele>
        <time>2013-05-08T16:14:27Z</time>
      </trkpt>
      <trkpt lat="46.72128" lon="6.25874">
        <ele>1101.81</ele>
        <time>2013-05-08T16:14:28Z</time>
      </trkpt>
      <trkpt lat="46.72128" lon="6.25872">
        <ele>1101.33</ele>
        <time>2013-05-08T16:14:29Z</time>
      </trkpt>
      <trkpt lat="46.72128" lon="6.2587">
        <ele>1102.29</ele>
        <time>2013-05-08T16:14:36Z</time>
      </trkpt>
      <trkpt lat="46.72128" lon="6.2587">
        <ele>1101.81</ele>
        <time>2013-05-08T16:14:38Z</time>
      </trkpt>
      <trkpt lat="46.72126" lon="6.25862">
        <ele>1100.85</ele>
        <time>2013-05-08T16:15:07Z</time>
      </trkpt>
      <trkpt lat="46.721" lon="6.25826">
        <ele>1097.48</ele>
        <time>2013-05-08T16:15:15Z</time>
      </trkpt>
      <trkpt lat="46.72069" lon="6.25779">
        <ele>1094.12</ele>
        <time>2013-05-08T16:15:21Z</time>
      </trkpt>
      <trkpt lat="46.72046" lon="6.25737">
        <ele>1090.27</ele>
        <time>2013-05-08T16:15:25Z</time>
      </trkpt>
      <trkpt lat="46.72025" lon="6.25687">
        <ele>1086.91</ele>
        <time>2013-05-08T16:15:29Z</time>
      </trkpt>
      <trkpt lat="46.72012" lon="6.25652">
        <ele>1084.99</ele>
        <time>2013-05-08T16:15:32Z</time>
      </trkpt>
      <trkpt lat="46.72009" lon="6.25639">
        <ele>1084.02</ele>
        <time>2013-05-08T16:15:33Z</time>
      </trkpt>
      <trkpt lat="46.72008" lon="6.25627">
        <ele>1083.06</ele>
        <time>2013-05-08T16:15:34Z</time>
      </trkpt>
      <trkpt lat="46.72008" lon="6.25614">
        <ele>1082.58</ele>
        <time>2013-05-08T16:15:35Z</time>
      </trkpt>
      <trkpt lat="46.72008" lon="6.25602">
        <ele>1082.1</ele>
        <time>2013-05-08T16:15:36Z</time>
      </trkpt>
      <trkpt lat="46.72008" lon="6.25557">
        <ele>1079.22</ele>
        <time>2013-05-08T16:15:40Z</time>
      </trkpt>
      <trkpt lat="46.72007" lon="6.25546">
        <ele>1078.74</ele>
        <time>2013-05-08T16:15:41Z</time>
      </trkpt>
      <trkpt lat="46.71997" lon="6.25488">
        <ele>1075.37</ele>
        <time>2013-05-08T16:15:46Z</time>
      </trkpt>
      <trkpt lat="46.71984" lon="6.25425">
        <ele>1072.01</ele>
        <time>2013-05-08T16:15:51Z</time>
      </trkpt>
      <trkpt lat="46.71972" lon="6.25383">
        <ele>1068.16</ele>
        <time>2013-05-08T16:15:54Z</time>
      </trkpt>
      <trkpt lat="46.71949" lon="6.25326">
        <ele>1064.8</ele>
        <time>2013-05-08T16:15:58Z</time>
      </trkpt>
      <trkpt lat="46.71921" lon="6.25262">
        <ele>1060.95</ele>
        <time>2013-05-08T16:16:03Z</time>
      </trkpt>
      <trkpt lat="46.7191" lon="6.2524">
        <ele>1059.51</ele>
        <time>2013-05-08T16:16:05Z</time>
      </trkpt>
      <trkpt lat="46.7189" lon="6.25188">
        <ele>1056.15</ele>
        <time>2013-05-08T16:16:09Z</time>
      </trkpt>
      <trkpt lat="46.71886" lon="6.25176">
        <ele>1056.63</ele>
        <time>2013-05-08T16:16:10Z</time>
      </trkpt>
      <trkpt lat="46.71881" lon="6.25165">
        <ele>1056.15</ele>
        <time>2013-05-08T16:16:11Z</time>
      </trkpt>
      <trkpt lat="46.71865" lon="6.25138">
        <ele>1059.99</ele>
        <time>2013-05-08T16:16:15Z</time>
      </trkpt>
      <trkpt lat="46.71862" lon="6.25132">
        <ele>1059.03</ele>
        <time>2013-05-08T16:16:17Z</time>
      </trkpt>
      <trkpt lat="46.7186" lon="6.2513">
        <ele>1063.84</ele>
        <time>2013-05-08T16:16:18Z</time>
      </trkpt>
      <trkpt lat="46.71857" lon="6.25127">
        <ele>1062.87</ele>
        <time>2013-05-08T16:16:19Z</time>
      </trkpt>
      <trkpt lat="46.71855" lon="6.25122">
        <ele>1063.36</ele>
        <time>2013-05-08T16:16:22Z</time>
      </trkpt>
      <trkpt lat="46.71854" lon="6.2512">
        <ele>1063.84</ele>
        <time>2013-05-08T16:16:23Z</time>
      </trkpt>
      <trkpt lat="46.71853" lon="6.25118">
        <ele>1064.32</ele>
        <time>2013-05-08T16:16:24Z</time>
      </trkpt>
      <trkpt lat="46.71851" lon="6.25116">
        <ele>1064.32</ele>
        <time>2013-05-08T16:16:25Z</time>
      </trkpt>
      <trkpt lat="46.7185" lon="6.25114">
        <ele>1064.32</ele>
        <time>2013-05-08T16:16:26Z</time>
      </trkpt>
      <trkpt lat="46.71818" lon="6.25072">
        <ele>1065.28</ele>
        <time>2013-05-08T16:16:40Z</time>
      </trkpt>
      <trkpt lat="46.71787" lon="6.25035">
        <ele>1067.2</ele>
        <time>2013-05-08T16:16:52Z</time>
      </trkpt>
      <trkpt lat="46.71772" lon="6.25015">
        <ele>1070.08</ele>
        <time>2013-05-08T16:17:01Z</time>
      </trkpt>
      <trkpt lat="46.71762" lon="6.25008">
        <ele>1072.01</ele>
        <time>2013-05-08T16:17:06Z</time>
      </trkpt>
      <trkpt lat="46.7173" lon="6.24981">
        <ele>1075.37</ele>
        <time>2013-05-08T16:17:16Z</time>
      </trkpt>
      <trkpt lat="46.71703" lon="6.24953">
        <ele>1076.81</ele>
        <time>2013-05-08T16:17:27Z</time>
      </trkpt>
      <trkpt lat="46.71677" lon="6.24924">
        <ele>1079.22</ele>
        <time>2013-05-08T16:17:38Z</time>
      </trkpt>
      <trkpt lat="46.7165" lon="6.24896">
        <ele>1082.1</ele>
        <time>2013-05-08T16:17:50Z</time>
      </trkpt>
      <trkpt lat="46.71621" lon="6.24865">
        <ele>1084.99</ele>
        <time>2013-05-08T16:18:01Z</time>
      </trkpt>
      <trkpt lat="46.71596" lon="6.2484">
        <ele>1086.91</ele>
        <time>2013-05-08T16:18:10Z</time>
      </trkpt>
      <trkpt lat="46.71568" lon="6.24808">
        <ele>1087.39</ele>
        <time>2013-05-08T16:18:22Z</time>
      </trkpt>
      <trkpt lat="46.71559" lon="6.24796">
        <ele>1087.87</ele>
        <time>2013-05-08T16:18:26Z</time>
      </trkpt>
      <trkpt lat="46.71534" lon="6.24744">
        <ele>1087.39</ele>
        <time>2013-05-08T16:18:38Z</time>
      </trkpt>
      <trkpt lat="46.71525" lon="6.24726">
        <ele>1087.39</ele>
        <time>2013-05-08T16:18:42Z</time>
      </trkpt>
      <trkpt lat="46.71517" lon="6.24711">
        <ele>1086.91</ele>
        <time>2013-05-08T16:18:45Z</time>
      </trkpt>
      <trkpt lat="46.71514" lon="6.24706">
        <ele>1086.91</ele>
        <time>2013-05-08T16:18:46Z</time>
      </trkpt>
      <trkpt lat="46.71511" lon="6.24701">
        <ele>1087.39</ele>
        <time>2013-05-08T16:18:47Z</time>
      </trkpt>
      <trkpt lat="46.71493" lon="6.24667">
        <ele>1088.35</ele>
        <time>2013-05-08T16:18:56Z</time>
      </trkpt>
      <trkpt lat="46.71483" lon="6.24647">
        <ele>1088.83</ele>
        <time>2013-05-08T16:19:01Z</time>
      </trkpt>
      <trkpt lat="46.71481" lon="6.24643">
        <ele>1089.31</ele>
        <time>2013-05-08T16:19:02Z</time>
      </trkpt>
      <trkpt lat="46.7148" lon="6.24638">
        <ele>1089.79</ele>
        <time>2013-05-08T16:19:03Z</time>
      </trkpt>
      <trkpt lat="46.71468" lon="6.24595">
        <ele>1091.23</ele>
        <time>2013-05-08T16:19:17Z</time>
      </trkpt>
      <trkpt lat="46.71468" lon="6.24593">
        <ele>1091.23</ele>
        <time>2013-05-08T16:19:32Z</time>
      </trkpt>
      <trkpt lat="46.71467" lon="6.24593">
        <ele>1091.71</ele>
        <time>2013-05-08T16:20:00Z</time>
      </trkpt>
      <trkpt lat="46.71467" lon="6.24593">
        <ele>1091.71</ele>
        <time>2013-05-08T16:20:24Z</time>
      </trkpt>
      <trkpt lat="46.71468" lon="6.24592">
        <ele>1091.71</ele>
        <time>2013-05-08T16:20:30Z</time>
      </trkpt>
      <trkpt lat="46.71467" lon="6.24589">
        <ele>1091.71</ele>
        <time>2013-05-08T16:20:31Z</time>
      </trkpt>
      <trkpt lat="46.71467" lon="6.24586">
        <ele>1091.71</ele>
        <time>2013-05-08T16:20:32Z</time>
      </trkpt>
      <trkpt lat="46.71466" lon="6.24583">
        <ele>1091.71</ele>
        <time>2013-05-08T16:20:33Z</time>
      </trkpt>
      <trkpt lat="46.71466" lon="6.24579">
        <ele>1091.71</ele>
        <time>2013-05-08T16:20:34Z</time>
      </trkpt>
      <trkpt lat="46.71465" lon="6.24577">
        <ele>1091.23</ele>
        <time>2013-05-08T16:20:35Z</time>
      </trkpt>
      <trkpt lat="46.71464" lon="6.24574">
        <ele>1091.23</ele>
        <time>2013-05-08T16:20:36Z</time>
      </trkpt>
      <trkpt lat="46.71463" lon="6.24571">
        <ele>1091.71</ele>
        <time>2013-05-08T16:20:37Z</time>
      </trkpt>
      <trkpt lat="46.71449" lon="6.24537">
        <ele>1090.75</ele>
        <time>2013-05-08T16:20:47Z</time>
      </trkpt>
      <trkpt lat="46.71425" lon="6.24508">
        <ele>1090.27</ele>
        <time>2013-05-08T16:20:57Z</time>
      </trkpt>
      <trkpt lat="46.714" lon="6.24477">
        <ele>1090.75</ele>
        <time>2013-05-08T16:21:07Z</time>
      </trkpt>
      <trkpt lat="46.71371" lon="6.24462">
        <ele>1090.27</ele>
        <time>2013-05-08T16:21:16Z</time>
      </trkpt>
      <trkpt lat="46.71346" lon="6.2446">
        <ele>1089.31</ele>
        <time>2013-05-08T16:21:22Z</time>
      </trkpt>
      <trkpt lat="46.71341" lon="6.24459">
        <ele>1088.83</ele>
        <time>2013-05-08T16:21:23Z</time>
      </trkpt>
      <trkpt lat="46.71336" lon="6.24459">
        <ele>1088.35</ele>
        <time>2013-05-08T16:21:24Z</time>
      </trkpt>
      <trkpt lat="46.71332" lon="6.24459">
        <ele>1087.87</ele>
        <time>2013-05-08T16:21:25Z</time>
      </trkpt>
      <trkpt lat="46.71327" lon="6.2446">
        <ele>1087.87</ele>
        <time>2013-05-08T16:21:26Z</time>
      </trkpt>
      <trkpt lat="46.71323" lon="6.2446">
        <ele>1086.91</ele>
        <time>2013-05-08T16:21:27Z</time>
      </trkpt>
      <trkpt lat="46.71317" lon="6.24461">
        <ele>1085.95</ele>
        <time>2013-05-08T16:21:28Z</time>
      </trkpt>
      <trkpt lat="46.71302" lon="6.2446">
        <ele>1084.02</ele>
        <time>2013-05-08T16:21:30Z</time>
      </trkpt>
      <trkpt lat="46.71294" lon="6.24457">
        <ele>1083.54</ele>
        <time>2013-05-08T16:21:31Z</time>
      </trkpt>
      <trkpt lat="46.71288" lon="6.24453">
        <ele>1083.54</ele>
        <time>2013-05-08T16:21:32Z</time>
      </trkpt>
      <trkpt lat="46.71283" lon="6.24448">
        <ele>1084.02</ele>
        <time>2013-05-08T16:21:33Z</time>
      </trkpt>
      <trkpt lat="46.71278" lon="6.24444">
        <ele>1084.99</ele>
        <time>2013-05-08T16:21:34Z</time>
      </trkpt>
      <trkpt lat="46.71274" lon="6.2444">
        <ele>1085.95</ele>
        <time>2013-05-08T16:21:35Z</time>
      </trkpt>
      <trkpt lat="46.7127" lon="6.24437">
        <ele>1086.91</ele>
        <time>2013-05-08T16:21:36Z</time>
      </trkpt>
      <trkpt lat="46.71268" lon="6.24432">
        <ele>1087.39</ele>
        <time>2013-05-08T16:21:37Z</time>
      </trkpt>
      <trkpt lat="46.71267" lon="6.24428">
        <ele>1088.35</ele>
        <time>2013-05-08T16:21:38Z</time>
      </trkpt>
      <trkpt lat="46.71268" lon="6.24424">
        <ele>1088.83</ele>
        <time>2013-05-08T16:21:39Z</time>
      </trkpt>
      <trkpt lat="46.7127" lon="6.2442">
        <ele>1089.31</ele>
        <time>2013-05-08T16:21:40Z</time>
      </trkpt>
      <trkpt lat="46.71272" lon="6.24417">
        <ele>1089.79</ele>
        <time>2013-05-08T16:21:41Z</time>
      </trkpt>
      <trkpt lat="46.71282" lon="6.24393">
        <ele>1090.27</ele>
        <time>2013-05-08T16:21:48Z</time>
      </trkpt>
      <trkpt lat="46.71279" lon="6.24386">
        <ele>1090.75</ele>
        <time>2013-05-08T16:21:51Z</time>
      </trkpt>
      <trkpt lat="46.71277" lon="6.24385">
        <ele>1091.23</ele>
        <time>2013-05-08T16:21:52Z</time>
      </trkpt>
      <trkpt lat="46.71275" lon="6.24385">
        <ele>1091.71</ele>
        <time>2013-05-08T16:21:53Z</time>
      </trkpt>
      <trkpt lat="46.71273" lon="6.24382">
        <ele>1091.71</ele>
        <time>2013-05-08T16:21:54Z</time>
      </trkpt>
      <trkpt lat="46.7127" lon="6.2438">
        <ele>1092.2</ele>
        <time>2013-05-08T16:21:55Z</time>
      </trkpt>
      <trkpt lat="46.71267" lon="6.24378">
        <ele>1092.2</ele>
        <time>2013-05-08T16:21:56Z</time>
      </trkpt>
      <trkpt lat="46.71248" lon="6.24337">
        <ele>1093.16</ele>
        <time>2013-05-08T16:22:07Z</time>
      </trkpt>
      <trkpt lat="46.71247" lon="6.24329">
        <ele>1093.16</ele>
        <time>2013-05-08T16:22:09Z</time>
      </trkpt>
      <trkpt lat="46.71245" lon="6.24308">
        <ele>1093.16</ele>
        <time>2013-05-08T16:22:14Z</time>
      </trkpt>
      <trkpt lat="46.71235" lon="6.24267">
        <ele>1095.08</ele>
        <time>2013-05-08T16:22:24Z</time>
      </trkpt>
      <trkpt lat="46.71235" lon="6.24263">
        <ele>1095.08</ele>
        <time>2013-05-08T16:22:25Z</time>
      </trkpt>
      <trkpt lat="46.71233" lon="6.24246">
        <ele>1096.04</ele>
        <time>2013-05-08T16:22:30Z</time>
      </trkpt>
      <trkpt lat="46.71222" lon="6.24195">
        <ele>1097.96</ele>
        <time>2013-05-08T16:22:44Z</time>
      </trkpt>
      <trkpt lat="46.71207" lon="6.24153">
        <ele>1098.44</ele>
        <time>2013-05-08T16:22:54Z</time>
      </trkpt>
      <trkpt lat="46.71187" lon="6.24107">
        <ele>1097.96</ele>
        <time>2013-05-08T16:23:06Z</time>
      </trkpt>
      <trkpt lat="46.71167" lon="6.24066">
        <ele>1097.96</ele>
        <time>2013-05-08T16:23:19Z</time>
      </trkpt>
      <trkpt lat="46.71152" lon="6.24027">
        <ele>1095.56</ele>
        <time>2013-05-08T16:23:28Z</time>
      </trkpt>
      <trkpt lat="46.71144" lon="6.2401">
        <ele>1094.12</ele>
        <time>2013-05-08T16:23:31Z</time>
      </trkpt>
      <trkpt lat="46.71141" lon="6.24004">
        <ele>1093.64</ele>
        <time>2013-05-08T16:23:32Z</time>
      </trkpt>
      <trkpt lat="46.71137" lon="6.23999">
        <ele>1093.64</ele>
        <time>2013-05-08T16:23:33Z</time>
      </trkpt>
      <trkpt lat="46.71132" lon="6.23994">
        <ele>1093.64</ele>
        <time>2013-05-08T16:23:34Z</time>
      </trkpt>
      <trkpt lat="46.71129" lon="6.23989">
        <ele>1093.64</ele>
        <time>2013-05-08T16:23:35Z</time>
      </trkpt>
      <trkpt lat="46.71111" lon="6.23971">
        <ele>1094.12</ele>
        <time>2013-05-08T16:23:42Z</time>
      </trkpt>
      <trkpt lat="46.7111" lon="6.23968">
        <ele>1094.12</ele>
        <time>2013-05-08T16:23:43Z</time>
      </trkpt>
      <trkpt lat="46.7111" lon="6.23965">
        <ele>1094.12</ele>
        <time>2013-05-08T16:23:44Z</time>
      </trkpt>
      <trkpt lat="46.71112" lon="6.23961">
        <ele>1093.64</ele>
        <time>2013-05-08T16:23:54Z</time>
      </trkpt>
      <trkpt lat="46.71112" lon="6.23961">
        <ele>1093.16</ele>
        <time>2013-05-08T16:24:23Z</time>
      </trkpt>
      <trkpt lat="46.71113" lon="6.2396">
        <ele>1093.64</ele>
        <time>2013-05-08T16:24:51Z</time>
      </trkpt>
      <trkpt lat="46.71115" lon="6.2393">
        <ele>1091.23</ele>
        <time>2013-05-08T16:24:58Z</time>
      </trkpt>
      <trkpt lat="46.71117" lon="6.23923">
        <ele>1090.75</ele>
        <time>2013-05-08T16:24:59Z</time>
      </trkpt>
      <trkpt lat="46.71122" lon="6.23907">
        <ele>1089.79</ele>
        <time>2013-05-08T16:25:01Z</time>
      </trkpt>
      <trkpt lat="46.71138" lon="6.23855">
        <ele>1087.39</ele>
        <time>2013-05-08T16:25:07Z</time>
      </trkpt>
      <trkpt lat="46.71143" lon="6.23806">
        <ele>1084.02</ele>
        <time>2013-05-08T16:25:12Z</time>
      </trkpt>
      <trkpt lat="46.71143" lon="6.23761">
        <ele>1080.66</ele>
        <time>2013-05-08T16:25:16Z</time>
      </trkpt>
      <trkpt lat="46.71144" lon="6.23749">
        <ele>1080.18</ele>
        <time>2013-05-08T16:25:17Z</time>
      </trkpt>
      <trkpt lat="46.71156" lon="6.23693">
        <ele>1076.33</ele>
        <time>2013-05-08T16:25:22Z</time>
      </trkpt>
      <trkpt lat="46.7116" lon="6.23642">
        <ele>1072.49</ele>
        <time>2013-05-08T16:25:26Z</time>
      </trkpt>
      <trkpt lat="46.71161" lon="6.23628">
        <ele>1072.01</ele>
        <time>2013-05-08T16:25:27Z</time>
      </trkpt>
      <trkpt lat="46.7116" lon="6.23615">
        <ele>1071.05</ele>
        <time>2013-05-08T16:25:28Z</time>
      </trkpt>
      <trkpt lat="46.71158" lon="6.23603">
        <ele>1070.08</ele>
        <time>2013-05-08T16:25:29Z</time>
      </trkpt>
      <trkpt lat="46.71156" lon="6.2359">
        <ele>1069.12</ele>
        <time>2013-05-08T16:25:30Z</time>
      </trkpt>
      <trkpt lat="46.71154" lon="6.23577">
        <ele>1068.16</ele>
        <time>2013-05-08T16:25:31Z</time>
      </trkpt>
      <trkpt lat="46.71142" lon="6.23525">
        <ele>1064.32</ele>
        <time>2013-05-08T16:25:35Z</time>
      </trkpt>
      <trkpt lat="46.71126" lon="6.23457">
        <ele>1060.95</ele>
        <time>2013-05-08T16:25:40Z</time>
      </trkpt>
      <trkpt lat="46.71123" lon="6.23445">
        <ele>1060.47</ele>
        <time>2013-05-08T16:25:41Z</time>
      </trkpt>
      <trkpt lat="46.71119" lon="6.23434">
        <ele>1059.51</ele>
        <time>2013-05-08T16:25:42Z</time>
      </trkpt>
      <trkpt lat="46.71113" lon="6.23423">
        <ele>1059.03</ele>
        <time>2013-05-08T16:25:43Z</time>
      </trkpt>
      <trkpt lat="46.71107" lon="6.23413">
        <ele>1059.03</ele>
        <time>2013-05-08T16:25:44Z</time>
      </trkpt>
      <trkpt lat="46.71101" lon="6.23403">
        <ele>1058.07</ele>
        <time>2013-05-08T16:25:45Z</time>
      </trkpt>
      <trkpt lat="46.71095" lon="6.23392">
        <ele>1057.11</ele>
        <time>2013-05-08T16:25:46Z</time>
      </trkpt>
      <trkpt lat="46.71089" lon="6.2338">
        <ele>1055.67</ele>
        <time>2013-05-08T16:25:47Z</time>
      </trkpt>
      <trkpt lat="46.71085" lon="6.23367">
        <ele>1055.18</ele>
        <time>2013-05-08T16:25:48Z</time>
      </trkpt>
      <trkpt lat="46.71075" lon="6.23327">
        <ele>1051.34</ele>
        <time>2013-05-08T16:25:51Z</time>
      </trkpt>
      <trkpt lat="46.71073" lon="6.23313">
        <ele>1050.38</ele>
        <time>2013-05-08T16:25:52Z</time>
      </trkpt>
      <trkpt lat="46.71071" lon="6.23283">
        <ele>1047.97</ele>
        <time>2013-05-08T16:25:54Z</time>
      </trkpt>
      <trkpt lat="46.71071" lon="6.23267">
        <ele>1047.01</ele>
        <time>2013-05-08T16:25:55Z</time>
      </trkpt>
      <trkpt lat="46.71075" lon="6.23207">
        <ele>1043.65</ele>
        <time>2013-05-08T16:25:59Z</time>
      </trkpt>
      <trkpt lat="46.71082" lon="6.23147">
        <ele>1039.8</ele>
        <time>2013-05-08T16:26:03Z</time>
      </trkpt>
      <trkpt lat="46.71084" lon="6.23084">
        <ele>1035.96</ele>
        <time>2013-05-08T16:26:07Z</time>
      </trkpt>
      <trkpt lat="46.7108" lon="6.23024">
        <ele>1032.11</ele>
        <time>2013-05-08T16:26:11Z</time>
      </trkpt>
      <trkpt lat="46.71077" lon="6.22964">
        <ele>1027.79</ele>
        <time>2013-05-08T16:26:16Z</time>
      </trkpt>
      <trkpt lat="46.71067" lon="6.22919">
        <ele>1024.42</ele>
        <time>2013-05-08T16:26:20Z</time>
      </trkpt>
      <trkpt lat="46.71061" lon="6.22893">
        <ele>1022.5</ele>
        <time>2013-05-08T16:26:23Z</time>
      </trkpt>
      <trkpt lat="46.71061" lon="6.22887">
        <ele>1022.02</ele>
        <time>2013-05-08T16:26:24Z</time>
      </trkpt>
      <trkpt lat="46.71062" lon="6.22882">
        <ele>1021.54</ele>
        <time>2013-05-08T16:26:25Z</time>
      </trkpt>
      <trkpt lat="46.71064" lon="6.22877">
        <ele>1021.54</ele>
        <time>2013-05-08T16:26:26Z</time>
      </trkpt>
      <trkpt lat="46.71064" lon="6.22873">
        <ele>1021.06</ele>
        <time>2013-05-08T16:26:27Z</time>
      </trkpt>
      <trkpt lat="46.71065" lon="6.2287">
        <ele>1021.06</ele>
        <time>2013-05-08T16:26:28Z</time>
      </trkpt>
      <trkpt lat="46.71065" lon="6.22866">
        <ele>1020.58</ele>
        <time>2013-05-08T16:26:29Z</time>
      </trkpt>
      <trkpt lat="46.7106" lon="6.22829">
        <ele>1018.65</ele>
        <time>2013-05-08T16:26:36Z</time>
      </trkpt>
      <trkpt lat="46.71056" lon="6.22815">
        <ele>1018.17</ele>
        <time>2013-05-08T16:26:38Z</time>
      </trkpt>
      <trkpt lat="46.71051" lon="6.22793">
        <ele>1016.73</ele>
        <time>2013-05-08T16:26:41Z</time>
      </trkpt>
      <trkpt lat="46.71049" lon="6.22787">
        <ele>1016.73</ele>
        <time>2013-05-08T16:26:42Z</time>
      </trkpt>
      <trkpt lat="46.71031" lon="6.22708">
        <ele>1015.29</ele>
        <time>2013-05-08T16:26:53Z</time>
      </trkpt>
      <trkpt lat="46.70999" lon="6.22629">
        <ele>1012.41</ele>
        <time>2013-05-08T16:27:04Z</time>
      </trkpt>
      <trkpt lat="46.70995" lon="6.22622">
        <ele>1012.41</ele>
        <time>2013-05-08T16:27:05Z</time>
      </trkpt>
      <trkpt lat="46.70984" lon="6.22604">
        <ele>1011.93</ele>
        <time>2013-05-08T16:27:08Z</time>
      </trkpt>
      <trkpt lat="46.70979" lon="6.226">
        <ele>1011.93</ele>
        <time>2013-05-08T16:27:09Z</time>
      </trkpt>
      <trkpt lat="46.70965" lon="6.22585">
        <ele>1010.96</ele>
        <time>2013-05-08T16:27:12Z</time>
      </trkpt>
      <trkpt lat="46.70962" lon="6.22578">
        <ele>1010.96</ele>
        <time>2013-05-08T16:27:13Z</time>
      </trkpt>
      <trkpt lat="46.7096" lon="6.22571">
        <ele>1010.96</ele>
        <time>2013-05-08T16:27:14Z</time>
      </trkpt>
      <trkpt lat="46.70958" lon="6.22564">
        <ele>1011.44</ele>
        <time>2013-05-08T16:27:15Z</time>
      </trkpt>
      <trkpt lat="46.70958" lon="6.22558">
        <ele>1011.44</ele>
        <time>2013-05-08T16:27:16Z</time>
      </trkpt>
      <trkpt lat="46.70954" lon="6.22526">
        <ele>1013.85</ele>
        <time>2013-05-08T16:27:22Z</time>
      </trkpt>
      <trkpt lat="46.70948" lon="6.22478">
        <ele>1017.21</ele>
        <time>2013-05-08T16:27:33Z</time>
      </trkpt>
      <trkpt lat="46.70936" lon="6.22446">
        <ele>1019.62</ele>
        <time>2013-05-08T16:27:44Z</time>
      </trkpt>
      <trkpt lat="46.70923" lon="6.22407">
        <ele>1020.1</ele>
        <time>2013-05-08T16:27:56Z</time>
      </trkpt>
      <trkpt lat="46.70927" lon="6.22365">
        <ele>1016.73</ele>
        <time>2013-05-08T16:28:06Z</time>
      </trkpt>
      <trkpt lat="46.70927" lon="6.22358">
        <ele>1016.73</ele>
        <time>2013-05-08T16:28:07Z</time>
      </trkpt>
      <trkpt lat="46.70926" lon="6.22351">
        <ele>1016.25</ele>
        <time>2013-05-08T16:28:08Z</time>
      </trkpt>
      <trkpt lat="46.70924" lon="6.22336">
        <ele>1015.29</ele>
        <time>2013-05-08T16:28:10Z</time>
      </trkpt>
      <trkpt lat="46.70916" lon="6.2227">
        <ele>1012.89</ele>
        <time>2013-05-08T16:28:20Z</time>
      </trkpt>
      <trkpt lat="46.70915" lon="6.22215">
        <ele>1009.52</ele>
        <time>2013-05-08T16:28:29Z</time>
      </trkpt>
      <trkpt lat="46.70913" lon="6.22179">
        <ele>1007.12</ele>
        <time>2013-05-08T16:28:34Z</time>
      </trkpt>
      <trkpt lat="46.70911" lon="6.22166">
        <ele>1006.64</ele>
        <time>2013-05-08T16:28:36Z</time>
      </trkpt>
      <trkpt lat="46.70909" lon="6.22159">
        <ele>1005.68</ele>
        <time>2013-05-08T16:28:37Z</time>
      </trkpt>
      <trkpt lat="46.70907" lon="6.22153">
        <ele>1005.2</ele>
        <time>2013-05-08T16:28:38Z</time>
      </trkpt>
      <trkpt lat="46.70905" lon="6.22147">
        <ele>1005.2</ele>
        <time>2013-05-08T16:28:39Z</time>
      </trkpt>
      <trkpt lat="46.70902" lon="6.22141">
        <ele>1004.72</ele>
        <time>2013-05-08T16:28:40Z</time>
      </trkpt>
      <trkpt lat="46.709" lon="6.22136">
        <ele>1004.23</ele>
        <time>2013-05-08T16:28:41Z</time>
      </trkpt>
      <trkpt lat="46.70898" lon="6.2213">
        <ele>1003.75</ele>
        <time>2013-05-08T16:28:42Z</time>
      </trkpt>
      <trkpt lat="46.70896" lon="6.22124">
        <ele>1003.27</ele>
        <time>2013-05-08T16:28:43Z</time>
      </trkpt>
      <trkpt lat="46.70892" lon="6.22101">
        <ele>999.91</ele>
        <time>2013-05-08T16:28:46Z</time>
      </trkpt>
      <trkpt lat="46.7089" lon="6.22094">
        <ele>999.43</ele>
        <time>2013-05-08T16:28:47Z</time>
      </trkpt>
      <trkpt lat="46.70888" lon="6.22086">
        <ele>998.95</ele>
        <time>2013-05-08T16:28:48Z</time>
      </trkpt>
      <trkpt lat="46.70875" lon="6.22038">
        <ele>999.43</ele>
        <time>2013-05-08T16:28:57Z</time>
      </trkpt>
      <trkpt lat="46.70874" lon="6.22035">
        <ele>999.91</ele>
        <time>2013-05-08T16:28:58Z</time>
      </trkpt>
      <trkpt lat="46.70872" lon="6.22031">
        <ele>999.43</ele>
        <time>2013-05-08T16:28:59Z</time>
      </trkpt>
      <trkpt lat="46.70871" lon="6.22027">
        <ele>999.91</ele>
        <time>2013-05-08T16:29:00Z</time>
      </trkpt>
      <trkpt lat="46.7087" lon="6.22024">
        <ele>999.91</ele>
        <time>2013-05-08T16:29:01Z</time>
      </trkpt>
      <trkpt lat="46.70869" lon="6.2202">
        <ele>1000.39</ele>
        <time>2013-05-08T16:29:02Z</time>
      </trkpt>
      <trkpt lat="46.70867" lon="6.22016">
        <ele>1000.39</ele>
        <time>2013-05-08T16:29:03Z</time>
      </trkpt>
      <trkpt lat="46.70865" lon="6.22013">
        <ele>1000.87</ele>
        <time>2013-05-08T16:29:04Z</time>
      </trkpt>
      <trkpt lat="46.70863" lon="6.22009">
        <ele>1000.87</ele>
        <time>2013-05-08T16:29:05Z</time>
      </trkpt>
      <trkpt lat="46.7086" lon="6.22006">
        <ele>1000.87</ele>
        <time>2013-05-08T16:29:06Z</time>
      </trkpt>
      <trkpt lat="46.70859" lon="6.22002">
        <ele>1000.87</ele>
        <time>2013-05-08T16:29:07Z</time>
      </trkpt>
      <trkpt lat="46.70848" lon="6.2198">
        <ele>1000.39</ele>
        <time>2013-05-08T16:29:12Z</time>
      </trkpt>
      <trkpt lat="46.70846" lon="6.21975">
        <ele>1000.39</ele>
        <time>2013-05-08T16:29:13Z</time>
      </trkpt>
      <trkpt lat="46.70844" lon="6.2197">
        <ele>1000.39</ele>
        <time>2013-05-08T16:29:14Z</time>
      </trkpt>
      <trkpt lat="46.70842" lon="6.21965">
        <ele>1000.39</ele>
        <time>2013-05-08T16:29:15Z</time>
      </trkpt>
      <trkpt lat="46.70841" lon="6.2196">
        <ele>1000.39</ele>
        <time>2013-05-08T16:29:16Z</time>
      </trkpt>
      <trkpt lat="46.7084" lon="6.21956">
        <ele>1000.39</ele>
        <time>2013-05-08T16:29:17Z</time>
      </trkpt>
      <trkpt lat="46.70839" lon="6.2195">
        <ele>1000.39</ele>
        <time>2013-05-08T16:29:18Z</time>
      </trkpt>
      <trkpt lat="46.70823" lon="6.21904">
        <ele>1000.87</ele>
        <time>2013-05-08T16:29:28Z</time>
      </trkpt>
      <trkpt lat="46.70815" lon="6.2188">
        <ele>1001.35</ele>
        <time>2013-05-08T16:29:37Z</time>
      </trkpt>
      <trkpt lat="46.70815" lon="6.2188">
        <ele>1001.35</ele>
        <time>2013-05-08T16:30:00Z</time>
      </trkpt>
      <trkpt lat="46.70815" lon="6.2188">
        <ele>1001.35</ele>
        <time>2013-05-08T16:30:20Z</time>
      </trkpt>
      <trkpt lat="46.70812" lon="6.21876">
        <ele>1001.35</ele>
        <time>2013-05-08T16:30:30Z</time>
      </trkpt>
      <trkpt lat="46.70812" lon="6.21873">
        <ele>1000.87</ele>
        <time>2013-05-08T16:30:31Z</time>
      </trkpt>
      <trkpt lat="46.70812" lon="6.2187">
        <ele>1000.87</ele>
        <time>2013-05-08T16:30:32Z</time>
      </trkpt>
      <trkpt lat="46.70812" lon="6.21868">
        <ele>1000.87</ele>
        <time>2013-05-08T16:30:33Z</time>
      </trkpt>
      <trkpt lat="46.70812" lon="6.21865">
        <ele>1000.87</ele>
        <time>2013-05-08T16:30:34Z</time>
      </trkpt>
      <trkpt lat="46.70811" lon="6.21863">
        <ele>1000.87</ele>
        <time>2013-05-08T16:30:35Z</time>
      </trkpt>
      <trkpt lat="46.7081" lon="6.2186">
        <ele>1000.39</ele>
        <time>2013-05-08T16:30:36Z</time>
      </trkpt>
      <trkpt lat="46.7081" lon="6.21857">
        <ele>999.91</ele>
        <time>2013-05-08T16:30:37Z</time>
      </trkpt>
      <trkpt lat="46.7081" lon="6.21854">
        <ele>999.91</ele>
        <time>2013-05-08T16:30:38Z</time>
      </trkpt>
      <trkpt lat="46.70809" lon="6.21851">
        <ele>999.43</ele>
        <time>2013-05-08T16:30:39Z</time>
      </trkpt>
      <trkpt lat="46.70808" lon="6.21847">
        <ele>998.95</ele>
        <time>2013-05-08T16:30:40Z</time>
      </trkpt>
      <trkpt lat="46.70806" lon="6.21841">
        <ele>998.47</ele>
        <time>2013-05-08T16:30:41Z</time>
      </trkpt>
      <trkpt lat="46.70804" lon="6.21837">
        <ele>998.47</ele>
        <time>2013-05-08T16:30:42Z</time>
      </trkpt>
      <trkpt lat="46.70802" lon="6.21834">
        <ele>998.47</ele>
        <time>2013-05-08T16:30:43Z</time>
      </trkpt>
      <trkpt lat="46.70801" lon="6.21831">
        <ele>998.47</ele>
        <time>2013-05-08T16:30:44Z</time>
      </trkpt>
      <trkpt lat="46.708" lon="6.21828">
        <ele>998.47</ele>
        <time>2013-05-08T16:30:45Z</time>
      </trkpt>
      <trkpt lat="46.70799" lon="6.21824">
        <ele>998.95</ele>
        <time>2013-05-08T16:30:46Z</time>
      </trkpt>
      <trkpt lat="46.708" lon="6.21793">
        <ele>995.58</ele>
        <time>2013-05-08T16:30:52Z</time>
      </trkpt>
      <trkpt lat="46.70802" lon="6.21778">
        <ele>993.66</ele>
        <time>2013-05-08T16:30:54Z</time>
      </trkpt>
      <trkpt lat="46.70802" lon="6.2177">
        <ele>992.7</ele>
        <time>2013-05-08T16:30:55Z</time>
      </trkpt>
      <trkpt lat="46.708" lon="6.21758">
        <ele>992.22</ele>
        <time>2013-05-08T16:30:56Z</time>
      </trkpt>
      <trkpt lat="46.70797" lon="6.21747">
        <ele>990.78</ele>
        <time>2013-05-08T16:30:57Z</time>
      </trkpt>
      <trkpt lat="46.70793" lon="6.21737">
        <ele>990.3</ele>
        <time>2013-05-08T16:30:58Z</time>
      </trkpt>
      <trkpt lat="46.70789" lon="6.21726">
        <ele>989.81</ele>
        <time>2013-05-08T16:30:59Z</time>
      </trkpt>
      <trkpt lat="46.70786" lon="6.21715">
        <ele>989.81</ele>
        <time>2013-05-08T16:31:00Z</time>
      </trkpt>
      <trkpt lat="46.7078" lon="6.21681">
        <ele>988.85</ele>
        <time>2013-05-08T16:31:03Z</time>
      </trkpt>
      <trkpt lat="46.70764" lon="6.21608">
        <ele>985.49</ele>
        <time>2013-05-08T16:31:09Z</time>
      </trkpt>
      <trkpt lat="46.70762" lon="6.21594">
        <ele>985.01</ele>
        <time>2013-05-08T16:31:10Z</time>
      </trkpt>
      <trkpt lat="46.70757" lon="6.21541">
        <ele>981.64</ele>
        <time>2013-05-08T16:31:14Z</time>
      </trkpt>
      <trkpt lat="46.70755" lon="6.21494">
        <ele>979.24</ele>
        <time>2013-05-08T16:31:18Z</time>
      </trkpt>
      <trkpt lat="46.70751" lon="6.21464">
        <ele>978.28</ele>
        <time>2013-05-08T16:31:21Z</time>
      </trkpt>
      <trkpt lat="46.70748" lon="6.21434">
        <ele>976.36</ele>
        <time>2013-05-08T16:31:24Z</time>
      </trkpt>
      <trkpt lat="46.70738" lon="6.21368">
        <ele>973.47</ele>
        <time>2013-05-08T16:31:31Z</time>
      </trkpt>
      <trkpt lat="46.70729" lon="6.21314">
        <ele>969.63</ele>
        <time>2013-05-08T16:31:36Z</time>
      </trkpt>
      <trkpt lat="46.7072" lon="6.21255">
        <ele>967.7</ele>
        <time>2013-05-08T16:31:41Z</time>
      </trkpt>
      <trkpt lat="46.70706" lon="6.21191">
        <ele>964.34</ele>
        <time>2013-05-08T16:31:48Z</time>
      </trkpt>
      <trkpt lat="46.70705" lon="6.21184">
        <ele>964.34</ele>
        <time>2013-05-08T16:31:49Z</time>
      </trkpt>
      <trkpt lat="46.70705" lon="6.21177">
        <ele>963.86</ele>
        <time>2013-05-08T16:31:50Z</time>
      </trkpt>
      <trkpt lat="46.70708" lon="6.21171">
        <ele>962.9</ele>
        <time>2013-05-08T16:31:51Z</time>
      </trkpt>
      <trkpt lat="46.70711" lon="6.21166">
        <ele>962.9</ele>
        <time>2013-05-08T16:31:52Z</time>
      </trkpt>
      <trkpt lat="46.70716" lon="6.21163">
        <ele>962.42</ele>
        <time>2013-05-08T16:31:53Z</time>
      </trkpt>
      <trkpt lat="46.70721" lon="6.21161">
        <ele>961.94</ele>
        <time>2013-05-08T16:31:54Z</time>
      </trkpt>
      <trkpt lat="46.70727" lon="6.2116">
        <ele>961.46</ele>
        <time>2013-05-08T16:31:55Z</time>
      </trkpt>
      <trkpt lat="46.70733" lon="6.21158">
        <ele>961.46</ele>
        <time>2013-05-08T16:31:56Z</time>
      </trkpt>
      <trkpt lat="46.70773" lon="6.21142">
        <ele>957.61</ele>
        <time>2013-05-08T16:32:02Z</time>
      </trkpt>
      <trkpt lat="46.70794" lon="6.21127">
        <ele>954.25</ele>
        <time>2013-05-08T16:32:05Z</time>
      </trkpt>
      <trkpt lat="46.70816" lon="6.21106">
        <ele>950.88</ele>
        <time>2013-05-08T16:32:09Z</time>
      </trkpt>
      <trkpt lat="46.70824" lon="6.21097">
        <ele>950.4</ele>
        <time>2013-05-08T16:32:11Z</time>
      </trkpt>
      <trkpt lat="46.7083" lon="6.21088">
        <ele>949.44</ele>
        <time>2013-05-08T16:32:13Z</time>
      </trkpt>
      <trkpt lat="46.70832" lon="6.21082">
        <ele>948.96</ele>
        <time>2013-05-08T16:32:14Z</time>
      </trkpt>
      <trkpt lat="46.70832" lon="6.21076">
        <ele>948.96</ele>
        <time>2013-05-08T16:32:15Z</time>
      </trkpt>
      <trkpt lat="46.70829" lon="6.2107">
        <ele>948.48</ele>
        <time>2013-05-08T16:32:16Z</time>
      </trkpt>
      <trkpt lat="46.70825" lon="6.21067">
        <ele>948</ele>
        <time>2013-05-08T16:32:17Z</time>
      </trkpt>
      <trkpt lat="46.70821" lon="6.21065">
        <ele>947.52</ele>
        <time>2013-05-08T16:32:18Z</time>
      </trkpt>
      <trkpt lat="46.70812" lon="6.21061">
        <ele>947.52</ele>
        <time>2013-05-08T16:32:20Z</time>
      </trkpt>
      <trkpt lat="46.70808" lon="6.21058">
        <ele>947.52</ele>
        <time>2013-05-08T16:32:21Z</time>
      </trkpt>
      <trkpt lat="46.7078" lon="6.21037">
        <ele>947.04</ele>
        <time>2013-05-08T16:32:28Z</time>
      </trkpt>
      <trkpt lat="46.70776" lon="6.21033">
        <ele>947.04</ele>
        <time>2013-05-08T16:32:29Z</time>
      </trkpt>
      <trkpt lat="46.70762" lon="6.2101">
        <ele>947.04</ele>
        <time>2013-05-08T16:32:34Z</time>
      </trkpt>
      <trkpt lat="46.7072" lon="6.2095">
        <ele>946.07</ele>
        <time>2013-05-08T16:32:49Z</time>
      </trkpt>
      <trkpt lat="46.70702" lon="6.20924">
        <ele>945.11</ele>
        <time>2013-05-08T16:32:56Z</time>
      </trkpt>
      <trkpt lat="46.70699" lon="6.20922">
        <ele>945.11</ele>
        <time>2013-05-08T16:32:57Z</time>
      </trkpt>
      <trkpt lat="46.70696" lon="6.20919">
        <ele>944.63</ele>
        <time>2013-05-08T16:32:58Z</time>
      </trkpt>
      <trkpt lat="46.70686" lon="6.2091">
        <ele>944.63</ele>
        <time>2013-05-08T16:33:01Z</time>
      </trkpt>
      <trkpt lat="46.70682" lon="6.20906">
        <ele>944.63</ele>
        <time>2013-05-08T16:33:02Z</time>
      </trkpt>
      <trkpt lat="46.70679" lon="6.20902">
        <ele>944.63</ele>
        <time>2013-05-08T16:33:03Z</time>
      </trkpt>
      <trkpt lat="46.70666" lon="6.20886">
        <ele>944.15</ele>
        <time>2013-05-08T16:33:07Z</time>
      </trkpt>
      <trkpt lat="46.70663" lon="6.20882">
        <ele>943.67</ele>
        <time>2013-05-08T16:33:08Z</time>
      </trkpt>
      <trkpt lat="46.70659" lon="6.20878">
        <ele>943.67</ele>
        <time>2013-05-08T16:33:09Z</time>
      </trkpt>
      <trkpt lat="46.70641" lon="6.20856">
        <ele>943.67</ele>
        <time>2013-05-08T16:33:19Z</time>
      </trkpt>
      <trkpt lat="46.7064" lon="6.20857">
        <ele>943.67</ele>
        <time>2013-05-08T16:33:20Z</time>
      </trkpt>
      <trkpt lat="46.70639" lon="6.20859">
        <ele>943.67</ele>
        <time>2013-05-08T16:33:21Z</time>
      </trkpt>
      <trkpt lat="46.7064" lon="6.20861">
        <ele>943.67</ele>
        <time>2013-05-08T16:33:22Z</time>
      </trkpt>
      <trkpt lat="46.70642" lon="6.20863">
        <ele>943.67</ele>
        <time>2013-05-08T16:33:23Z</time>
      </trkpt>
      <trkpt lat="46.70644" lon="6.20866">
        <ele>943.67</ele>
        <time>2013-05-08T16:33:24Z</time>
      </trkpt>
      <trkpt lat="46.70647" lon="6.20868">
        <ele>943.67</ele>
        <time>2013-05-08T16:33:25Z</time>
      </trkpt>
      <trkpt lat="46.7065" lon="6.20875">
        <ele>944.15</ele>
        <time>2013-05-08T16:33:28Z</time>
      </trkpt>
      <trkpt lat="46.70647" lon="6.20878">
        <ele>944.15</ele>
        <time>2013-05-08T16:33:40Z</time>
      </trkpt>
      <trkpt lat="46.70647" lon="6.20878">
        <ele>944.15</ele>
        <time>2013-05-08T16:34:09Z</time>
      </trkpt>
      <trkpt lat="46.70648" lon="6.20877">
        <ele>944.63</ele>
        <time>2013-05-08T16:34:32Z</time>
      </trkpt>
      <trkpt lat="46.70648" lon="6.20874">
        <ele>944.15</ele>
        <time>2013-05-08T16:34:40Z</time>
      </trkpt>
      <trkpt lat="46.70632" lon="6.20847">
        <ele>942.71</ele>
        <time>2013-05-08T16:34:48Z</time>
      </trkpt>
      <trkpt lat="46.70585" lon="6.2077">
        <ele>940.79</ele>
        <time>2013-05-08T16:35:03Z</time>
      </trkpt>
      <trkpt lat="46.70581" lon="6.20765">
        <ele>940.79</ele>
        <time>2013-05-08T16:35:04Z</time>
      </trkpt>
      <trkpt lat="46.7057" lon="6.20748">
        <ele>940.79</ele>
        <time>2013-05-08T16:35:07Z</time>
      </trkpt>
      <trkpt lat="46.70567" lon="6.20742">
        <ele>940.79</ele>
        <time>2013-05-08T16:35:08Z</time>
      </trkpt>
      <trkpt lat="46.70565" lon="6.20735">
        <ele>940.79</ele>
        <time>2013-05-08T16:35:09Z</time>
      </trkpt>
      <trkpt lat="46.70557" lon="6.20707">
        <ele>940.79</ele>
        <time>2013-05-08T16:35:13Z</time>
      </trkpt>
      <trkpt lat="46.70552" lon="6.20686">
        <ele>941.27</ele>
        <time>2013-05-08T16:35:16Z</time>
      </trkpt>
      <trkpt lat="46.7055" lon="6.2068">
        <ele>941.75</ele>
        <time>2013-05-08T16:35:17Z</time>
      </trkpt>
      <trkpt lat="46.70541" lon="6.20646">
        <ele>944.15</ele>
        <time>2013-05-08T16:35:23Z</time>
      </trkpt>
      <trkpt lat="46.70541" lon="6.2064">
        <ele>944.15</ele>
        <time>2013-05-08T16:35:24Z</time>
      </trkpt>
      <trkpt lat="46.70534" lon="6.20598">
        <ele>943.67</ele>
        <time>2013-05-08T16:35:30Z</time>
      </trkpt>
      <trkpt lat="46.70527" lon="6.20568">
        <ele>941.75</ele>
        <time>2013-05-08T16:35:34Z</time>
      </trkpt>
      <trkpt lat="46.70524" lon="6.20561">
        <ele>941.75</ele>
        <time>2013-05-08T16:35:35Z</time>
      </trkpt>
      <trkpt lat="46.70515" lon="6.20544">
        <ele>943.19</ele>
        <time>2013-05-08T16:35:38Z</time>
      </trkpt>
      <trkpt lat="46.70512" lon="6.20537">
        <ele>943.19</ele>
        <time>2013-05-08T16:35:39Z</time>
      </trkpt>
      <trkpt lat="46.70511" lon="6.2053">
        <ele>942.71</ele>
        <time>2013-05-08T16:35:40Z</time>
      </trkpt>
      <trkpt lat="46.70509" lon="6.20523">
        <ele>942.71</ele>
        <time>2013-05-08T16:35:41Z</time>
      </trkpt>
      <trkpt lat="46.70507" lon="6.20517">
        <ele>942.71</ele>
        <time>2013-05-08T16:35:42Z</time>
      </trkpt>
      <trkpt lat="46.70505" lon="6.2051">
        <ele>942.71</ele>
        <time>2013-05-08T16:35:43Z</time>
      </trkpt>
      <trkpt lat="46.70503" lon="6.20505">
        <ele>942.71</ele>
        <time>2013-05-08T16:35:44Z</time>
      </trkpt>
      <trkpt lat="46.70501" lon="6.20498">
        <ele>943.19</ele>
        <time>2013-05-08T16:35:45Z</time>
      </trkpt>
      <trkpt lat="46.705" lon="6.20491">
        <ele>942.71</ele>
        <time>2013-05-08T16:35:46Z</time>
      </trkpt>
      <trkpt lat="46.70497" lon="6.20475">
        <ele>942.23</ele>
        <time>2013-05-08T16:35:48Z</time>
      </trkpt>
      <trkpt lat="46.70483" lon="6.20437">
        <ele>941.75</ele>
        <time>2013-05-08T16:35:53Z</time>
      </trkpt>
      <trkpt lat="46.70482" lon="6.20429">
        <ele>942.23</ele>
        <time>2013-05-08T16:35:54Z</time>
      </trkpt>
      <trkpt lat="46.70481" lon="6.20422">
        <ele>942.23</ele>
        <time>2013-05-08T16:35:55Z</time>
      </trkpt>
      <trkpt lat="46.70479" lon="6.20406">
        <ele>941.75</ele>
        <time>2013-05-08T16:35:57Z</time>
      </trkpt>
      <trkpt lat="46.70478" lon="6.20398">
        <ele>942.23</ele>
        <time>2013-05-08T16:35:58Z</time>
      </trkpt>
      <trkpt lat="46.70476" lon="6.2039">
        <ele>942.23</ele>
        <time>2013-05-08T16:35:59Z</time>
      </trkpt>
      <trkpt lat="46.70473" lon="6.20383">
        <ele>942.23</ele>
        <time>2013-05-08T16:36:00Z</time>
      </trkpt>
      <trkpt lat="46.70469" lon="6.20377">
        <ele>942.23</ele>
        <time>2013-05-08T16:36:01Z</time>
      </trkpt>
      <trkpt lat="46.70465" lon="6.20372">
        <ele>942.71</ele>
        <time>2013-05-08T16:36:02Z</time>
      </trkpt>
      <trkpt lat="46.70461" lon="6.20367">
        <ele>942.71</ele>
        <time>2013-05-08T16:36:03Z</time>
      </trkpt>
      <trkpt lat="46.70457" lon="6.20362">
        <ele>942.71</ele>
        <time>2013-05-08T16:36:04Z</time>
      </trkpt>
      <trkpt lat="46.70446" lon="6.20345">
        <ele>942.71</ele>
        <time>2013-05-08T16:36:07Z</time>
      </trkpt>
      <trkpt lat="46.7044" lon="6.20333">
        <ele>942.23</ele>
        <time>2013-05-08T16:36:09Z</time>
      </trkpt>
      <trkpt lat="46.70434" lon="6.203">
        <ele>942.23</ele>
        <time>2013-05-08T16:36:16Z</time>
      </trkpt>
      <trkpt lat="46.70452" lon="6.20289">
        <ele>942.23</ele>
        <time>2013-05-08T16:36:23Z</time>
      </trkpt>
      <trkpt lat="46.70463" lon="6.20286">
        <ele>942.71</ele>
        <time>2013-05-08T16:36:34Z</time>
      </trkpt>
      <trkpt lat="46.70463" lon="6.20286">
        <ele>942.71</ele>
        <time>2013-05-08T16:36:56Z</time>
      </trkpt>
      <trkpt lat="46.70463" lon="6.20285">
        <ele>942.71</ele>
        <time>2013-05-08T16:37:17Z</time>
      </trkpt>
      <trkpt lat="46.70462" lon="6.20284">
        <ele>942.71</ele>
        <time>2013-05-08T16:37:37Z</time>
      </trkpt>
      <trkpt lat="46.70462" lon="6.20284">
        <ele>942.71</ele>
        <time>2013-05-08T16:38:02Z</time>
      </trkpt>
      <trkpt lat="46.70462" lon="6.20285">
        <ele>942.71</ele>
        <time>2013-05-08T16:38:36Z</time>
      </trkpt>
      <trkpt lat="46.70462" lon="6.20285">
        <ele>942.71</ele>
        <time>2013-05-08T16:38:41Z</time>
      </trkpt>
      <trkpt lat="46.70439" lon="6.20295">
        <ele>942.23</ele>
        <time>2013-05-08T16:38:50Z</time>
      </trkpt>
      <trkpt lat="46.70427" lon="6.20278">
        <ele>942.23</ele>
        <time>2013-05-08T16:38:56Z</time>
      </trkpt>
      <trkpt lat="46.70417" lon="6.20238">
        <ele>942.23</ele>
        <time>2013-05-08T16:39:02Z</time>
      </trkpt>
      <trkpt lat="46.70407" lon="6.20205">
        <ele>942.23</ele>
        <time>2013-05-08T16:39:07Z</time>
      </trkpt>
      <trkpt lat="46.70406" lon="6.202">
        <ele>942.23</ele>
        <time>2013-05-08T16:39:08Z</time>
      </trkpt>
      <trkpt lat="46.70404" lon="6.20195">
        <ele>942.71</ele>
        <time>2013-05-08T16:39:09Z</time>
      </trkpt>
      <trkpt lat="46.70388" lon="6.20147">
        <ele>942.71</ele>
        <time>2013-05-08T16:39:21Z</time>
      </trkpt>
      <trkpt lat="46.70377" lon="6.20099">
        <ele>942.23</ele>
        <time>2013-05-08T16:39:31Z</time>
      </trkpt>
      <trkpt lat="46.70359" lon="6.20027">
        <ele>941.75</ele>
        <time>2013-05-08T16:39:45Z</time>
      </trkpt>
      <trkpt lat="46.70354" lon="6.20009">
        <ele>941.75</ele>
        <time>2013-05-08T16:39:48Z</time>
      </trkpt>
      <trkpt lat="46.70352" lon="6.20003">
        <ele>941.27</ele>
        <time>2013-05-08T16:39:49Z</time>
      </trkpt>
      <trkpt lat="46.70337" lon="6.19957">
        <ele>941.27</ele>
        <time>2013-05-08T16:39:57Z</time>
      </trkpt>
      <trkpt lat="46.70335" lon="6.19951">
        <ele>941.27</ele>
        <time>2013-05-08T16:39:58Z</time>
      </trkpt>
      <trkpt lat="46.70328" lon="6.19935">
        <ele>941.27</ele>
        <time>2013-05-08T16:40:01Z</time>
      </trkpt>
      <trkpt lat="46.70325" lon="6.19929">
        <ele>941.27</ele>
        <time>2013-05-08T16:40:02Z</time>
      </trkpt>
      <trkpt lat="46.70305" lon="6.19877">
        <ele>941.27</ele>
        <time>2013-05-08T16:40:11Z</time>
      </trkpt>
      <trkpt lat="46.7027" lon="6.19784">
        <ele>941.27</ele>
        <time>2013-05-08T16:40:28Z</time>
      </trkpt>
      <trkpt lat="46.70241" lon="6.19696">
        <ele>942.71</ele>
        <time>2013-05-08T16:40:45Z</time>
      </trkpt>
      <trkpt lat="46.70214" lon="6.19639">
        <ele>944.15</ele>
        <time>2013-05-08T16:40:59Z</time>
      </trkpt>
      <trkpt lat="46.70195" lon="6.19601">
        <ele>948</ele>
        <time>2013-05-08T16:41:08Z</time>
      </trkpt>
      <trkpt lat="46.70189" lon="6.19587">
        <ele>945.11</ele>
        <time>2013-05-08T16:41:11Z</time>
      </trkpt>
      <trkpt lat="46.70165" lon="6.19526">
        <ele>946.07</ele>
        <time>2013-05-08T16:41:24Z</time>
      </trkpt>
      <trkpt lat="46.70138" lon="6.1946">
        <ele>946.56</ele>
        <time>2013-05-08T16:41:39Z</time>
      </trkpt>
      <trkpt lat="46.70125" lon="6.1943">
        <ele>947.04</ele>
        <time>2013-05-08T16:41:47Z</time>
      </trkpt>
      <trkpt lat="46.70125" lon="6.19426">
        <ele>947.04</ele>
        <time>2013-05-08T16:41:48Z</time>
      </trkpt>
      <trkpt lat="46.70126" lon="6.19421">
        <ele>947.04</ele>
        <time>2013-05-08T16:41:49Z</time>
      </trkpt>
      <trkpt lat="46.70127" lon="6.19417">
        <ele>946.56</ele>
        <time>2013-05-08T16:41:50Z</time>
      </trkpt>
      <trkpt lat="46.7013" lon="6.19411">
        <ele>946.07</ele>
        <time>2013-05-08T16:41:51Z</time>
      </trkpt>
      <trkpt lat="46.70132" lon="6.19406">
        <ele>946.07</ele>
        <time>2013-05-08T16:41:52Z</time>
      </trkpt>
      <trkpt lat="46.70144" lon="6.19385">
        <ele>945.11</ele>
        <time>2013-05-08T16:41:56Z</time>
      </trkpt>
      <trkpt lat="46.70146" lon="6.1938">
        <ele>945.11</ele>
        <time>2013-05-08T16:41:57Z</time>
      </trkpt>
      <trkpt lat="46.70149" lon="6.19375">
        <ele>945.11</ele>
        <time>2013-05-08T16:41:58Z</time>
      </trkpt>
      <trkpt lat="46.70192" lon="6.1931">
        <ele>943.19</ele>
        <time>2013-05-08T16:42:10Z</time>
      </trkpt>
      <trkpt lat="46.70207" lon="6.19288">
        <ele>942.71</ele>
        <time>2013-05-08T16:42:14Z</time>
      </trkpt>
      <trkpt lat="46.70218" lon="6.19271">
        <ele>939.35</ele>
        <time>2013-05-08T16:42:17Z</time>
      </trkpt>
      <trkpt lat="46.70225" lon="6.19259">
        <ele>943.19</ele>
        <time>2013-05-08T16:42:19Z</time>
      </trkpt>
      <trkpt lat="46.70294" lon="6.19153">
        <ele>942.71</ele>
        <time>2013-05-08T16:42:38Z</time>
      </trkpt>
      <trkpt lat="46.70352" lon="6.19062">
        <ele>942.23</ele>
        <time>2013-05-08T16:42:54Z</time>
      </trkpt>
      <trkpt lat="46.70418" lon="6.18964">
        <ele>942.23</ele>
        <time>2013-05-08T16:43:13Z</time>
      </trkpt>
      <trkpt lat="46.70476" lon="6.18884">
        <ele>942.23</ele>
        <time>2013-05-08T16:43:31Z</time>
      </trkpt>
      <trkpt lat="46.70507" lon="6.18843">
        <ele>943.19</ele>
        <time>2013-05-08T16:43:46Z</time>
      </trkpt>
      <trkpt lat="46.70507" lon="6.1884">
        <ele>943.19</ele>
        <time>2013-05-08T16:43:47Z</time>
      </trkpt>
      <trkpt lat="46.70507" lon="6.18837">
        <ele>942.71</ele>
        <time>2013-05-08T16:43:48Z</time>
      </trkpt>
      <trkpt lat="46.70505" lon="6.18834">
        <ele>942.71</ele>
        <time>2013-05-08T16:43:49Z</time>
      </trkpt>
      <trkpt lat="46.70503" lon="6.18831">
        <ele>942.71</ele>
        <time>2013-05-08T16:43:50Z</time>
      </trkpt>
      <trkpt lat="46.70501" lon="6.18828">
        <ele>942.71</ele>
        <time>2013-05-08T16:43:51Z</time>
      </trkpt>
      <trkpt lat="46.70498" lon="6.18824">
        <ele>942.23</ele>
        <time>2013-05-08T16:43:52Z</time>
      </trkpt>
      <trkpt lat="46.70451" lon="6.18775">
        <ele>942.71</ele>
        <time>2013-05-08T16:44:06Z</time>
      </trkpt>
      <trkpt lat="46.70399" lon="6.18728">
        <ele>943.67</ele>
        <time>2013-05-08T16:44:21Z</time>
      </trkpt>
      <trkpt lat="46.70341" lon="6.18679">
        <ele>944.15</ele>
        <time>2013-05-08T16:44:38Z</time>
      </trkpt>
      <trkpt lat="46.70324" lon="6.1866">
        <ele>944.63</ele>
        <time>2013-05-08T16:44:43Z</time>
      </trkpt>
      <trkpt lat="46.70281" lon="6.18587">
        <ele>945.59</ele>
        <time>2013-05-08T16:44:59Z</time>
      </trkpt>
      <trkpt lat="46.70219" lon="6.18506">
        <ele>948</ele>
        <time>2013-05-08T16:45:18Z</time>
      </trkpt>
      <trkpt lat="46.70166" lon="6.18445">
        <ele>950.88</ele>
        <time>2013-05-08T16:45:36Z</time>
      </trkpt>
      <trkpt lat="46.7011" lon="6.18389">
        <ele>953.28</ele>
        <time>2013-05-08T16:45:55Z</time>
      </trkpt>
      <trkpt lat="46.70056" lon="6.1833">
        <ele>956.17</ele>
        <time>2013-05-08T16:46:15Z</time>
      </trkpt>
      <trkpt lat="46.70017" lon="6.18267">
        <ele>959.05</ele>
        <time>2013-05-08T16:46:33Z</time>
      </trkpt>
      <trkpt lat="46.69979" lon="6.18216">
        <ele>960.98</ele>
        <time>2013-05-08T16:46:49Z</time>
      </trkpt>
      <trkpt lat="46.69937" lon="6.18179">
        <ele>962.42</ele>
        <time>2013-05-08T16:47:04Z</time>
      </trkpt>
      <trkpt lat="46.69893" lon="6.18118">
        <ele>965.3</ele>
        <time>2013-05-08T16:47:23Z</time>
      </trkpt>
      <trkpt lat="46.69856" lon="6.18037">
        <ele>967.7</ele>
        <time>2013-05-08T16:47:43Z</time>
      </trkpt>
      <trkpt lat="46.69848" lon="6.1794">
        <ele>969.63</ele>
        <time>2013-05-08T16:48:02Z</time>
      </trkpt>
      <trkpt lat="46.69828" lon="6.17865">
        <ele>971.07</ele>
        <time>2013-05-08T16:48:17Z</time>
      </trkpt>
      <trkpt lat="46.69801" lon="6.17806">
        <ele>973.95</ele>
        <time>2013-05-08T16:48:33Z</time>
      </trkpt>
      <trkpt lat="46.69771" lon="6.17744">
        <ele>977.32</ele>
        <time>2013-05-08T16:48:50Z</time>
      </trkpt>
      <trkpt lat="46.69738" lon="6.17676">
        <ele>978.28</ele>
        <time>2013-05-08T16:49:08Z</time>
      </trkpt>
      <trkpt lat="46.69693" lon="6.17575">
        <ele>978.76</ele>
        <time>2013-05-08T16:49:30Z</time>
      </trkpt>
      <trkpt lat="46.6966" lon="6.17483">
        <ele>979.24</ele>
        <time>2013-05-08T16:49:48Z</time>
      </trkpt>
      <trkpt lat="46.69653" lon="6.17462">
        <ele>979.24</ele>
        <time>2013-05-08T16:49:52Z</time>
      </trkpt>
      <trkpt lat="46.69621" lon="6.17364">
        <ele>978.76</ele>
        <time>2013-05-08T16:50:09Z</time>
      </trkpt>
      <trkpt lat="46.69583" lon="6.1725">
        <ele>978.76</ele>
        <time>2013-05-08T16:50:28Z</time>
      </trkpt>
      <trkpt lat="46.69545" lon="6.17147">
        <ele>978.76</ele>
        <time>2013-05-08T16:50:46Z</time>
      </trkpt>
      <trkpt lat="46.69505" lon="6.17059">
        <ele>979.24</ele>
        <time>2013-05-08T16:51:02Z</time>
      </trkpt>
      <trkpt lat="46.69478" lon="6.16978">
        <ele>981.64</ele>
        <time>2013-05-08T16:51:20Z</time>
      </trkpt>
      <trkpt lat="46.69449" lon="6.16894">
        <ele>982.6</ele>
        <time>2013-05-08T16:51:37Z</time>
      </trkpt>
      <trkpt lat="46.69425" lon="6.16822">
        <ele>984.53</ele>
        <time>2013-05-08T16:51:53Z</time>
      </trkpt>
      <trkpt lat="46.69403" lon="6.16753">
        <ele>984.53</ele>
        <time>2013-05-08T16:52:06Z</time>
      </trkpt>
      <trkpt lat="46.69382" lon="6.16677">
        <ele>986.45</ele>
        <time>2013-05-08T16:52:21Z</time>
      </trkpt>
      <trkpt lat="46.69354" lon="6.16591">
        <ele>986.45</ele>
        <time>2013-05-08T16:52:37Z</time>
      </trkpt>
      <trkpt lat="46.69327" lon="6.16521">
        <ele>986.45</ele>
        <time>2013-05-08T16:52:51Z</time>
      </trkpt>
      <trkpt lat="46.69308" lon="6.16476">
        <ele>985.97</ele>
        <time>2013-05-08T16:52:59Z</time>
      </trkpt>
      <trkpt lat="46.69305" lon="6.1647">
        <ele>985.97</ele>
        <time>2013-05-08T16:53:00Z</time>
      </trkpt>
      <trkpt lat="46.69296" lon="6.16448">
        <ele>985.97</ele>
        <time>2013-05-08T16:53:04Z</time>
      </trkpt>
      <trkpt lat="46.6925" lon="6.16339">
        <ele>986.93</ele>
        <time>2013-05-08T16:53:23Z</time>
      </trkpt>
      <trkpt lat="46.69216" lon="6.16259">
        <ele>988.37</ele>
        <time>2013-05-08T16:53:38Z</time>
      </trkpt>
      <trkpt lat="46.69196" lon="6.16205">
        <ele>989.81</ele>
        <time>2013-05-08T16:53:53Z</time>
      </trkpt>
      <trkpt lat="46.69181" lon="6.16161">
        <ele>989.33</ele>
        <time>2013-05-08T16:54:02Z</time>
      </trkpt>
      <trkpt lat="46.69179" lon="6.16156">
        <ele>988.85</ele>
        <time>2013-05-08T16:54:03Z</time>
      </trkpt>
      <trkpt lat="46.69177" lon="6.16151">
        <ele>988.85</ele>
        <time>2013-05-08T16:54:04Z</time>
      </trkpt>
      <trkpt lat="46.69164" lon="6.16116">
        <ele>988.85</ele>
        <time>2013-05-08T16:54:11Z</time>
      </trkpt>
      <trkpt lat="46.69162" lon="6.16111">
        <ele>988.85</ele>
        <time>2013-05-08T16:54:12Z</time>
      </trkpt>
      <trkpt lat="46.69153" lon="6.16088">
        <ele>988.37</ele>
        <time>2013-05-08T16:54:16Z</time>
      </trkpt>
      <trkpt lat="46.69152" lon="6.16083">
        <ele>988.37</ele>
        <time>2013-05-08T16:54:17Z</time>
      </trkpt>
      <trkpt lat="46.6914" lon="6.16054">
        <ele>988.37</ele>
        <time>2013-05-08T16:54:22Z</time>
      </trkpt>
      <trkpt lat="46.69136" lon="6.16042">
        <ele>988.37</ele>
        <time>2013-05-08T16:54:24Z</time>
      </trkpt>
      <trkpt lat="46.69134" lon="6.16036">
        <ele>988.37</ele>
        <time>2013-05-08T16:54:25Z</time>
      </trkpt>
      <trkpt lat="46.6913" lon="6.16024">
        <ele>988.37</ele>
        <time>2013-05-08T16:54:27Z</time>
      </trkpt>
      <trkpt lat="46.69129" lon="6.16019">
        <ele>988.37</ele>
        <time>2013-05-08T16:54:28Z</time>
      </trkpt>
      <trkpt lat="46.69098" lon="6.15934">
        <ele>989.81</ele>
        <time>2013-05-08T16:54:44Z</time>
      </trkpt>
      <trkpt lat="46.69071" lon="6.15859">
        <ele>989.81</ele>
        <time>2013-05-08T16:54:59Z</time>
      </trkpt>
      <trkpt lat="46.69038" lon="6.1576">
        <ele>992.22</ele>
        <time>2013-05-08T16:55:19Z</time>
      </trkpt>
      <trkpt lat="46.69026" lon="6.15673">
        <ele>992.7</ele>
        <time>2013-05-08T16:55:35Z</time>
      </trkpt>
      <trkpt lat="46.69018" lon="6.15574">
        <ele>992.7</ele>
        <time>2013-05-08T16:55:51Z</time>
      </trkpt>
      <trkpt lat="46.69013" lon="6.15553">
        <ele>992.7</ele>
        <time>2013-05-08T16:55:54Z</time>
      </trkpt>
      <trkpt lat="46.69011" lon="6.15547">
        <ele>992.7</ele>
        <time>2013-05-08T16:55:55Z</time>
      </trkpt>
      <trkpt lat="46.68963" lon="6.15448">
        <ele>994.62</ele>
        <time>2013-05-08T16:56:13Z</time>
      </trkpt>
      <trkpt lat="46.68932" lon="6.15382">
        <ele>997.51</ele>
        <time>2013-05-08T16:56:29Z</time>
      </trkpt>
      <trkpt lat="46.68901" lon="6.15317">
        <ele>999.91</ele>
        <time>2013-05-08T16:56:45Z</time>
      </trkpt>
      <trkpt lat="46.68859" lon="6.15225">
        <ele>997.99</ele>
        <time>2013-05-08T16:57:01Z</time>
      </trkpt>
      <trkpt lat="46.68795" lon="6.15075">
        <ele>997.02</ele>
        <time>2013-05-08T16:57:20Z</time>
      </trkpt>
      <trkpt lat="46.68739" lon="6.14967">
        <ele>994.14</ele>
        <time>2013-05-08T16:57:34Z</time>
      </trkpt>
      <trkpt lat="46.68735" lon="6.14958">
        <ele>994.14</ele>
        <time>2013-05-08T16:57:35Z</time>
      </trkpt>
      <trkpt lat="46.68704" lon="6.14877">
        <ele>990.78</ele>
        <time>2013-05-08T16:57:44Z</time>
      </trkpt>
      <trkpt lat="46.68694" lon="6.14845">
        <ele>990.78</ele>
        <time>2013-05-08T16:57:48Z</time>
      </trkpt>
      <trkpt lat="46.68691" lon="6.14837">
        <ele>991.26</ele>
        <time>2013-05-08T16:57:49Z</time>
      </trkpt>
      <trkpt lat="46.68658" lon="6.14716">
        <ele>992.7</ele>
        <time>2013-05-08T16:58:07Z</time>
      </trkpt>
      <trkpt lat="46.68649" lon="6.14647">
        <ele>993.66</ele>
        <time>2013-05-08T16:58:17Z</time>
      </trkpt>
      <trkpt lat="46.6864" lon="6.1452">
        <ele>994.62</ele>
        <time>2013-05-08T16:58:35Z</time>
      </trkpt>
      <trkpt lat="46.68626" lon="6.14383">
        <ele>997.02</ele>
        <time>2013-05-08T16:58:55Z</time>
      </trkpt>
      <trkpt lat="46.68616" lon="6.14312">
        <ele>1000.39</ele>
        <time>2013-05-08T16:59:08Z</time>
      </trkpt>
      <trkpt lat="46.68609" lon="6.14249">
        <ele>1001.83</ele>
        <time>2013-05-08T16:59:23Z</time>
      </trkpt>
      <trkpt lat="46.68598" lon="6.14161">
        <ele>1002.31</ele>
        <time>2013-05-08T16:59:41Z</time>
      </trkpt>
      <trkpt lat="46.68589" lon="6.14112">
        <ele>1002.31</ele>
        <time>2013-05-08T16:59:50Z</time>
      </trkpt>
      <trkpt lat="46.68564" lon="6.14014">
        <ele>1002.31</ele>
        <time>2013-05-08T17:00:08Z</time>
      </trkpt>
      <trkpt lat="46.68548" lon="6.1395">
        <ele>1003.27</ele>
        <time>2013-05-08T17:00:20Z</time>
      </trkpt>
      <trkpt lat="46.68536" lon="6.13905">
        <ele>1002.79</ele>
        <time>2013-05-08T17:00:28Z</time>
      </trkpt>
      <trkpt lat="46.68535" lon="6.13898">
        <ele>1002.79</ele>
        <time>2013-05-08T17:00:29Z</time>
      </trkpt>
      <trkpt lat="46.68503" lon="6.13779">
        <ele>1002.79</ele>
        <time>2013-05-08T17:00:48Z</time>
      </trkpt>
      <trkpt lat="46.68472" lon="6.13681">
        <ele>1001.35</ele>
        <time>2013-05-08T17:01:04Z</time>
      </trkpt>
      <trkpt lat="46.6844" lon="6.13612">
        <ele>997.99</ele>
        <time>2013-05-08T17:01:13Z</time>
      </trkpt>
      <trkpt lat="46.68381" lon="6.13535">
        <ele>995.1</ele>
        <time>2013-05-08T17:01:24Z</time>
      </trkpt>
      <trkpt lat="46.68301" lon="6.13466">
        <ele>994.14</ele>
        <time>2013-05-08T17:01:37Z</time>
      </trkpt>
      <trkpt lat="46.68278" lon="6.13451">
        <ele>994.14</ele>
        <time>2013-05-08T17:01:41Z</time>
      </trkpt>
      <trkpt lat="46.68272" lon="6.13449">
        <ele>994.14</ele>
        <time>2013-05-08T17:01:42Z</time>
      </trkpt>
      <trkpt lat="46.68267" lon="6.13447">
        <ele>994.14</ele>
        <time>2013-05-08T17:01:43Z</time>
      </trkpt>
      <trkpt lat="46.68261" lon="6.13447">
        <ele>994.62</ele>
        <time>2013-05-08T17:01:44Z</time>
      </trkpt>
      <trkpt lat="46.68256" lon="6.13446">
        <ele>994.62</ele>
        <time>2013-05-08T17:01:45Z</time>
      </trkpt>
      <trkpt lat="46.68251" lon="6.13445">
        <ele>994.14</ele>
        <time>2013-05-08T17:01:46Z</time>
      </trkpt>
      <trkpt lat="46.68245" lon="6.13444">
        <ele>994.62</ele>
        <time>2013-05-08T17:01:47Z</time>
      </trkpt>
      <trkpt lat="46.6824" lon="6.13443">
        <ele>994.14</ele>
        <time>2013-05-08T17:01:48Z</time>
      </trkpt>
      <trkpt lat="46.6817" lon="6.13449">
        <ele>994.62</ele>
        <time>2013-05-08T17:02:02Z</time>
      </trkpt>
      <trkpt lat="46.68149" lon="6.13445">
        <ele>995.58</ele>
        <time>2013-05-08T17:02:09Z</time>
      </trkpt>
      <trkpt lat="46.68146" lon="6.13444">
        <ele>995.1</ele>
        <time>2013-05-08T17:02:10Z</time>
      </trkpt>
      <trkpt lat="46.68112" lon="6.13436">
        <ele>995.58</ele>
        <time>2013-05-08T17:02:20Z</time>
      </trkpt>
      <trkpt lat="46.68082" lon="6.13429">
        <ele>996.54</ele>
        <time>2013-05-08T17:02:30Z</time>
      </trkpt>
      <trkpt lat="46.68051" lon="6.13409">
        <ele>997.02</ele>
        <time>2013-05-08T17:02:44Z</time>
      </trkpt>
      <trkpt lat="46.6802" lon="6.13383">
        <ele>997.02</ele>
        <time>2013-05-08T17:02:56Z</time>
      </trkpt>
      <trkpt lat="46.67997" lon="6.13359">
        <ele>996.06</ele>
        <time>2013-05-08T17:03:03Z</time>
      </trkpt>
      <trkpt lat="46.6797" lon="6.13316">
        <ele>994.62</ele>
        <time>2013-05-08T17:03:15Z</time>
      </trkpt>
      <trkpt lat="46.67957" lon="6.13273">
        <ele>993.66</ele>
        <time>2013-05-08T17:03:28Z</time>
      </trkpt>
      <trkpt lat="46.67955" lon="6.13264">
        <ele>993.66</ele>
        <time>2013-05-08T17:03:30Z</time>
      </trkpt>
      <trkpt lat="46.67952" lon="6.13264">
        <ele>994.14</ele>
        <time>2013-05-08T17:03:31Z</time>
      </trkpt>
      <trkpt lat="46.67951" lon="6.13265">
        <ele>994.14</ele>
        <time>2013-05-08T17:03:32Z</time>
      </trkpt>
      <trkpt lat="46.67951" lon="6.13268">
        <ele>994.14</ele>
        <time>2013-05-08T17:03:33Z</time>
      </trkpt>
      <trkpt lat="46.67951" lon="6.13271">
        <ele>994.14</ele>
        <time>2013-05-08T17:03:34Z</time>
      </trkpt>
      <trkpt lat="46.67951" lon="6.13276">
        <ele>994.14</ele>
        <time>2013-05-08T17:03:45Z</time>
      </trkpt>
      <trkpt lat="46.67951" lon="6.13276">
        <ele>994.14</ele>
        <time>2013-05-08T17:04:06Z</time>
      </trkpt>
      <trkpt lat="46.67952" lon="6.13276">
        <ele>994.14</ele>
        <time>2013-05-08T17:04:35Z</time>
      </trkpt>
      <trkpt lat="46.67952" lon="6.13276">
        <ele>994.14</ele>
        <time>2013-05-08T17:05:00Z</time>
      </trkpt>
      <trkpt lat="46.67952" lon="6.13276">
        <ele>994.14</ele>
        <time>2013-05-08T17:05:24Z</time>
      </trkpt>
      <trkpt lat="46.67952" lon="6.13276">
        <ele>994.14</ele>
        <time>2013-05-08T17:05:51Z</time>
      </trkpt>
      <trkpt lat="46.67951" lon="6.13275">
        <ele>994.14</ele>
        <time>2013-05-08T17:06:08Z</time>
      </trkpt>
      <trkpt lat="46.67951" lon="6.13275">
        <ele>994.14</ele>
        <time>2013-05-08T17:06:19Z</time>
      </trkpt>
      <trkpt lat="46.67953" lon="6.13274">
        <ele>994.14</ele>
        <time>2013-05-08T17:06:20Z</time>
      </trkpt>
      <trkpt lat="46.67955" lon="6.1327">
        <ele>993.66</ele>
        <time>2013-05-08T17:06:21Z</time>
      </trkpt>
      <trkpt lat="46.67955" lon="6.13265">
        <ele>993.66</ele>
        <time>2013-05-08T17:06:22Z</time>
      </trkpt>
      <trkpt lat="46.67954" lon="6.1326">
        <ele>993.66</ele>
        <time>2013-05-08T17:06:23Z</time>
      </trkpt>
      <trkpt lat="46.67953" lon="6.13255">
        <ele>993.66</ele>
        <time>2013-05-08T17:06:24Z</time>
      </trkpt>
      <trkpt lat="46.6795" lon="6.13201">
        <ele>994.14</ele>
        <time>2013-05-08T17:06:35Z</time>
      </trkpt>
      <trkpt lat="46.67953" lon="6.1314">
        <ele>995.1</ele>
        <time>2013-05-08T17:06:47Z</time>
      </trkpt>
      <trkpt lat="46.67967" lon="6.13075">
        <ele>996.06</ele>
        <time>2013-05-08T17:07:01Z</time>
      </trkpt>
      <trkpt lat="46.67981" lon="6.1301">
        <ele>997.02</ele>
        <time>2013-05-08T17:07:15Z</time>
      </trkpt>
      <trkpt lat="46.6799" lon="6.12932">
        <ele>998.47</ele>
        <time>2013-05-08T17:07:30Z</time>
      </trkpt>
      <trkpt lat="46.67984" lon="6.12851">
        <ele>998.95</ele>
        <time>2013-05-08T17:07:45Z</time>
      </trkpt>
      <trkpt lat="46.67971" lon="6.12783">
        <ele>999.91</ele>
        <time>2013-05-08T17:07:59Z</time>
      </trkpt>
      <trkpt lat="46.67947" lon="6.12699">
        <ele>1001.35</ele>
        <time>2013-05-08T17:08:15Z</time>
      </trkpt>
      <trkpt lat="46.6791" lon="6.12616">
        <ele>1001.35</ele>
        <time>2013-05-08T17:08:31Z</time>
      </trkpt>
      <trkpt lat="46.67859" lon="6.12513">
        <ele>1001.35</ele>
        <time>2013-05-08T17:08:50Z</time>
      </trkpt>
      <trkpt lat="46.67802" lon="6.12408">
        <ele>999.91</ele>
        <time>2013-05-08T17:09:06Z</time>
      </trkpt>
      <trkpt lat="46.67739" lon="6.12275">
        <ele>999.91</ele>
        <time>2013-05-08T17:09:25Z</time>
      </trkpt>
      <trkpt lat="46.67677" lon="6.12149">
        <ele>997.02</ele>
        <time>2013-05-08T17:09:42Z</time>
      </trkpt>
      <trkpt lat="46.67672" lon="6.12142">
        <ele>996.54</ele>
        <time>2013-05-08T17:09:43Z</time>
      </trkpt>
      <trkpt lat="46.67666" lon="6.12136">
        <ele>996.06</ele>
        <time>2013-05-08T17:09:44Z</time>
      </trkpt>
      <trkpt lat="46.67564" lon="6.12058">
        <ele>994.14</ele>
        <time>2013-05-08T17:09:59Z</time>
      </trkpt>
      <trkpt lat="46.6751" lon="6.1205">
        <ele>997.51</ele>
        <time>2013-05-08T17:10:09Z</time>
      </trkpt>
      <trkpt lat="46.67474" lon="6.12053">
        <ele>999.43</ele>
        <time>2013-05-08T17:10:17Z</time>
      </trkpt>
      <trkpt lat="46.6745" lon="6.12047">
        <ele>999.91</ele>
        <time>2013-05-08T17:10:23Z</time>
      </trkpt>
      <trkpt lat="46.67411" lon="6.12">
        <ele>1001.83</ele>
        <time>2013-05-08T17:10:37Z</time>
      </trkpt>
      <trkpt lat="46.67393" lon="6.11952">
        <ele>1004.72</ele>
        <time>2013-05-08T17:10:48Z</time>
      </trkpt>
      <trkpt lat="46.67369" lon="6.11892">
        <ele>1007.6</ele>
        <time>2013-05-08T17:11:04Z</time>
      </trkpt>
      <trkpt lat="46.67356" lon="6.11855">
        <ele>1010</ele>
        <time>2013-05-08T17:11:17Z</time>
      </trkpt>
      <trkpt lat="46.67348" lon="6.11819">
        <ele>1011.44</ele>
        <time>2013-05-08T17:11:31Z</time>
      </trkpt>
      <trkpt lat="46.67348" lon="6.11804">
        <ele>1014.81</ele>
        <time>2013-05-08T17:11:36Z</time>
      </trkpt>
      <trkpt lat="46.67344" lon="6.11759">
        <ele>1014.33</ele>
        <time>2013-05-08T17:11:51Z</time>
      </trkpt>
      <trkpt lat="46.67342" lon="6.1174">
        <ele>1015.29</ele>
        <time>2013-05-08T17:11:57Z</time>
      </trkpt>
      <trkpt lat="46.6734" lon="6.11694">
        <ele>1017.21</ele>
        <time>2013-05-08T17:12:13Z</time>
      </trkpt>
      <trkpt lat="46.67336" lon="6.11653">
        <ele>1018.65</ele>
        <time>2013-05-08T17:12:26Z</time>
      </trkpt>
      <trkpt lat="46.67326" lon="6.11611">
        <ele>1019.62</ele>
        <time>2013-05-08T17:12:38Z</time>
      </trkpt>
      <trkpt lat="46.67297" lon="6.11564">
        <ele>1019.62</ele>
        <time>2013-05-08T17:12:53Z</time>
      </trkpt>
      <trkpt lat="46.67252" lon="6.11506">
        <ele>1018.17</ele>
        <time>2013-05-08T17:13:09Z</time>
      </trkpt>
      <trkpt lat="46.67234" lon="6.11473">
        <ele>1015.77</ele>
        <time>2013-05-08T17:13:14Z</time>
      </trkpt>
      <trkpt lat="46.67231" lon="6.11465">
        <ele>1015.29</ele>
        <time>2013-05-08T17:13:15Z</time>
      </trkpt>
      <trkpt lat="46.67229" lon="6.11456">
        <ele>1014.81</ele>
        <time>2013-05-08T17:13:16Z</time>
      </trkpt>
      <trkpt lat="46.67224" lon="6.11438">
        <ele>1013.85</ele>
        <time>2013-05-08T17:13:18Z</time>
      </trkpt>
      <trkpt lat="46.67221" lon="6.11418">
        <ele>1013.37</ele>
        <time>2013-05-08T17:13:20Z</time>
      </trkpt>
      <trkpt lat="46.67214" lon="6.11375">
        <ele>1011.44</ele>
        <time>2013-05-08T17:13:24Z</time>
      </trkpt>
      <trkpt lat="46.67212" lon="6.11353">
        <ele>1010</ele>
        <time>2013-05-08T17:13:26Z</time>
      </trkpt>
      <trkpt lat="46.67211" lon="6.11342">
        <ele>1009.52</ele>
        <time>2013-05-08T17:13:27Z</time>
      </trkpt>
      <trkpt lat="46.67218" lon="6.11247">
        <ele>1005.68</ele>
        <time>2013-05-08T17:13:35Z</time>
      </trkpt>
      <trkpt lat="46.67219" lon="6.11195">
        <ele>1003.27</ele>
        <time>2013-05-08T17:13:39Z</time>
      </trkpt>
      <trkpt lat="46.67218" lon="6.11182">
        <ele>1002.79</ele>
        <time>2013-05-08T17:13:40Z</time>
      </trkpt>
      <trkpt lat="46.67214" lon="6.11154">
        <ele>1001.35</ele>
        <time>2013-05-08T17:13:42Z</time>
      </trkpt>
      <trkpt lat="46.67212" lon="6.11141">
        <ele>1000.87</ele>
        <time>2013-05-08T17:13:43Z</time>
      </trkpt>
      <trkpt lat="46.67205" lon="6.11099">
        <ele>999.43</ele>
        <time>2013-05-08T17:13:46Z</time>
      </trkpt>
      <trkpt lat="46.67201" lon="6.11071">
        <ele>998.47</ele>
        <time>2013-05-08T17:13:48Z</time>
      </trkpt>
      <trkpt lat="46.6719" lon="6.11012">
        <ele>996.06</ele>
        <time>2013-05-08T17:13:52Z</time>
      </trkpt>
      <trkpt lat="46.67175" lon="6.10893">
        <ele>992.7</ele>
        <time>2013-05-08T17:14:00Z</time>
      </trkpt>
      <trkpt lat="46.67166" lon="6.10832">
        <ele>990.78</ele>
        <time>2013-05-08T17:14:05Z</time>
      </trkpt>
      <trkpt lat="46.67167" lon="6.10819">
        <ele>990.3</ele>
        <time>2013-05-08T17:14:06Z</time>
      </trkpt>
      <trkpt lat="46.67169" lon="6.10806">
        <ele>989.33</ele>
        <time>2013-05-08T17:14:07Z</time>
      </trkpt>
      <trkpt lat="46.67172" lon="6.10793">
        <ele>988.85</ele>
        <time>2013-05-08T17:14:08Z</time>
      </trkpt>
      <trkpt lat="46.67176" lon="6.1078">
        <ele>987.89</ele>
        <time>2013-05-08T17:14:09Z</time>
      </trkpt>
      <trkpt lat="46.67182" lon="6.10769">
        <ele>987.41</ele>
        <time>2013-05-08T17:14:10Z</time>
      </trkpt>
      <trkpt lat="46.67189" lon="6.10758">
        <ele>986.93</ele>
        <time>2013-05-08T17:14:11Z</time>
      </trkpt>
      <trkpt lat="46.67196" lon="6.10748">
        <ele>986.45</ele>
        <time>2013-05-08T17:14:12Z</time>
      </trkpt>
      <trkpt lat="46.67202" lon="6.10738">
        <ele>986.45</ele>
        <time>2013-05-08T17:14:13Z</time>
      </trkpt>
      <trkpt lat="46.67208" lon="6.10726">
        <ele>985.49</ele>
        <time>2013-05-08T17:14:14Z</time>
      </trkpt>
      <trkpt lat="46.67212" lon="6.10712">
        <ele>985.01</ele>
        <time>2013-05-08T17:14:15Z</time>
      </trkpt>
      <trkpt lat="46.67214" lon="6.10698">
        <ele>984.53</ele>
        <time>2013-05-08T17:14:16Z</time>
      </trkpt>
      <trkpt lat="46.67213" lon="6.10684">
        <ele>984.05</ele>
        <time>2013-05-08T17:14:17Z</time>
      </trkpt>
      <trkpt lat="46.67211" lon="6.10669">
        <ele>983.09</ele>
        <time>2013-05-08T17:14:18Z</time>
      </trkpt>
      <trkpt lat="46.67207" lon="6.10655">
        <ele>982.6</ele>
        <time>2013-05-08T17:14:19Z</time>
      </trkpt>
      <trkpt lat="46.67203" lon="6.10642">
        <ele>982.6</ele>
        <time>2013-05-08T17:14:20Z</time>
      </trkpt>
      <trkpt lat="46.67186" lon="6.10588">
        <ele>980.68</ele>
        <time>2013-05-08T17:14:24Z</time>
      </trkpt>
      <trkpt lat="46.6718" lon="6.10559">
        <ele>979.24</ele>
        <time>2013-05-08T17:14:26Z</time>
      </trkpt>
      <trkpt lat="46.67176" lon="6.10546">
        <ele>978.76</ele>
        <time>2013-05-08T17:14:27Z</time>
      </trkpt>
      <trkpt lat="46.67171" lon="6.10533">
        <ele>978.28</ele>
        <time>2013-05-08T17:14:28Z</time>
      </trkpt>
      <trkpt lat="46.67165" lon="6.10521">
        <ele>977.8</ele>
        <time>2013-05-08T17:14:29Z</time>
      </trkpt>
      <trkpt lat="46.67158" lon="6.10509">
        <ele>977.32</ele>
        <time>2013-05-08T17:14:30Z</time>
      </trkpt>
      <trkpt lat="46.67153" lon="6.10496">
        <ele>977.8</ele>
        <time>2013-05-08T17:14:31Z</time>
      </trkpt>
      <trkpt lat="46.67148" lon="6.10483">
        <ele>977.32</ele>
        <time>2013-05-08T17:14:32Z</time>
      </trkpt>
      <trkpt lat="46.67144" lon="6.10469">
        <ele>974.91</ele>
        <time>2013-05-08T17:14:33Z</time>
      </trkpt>
      <trkpt lat="46.67131" lon="6.1041">
        <ele>971.55</ele>
        <time>2013-05-08T17:14:37Z</time>
      </trkpt>
      <trkpt lat="46.67126" lon="6.10397">
        <ele>971.07</ele>
        <time>2013-05-08T17:14:38Z</time>
      </trkpt>
      <trkpt lat="46.67119" lon="6.10385">
        <ele>970.11</ele>
        <time>2013-05-08T17:14:39Z</time>
      </trkpt>
      <trkpt lat="46.67111" lon="6.10376">
        <ele>969.63</ele>
        <time>2013-05-08T17:14:40Z</time>
      </trkpt>
      <trkpt lat="46.67102" lon="6.10369">
        <ele>969.15</ele>
        <time>2013-05-08T17:14:41Z</time>
      </trkpt>
      <trkpt lat="46.67092" lon="6.10363">
        <ele>968.67</ele>
        <time>2013-05-08T17:14:42Z</time>
      </trkpt>
      <trkpt lat="46.67073" lon="6.10351">
        <ele>967.7</ele>
        <time>2013-05-08T17:14:44Z</time>
      </trkpt>
      <trkpt lat="46.67065" lon="6.10342">
        <ele>967.22</ele>
        <time>2013-05-08T17:14:45Z</time>
      </trkpt>
      <trkpt lat="46.67058" lon="6.10331">
        <ele>966.74</ele>
        <time>2013-05-08T17:14:46Z</time>
      </trkpt>
      <trkpt lat="46.67053" lon="6.10318">
        <ele>966.26</ele>
        <time>2013-05-08T17:14:47Z</time>
      </trkpt>
      <trkpt lat="46.67049" lon="6.10304">
        <ele>965.3</ele>
        <time>2013-05-08T17:14:48Z</time>
      </trkpt>
      <trkpt lat="46.67047" lon="6.1029">
        <ele>965.3</ele>
        <time>2013-05-08T17:14:49Z</time>
      </trkpt>
      <trkpt lat="46.67046" lon="6.10275">
        <ele>964.34</ele>
        <time>2013-05-08T17:14:50Z</time>
      </trkpt>
      <trkpt lat="46.67046" lon="6.1026">
        <ele>964.34</ele>
        <time>2013-05-08T17:14:51Z</time>
      </trkpt>
      <trkpt lat="46.67044" lon="6.10245">
        <ele>963.38</ele>
        <time>2013-05-08T17:14:52Z</time>
      </trkpt>
      <trkpt lat="46.6704" lon="6.10231">
        <ele>962.9</ele>
        <time>2013-05-08T17:14:53Z</time>
      </trkpt>
      <trkpt lat="46.67035" lon="6.10218">
        <ele>962.42</ele>
        <time>2013-05-08T17:14:54Z</time>
      </trkpt>
      <trkpt lat="46.67028" lon="6.10207">
        <ele>962.42</ele>
        <time>2013-05-08T17:14:55Z</time>
      </trkpt>
      <trkpt lat="46.67021" lon="6.10195">
        <ele>961.46</ele>
        <time>2013-05-08T17:14:56Z</time>
      </trkpt>
      <trkpt lat="46.67015" lon="6.10183">
        <ele>960.98</ele>
        <time>2013-05-08T17:14:57Z</time>
      </trkpt>
      <trkpt lat="46.6701" lon="6.10169">
        <ele>960.01</ele>
        <time>2013-05-08T17:14:58Z</time>
      </trkpt>
      <trkpt lat="46.67005" lon="6.10155">
        <ele>959.53</ele>
        <time>2013-05-08T17:14:59Z</time>
      </trkpt>
      <trkpt lat="46.66967" lon="6.10062">
        <ele>956.17</ele>
        <time>2013-05-08T17:15:06Z</time>
      </trkpt>
      <trkpt lat="46.66946" lon="6.10006">
        <ele>953.28</ele>
        <time>2013-05-08T17:15:10Z</time>
      </trkpt>
      <trkpt lat="46.6694" lon="6.09976">
        <ele>952.32</ele>
        <time>2013-05-08T17:15:12Z</time>
      </trkpt>
      <trkpt lat="46.66937" lon="6.0996">
        <ele>951.36</ele>
        <time>2013-05-08T17:15:13Z</time>
      </trkpt>
      <trkpt lat="46.66934" lon="6.09945">
        <ele>951.36</ele>
        <time>2013-05-08T17:15:14Z</time>
      </trkpt>
      <trkpt lat="46.6693" lon="6.0993">
        <ele>950.88</ele>
        <time>2013-05-08T17:15:15Z</time>
      </trkpt>
      <trkpt lat="46.66925" lon="6.09916">
        <ele>950.4</ele>
        <time>2013-05-08T17:15:16Z</time>
      </trkpt>
      <trkpt lat="46.66919" lon="6.09902">
        <ele>949.92</ele>
        <time>2013-05-08T17:15:17Z</time>
      </trkpt>
      <trkpt lat="46.66897" lon="6.09846">
        <ele>947.04</ele>
        <time>2013-05-08T17:15:21Z</time>
      </trkpt>
      <trkpt lat="46.66893" lon="6.0983">
        <ele>946.07</ele>
        <time>2013-05-08T17:15:22Z</time>
      </trkpt>
      <trkpt lat="46.66891" lon="6.09814">
        <ele>945.11</ele>
        <time>2013-05-08T17:15:23Z</time>
      </trkpt>
      <trkpt lat="46.66893" lon="6.09799">
        <ele>945.11</ele>
        <time>2013-05-08T17:15:24Z</time>
      </trkpt>
      <trkpt lat="46.66897" lon="6.09784">
        <ele>944.63</ele>
        <time>2013-05-08T17:15:25Z</time>
      </trkpt>
      <trkpt lat="46.66904" lon="6.09771">
        <ele>944.15</ele>
        <time>2013-05-08T17:15:26Z</time>
      </trkpt>
      <trkpt lat="46.66913" lon="6.09762">
        <ele>943.19</ele>
        <time>2013-05-08T17:15:27Z</time>
      </trkpt>
      <trkpt lat="46.66923" lon="6.09756">
        <ele>942.71</ele>
        <time>2013-05-08T17:15:28Z</time>
      </trkpt>
      <trkpt lat="46.66933" lon="6.09749">
        <ele>942.71</ele>
        <time>2013-05-08T17:15:29Z</time>
      </trkpt>
      <trkpt lat="46.66943" lon="6.09742">
        <ele>942.23</ele>
        <time>2013-05-08T17:15:30Z</time>
      </trkpt>
      <trkpt lat="46.66952" lon="6.09731">
        <ele>941.75</ele>
        <time>2013-05-08T17:15:31Z</time>
      </trkpt>
      <trkpt lat="46.66958" lon="6.09718">
        <ele>940.79</ele>
        <time>2013-05-08T17:15:32Z</time>
      </trkpt>
      <trkpt lat="46.66962" lon="6.09703">
        <ele>940.31</ele>
        <time>2013-05-08T17:15:33Z</time>
      </trkpt>
      <trkpt lat="46.66963" lon="6.09687">
        <ele>939.83</ele>
        <time>2013-05-08T17:15:34Z</time>
      </trkpt>
      <trkpt lat="46.66961" lon="6.09671">
        <ele>939.35</ele>
        <time>2013-05-08T17:15:35Z</time>
      </trkpt>
      <trkpt lat="46.66957" lon="6.09656">
        <ele>938.86</ele>
        <time>2013-05-08T17:15:36Z</time>
      </trkpt>
      <trkpt lat="46.66952" lon="6.09642">
        <ele>938.86</ele>
        <time>2013-05-08T17:15:37Z</time>
      </trkpt>
      <trkpt lat="46.66934" lon="6.09549">
        <ele>935.98</ele>
        <time>2013-05-08T17:15:43Z</time>
      </trkpt>
      <trkpt lat="46.66934" lon="6.09532">
        <ele>935.02</ele>
        <time>2013-05-08T17:15:44Z</time>
      </trkpt>
      <trkpt lat="46.66936" lon="6.09516">
        <ele>934.06</ele>
        <time>2013-05-08T17:15:45Z</time>
      </trkpt>
      <trkpt lat="46.6694" lon="6.095">
        <ele>933.1</ele>
        <time>2013-05-08T17:15:46Z</time>
      </trkpt>
      <trkpt lat="46.66944" lon="6.09485">
        <ele>933.1</ele>
        <time>2013-05-08T17:15:47Z</time>
      </trkpt>
      <trkpt lat="46.66951" lon="6.09454">
        <ele>932.14</ele>
        <time>2013-05-08T17:15:49Z</time>
      </trkpt>
      <trkpt lat="46.66952" lon="6.09437">
        <ele>931.17</ele>
        <time>2013-05-08T17:15:50Z</time>
      </trkpt>
      <trkpt lat="46.6695" lon="6.09421">
        <ele>930.21</ele>
        <time>2013-05-08T17:15:51Z</time>
      </trkpt>
      <trkpt lat="46.66945" lon="6.09406">
        <ele>929.73</ele>
        <time>2013-05-08T17:15:52Z</time>
      </trkpt>
      <trkpt lat="46.66938" lon="6.09394">
        <ele>928.77</ele>
        <time>2013-05-08T17:15:53Z</time>
      </trkpt>
      <trkpt lat="46.66929" lon="6.09385">
        <ele>927.81</ele>
        <time>2013-05-08T17:15:54Z</time>
      </trkpt>
      <trkpt lat="46.66918" lon="6.09379">
        <ele>928.29</ele>
        <time>2013-05-08T17:15:55Z</time>
      </trkpt>
      <trkpt lat="46.66908" lon="6.09374">
        <ele>927.81</ele>
        <time>2013-05-08T17:15:56Z</time>
      </trkpt>
      <trkpt lat="46.66897" lon="6.09368">
        <ele>926.85</ele>
        <time>2013-05-08T17:15:57Z</time>
      </trkpt>
      <trkpt lat="46.66888" lon="6.09359">
        <ele>925.89</ele>
        <time>2013-05-08T17:15:58Z</time>
      </trkpt>
      <trkpt lat="46.66879" lon="6.09348">
        <ele>925.41</ele>
        <time>2013-05-08T17:15:59Z</time>
      </trkpt>
      <trkpt lat="46.66872" lon="6.09336">
        <ele>924.45</ele>
        <time>2013-05-08T17:16:00Z</time>
      </trkpt>
      <trkpt lat="46.66865" lon="6.09323">
        <ele>923.96</ele>
        <time>2013-05-08T17:16:01Z</time>
      </trkpt>
      <trkpt lat="46.66858" lon="6.0931">
        <ele>923.48</ele>
        <time>2013-05-08T17:16:02Z</time>
      </trkpt>
      <trkpt lat="46.66852" lon="6.09296">
        <ele>923</ele>
        <time>2013-05-08T17:16:03Z</time>
      </trkpt>
      <trkpt lat="46.66812" lon="6.09198">
        <ele>919.16</ele>
        <time>2013-05-08T17:16:10Z</time>
      </trkpt>
      <trkpt lat="46.66792" lon="6.0914">
        <ele>916.27</ele>
        <time>2013-05-08T17:16:14Z</time>
      </trkpt>
      <trkpt lat="46.66769" lon="6.09069">
        <ele>912.91</ele>
        <time>2013-05-08T17:16:19Z</time>
      </trkpt>
      <trkpt lat="46.66736" lon="6.08986">
        <ele>910.03</ele>
        <time>2013-05-08T17:16:25Z</time>
      </trkpt>
      <trkpt lat="46.66706" lon="6.08938">
        <ele>907.62</ele>
        <time>2013-05-08T17:16:29Z</time>
      </trkpt>
      <trkpt lat="46.66668" lon="6.08879">
        <ele>904.74</ele>
        <time>2013-05-08T17:16:34Z</time>
      </trkpt>
      <trkpt lat="46.6666" lon="6.08867">
        <ele>904.26</ele>
        <time>2013-05-08T17:16:35Z</time>
      </trkpt>
      <trkpt lat="46.66633" lon="6.08817">
        <ele>902.82</ele>
        <time>2013-05-08T17:16:39Z</time>
      </trkpt>
      <trkpt lat="46.66568" lon="6.08683">
        <ele>899.45</ele>
        <time>2013-05-08T17:16:50Z</time>
      </trkpt>
      <trkpt lat="46.66536" lon="6.08588">
        <ele>898.49</ele>
        <time>2013-05-08T17:16:58Z</time>
      </trkpt>
      <trkpt lat="46.66526" lon="6.08569">
        <ele>898.01</ele>
        <time>2013-05-08T17:17:00Z</time>
      </trkpt>
      <trkpt lat="46.6652" lon="6.08561">
        <ele>897.53</ele>
        <time>2013-05-08T17:17:01Z</time>
      </trkpt>
      <trkpt lat="46.66444" lon="6.0846">
        <ele>896.57</ele>
        <time>2013-05-08T17:17:14Z</time>
      </trkpt>
      <trkpt lat="46.6642" lon="6.08436">
        <ele>895.61</ele>
        <time>2013-05-08T17:17:18Z</time>
      </trkpt>
      <trkpt lat="46.66413" lon="6.08433">
        <ele>895.61</ele>
        <time>2013-05-08T17:17:19Z</time>
      </trkpt>
      <trkpt lat="46.66348" lon="6.08397">
        <ele>893.68</ele>
        <time>2013-05-08T17:17:29Z</time>
      </trkpt>
      <trkpt lat="46.66342" lon="6.08391">
        <ele>893.2</ele>
        <time>2013-05-08T17:17:30Z</time>
      </trkpt>
      <trkpt lat="46.66337" lon="6.08384">
        <ele>892.72</ele>
        <time>2013-05-08T17:17:31Z</time>
      </trkpt>
      <trkpt lat="46.66332" lon="6.08377">
        <ele>892.72</ele>
        <time>2013-05-08T17:17:32Z</time>
      </trkpt>
      <trkpt lat="46.66327" lon="6.0837">
        <ele>892.72</ele>
        <time>2013-05-08T17:17:33Z</time>
      </trkpt>
      <trkpt lat="46.66323" lon="6.08362">
        <ele>892.72</ele>
        <time>2013-05-08T17:17:34Z</time>
      </trkpt>
      <trkpt lat="46.66319" lon="6.08353">
        <ele>892.24</ele>
        <time>2013-05-08T17:17:35Z</time>
      </trkpt>
      <trkpt lat="46.66316" lon="6.08344">
        <ele>892.24</ele>
        <time>2013-05-08T17:17:36Z</time>
      </trkpt>
      <trkpt lat="46.66313" lon="6.08334">
        <ele>891.76</ele>
        <time>2013-05-08T17:17:37Z</time>
      </trkpt>
      <trkpt lat="46.6631" lon="6.08325">
        <ele>891.76</ele>
        <time>2013-05-08T17:17:38Z</time>
      </trkpt>
      <trkpt lat="46.66307" lon="6.08316">
        <ele>891.76</ele>
        <time>2013-05-08T17:17:39Z</time>
      </trkpt>
      <trkpt lat="46.66281" lon="6.08202">
        <ele>888.88</ele>
        <time>2013-05-08T17:17:50Z</time>
      </trkpt>
      <trkpt lat="46.66252" lon="6.08059">
        <ele>885.99</ele>
        <time>2013-05-08T17:18:03Z</time>
      </trkpt>
      <trkpt lat="46.66216" lon="6.07887">
        <ele>884.07</ele>
        <time>2013-05-08T17:18:18Z</time>
      </trkpt>
      <trkpt lat="46.66171" lon="6.07753">
        <ele>881.19</ele>
        <time>2013-05-08T17:18:31Z</time>
      </trkpt>
      <trkpt lat="46.66135" lon="6.07684">
        <ele>877.34</ele>
        <time>2013-05-08T17:18:38Z</time>
      </trkpt>
      <trkpt lat="46.66105" lon="6.07646">
        <ele>873.98</ele>
        <time>2013-05-08T17:18:42Z</time>
      </trkpt>
      <trkpt lat="46.66033" lon="6.07586">
        <ele>870.61</ele>
        <time>2013-05-08T17:18:50Z</time>
      </trkpt>
      <trkpt lat="46.66017" lon="6.07572">
        <ele>869.65</ele>
        <time>2013-05-08T17:18:52Z</time>
      </trkpt>
      <trkpt lat="46.65984" lon="6.0755">
        <ele>869.17</ele>
        <time>2013-05-08T17:18:57Z</time>
      </trkpt>
      <trkpt lat="46.65977" lon="6.07547">
        <ele>868.69</ele>
        <time>2013-05-08T17:18:58Z</time>
      </trkpt>
      <trkpt lat="46.65971" lon="6.07546">
        <ele>869.17</ele>
        <time>2013-05-08T17:18:59Z</time>
      </trkpt>
      <trkpt lat="46.65965" lon="6.07545">
        <ele>869.17</ele>
        <time>2013-05-08T17:19:00Z</time>
      </trkpt>
      <trkpt lat="46.65958" lon="6.07545">
        <ele>869.17</ele>
        <time>2013-05-08T17:19:01Z</time>
      </trkpt>
      <trkpt lat="46.65952" lon="6.07545">
        <ele>868.69</ele>
        <time>2013-05-08T17:19:02Z</time>
      </trkpt>
      <trkpt lat="46.65876" lon="6.07544">
        <ele>869.65</ele>
        <time>2013-05-08T17:19:15Z</time>
      </trkpt>
      <trkpt lat="46.65867" lon="6.0754">
        <ele>869.65</ele>
        <time>2013-05-08T17:19:17Z</time>
      </trkpt>
      <trkpt lat="46.65828" lon="6.07503">
        <ele>873.01</ele>
        <time>2013-05-08T17:19:30Z</time>
      </trkpt>
      <trkpt lat="46.65804" lon="6.07482">
        <ele>874.94</ele>
        <time>2013-05-08T17:19:41Z</time>
      </trkpt>
      <trkpt lat="46.65763" lon="6.07473">
        <ele>877.34</ele>
        <time>2013-05-08T17:19:56Z</time>
      </trkpt>
      <trkpt lat="46.65734" lon="6.07496">
        <ele>879.26</ele>
        <time>2013-05-08T17:20:08Z</time>
      </trkpt>
      <trkpt lat="46.65715" lon="6.07534">
        <ele>880.22</ele>
        <time>2013-05-08T17:20:20Z</time>
      </trkpt>
      <trkpt lat="46.6572" lon="6.07587">
        <ele>882.63</ele>
        <time>2013-05-08T17:20:34Z</time>
      </trkpt>
      <trkpt lat="46.65744" lon="6.07651">
        <ele>885.51</ele>
        <time>2013-05-08T17:20:50Z</time>
      </trkpt>
      <trkpt lat="46.65765" lon="6.0771">
        <ele>887.91</ele>
        <time>2013-05-08T17:21:05Z</time>
      </trkpt>
      <trkpt lat="46.65776" lon="6.07767">
        <ele>890.8</ele>
        <time>2013-05-08T17:21:19Z</time>
      </trkpt>
      <trkpt lat="46.65777" lon="6.07816">
        <ele>893.2</ele>
        <time>2013-05-08T17:21:31Z</time>
      </trkpt>
      <trkpt lat="46.65779" lon="6.07837">
        <ele>894.64</ele>
        <time>2013-05-08T17:21:37Z</time>
      </trkpt>
      <trkpt lat="46.6578" lon="6.07839">
        <ele>894.64</ele>
        <time>2013-05-08T17:21:38Z</time>
      </trkpt>
      <trkpt lat="46.6578" lon="6.07842">
        <ele>895.12</ele>
        <time>2013-05-08T17:21:39Z</time>
      </trkpt>
      <trkpt lat="46.6578" lon="6.07845">
        <ele>895.12</ele>
        <time>2013-05-08T17:21:40Z</time>
      </trkpt>
      <trkpt lat="46.6578" lon="6.07849">
        <ele>895.12</ele>
        <time>2013-05-08T17:21:41Z</time>
      </trkpt>
      <trkpt lat="46.65779" lon="6.07854">
        <ele>895.12</ele>
        <time>2013-05-08T17:21:42Z</time>
      </trkpt>
      <trkpt lat="46.65778" lon="6.07859">
        <ele>895.61</ele>
        <time>2013-05-08T17:21:43Z</time>
      </trkpt>
      <trkpt lat="46.65759" lon="6.07914">
        <ele>898.49</ele>
        <time>2013-05-08T17:21:57Z</time>
      </trkpt>
      <trkpt lat="46.65724" lon="6.0791">
        <ele>901.37</ele>
        <time>2013-05-08T17:22:09Z</time>
      </trkpt>
      <trkpt lat="46.65677" lon="6.07908">
        <ele>904.74</ele>
        <time>2013-05-08T17:22:25Z</time>
      </trkpt>
      <trkpt lat="46.65645" lon="6.07932">
        <ele>907.62</ele>
        <time>2013-05-08T17:22:39Z</time>
      </trkpt>
      <trkpt lat="46.65618" lon="6.07945">
        <ele>910.51</ele>
        <time>2013-05-08T17:22:51Z</time>
      </trkpt>
      <trkpt lat="46.65588" lon="6.07926">
        <ele>912.91</ele>
        <time>2013-05-08T17:23:04Z</time>
      </trkpt>
      <trkpt lat="46.65552" lon="6.07896">
        <ele>915.79</ele>
        <time>2013-05-08T17:23:18Z</time>
      </trkpt>
      <trkpt lat="46.65524" lon="6.07856">
        <ele>918.68</ele>
        <time>2013-05-08T17:23:32Z</time>
      </trkpt>
      <trkpt lat="46.65495" lon="6.07818">
        <ele>921.56</ele>
        <time>2013-05-08T17:23:45Z</time>
      </trkpt>
      <trkpt lat="46.65464" lon="6.0778">
        <ele>924.93</ele>
        <time>2013-05-08T17:23:59Z</time>
      </trkpt>
      <trkpt lat="46.65431" lon="6.07735">
        <ele>927.33</ele>
        <time>2013-05-08T17:24:16Z</time>
      </trkpt>
      <trkpt lat="46.65398" lon="6.0769">
        <ele>929.73</ele>
        <time>2013-05-08T17:24:32Z</time>
      </trkpt>
      <trkpt lat="46.65365" lon="6.07645">
        <ele>933.1</ele>
        <time>2013-05-08T17:24:48Z</time>
      </trkpt>
      <trkpt lat="46.65342" lon="6.07613">
        <ele>935.98</ele>
        <time>2013-05-08T17:25:00Z</time>
      </trkpt>
      <trkpt lat="46.65319" lon="6.0758">
        <ele>938.38</ele>
        <time>2013-05-08T17:25:16Z</time>
      </trkpt>
      <trkpt lat="46.65318" lon="6.07578">
        <ele>938.38</ele>
        <time>2013-05-08T17:25:18Z</time>
      </trkpt>
      <trkpt lat="46.65317" lon="6.07576">
        <ele>938.86</ele>
        <time>2013-05-08T17:25:19Z</time>
      </trkpt>
      <trkpt lat="46.65314" lon="6.07573">
        <ele>938.86</ele>
        <time>2013-05-08T17:25:34Z</time>
      </trkpt>
      <trkpt lat="46.65314" lon="6.07573">
        <ele>938.86</ele>
        <time>2013-05-08T17:25:59Z</time>
      </trkpt>
      <trkpt lat="46.65315" lon="6.07573">
        <ele>939.35</ele>
        <time>2013-05-08T17:26:24Z</time>
      </trkpt>
      <trkpt lat="46.65315" lon="6.07573">
        <ele>939.35</ele>
        <time>2013-05-08T17:26:52Z</time>
      </trkpt>
      <trkpt lat="46.65314" lon="6.07573">
        <ele>938.86</ele>
        <time>2013-05-08T17:27:07Z</time>
      </trkpt>
      <trkpt lat="46.65313" lon="6.07571">
        <ele>938.86</ele>
        <time>2013-05-08T17:27:27Z</time>
      </trkpt>
      <trkpt lat="46.6529" lon="6.0754">
        <ele>939.83</ele>
        <time>2013-05-08T17:27:41Z</time>
      </trkpt>
      <trkpt lat="46.65258" lon="6.07498">
        <ele>942.71</ele>
        <time>2013-05-08T17:27:58Z</time>
      </trkpt>
      <trkpt lat="46.65229" lon="6.07453">
        <ele>944.63</ele>
        <time>2013-05-08T17:28:15Z</time>
      </trkpt>
      <trkpt lat="46.65205" lon="6.0741">
        <ele>946.56</ele>
        <time>2013-05-08T17:28:30Z</time>
      </trkpt>
      <trkpt lat="46.65184" lon="6.07359">
        <ele>948.96</ele>
        <time>2013-05-08T17:28:46Z</time>
      </trkpt>
      <trkpt lat="46.65158" lon="6.07315">
        <ele>951.36</ele>
        <time>2013-05-08T17:29:02Z</time>
      </trkpt>
      <trkpt lat="46.65132" lon="6.0729">
        <ele>952.32</ele>
        <time>2013-05-08T17:29:14Z</time>
      </trkpt>
      <trkpt lat="46.65108" lon="6.07316">
        <ele>954.25</ele>
        <time>2013-05-08T17:29:28Z</time>
      </trkpt>
      <trkpt lat="46.65105" lon="6.07361">
        <ele>956.17</ele>
        <time>2013-05-08T17:29:42Z</time>
      </trkpt>
      <trkpt lat="46.651" lon="6.0741">
        <ele>957.61</ele>
        <time>2013-05-08T17:29:56Z</time>
      </trkpt>
      <trkpt lat="46.65094" lon="6.07469">
        <ele>958.57</ele>
        <time>2013-05-08T17:30:13Z</time>
      </trkpt>
      <trkpt lat="46.65088" lon="6.07515">
        <ele>960.01</ele>
        <time>2013-05-08T17:30:27Z</time>
      </trkpt>
      <trkpt lat="46.65077" lon="6.07549">
        <ele>962.42</ele>
        <time>2013-05-08T17:30:40Z</time>
      </trkpt>
      <trkpt lat="46.65078" lon="6.07556">
        <ele>962.42</ele>
        <time>2013-05-08T17:30:43Z</time>
      </trkpt>
      <trkpt lat="46.65077" lon="6.07558">
        <ele>962.9</ele>
        <time>2013-05-08T17:30:44Z</time>
      </trkpt>
      <trkpt lat="46.65076" lon="6.0756">
        <ele>962.9</ele>
        <time>2013-05-08T17:30:45Z</time>
      </trkpt>
      <trkpt lat="46.65075" lon="6.07563">
        <ele>963.38</ele>
        <time>2013-05-08T17:30:46Z</time>
      </trkpt>
      <trkpt lat="46.65075" lon="6.07565">
        <ele>963.38</ele>
        <time>2013-05-08T17:30:47Z</time>
      </trkpt>
      <trkpt lat="46.65074" lon="6.07567">
        <ele>963.86</ele>
        <time>2013-05-08T17:30:48Z</time>
      </trkpt>
      <trkpt lat="46.65074" lon="6.07569">
        <ele>963.86</ele>
        <time>2013-05-08T17:30:49Z</time>
      </trkpt>
      <trkpt lat="46.65073" lon="6.07572">
        <ele>963.86</ele>
        <time>2013-05-08T17:30:50Z</time>
      </trkpt>
      <trkpt lat="46.65073" lon="6.07574">
        <ele>964.34</ele>
        <time>2013-05-08T17:30:51Z</time>
      </trkpt>
      <trkpt lat="46.65065" lon="6.07607">
        <ele>966.74</ele>
        <time>2013-05-08T17:31:05Z</time>
      </trkpt>
      <trkpt lat="46.65064" lon="6.0764">
        <ele>969.15</ele>
        <time>2013-05-08T17:31:19Z</time>
      </trkpt>
      <trkpt lat="46.65064" lon="6.07643">
        <ele>969.15</ele>
        <time>2013-05-08T17:31:21Z</time>
      </trkpt>
      <trkpt lat="46.65065" lon="6.07645">
        <ele>969.15</ele>
        <time>2013-05-08T17:31:22Z</time>
      </trkpt>
      <trkpt lat="46.65065" lon="6.07647">
        <ele>969.63</ele>
        <time>2013-05-08T17:31:23Z</time>
      </trkpt>
      <trkpt lat="46.65065" lon="6.07649">
        <ele>969.63</ele>
        <time>2013-05-08T17:31:24Z</time>
      </trkpt>
      <trkpt lat="46.65066" lon="6.07651">
        <ele>970.11</ele>
        <time>2013-05-08T17:31:25Z</time>
      </trkpt>
      <trkpt lat="46.65066" lon="6.07654">
        <ele>969.63</ele>
        <time>2013-05-08T17:31:26Z</time>
      </trkpt>
      <trkpt lat="46.65066" lon="6.07657">
        <ele>970.11</ele>
        <time>2013-05-08T17:31:27Z</time>
      </trkpt>
      <trkpt lat="46.65066" lon="6.0766">
        <ele>970.11</ele>
        <time>2013-05-08T17:31:28Z</time>
      </trkpt>
      <trkpt lat="46.65066" lon="6.07663">
        <ele>970.11</ele>
        <time>2013-05-08T17:31:29Z</time>
      </trkpt>
      <trkpt lat="46.65066" lon="6.07666">
        <ele>970.59</ele>
        <time>2013-05-08T17:31:30Z</time>
      </trkpt>
      <trkpt lat="46.65066" lon="6.07669">
        <ele>970.59</ele>
        <time>2013-05-08T17:31:31Z</time>
      </trkpt>
      <trkpt lat="46.65066" lon="6.07672">
        <ele>970.59</ele>
        <time>2013-05-08T17:31:32Z</time>
      </trkpt>
      <trkpt lat="46.65066" lon="6.07675">
        <ele>970.59</ele>
        <time>2013-05-08T17:31:33Z</time>
      </trkpt>
      <trkpt lat="46.65066" lon="6.07677">
        <ele>971.07</ele>
        <time>2013-05-08T17:31:34Z</time>
      </trkpt>
      <trkpt lat="46.65066" lon="6.07688">
        <ele>971.55</ele>
        <time>2013-05-08T17:31:38Z</time>
      </trkpt>
      <trkpt lat="46.65071" lon="6.0771">
        <ele>972.99</ele>
        <time>2013-05-08T17:31:46Z</time>
      </trkpt>
      <trkpt lat="46.6507" lon="6.07712">
        <ele>972.99</ele>
        <time>2013-05-08T17:31:47Z</time>
      </trkpt>
      <trkpt lat="46.6507" lon="6.07714">
        <ele>972.99</ele>
        <time>2013-05-08T17:31:48Z</time>
      </trkpt>
      <trkpt lat="46.6507" lon="6.07717">
        <ele>973.47</ele>
        <time>2013-05-08T17:31:49Z</time>
      </trkpt>
      <trkpt lat="46.6507" lon="6.0772">
        <ele>973.47</ele>
        <time>2013-05-08T17:31:50Z</time>
      </trkpt>
      <trkpt lat="46.65071" lon="6.07724">
        <ele>973.47</ele>
        <time>2013-05-08T17:31:51Z</time>
      </trkpt>
      <trkpt lat="46.65072" lon="6.07727">
        <ele>974.91</ele>
        <time>2013-05-08T17:31:52Z</time>
      </trkpt>
      <trkpt lat="46.65073" lon="6.07729">
        <ele>973.95</ele>
        <time>2013-05-08T17:31:53Z</time>
      </trkpt>
      <trkpt lat="46.65075" lon="6.0773">
        <ele>973.95</ele>
        <time>2013-05-08T17:31:54Z</time>
      </trkpt>
      <trkpt lat="46.65076" lon="6.07731">
        <ele>974.43</ele>
        <time>2013-05-08T17:31:55Z</time>
      </trkpt>
      <trkpt lat="46.65077" lon="6.07733">
        <ele>973.95</ele>
        <time>2013-05-08T17:31:56Z</time>
      </trkpt>
      <trkpt lat="46.65077" lon="6.07736">
        <ele>974.43</ele>
        <time>2013-05-08T17:31:57Z</time>
      </trkpt>
      <trkpt lat="46.65077" lon="6.07738">
        <ele>974.43</ele>
        <time>2013-05-08T17:31:58Z</time>
      </trkpt>
      <trkpt lat="46.65076" lon="6.0774">
        <ele>974.43</ele>
        <time>2013-05-08T17:31:59Z</time>
      </trkpt>
      <trkpt lat="46.65076" lon="6.07742">
        <ele>974.91</ele>
        <time>2013-05-08T17:32:00Z</time>
      </trkpt>
      <trkpt lat="46.65077" lon="6.07744">
        <ele>974.91</ele>
        <time>2013-05-08T17:32:01Z</time>
      </trkpt>
      <trkpt lat="46.65077" lon="6.07747">
        <ele>974.91</ele>
        <time>2013-05-08T17:32:02Z</time>
      </trkpt>
      <trkpt lat="46.65078" lon="6.07749">
        <ele>974.91</ele>
        <time>2013-05-08T17:32:03Z</time>
      </trkpt>
      <trkpt lat="46.65079" lon="6.07752">
        <ele>974.91</ele>
        <time>2013-05-08T17:32:04Z</time>
      </trkpt>
      <trkpt lat="46.65081" lon="6.07759">
        <ele>975.88</ele>
        <time>2013-05-08T17:32:07Z</time>
      </trkpt>
      <trkpt lat="46.6508" lon="6.0779">
        <ele>977.32</ele>
        <time>2013-05-08T17:32:20Z</time>
      </trkpt>
      <trkpt lat="46.65064" lon="6.07817">
        <ele>980.2</ele>
        <time>2013-05-08T17:32:33Z</time>
      </trkpt>
      <trkpt lat="46.65044" lon="6.07805">
        <ele>981.64</ele>
        <time>2013-05-08T17:32:45Z</time>
      </trkpt>
      <trkpt lat="46.6504" lon="6.07799">
        <ele>981.64</ele>
        <time>2013-05-08T17:32:48Z</time>
      </trkpt>
      <trkpt lat="46.6504" lon="6.07797">
        <ele>981.64</ele>
        <time>2013-05-08T17:32:49Z</time>
      </trkpt>
      <trkpt lat="46.65027" lon="6.07763">
        <ele>981.64</ele>
        <time>2013-05-08T17:33:00Z</time>
      </trkpt>
      <trkpt lat="46.65016" lon="6.07741">
        <ele>982.6</ele>
        <time>2013-05-08T17:33:08Z</time>
      </trkpt>
      <trkpt lat="46.65015" lon="6.07739">
        <ele>982.6</ele>
        <time>2013-05-08T17:33:09Z</time>
      </trkpt>
      <trkpt lat="46.65014" lon="6.07737">
        <ele>982.6</ele>
        <time>2013-05-08T17:33:10Z</time>
      </trkpt>
      <trkpt lat="46.65012" lon="6.07735">
        <ele>982.6</ele>
        <time>2013-05-08T17:33:11Z</time>
      </trkpt>
      <trkpt lat="46.65011" lon="6.07732">
        <ele>982.6</ele>
        <time>2013-05-08T17:33:12Z</time>
      </trkpt>
      <trkpt lat="46.6501" lon="6.07729">
        <ele>982.6</ele>
        <time>2013-05-08T17:33:13Z</time>
      </trkpt>
      <trkpt lat="46.65008" lon="6.07726">
        <ele>982.6</ele>
        <time>2013-05-08T17:33:14Z</time>
      </trkpt>
      <trkpt lat="46.65006" lon="6.07724">
        <ele>983.09</ele>
        <time>2013-05-08T17:33:15Z</time>
      </trkpt>
      <trkpt lat="46.65005" lon="6.07721">
        <ele>983.09</ele>
        <time>2013-05-08T17:33:16Z</time>
      </trkpt>
      <trkpt lat="46.65004" lon="6.07719">
        <ele>983.09</ele>
        <time>2013-05-08T17:33:17Z</time>
      </trkpt>
      <trkpt lat="46.65002" lon="6.07716">
        <ele>983.57</ele>
        <time>2013-05-08T17:33:18Z</time>
      </trkpt>
      <trkpt lat="46.64979" lon="6.07688">
        <ele>985.01</ele>
        <time>2013-05-08T17:33:31Z</time>
      </trkpt>
      <trkpt lat="46.64976" lon="6.07684">
        <ele>985.01</ele>
        <time>2013-05-08T17:33:33Z</time>
      </trkpt>
      <trkpt lat="46.64974" lon="6.07683">
        <ele>985.49</ele>
        <time>2013-05-08T17:33:34Z</time>
      </trkpt>
      <trkpt lat="46.64971" lon="6.07682">
        <ele>985.49</ele>
        <time>2013-05-08T17:33:35Z</time>
      </trkpt>
      <trkpt lat="46.64969" lon="6.07681">
        <ele>985.49</ele>
        <time>2013-05-08T17:33:36Z</time>
      </trkpt>
      <trkpt lat="46.64966" lon="6.0768">
        <ele>985.97</ele>
        <time>2013-05-08T17:33:37Z</time>
      </trkpt>
      <trkpt lat="46.64964" lon="6.07679">
        <ele>985.97</ele>
        <time>2013-05-08T17:33:38Z</time>
      </trkpt>
      <trkpt lat="46.64951" lon="6.07673">
        <ele>986.93</ele>
        <time>2013-05-08T17:33:44Z</time>
      </trkpt>
      <trkpt lat="46.6492" lon="6.07661">
        <ele>988.85</ele>
        <time>2013-05-08T17:33:57Z</time>
      </trkpt>
      <trkpt lat="46.64892" lon="6.07634">
        <ele>990.78</ele>
        <time>2013-05-08T17:34:11Z</time>
      </trkpt>
      <trkpt lat="46.64876" lon="6.07595">
        <ele>992.7</ele>
        <time>2013-05-08T17:34:24Z</time>
      </trkpt>
      <trkpt lat="46.64857" lon="6.07549">
        <ele>993.18</ele>
        <time>2013-05-08T17:34:40Z</time>
      </trkpt>
      <trkpt lat="46.64852" lon="6.07534">
        <ele>993.66</ele>
        <time>2013-05-08T17:34:45Z</time>
      </trkpt>
      <trkpt lat="46.64852" lon="6.07531">
        <ele>993.66</ele>
        <time>2013-05-08T17:34:46Z</time>
      </trkpt>
      <trkpt lat="46.64853" lon="6.07529">
        <ele>993.66</ele>
        <time>2013-05-08T17:34:47Z</time>
      </trkpt>
      <trkpt lat="46.64854" lon="6.07527">
        <ele>993.66</ele>
        <time>2013-05-08T17:34:48Z</time>
      </trkpt>
      <trkpt lat="46.64855" lon="6.07525">
        <ele>993.66</ele>
        <time>2013-05-08T17:34:49Z</time>
      </trkpt>
      <trkpt lat="46.64857" lon="6.07523">
        <ele>993.66</ele>
        <time>2013-05-08T17:34:50Z</time>
      </trkpt>
      <trkpt lat="46.64869" lon="6.07507">
        <ele>992.22</ele>
        <time>2013-05-08T17:34:56Z</time>
      </trkpt>
      <trkpt lat="46.6487" lon="6.07502">
        <ele>992.22</ele>
        <time>2013-05-08T17:34:57Z</time>
      </trkpt>
      <trkpt lat="46.6487" lon="6.07497">
        <ele>992.22</ele>
        <time>2013-05-08T17:34:58Z</time>
      </trkpt>
      <trkpt lat="46.64869" lon="6.07492">
        <ele>992.22</ele>
        <time>2013-05-08T17:34:59Z</time>
      </trkpt>
      <trkpt lat="46.64867" lon="6.07488">
        <ele>991.74</ele>
        <time>2013-05-08T17:35:00Z</time>
      </trkpt>
      <trkpt lat="46.64857" lon="6.07444">
        <ele>992.22</ele>
        <time>2013-05-08T17:35:12Z</time>
      </trkpt>
      <trkpt lat="46.64856" lon="6.07441">
        <ele>992.22</ele>
        <time>2013-05-08T17:35:25Z</time>
      </trkpt>
      <trkpt lat="46.64856" lon="6.07441">
        <ele>992.7</ele>
        <time>2013-05-08T17:35:56Z</time>
      </trkpt>
      <trkpt lat="46.64856" lon="6.07441">
        <ele>992.7</ele>
        <time>2013-05-08T17:36:19Z</time>
      </trkpt>
      <trkpt lat="46.64856" lon="6.07441">
        <ele>992.22</ele>
        <time>2013-05-08T17:36:45Z</time>
      </trkpt>
      <trkpt lat="46.64856" lon="6.07441">
        <ele>990.78</ele>
        <time>2013-05-08T17:37:10Z</time>
      </trkpt>
      <trkpt lat="46.64828" lon="6.07448">
        <ele>988.85</ele>
        <time>2013-05-08T19:21:12Z</time>
      </trkpt>
      <trkpt lat="46.64829" lon="6.07448">
        <ele>988.85</ele>
        <time>2013-05-08T19:21:13Z</time>
      </trkpt>
      <trkpt lat="46.64829" lon="6.0745">
        <ele>988.85</ele>
        <time>2013-05-08T19:21:17Z</time>
      </trkpt>
      <trkpt lat="46.64827" lon="6.0745">
        <ele>989.33</ele>
        <time>2013-05-08T19:21:19Z</time>
      </trkpt>
      <trkpt lat="46.64839" lon="6.07445">
        <ele>988.85</ele>
        <time>2013-05-08T19:21:41Z</time>
      </trkpt>
      <trkpt lat="46.64839" lon="6.07447">
        <ele>988.85</ele>
        <time>2013-05-08T19:22:13Z</time>
      </trkpt>
      <trkpt lat="46.64838" lon="6.07444">
        <ele>992.22</ele>
        <time>2013-05-08T19:22:27Z</time>
      </trkpt>
      <trkpt lat="46.64837" lon="6.07436">
        <ele>995.1</ele>
        <time>2013-05-08T19:22:41Z</time>
      </trkpt>
      <trkpt lat="46.64838" lon="6.07433">
        <ele>998.47</ele>
        <time>2013-05-08T19:22:54Z</time>
      </trkpt>
      <trkpt lat="46.64838" lon="6.07433">
        <ele>1001.83</ele>
        <time>2013-05-08T19:23:11Z</time>
      </trkpt>
      <trkpt lat="46.64838" lon="6.07434">
        <ele>1003.27</ele>
        <time>2013-05-08T19:23:40Z</time>
      </trkpt>
      <trkpt lat="46.64838" lon="6.07434">
        <ele>1003.27</ele>
        <time>2013-05-08T19:24:16Z</time>
      </trkpt>
      <trkpt lat="46.64838" lon="6.07434">
        <ele>1003.75</ele>
        <time>2013-05-08T19:24:49Z</time>
      </trkpt>
      <trkpt lat="46.64838" lon="6.07434">
        <ele>1003.75</ele>
        <time>2013-05-08T19:25:18Z</time>
      </trkpt>
      <trkpt lat="46.64838" lon="6.07435">
        <ele>1003.27</ele>
        <time>2013-05-08T19:25:42Z</time>
      </trkpt>
      <trkpt lat="46.64838" lon="6.07434">
        <ele>1003.27</ele>
        <time>2013-05-08T19:26:03Z</time>
      </trkpt>
      <trkpt lat="46.64838" lon="6.07434">
        <ele>1003.75</ele>
        <time>2013-05-08T19:26:13Z</time>
      </trkpt>
      <trkpt lat="46.64849" lon="6.07446">
        <ele>1002.31</ele>
        <time>2013-05-08T19:36:12Z</time>
      </trkpt>
      <trkpt lat="46.64846" lon="6.07445">
        <ele>1002.31</ele>
        <time>2013-05-08T19:36:43Z</time>
      </trkpt>
      <trkpt lat="46.64848" lon="6.07452">
        <ele>1002.79</ele>
        <time>2013-05-08T19:37:05Z</time>
      </trkpt>
      <trkpt lat="46.6485" lon="6.07454">
        <ele>1002.79</ele>
        <time>2013-05-08T19:37:24Z</time>
      </trkpt>
      <trkpt lat="46.64845" lon="6.07464">
        <ele>1002.31</ele>
        <time>2013-05-08T19:37:46Z</time>
      </trkpt>
      <trkpt lat="46.64846" lon="6.07451">
        <ele>1001.35</ele>
        <time>2013-05-08T19:37:58Z</time>
      </trkpt>
    </trkseg>
  </trk>
</gpx>